# Wetter Temperatur Luftdruck Luftfeuchtigkeit Sichtweite Windgeschwindigkeit Windrichtung Zeit
1 Clouds 20 1015 52 10000 10.8 210 21:18 02.04.2020
2 Clouds 20 1014 52 10000 12.9 220 20:45 02.04.2020
3 Clouds 21 1015 52 10000 10.8 210 20:25 02.04.2020
4 Clouds 21 1015 60 10000 11.8 220 19:57 02.04.2020
5 Clouds 21 1015 60 10000 11.8 220 19:39 02.04.2020
6 Clouds 21 1015 60 10000 11.8 220 19:20 02.04.2020
7 Clouds 21 1014 46 10000 12.3 220 18:55 02.04.2020
8 Clouds 20 1015 64 10000 10.3 220 18:36 02.04.2020
9 Clouds 21 1015 64 10000 10.3 220 18:18 02.04.2020
10 Clouds 21 1015 64 10000 10.3 220 18:18 02.04.2020
11 Clouds 19 1015 72 10000 11.3 220 17:42 02.04.2020
12 Clouds 19 1015 72 10000 11.3 220 17:24 02.04.2020
13 Clouds 19 1014 77 10000 11.3 220 16:58 02.04.2020
14 Clouds 18 1014 77 10000 11.3 220 16:40 02.04.2020
15 Clouds 18 1014 77 10000 11.3 220 16:21 02.04.2020
16 Clouds 18 1014 77 10000 8.7 210 15:57 02.04.2020
17 Clouds 18 1013 68 10000 11.3 220 15:39 02.04.2020
18 Clouds 18 1014 77 10000 8.7 210 15:18 02.04.2020
19 Clouds 17 1014 77 10000 10.3 220 14:57 02.04.2020
20 Clouds 17 1014 77 10000 10.3 220 14:38 02.04.2020
21 Clouds 17 1014 77 10000 10.3 220 14:18 02.04.2020
22 Clouds 17 1014 77 10000 10.3 220 14:18 02.04.2020
23 Clouds 17 1014 82 10000 8.7 210 13:54 02.04.2020
24 Clouds 17 1014 82 10000 8.7 210 13:54 02.04.2020
25 Clouds 17 1014 82 10000 8.7 210 13:36 02.04.2020
26 Clouds 17 1014 82 10000 8.7 210 13:18 02.04.2020
27 Clouds 17 1013 82 10000 7.7 210 12:44 02.04.2020
28 Clouds 17 1013 82 10000 7.7 210 12:19 02.04.2020
29 Rain 17 1011 82 10000 10.3 220 11:57 02.04.2020
30 Rain 17 1011 82 10000 10.3 220 11:39 02.04.2020
31 Rain 17 1011 82 10000 10.3 220 11:20 02.04.2020
32 Rain 17 1011 82 10000 10.3 220 11:20 02.04.2020
33 Clouds 18 1011 77 10000 10.3 230 10:56 02.04.2020
34 Clouds 18 1011 77 10000 10.3 230 10:38 02.04.2020
35 Clouds 18 1011 77 10000 10.3 230 10:38 02.04.2020
36 Clouds 18 1011 77 10000 10.3 230 10:20 02.04.2020
37 Clouds 18 1011 77 10000 10.3 230 10:20 02.04.2020
38 Clouds 18 1010 82 10000 10.3 240 09:58 02.04.2020
39 Clouds 18 1010 82 10000 10.3 240 09:58 02.04.2020
40 Clouds 18 1010 82 10000 10.3 240 09:40 02.04.2020
41 Clouds 18 1010 82 10000 10.3 240 09:20 02.04.2020
42 Clouds 19 1010 82 10000 8.2 260 08:47 02.04.2020
43 Clouds 19 1010 82 10000 8.2 260 08:28 02.04.2020
44 Rain 19 1010 94 10000 7.2 260 07:54 02.04.2020
45 Rain 20 1010 94 10000 7.2 260 07:36 02.04.2020
46 Rain 21 1010 94 10000 7.2 260 07:18 02.04.2020
47 Rain 21 1010 94 8000 3.6 270 06:23 02.04.2020
48 Clouds 21 1010 94 8000 6.7 280 05:46 02.04.2020
49 Clouds 21 1010 94 8000 6.7 280 05:46 02.04.2020
50 Rain 22 1010 94 5000 7.2 260 04:50 02.04.2020
51 Rain 21 1011 88 10000 2.25 233 02:19 02.04.2020
52 Clouds 22 1011 88 10000 1.5 30 00:58 02.04.2020
53 Clouds 22 1011 88 10000 1.5 30 00:38 02.04.2020
54 Clouds 22 1011 88 10000 1.5 30 00:19 02.04.2020
55 Clouds 23 1010 83 10000 2.1 60 23:38 01.04.2020
56 Clouds 23 1010 83 10000 2.1 60 23:19 01.04.2020
57 Clouds 23 1011 83 10000 3.6 30 22:56 01.04.2020
58 Clouds 23 1011 83 10000 3.6 30 22:37 01.04.2020
59 Clouds 23 1011 83 10000 3.6 30 22:19 01.04.2020
60 Clouds 23 1011 83 10000 6.2 60 21:39 01.04.2020
61 Clouds 23 1011 83 10000 6.2 60 21:19 01.04.2020
62 Clouds 23 1012 83 10000 6.2 90 20:56 01.04.2020
63 Clouds 23 1012 83 10000 6.2 90 20:38 01.04.2020
64 Clouds 23 1012 83 10000 6.2 90 20:19 01.04.2020
65 Clouds 22 1012 83 10000 7.2 70 19:57 01.04.2020
66 Clouds 22 1012 83 10000 7.2 70 19:57 01.04.2020
67 Clouds 22 1012 83 10000 7.2 70 19:38 01.04.2020
68 Clouds 21 1012 83 10000 7.2 70 19:19 01.04.2020
69 Clouds 20 1013 93 5000 5.1 60 18:42 01.04.2020
70 Clouds 20 1013 93 5000 5.1 60 18:23 01.04.2020
71 Rain 19 1015 93 600 5.1 90 17:57 01.04.2020
72 Rain 19 1015 93 600 5.1 90 17:38 01.04.2020
73 Rain 19 1015 93 600 5.1 90 17:19 01.04.2020
74 Rain 19 1015 93 2000 5.1 90 16:58 01.04.2020
75 Rain 19 1015 93 2000 5.1 90 16:39 01.04.2020
76 Rain 19 1015 93 2000 5.1 90 16:20 01.04.2020
77 Rain 19 1016 93 1000 4.1 120 15:56 01.04.2020
78 Rain 19 1016 93 1000 4.1 120 15:37 01.04.2020
79 Rain 19 1016 93 1000 4.1 120 15:18 01.04.2020
80 Rain 18 1017 93 3000 2.6 180 14:40 01.04.2020
81 Rain 19 1015 88 10000 5.1 80 14:22 01.04.2020
82 Rain 19 1015 82 10000 5.1 60 13:59 01.04.2020
83 Rain 19 1015 82 10000 5.1 60 13:40 01.04.2020
84 Rain 19 1015 82 10000 5.1 60 13:20 01.04.2020
85 Rain 18 1015 88 10000 5.1 60 12:59 01.04.2020
86 Rain 18 1015 88 10000 5.1 60 12:41 01.04.2020
87 Rain 18 1015 88 10000 5.1 60 12:22 01.04.2020
88 Rain 20 1015 77 10000 3.6 70 11:57 01.04.2020
89 Rain 20 1015 77 10000 3.6 70 11:37 01.04.2020
90 Rain 20 1015 77 10000 3.6 70 11:19 01.04.2020
91 Rain 20 1016 77 10000 3.1 70 10:40 01.04.2020
92 Rain 20 1016 77 10000 3.1 70 10:21 01.04.2020
93 Rain 20 1016 82 10000 3.6 70 09:59 01.04.2020
94 Rain 20 1016 82 10000 3.6 70 09:40 01.04.2020
95 Rain 20 1016 82 10000 3.6 70 09:20 01.04.2020
96 Clouds 19 1016 77 10000 5.1 70 08:56 01.04.2020
97 Clouds 19 1016 77 10000 5.1 70 08:37 01.04.2020
98 Clouds 19 1016 77 10000 5.1 70 08:18 01.04.2020
99 Clouds 19 1017 77 10000 4.6 80 07:41 01.04.2020
100 Clouds 19 1017 77 10000 4.6 80 07:19 01.04.2020
101 Clouds 19 1017 77 10000 4.6 80 07:19 01.04.2020
102 Clouds 18 1017 77 10000 4.6 80 06:47 01.04.2020
103 Clouds 20 1017 77 10000 4.6 80 06:21 01.04.2020
104 Clouds 20 1018 77 10000 5.7 90 05:50 01.04.2020
105 Clouds 20 1018 82 10000 5.7 90 04:29 01.04.2020
106 -273 0 0 0 0 0 03:20 01.04.2020
107 Clouds 20 1019 72 10000 5.7 90 02:41 01.04.2020
108 Clouds 20 1018 72 10000 7.7 100 01:53 01.04.2020
109 Clouds 20 1018 72 10000 7.7 100 01:27 01.04.2020
110 Clouds 20 1018 88 10000 5.7 120 00:47 01.04.2020
111 Clouds 20 1018 88 10000 5.7 120 00:24 01.04.2020
112 Clouds 21 1018 83 10000 6.7 120 23:59 31.03.2020
113 Clouds 21 1018 83 10000 6.7 120 23:41 31.03.2020
114 Clouds 21 1018 83 10000 6.7 120 23:22 31.03.2020
115 Clouds 22 1018 78 10000 7.7 100 22:41 31.03.2020
116 Clouds 22 1018 78 10000 7.7 100 22:22 31.03.2020
117 Clouds 22 1018 78 10000 7.7 100 21:58 31.03.2020
118 Clouds 22 1018 73 10000 6.7 100 21:40 31.03.2020
119 Clouds 22 1018 73 10000 6.7 100 21:21 31.03.2020
120 Clouds 22 1018 83 10000 8.2 120 20:58 31.03.2020
121 Clouds 22 1018 83 10000 8.2 120 20:58 31.03.2020
122 Clouds 22 1018 83 10000 8.2 120 20:37 31.03.2020
123 Clouds 22 1018 83 10000 8.2 120 20:19 31.03.2020
124 Clouds 22 1020 83 10000 4.1 90 19:57 31.03.2020
125 Clouds 22 1020 83 10000 4.1 90 19:39 31.03.2020
126 Clouds 22 1020 83 10000 4.1 90 19:21 31.03.2020
127 Clouds 22 1020 83 10000 4.1 90 18:46 31.03.2020
128 Clouds 21 1020 88 10000 4.1 90 18:21 31.03.2020
129 Clouds 21 1020 88 10000 4.1 90 17:58 31.03.2020
130 Clouds 21 1020 88 10000 4.1 90 17:40 31.03.2020
131 Clouds 21 1020 88 10000 4.1 90 17:21 31.03.2020
132 Clouds 21 1020 88 10000 4.1 90 17:21 31.03.2020
133 Clouds 21 1020 94 10000 4.1 120 16:57 31.03.2020
134 Clouds 21 1020 94 10000 4.1 120 16:37 31.03.2020
135 Clouds 21 1020 94 10000 4.1 120 16:18 31.03.2020
136 Clouds 20 1020 94 8000 4.6 120 15:56 31.03.2020
137 Clouds 20 1020 94 8000 4.6 120 15:56 31.03.2020
138 Clouds 20 1020 94 8000 4.6 120 15:37 31.03.2020
139 Clouds 20 1020 94 8000 4.6 120 15:37 31.03.2020
140 Clouds 20 1020 94 8000 4.6 120 15:18 31.03.2020
141 Clouds 19 1020 93 8000 3.1 100 14:56 31.03.2020
142 Clouds 19 1020 93 8000 3.1 100 14:37 31.03.2020
143 Clouds 19 1020 93 8000 3.1 100 14:18 31.03.2020
144 Rain 19 1020 93 8000 3.1 150 13:41 31.03.2020
145 Rain 19 1020 93 8000 3.1 150 13:19 31.03.2020
146 Clouds 18 1020 93 8000 6.7 120 12:54 31.03.2020
147 Clouds 18 1020 93 8000 6.7 120 12:36 31.03.2020
148 Clouds 18 1020 93 8000 6.7 120 12:18 31.03.2020
149 Clouds 21 1018 82 10000 8.2 140 11:38 31.03.2020
150 Clouds 21 1018 82 10000 8.2 140 11:19 31.03.2020
151 Clouds 22 1018 78 10000 7.2 120 10:56 31.03.2020
152 Clouds 22 1018 78 10000 7.2 120 10:38 31.03.2020
153 Clouds 22 1018 78 10000 7.2 120 10:20 31.03.2020
154 Clouds 22 1017 78 10000 7.2 110 09:55 31.03.2020
155 Clouds 22 1017 78 10000 7.2 110 09:37 31.03.2020
156 Clouds 22 1017 78 10000 7.2 110 09:19 31.03.2020
157 Clouds 22 1017 83 10000 6.7 120 08:54 31.03.2020
158 Clouds 22 1017 83 10000 6.7 120 08:36 31.03.2020
159 Clouds 22 1017 83 10000 6.7 120 08:18 31.03.2020
160 Clouds 22 1017 78 10000 8.2 120 07:43 31.03.2020
161 Clouds 22 1017 78 10000 8.2 120 07:23 31.03.2020
162 Clouds 22 1018 83 10000 7.2 130 06:58 31.03.2020
163 Clouds 22 1018 83 10000 7.2 130 06:39 31.03.2020
164 Clouds 22 1018 83 10000 6.7 130 05:44 31.03.2020
165 Clouds 22 1018 83 10000 6.7 130 05:24 31.03.2020
166 Clouds 22 1017 88 10000 6.2 120 02:56 31.03.2020
167 Clouds 22 1017 88 10000 6.7 130 01:47 31.03.2020
168 Clouds 22 1017 88 10000 6.7 130 01:22 31.03.2020
169 Clouds 23 1016 94 10000 5.1 120 00:43 31.03.2020
170 Clouds 23 1016 94 10000 5.1 120 00:23 31.03.2020
171 -273 0 0 0 0 0 23:40 30.03.2020
172 Clouds 23 1016 78 10000 5.1 140 23:20 30.03.2020
173 Clouds 24 1016 78 10000 5.1 120 22:58 30.03.2020
174 Clouds 24 1016 78 10000 5.1 120 22:38 30.03.2020
175 Clouds 24 1016 78 10000 5.1 120 22:19 30.03.2020
176 Clouds 24 1016 69 10000 5.1 150 21:57 30.03.2020
177 Clouds 25 1016 69 10000 5.1 150 21:38 30.03.2020
178 Clouds 25 1016 69 10000 5.1 150 21:20 30.03.2020
179 Clouds 25 1016 69 10000 5.1 150 21:20 30.03.2020
180 Clouds 25 1016 69 10000 5.1 150 21:20 30.03.2020
181 Clouds 26 1016 65 10000 5.1 140 20:58 30.03.2020
182 Clouds 26 1016 65 10000 5.1 140 20:39 30.03.2020
183 Clouds 26 1016 65 10000 5.1 140 20:19 30.03.2020
184 Clouds 26 1017 69 10000 5.1 170 19:56 30.03.2020
185 Clouds 26 1017 69 10000 5.1 170 19:37 30.03.2020
186 Clouds 26 1017 69 10000 5.1 170 19:19 30.03.2020
187 Clouds 26 1017 74 10000 4.1 150 18:42 30.03.2020
188 Clouds 26 1017 74 10000 4.1 150 18:24 30.03.2020
189 Clouds 25 1018 78 10000 2.6 140 17:58 30.03.2020
190 Clouds 26 1018 78 10000 2.6 140 17:39 30.03.2020
191 Clouds 26 1018 78 10000 2.6 140 17:19 30.03.2020
192 Clouds 25 1018 78 10000 3.1 120 16:57 30.03.2020
193 Clouds 26 1018 78 10000 3.1 120 16:39 30.03.2020
194 Clouds 25 1018 78 10000 3.1 120 16:20 30.03.2020
195 Clouds 25 1018 78 10000 3.1 120 16:20 30.03.2020
196 Clouds 24 1018 88 8000 3.1 130 15:55 30.03.2020
197 Clouds 24 1018 88 8000 3.1 130 15:37 30.03.2020
198 Clouds 24 1018 88 8000 3.1 130 15:19 30.03.2020
199 Clouds 24 1018 88 8000 3.1 130 15:19 30.03.2020
200 Mist 23 1018 100 1500 1.5 100 14:55 30.03.2020
201 Mist 23 1018 100 1500 1.5 100 14:37 30.03.2020
202 Mist 23 1018 100 1500 1.5 100 14:18 30.03.2020
203 Fog 21 1018 100 200 3.21 164 13:55 30.03.2020
204 Mist 22 1018 94 3000 1.5 100 13:37 30.03.2020
205 Fog 21 1018 100 200 3.21 164 13:18 30.03.2020
206 Fog 20 1017 100 200 1.5 120 12:43 30.03.2020
207 Fog 20 1017 100 200 1.5 120 12:20 30.03.2020
208 Mist 23 1017 88 2500 1 0 11:57 30.03.2020
209 Mist 23 1017 88 2500 1 0 11:39 30.03.2020
210 Mist 23 1017 88 2500 1 0 11:21 30.03.2020
211 Mist 22 1017 94 2000 2.99 160 10:41 30.03.2020
212 Mist 22 1017 94 2000 2.99 160 10:23 30.03.2020
213 Fog 22 1017 94 600 2.99 160 09:59 30.03.2020
214 Fog 22 1017 94 600 2.99 160 09:40 30.03.2020
215 Fog 22 1017 94 600 2.25 158 09:19 30.03.2020
216 Fog 22 1017 94 600 2.25 158 08:47 30.03.2020
217 Mist 22 1017 94 4000 2.25 158 08:28 30.03.2020
218 Mist 22 1017 94 4000 2.25 158 08:28 30.03.2020
219 Mist 22 1017 94 3000 1 0 07:58 30.03.2020
220 Fog 22 1017 94 900 2.1 210 07:39 30.03.2020
221 Fog 22 1017 94 900 2.1 210 07:18 30.03.2020
222 Fog 22 1017 94 400 2.25 158 06:39 30.03.2020
223 Fog 22 1017 94 400 0.97 83 06:19 30.03.2020
224 Mist 22 1017 94 1200 0.97 83 05:39 30.03.2020
225 Mist 22 1017 94 2000 0.97 83 04:28 30.03.2020
226 Mist 22 1017 94 1200 0.97 83 03:52 30.03.2020
227 Mist 23 1017 88 5000 1.97 110 02:44 30.03.2020
228 Clear 23 1016 78 10000 1 0 01:54 30.03.2020
229 Clear 23 1016 78 10000 1.5 160 00:57 30.03.2020
230 Clear 24 1016 78 10000 1.5 160 00:26 30.03.2020
231 Clear 25 1015 69 10000 3.1 160 23:55 29.03.2020
232 Clear 25 1015 69 10000 3.1 160 23:36 29.03.2020
233 Clear 25 1015 69 10000 3.1 160 23:18 29.03.2020
234 Clouds 26 1015 61 10000 3.6 160 22:40 29.03.2020
235 Clouds 27 1015 61 10000 3.6 160 22:20 29.03.2020
236 Clouds 27 1015 65 10000 4.1 190 21:59 29.03.2020
237 Clouds 27 1015 65 10000 4.1 190 21:37 29.03.2020
238 Clouds 27 1015 65 10000 4.1 190 21:19 29.03.2020
239 Clouds 28 1015 58 10000 4.1 200 20:55 29.03.2020
240 Clouds 28 1015 58 10000 4.1 200 20:37 29.03.2020
241 Clouds 28 1015 58 10000 4.1 200 20:18 29.03.2020
242 Clouds 28 1015 58 10000 4.1 200 20:18 29.03.2020
243 Clouds 27 1016 61 10000 4.1 220 19:55 29.03.2020
244 Clouds 27 1016 61 10000 4.1 220 19:37 29.03.2020
245 Clouds 27 1016 61 10000 4.1 220 19:19 29.03.2020
246 Clouds 27 1016 61 10000 4.1 220 18:55 29.03.2020
247 Clouds 27 1016 61 10000 2.6 260 18:37 29.03.2020
248 Clear 25 1016 73 10000 2.1 290 18:18 29.03.2020
249 Clear 25 1016 73 10000 2.1 290 17:54 29.03.2020
250 Clear 25 1016 73 10000 2.1 290 17:36 29.03.2020
251 Clear 25 1016 73 10000 2.1 290 17:18 29.03.2020
252 Clouds 24 1016 78 10000 3.1 280 16:55 29.03.2020
253 Clouds 24 1016 78 10000 3.1 280 16:36 29.03.2020
254 Clouds 24 1016 78 10000 3.1 280 16:36 29.03.2020
255 Clouds 24 1016 78 10000 3.1 280 16:18 29.03.2020
256 Clear 24 1016 78 10000 5.1 10 15:40 29.03.2020
257 Clear 24 1016 78 10000 5.1 10 15:21 29.03.2020
258 Clouds 23 1015 83 10000 2.6 360 14:57 29.03.2020
259 Clouds 23 1015 83 10000 2.6 360 14:38 29.03.2020
260 Clouds 22 1015 83 10000 2.6 360 14:19 29.03.2020
261 Clouds 21 1015 94 10000 1.5 20 13:56 29.03.2020
262 Clouds 21 1015 94 10000 1.5 20 13:37 29.03.2020
263 Clouds 21 1015 88 10000 1 50 13:19 29.03.2020
264 Clouds 21 1015 88 10000 1 50 12:55 29.03.2020
265 Clouds 20 1014 100 10000 1.5 30 12:37 29.03.2020
266 Rain 21 1014 94 10000 3.78 0 12:18 29.03.2020
267 Rain 20 1014 100 10000 1.5 30 12:18 29.03.2020
268 Rain 21 1014 94 10000 3.78 0 11:39 29.03.2020
269 Rain 21 1014 94 10000 3.78 0 11:21 29.03.2020
270 Rain 21 1013 94 10000 3.78 0 10:59 29.03.2020
271 Rain 21 1013 94 10000 3.78 0 10:37 29.03.2020
272 Rain 21 1013 94 10000 3.78 0 10:18 29.03.2020
273 Rain 21 1013 83 10000 1.5 30 09:40 29.03.2020
274 Rain 21 1013 83 10000 1.5 30 09:19 29.03.2020
275 Rain 21 1013 83 10000 2.1 30 08:53 29.03.2020
276 Rain 21 1013 83 10000 2.1 30 08:28 29.03.2020
277 Rain 22 1019 72 0 1.79 152 07:58 29.03.2020
278 Rain 22 1019 72 0 1.79 152 07:58 29.03.2020
279 Rain 22 1019 72 0 1.79 152 07:58 29.03.2020
280 Rain 22 1019 72 0 1.79 152 07:39 29.03.2020
281 Rain 21 1013 88 10000 4.92 0 07:20 29.03.2020
282 Clouds 21 1014 83 10000 4.1 100 04:59 29.03.2020
283 Clouds 21 1014 83 10000 4.1 100 04:59 29.03.2020
284 Clouds 22 1014 83 10000 7.2 330 03:55 29.03.2020
285 Clouds 22 1014 83 10000 7.2 330 03:26 29.03.2020
286 Thunderstorm 22 1014 83 10000 7.7 360 01:51 29.03.2020
287 Thunderstorm 22 1014 83 10000 7.7 360 01:23 29.03.2020
288 Thunderstorm 23 1012 83 10000 4.1 80 00:55 29.03.2020
289 Thunderstorm 23 1012 83 10000 4.1 80 00:31 29.03.2020
290 Clouds 22 1011 88 10000 3.1 90 23:43 28.03.2020
291 Clouds 22 1011 88 10000 3.1 90 23:43 28.03.2020
292 Thunderstorm 22 1011 83 10000 4.6 80 23:24 28.03.2020
293 Rain 22 1011 88 10000 3.6 90 22:59 28.03.2020
294 Rain 22 1011 88 10000 3.6 90 22:38 28.03.2020
295 Rain 22 1011 88 10000 3.6 90 22:20 28.03.2020
296 Thunderstorm 25 1011 51 2000 7.7 120 21:54 28.03.2020
297 Thunderstorm 25 1011 51 2000 7.7 120 21:36 28.03.2020
298 Thunderstorm 25 1011 51 2000 7.7 120 21:18 28.03.2020
299 Clouds 27 1011 61 10000 5.1 170 20:41 28.03.2020
300 Clouds 27 1011 61 10000 5.1 170 20:23 28.03.2020
301 Clouds 27 1012 65 10000 4.6 180 19:57 28.03.2020
302 Clouds 28 1012 65 10000 4.6 180 19:39 28.03.2020
303 Clouds 28 1012 65 10000 4.6 180 19:20 28.03.2020
304 Clouds 29 1012 48 10000 3.8 97 18:58 28.03.2020
305 Clouds 29 1012 48 10000 3.8 97 18:38 28.03.2020
306 Clouds 28 1012 57 10000 5.1 140 18:19 28.03.2020
307 Clouds 28 1012 57 10000 5.1 140 18:19 28.03.2020
308 Clouds 29 1013 54 10000 2.1 10 17:39 28.03.2020
309 Clouds 29 1013 54 10000 2.1 10 17:20 28.03.2020
310 Clouds 28 1013 58 10000 4.1 30 16:43 28.03.2020
311 Clouds 28 1013 58 10000 4.1 30 16:20 28.03.2020
312 Clouds 28 1013 58 10000 4.1 30 16:20 28.03.2020
313 Clouds 26 1014 65 10000 4.1 80 15:59 28.03.2020
314 Clouds 26 1014 65 10000 4.1 80 15:39 28.03.2020
315 Clouds 26 1014 65 10000 4.1 80 15:19 28.03.2020
316 Clouds 24 1014 73 10000 5.1 80 14:55 28.03.2020
317 Clouds 24 1014 73 10000 5.1 80 14:37 28.03.2020
318 Clouds 24 1014 73 10000 5.1 80 14:18 28.03.2020
319 Clouds 23 1014 78 10000 5.1 60 13:40 28.03.2020
320 Clouds 23 1014 78 10000 5.1 60 13:21 28.03.2020
321 Clouds 22 1014 94 10000 5.7 60 12:40 28.03.2020
322 Clouds 21 1014 94 10000 5.7 60 12:22 28.03.2020
323 Clouds 21 1013 94 10000 5.1 60 11:43 28.03.2020
324 Clouds 21 1013 94 10000 5.1 60 11:23 28.03.2020
325 Clouds 21 1013 88 10000 2.6 80 10:58 28.03.2020
326 Clouds 21 1013 88 10000 2.6 80 10:38 28.03.2020
327 Clouds 21 1013 88 10000 2.6 80 10:18 28.03.2020
328 Clouds 21 1013 88 10000 2.1 110 09:42 28.03.2020
329 Clouds 21 1013 88 10000 2.1 110 09:23 28.03.2020
330 Clouds 21 1013 88 10000 2.6 100 08:55 28.03.2020
331 Clouds 21 1013 88 10000 2.6 100 08:37 28.03.2020
332 Clouds 21 1013 88 10000 2.6 100 08:18 28.03.2020
333 Clouds 21 1014 88 10000 1 80 07:41 28.03.2020
334 Clouds 21 1014 83 10000 3.1 70 06:58 28.03.2020
335 Clouds 21 1014 83 10000 3.1 70 06:34 28.03.2020
336 Clouds 22 1014 83 10000 4.1 60 05:41 28.03.2020
337 Clouds 22 1014 78 10000 5.7 80 05:21 28.03.2020
338 Clouds 22 1014 78 10000 5.7 80 04:40 28.03.2020
339 Clouds 23 1014 73 10000 5.7 60 03:21 28.03.2020
340 Clouds 23 1013 64 10000 5.1 70 01:53 28.03.2020
341 Clouds 23 1013 64 10000 5.1 70 01:25 28.03.2020
342 Clouds 23 1013 78 10000 3.1 90 00:56 28.03.2020
343 Clouds 23 1013 78 10000 3.1 90 00:35 28.03.2020
344 Clouds 23 1012 78 10000 4.1 100 23:55 27.03.2020
345 Clouds 23 1012 78 10000 4.1 100 23:37 27.03.2020
346 Clouds 23 1012 78 10000 4.1 100 23:18 27.03.2020
347 Clouds 24 1012 83 10000 5.1 110 22:55 27.03.2020
348 Clouds 25 1012 65 10000 6.2 120 22:37 27.03.2020
349 Clouds 25 1012 65 10000 6.2 120 22:18 27.03.2020
350 Clouds 27 1012 51 10000 5.7 130 21:42 27.03.2020
351 Clouds 27 1012 51 10000 5.7 130 21:24 27.03.2020
352 Clouds 28 1013 48 10000 5.1 60 20:58 27.03.2020
353 Clouds 28 1013 48 10000 5.1 60 20:40 27.03.2020
354 Clouds 28 1013 48 10000 5.1 60 20:20 27.03.2020
355 Clouds 27 1013 48 10000 6.2 60 19:57 27.03.2020
356 Clouds 27 1013 48 10000 6.2 60 19:39 27.03.2020
357 Clouds 27 1013 48 10000 6.2 60 19:20 27.03.2020
358 Clouds 28 1014 51 10000 5.7 60 18:44 27.03.2020
359 Clouds 28 1014 51 10000 5.7 60 18:24 27.03.2020
360 Clouds 29 1014 45 10000 5.1 60 17:58 27.03.2020
361 Clouds 28 1015 54 10000 5.7 40 17:39 27.03.2020
362 Clouds 26 1015 61 10000 5.7 30 17:19 27.03.2020
363 Clouds 26 1015 61 10000 5.7 30 16:44 27.03.2020
364 Clouds 26 1015 61 10000 5.7 30 16:25 27.03.2020
365 Clouds 26 1016 61 10000 6.2 50 15:56 27.03.2020
366 Clouds 25 1016 61 10000 6.2 50 15:38 27.03.2020
367 Clouds 25 1016 61 10000 6.2 50 15:19 27.03.2020
368 Clouds 24 1016 73 10000 5.1 60 14:43 27.03.2020
369 Clouds 24 1016 73 10000 5.1 60 14:24 27.03.2020
370 Clouds 21 1016 94 10000 4.6 80 13:55 27.03.2020
371 Clouds 21 1016 94 10000 4.6 80 13:36 27.03.2020
372 Clouds 21 1016 94 10000 4.6 80 13:18 27.03.2020
373 Clouds 21 1016 94 10000 4.6 80 13:18 27.03.2020
374 Clouds 19 1016 93 10000 4.1 90 12:43 27.03.2020
375 Clouds 18 1016 93 10000 4.1 90 12:19 27.03.2020
376 Clouds 18 1016 93 10000 4.1 90 11:55 27.03.2020
377 Clouds 18 1015 100 10000 3.1 60 11:36 27.03.2020
378 Clouds 20 1015 88 10000 2.1 110 11:18 27.03.2020
379 Clouds 20 1015 88 10000 2.1 110 10:42 27.03.2020
380 Clouds 20 1015 88 10000 2.1 110 10:42 27.03.2020
381 Clouds 20 1015 88 10000 2.1 110 10:22 27.03.2020
382 Clouds 20 1015 88 10000 1.5 30 09:59 27.03.2020
383 Clouds 20 1015 88 10000 1.5 30 09:41 27.03.2020
384 Clouds 20 1015 88 10000 1.5 30 09:23 27.03.2020
385 Clouds 20 1015 88 10000 2.1 40 08:59 27.03.2020
386 Clouds 20 1015 88 10000 2.1 40 08:40 27.03.2020
387 Clouds 20 1015 88 10000 2.1 40 08:22 27.03.2020
388 Clouds 20 1015 88 10000 2.6 70 07:59 27.03.2020
389 Clouds 20 1015 88 10000 2.6 70 07:41 27.03.2020
390 Clouds 20 1015 88 10000 2.6 70 07:21 27.03.2020
391 Clouds 20 1016 82 10000 2.1 50 06:40 27.03.2020
392 Clouds 21 1016 77 10000 2.1 70 05:51 27.03.2020
393 Clouds 21 1016 73 10000 3.1 100 03:34 27.03.2020
394 Clouds 23 1016 78 10000 3.6 120 01:56 27.03.2020
395 Clouds 22 1016 78 10000 3.6 120 01:19 27.03.2020
396 Clouds 22 1016 78 10000 3.6 100 00:42 27.03.2020
397 Clouds 23 1016 78 10000 3.6 100 00:19 27.03.2020
398 Clouds 23 1015 78 10000 5.1 100 23:40 26.03.2020
399 Clouds 23 1015 69 10000 5.1 110 23:18 26.03.2020
400 Clouds 24 1015 69 10000 5.1 110 22:57 26.03.2020
401 Clouds 24 1015 69 10000 5.1 110 22:36 26.03.2020
402 Clouds 24 1015 69 10000 5.1 110 22:18 26.03.2020
403 Clouds 24 1015 69 10000 7.2 120 21:40 26.03.2020
404 Clouds 24 1015 69 10000 7.2 120 21:21 26.03.2020
405 Clouds 25 1016 73 10000 7.2 120 20:59 26.03.2020
406 Clouds 25 1016 73 10000 7.2 120 20:39 26.03.2020
407 Clouds 25 1016 73 10000 7.2 120 20:21 26.03.2020
408 Clouds 25 1016 57 10000 6.2 120 19:58 26.03.2020
409 Clouds 25 1016 57 10000 6.2 120 19:40 26.03.2020
410 Clouds 26 1016 57 10000 6.2 120 19:21 26.03.2020
411 Clouds 25 1016 61 10000 5.1 140 18:58 26.03.2020
412 Clouds 25 1016 61 10000 5.1 140 18:40 26.03.2020
413 Clouds 25 1016 61 10000 5.1 140 18:21 26.03.2020
414 Clouds 26 1017 57 10000 4.1 150 17:45 26.03.2020
415 Clouds 26 1017 69 10000 5.7 120 17:20 26.03.2020
416 Clouds 26 1017 69 10000 5.7 120 16:57 26.03.2020
417 Clouds 26 1017 61 10000 5.1 120 16:38 26.03.2020
418 Clouds 26 1017 61 10000 5.1 120 16:38 26.03.2020
419 Clouds 26 1017 61 10000 5.1 120 16:19 26.03.2020
420 Clouds 25 1018 65 10000 5.1 120 15:55 26.03.2020
421 Clouds 25 1018 65 10000 5.1 120 15:37 26.03.2020
422 Clouds 25 1018 65 10000 5.1 120 15:18 26.03.2020
423 Clouds 24 1018 73 10000 5.1 110 14:43 26.03.2020
424 Clouds 24 1018 73 10000 5.1 110 14:24 26.03.2020
425 Clouds 22 1018 88 10000 5.1 120 13:56 26.03.2020
426 Clouds 22 1018 88 10000 5.1 120 13:38 26.03.2020
427 Clouds 23 1018 88 10000 5.1 120 13:19 26.03.2020
428 Clouds 22 1017 94 7000 3.1 120 12:39 26.03.2020
429 -273 0 0 0 0 0 12:20 26.03.2020
430 Clouds 21 1017 94 10000 3.1 120 11:46 26.03.2020
431 Clouds 21 1017 94 10000 3.1 120 11:23 26.03.2020
432 Clouds 22 1017 94 10000 2.1 120 10:59 26.03.2020
433 Clouds 22 1017 94 10000 2.1 120 10:41 26.03.2020
434 Clouds 22 1017 94 10000 2.1 120 10:20 26.03.2020
435 Clouds 22 1016 94 10000 2.1 140 09:45 26.03.2020
436 Clouds 22 1016 94 10000 2.1 140 09:21 26.03.2020
437 Clouds 22 1016 94 10000 3.6 130 08:57 26.03.2020
438 Clouds 22 1016 94 10000 3.6 130 08:39 26.03.2020
439 Clouds 22 1016 94 10000 3.6 130 08:20 26.03.2020
440 Clouds 22 1016 88 10000 4.1 140 07:46 26.03.2020
441 Clouds 22 1016 88 10000 4.1 140 07:24 26.03.2020
442 Clouds 22 1016 88 10000 4.1 140 06:59 26.03.2020
443 Clouds 22 1017 88 10000 3.1 140 06:32 26.03.2020
444 Clouds 22 1017 88 10000 3.1 140 05:29 26.03.2020
445 Clouds 22 1017 83 10000 4.6 150 03:45 26.03.2020
446 Clouds 22 1017 78 10000 5.7 160 02:57 26.03.2020
447 Clouds 22 1017 78 10000 6.7 160 01:51 26.03.2020
448 Clouds 22 1017 78 10000 6.7 160 01:18 26.03.2020
449 Clouds 22 1016 83 10000 6.2 160 00:30 26.03.2020
450 Clouds 22 1016 78 10000 7.7 150 23:42 25.03.2020
451 Clouds 22 1016 78 10000 7.7 150 23:24 25.03.2020
452 Clouds 23 1015 73 10000 7.2 150 22:42 25.03.2020
453 Clouds 23 1015 73 10000 7.2 150 22:22 25.03.2020
454 Clouds 23 1015 78 10000 9.3 150 21:59 25.03.2020
455 Clouds 23 1015 78 10000 9.3 150 21:41 25.03.2020
456 Clouds 23 1015 78 10000 9.3 150 21:23 25.03.2020
457 Clouds 24 1014 73 10000 6.2 150 20:57 25.03.2020
458 Clouds 24 1014 73 10000 6.2 150 20:38 25.03.2020
459 Clouds 24 1014 73 10000 6.2 150 20:38 25.03.2020
460 Clouds 24 1014 73 10000 6.2 150 20:18 25.03.2020
461 Clouds 26 1015 61 10000 6.2 140 19:43 25.03.2020
462 Clouds 26 1015 61 10000 6.2 140 19:24 25.03.2020
463 Clouds 27 1015 61 10000 6.2 140 18:59 25.03.2020
464 Clouds 27 1015 65 10000 5.1 160 18:41 25.03.2020
465 Clouds 27 1015 65 10000 5.1 160 18:23 25.03.2020
466 Clouds 27 1015 65 10000 5.1 160 17:58 25.03.2020
467 Clouds 27 1015 65 10000 5.1 160 17:58 25.03.2020
468 Clouds 27 1015 58 10000 5.1 180 17:40 25.03.2020
469 Clouds 26 1016 65 10000 6.2 170 17:21 25.03.2020
470 Clouds 26 1016 65 10000 6.2 170 16:55 25.03.2020
471 Clouds 26 1016 65 10000 6.2 170 16:37 25.03.2020
472 Clouds 26 1016 65 10000 6.2 170 16:19 25.03.2020
473 Clouds 25 1016 65 10000 5.1 180 15:42 25.03.2020
474 Clouds 25 1016 65 10000 5.1 180 15:20 25.03.2020
475 Clouds 25 1017 73 10000 3.1 210 14:56 25.03.2020
476 Clouds 24 1017 73 10000 3.1 210 14:37 25.03.2020
477 Clouds 24 1017 73 10000 3.1 210 14:19 25.03.2020
478 Clouds 23 1015 78 10000 6.2 10 13:44 25.03.2020
479 Clouds 23 1015 78 10000 6.2 10 13:22 25.03.2020
480 Rain 22 1014 78 10000 6.2 30 12:38 25.03.2020
481 Rain 22 1014 78 10000 6.2 30 12:20 25.03.2020
482 Rain 22 1014 88 10000 5.1 40 11:57 25.03.2020
483 Rain 22 1014 88 10000 5.1 40 11:39 25.03.2020
484 Rain 21 1014 88 10000 5.1 40 11:20 25.03.2020
485 Clouds 21 1013 77 10000 3.6 30 10:57 25.03.2020
486 Clouds 21 1013 77 10000 3.6 30 10:39 25.03.2020
487 Clouds 21 1013 77 10000 3.6 30 10:18 25.03.2020
488 Clouds 21 1012 77 10000 4.6 40 09:43 25.03.2020
489 Clouds 21 1012 77 10000 4.6 40 09:25 25.03.2020
490 Clouds 21 1013 83 10000 4.1 30 08:58 25.03.2020
491 Clouds 21 1013 83 10000 4.1 30 08:39 25.03.2020
492 Clear 21 1013 83 10000 4.1 30 08:20 25.03.2020
493 Clear 22 1013 78 10000 4.1 40 07:44 25.03.2020
494 Clear 22 1013 78 10000 4.1 40 07:24 25.03.2020
495 Clear 22 1013 78 10000 4.6 40 06:57 25.03.2020
496 Clear 22 1013 78 10000 4.6 40 06:37 25.03.2020
497 Clear 22 1014 78 10000 4.1 40 06:19 25.03.2020
498 Clear 22 1014 78 10000 4.1 40 05:42 25.03.2020
499 Clear 23 1014 69 10000 4.6 40 04:41 25.03.2020
500 Clear 24 1014 60 10000 4.1 50 03:53 25.03.2020
501 Clear 24 1014 60 10000 4.1 50 03:29 25.03.2020
502 Clear 25 1014 50 10000 3.6 90 01:39 25.03.2020
503 Clear 24 1014 57 10000 4.1 100 00:50 25.03.2020
504 Clear 25 1014 57 10000 4.1 100 00:26 25.03.2020
505 Clear 25 1014 61 10000 4.1 100 23:54 24.03.2020
506 Clear 25 1014 61 10000 4.1 100 23:28 24.03.2020
507 Clear 26 1014 61 10000 5.1 120 22:58 24.03.2020
508 Clear 27 1014 61 10000 5.1 120 22:38 24.03.2020
509 Clear 26 1014 61 10000 5.1 120 22:20 24.03.2020
510 Clear 26 1014 61 10000 5.1 120 22:20 24.03.2020
511 Clouds 30 1013 51 10000 4.6 130 21:58 24.03.2020
512 Clouds 31 1013 51 10000 4.6 130 21:40 24.03.2020
513 Clouds 31 1013 51 10000 4.6 130 21:40 24.03.2020
514 Clouds 31 1013 51 10000 4.6 130 21:18 24.03.2020
515 Clouds 32 1014 45 10000 4.1 140 20:58 24.03.2020
516 Clouds 32 1014 45 10000 4.1 140 20:39 24.03.2020
517 Clouds 32 1014 45 10000 4.1 140 20:21 24.03.2020
518 Clouds 32 1014 33 10000 4.1 300 19:47 24.03.2020
519 Clouds 33 1014 33 10000 4.1 300 19:22 24.03.2020
520 Clouds 33 1014 33 10000 4.1 300 18:58 24.03.2020
521 Clouds 32 1015 38 10000 3.1 10 18:38 24.03.2020
522 Clouds 31 1015 38 10000 3.1 10 18:20 24.03.2020
523 Clouds 31 1015 38 10000 3.1 10 17:56 24.03.2020
524 Clouds 31 1015 38 10000 3.1 10 17:56 24.03.2020
525 Clear 32 1015 40 10000 3.6 30 17:38 24.03.2020
526 Clear 30 1015 40 10000 3.6 30 17:20 24.03.2020
527 Clear 30 1016 48 10000 3.6 30 16:56 24.03.2020
528 Clear 29 1016 48 10000 3.6 30 16:37 24.03.2020
529 Clear 29 1016 48 10000 3.6 30 16:19 24.03.2020
530 Clear 28 1017 57 10000 5.1 10 15:42 24.03.2020
531 Clear 27 1017 57 10000 5.1 10 15:24 24.03.2020
532 Clear 26 1017 61 10000 5.7 30 14:44 24.03.2020
533 Clear 26 1017 61 10000 5.7 30 14:44 24.03.2020
534 Clear 25 1017 61 10000 5.7 30 14:23 24.03.2020
535 Clouds 22 1017 73 10000 6.2 40 13:59 24.03.2020
536 Clouds 23 1017 73 10000 6.2 40 13:41 24.03.2020
537 Clear 23 1017 73 10000 6.2 40 13:22 24.03.2020
538 Clear 21 1017 82 10000 5.1 40 12:43 24.03.2020
539 Clear 22 1017 82 10000 5.1 40 12:25 24.03.2020
540 Clear 20 1016 88 10000 4.1 40 11:56 24.03.2020
541 Clear 20 1016 88 10000 4.1 40 11:37 24.03.2020
542 Clear 19 1016 88 10000 4.1 40 11:18 24.03.2020
543 Clear 19 1016 88 10000 4.1 40 10:41 24.03.2020
544 Clear 19 1016 82 10000 3.1 50 10:19 24.03.2020
545 Clear 19 1016 82 10000 3.1 50 10:19 24.03.2020
546 Clear 20 1016 82 10000 3.6 60 09:47 24.03.2020
547 Clear 20 1016 82 10000 3.6 60 09:27 24.03.2020
548 Clear 20 1016 88 10000 4.1 50 08:58 24.03.2020
549 Clear 20 1016 88 10000 4.1 50 08:38 24.03.2020
550 Clear 20 1016 88 10000 4.1 50 08:20 24.03.2020
551 Clear 20 1016 88 10000 3.6 40 07:44 24.03.2020
552 Clear 20 1016 88 10000 3.6 40 07:22 24.03.2020
553 Clear 20 1016 88 10000 4.6 50 06:42 24.03.2020
554 Clear 20 1016 88 10000 4.6 50 06:21 24.03.2020
555 Clear 21 1017 77 10000 5.7 60 04:52 24.03.2020
556 Clear 21 1017 73 10000 4.6 70 03:41 24.03.2020
557 Clear 22 1017 56 10000 4.1 70 02:45 24.03.2020
558 Clear 23 1017 47 10000 3.6 70 01:22 24.03.2020
559 Clear 23 1017 47 10000 3.1 70 00:41 24.03.2020
560 Clear 24 1017 47 10000 3.1 70 00:22 24.03.2020
561 Clear 25 1018 44 10000 3.1 80 23:38 23.03.2020
562 Clear 26 1018 44 10000 3.1 80 23:20 23.03.2020
563 Clear 27 1017 39 10000 6.2 40 22:45 23.03.2020
564 Clear 27 1017 39 10000 6.2 40 22:23 23.03.2020
565 Clear 28 1017 34 10000 6.2 30 21:57 23.03.2020
566 Clear 28 1017 34 10000 6.2 30 21:38 23.03.2020
567 Clear 28 1017 34 10000 6.2 30 21:20 23.03.2020
568 Clear 28 1017 30 10000 6.2 50 20:56 23.03.2020
569 Clear 28 1017 30 10000 6.2 50 20:38 23.03.2020
570 Clear 28 1017 30 10000 6.2 50 20:19 23.03.2020
571 Clear 29 1018 32 10000 6.7 50 19:42 23.03.2020
572 Clear 29 1018 32 10000 6.7 50 19:23 23.03.2020
573 Clear 28 1018 32 10000 6.7 50 18:56 23.03.2020
574 Clear 28 1018 28 10000 5.1 90 18:38 23.03.2020
575 Clear 28 1018 28 10000 5.1 90 18:20 23.03.2020
576 Clear 29 1019 28 10000 6.7 60 17:42 23.03.2020
577 Clear 29 1020 30 10000 6.7 40 17:21 23.03.2020
578 Clear 29 1020 30 10000 6.7 40 16:56 23.03.2020
579 Clear 28 1020 30 10000 6.7 40 16:38 23.03.2020
580 Clear 28 1020 30 10000 6.7 40 16:19 23.03.2020
581 Clear 27 1020 36 10000 5.7 30 15:41 23.03.2020
582 Clear 27 1020 36 10000 5.7 30 15:19 23.03.2020
583 Clear 25 1020 50 10000 5.7 10 14:38 23.03.2020
584 Clear 25 1020 50 10000 5.7 10 14:20 23.03.2020
585 Clear 22 1020 60 10000 5.1 40 13:59 23.03.2020
586 Clear 22 1020 60 10000 5.1 40 13:40 23.03.2020
587 Clear 21 1020 60 10000 5.1 40 13:20 23.03.2020
588 Clear 19 1020 77 10000 3.1 30 12:44 23.03.2020
589 Clear 18 1020 77 10000 3.1 30 12:25 23.03.2020
590 Clear 17 1020 82 10000 2.6 20 11:59 23.03.2020
591 Clear 17 1020 82 10000 2.6 20 11:59 23.03.2020
592 Clear 16 1020 87 10000 4.1 20 11:40 23.03.2020
593 Clear 17 1019 82 10000 3.1 30 11:19 23.03.2020
594 Clear 16 1019 82 10000 3.1 30 10:57 23.03.2020
595 Clear 17 1019 82 10000 3.1 30 10:38 23.03.2020
596 Clear 17 1019 82 10000 3.1 30 10:20 23.03.2020
597 Clear 18 1019 77 10000 3.1 20 09:44 23.03.2020
598 Clear 18 1019 77 10000 3.1 20 09:21 23.03.2020
599 Clear 18 1019 68 10000 3.1 20 08:57 23.03.2020
600 Clear 18 1019 68 10000 3.1 20 08:36 23.03.2020
601 Clear 18 1019 68 10000 3.1 20 08:18 23.03.2020
602 Clear 18 1019 68 10000 3.1 20 07:42 23.03.2020
603 Clear 18 1019 68 10000 3.1 20 07:23 23.03.2020
604 Clear 18 1019 68 10000 3.1 20 06:49 23.03.2020
605 Clear 20 1019 60 10000 2.6 20 05:54 23.03.2020
606 Clear 20 1019 60 10000 2.6 20 05:29 23.03.2020
607 Clear 21 1018 64 10000 2.6 70 03:28 23.03.2020
608 Clouds 22 1018 78 10000 3.6 120 01:51 23.03.2020
609 Clouds 22 1018 78 10000 3.6 120 01:32 23.03.2020
610 Clouds 23 1018 73 10000 3.6 130 00:36 23.03.2020
611 Clouds 23 1017 73 10000 3.6 120 23:47 22.03.2020
612 Clouds 24 1017 73 10000 3.6 120 23:26 22.03.2020
613 Clouds 25 1017 54 10000 4.6 150 22:45 22.03.2020
614 Clouds 25 1017 54 10000 4.6 150 22:24 22.03.2020
615 Clouds 27 1017 45 10000 3.6 150 21:56 22.03.2020
616 Clouds 28 1017 45 10000 3.6 150 21:37 22.03.2020
617 Clouds 28 1017 45 10000 3.6 150 21:19 22.03.2020
618 Clouds 29 1017 39 10000 2.6 350 20:46 22.03.2020
619 Clouds 29 1017 39 10000 2.6 350 20:26 22.03.2020
620 Clouds 30 1017 39 10000 4.1 350 19:58 22.03.2020
621 Clouds 30 1017 39 10000 4.1 350 19:40 22.03.2020
622 Clouds 30 1017 39 10000 4.1 350 19:21 22.03.2020
623 Clouds 30 1018 40 10000 3.6 320 18:59 22.03.2020
624 Clouds 30 1018 40 10000 3.6 320 18:41 22.03.2020
625 Clouds 31 1018 40 10000 3.6 320 18:22 22.03.2020
626 Clouds 31 1018 40 10000 3.6 320 18:22 22.03.2020
627 Clouds 30 1018 35 10000 3.6 320 17:59 22.03.2020
628 Clouds 30 1018 42 10000 5.1 10 17:39 22.03.2020
629 Clouds 30 1018 42 10000 5.1 10 17:39 22.03.2020
630 Clouds 29 1018 42 10000 5.1 10 17:21 22.03.2020
631 Clouds 28 1019 47 10000 3.6 330 16:59 22.03.2020
632 Clouds 28 1019 47 10000 3.6 330 16:59 22.03.2020
633 Clouds 28 1019 47 10000 3.6 330 16:41 22.03.2020
634 Clouds 28 1019 47 10000 3.6 330 16:21 22.03.2020
635 Clouds 27 1019 51 10000 5.1 240 15:58 22.03.2020
636 Clouds 27 1019 51 10000 5.1 240 15:39 22.03.2020
637 Clouds 25 1018 57 10000 5.1 350 14:47 22.03.2020
638 Clear 24 1018 57 10000 5.1 350 14:19 22.03.2020
639 Clear 22 1018 68 10000 5.1 360 13:57 22.03.2020
640 Clear 21 1018 68 10000 5.1 360 13:39 22.03.2020
641 Clear 21 1018 68 10000 5.1 360 13:19 22.03.2020
642 Clear 19 1018 77 10000 3.6 10 12:44 22.03.2020
643 Clear 19 1018 77 10000 3.6 10 12:20 22.03.2020
644 Clear 18 1018 82 10000 3.1 20 11:56 22.03.2020
645 Clear 17 1017 88 10000 3.6 30 11:38 22.03.2020
646 Clear 17 1017 88 10000 3.6 30 11:19 22.03.2020
647 Clear 17 1016 82 10000 2.6 30 10:43 22.03.2020
648 Clear 17 1016 82 10000 2.6 30 10:24 22.03.2020
649 Clear 17 1016 82 10000 2.6 30 10:24 22.03.2020
650 Clear 17 1016 77 10000 2.6 20 09:49 22.03.2020
651 Clear 17 1016 77 10000 2.6 20 09:30 22.03.2020
652 Clear 17 1015 72 10000 2.6 40 08:55 22.03.2020
653 Clear 17 1015 72 10000 2.6 40 08:36 22.03.2020
654 Clear 18 1015 72 10000 2.6 40 08:18 22.03.2020
655 Clear 18 1015 72 10000 3.1 30 07:48 22.03.2020
656 Clear 18 1015 72 10000 3.1 30 07:18 22.03.2020
657 Clear 19 1015 68 10000 3.1 40 05:54 22.03.2020
658 Clear 19 1015 64 10000 3.1 60 04:50 22.03.2020
659 Clear 21 1015 68 10000 1 0 02:43 22.03.2020
660 Clear 21 1014 77 10000 2.1 70 01:20 22.03.2020
661 Clear 21 1013 73 10000 3.1 100 00:35 22.03.2020
662 Clear 24 1013 53 10000 1.5 200 23:57 21.03.2020
663 Clear 24 1013 53 10000 1.5 200 23:38 21.03.2020
664 Clear 24 1013 53 10000 1.5 200 23:18 21.03.2020
665 Clear 26 1012 44 10000 3.1 230 22:38 21.03.2020
666 Clear 26 1012 44 10000 3.1 230 22:20 21.03.2020
667 Clear 27 1012 42 10000 3.1 230 21:59 21.03.2020
668 Clear 27 1012 42 10000 3.1 230 21:39 21.03.2020
669 Clear 27 1012 42 10000 3.1 230 21:21 21.03.2020
670 Clouds 28 1012 42 10000 3.1 260 20:45 21.03.2020
671 Clouds 28 1012 42 10000 3.1 260 20:23 21.03.2020
672 Clouds 28 1012 42 10000 3.6 240 19:57 21.03.2020
673 Clouds 28 1012 42 10000 3.6 240 19:39 21.03.2020
674 Clouds 28 1012 42 10000 3.6 240 19:20 21.03.2020
675 Clouds 28 1013 42 10000 3.6 280 18:54 21.03.2020
676 Clouds 28 1013 42 10000 3.6 280 18:36 21.03.2020
677 Clouds 28 1013 42 10000 3.6 280 18:18 21.03.2020
678 Clear 28 1013 42 10000 4.1 270 17:42 21.03.2020
679 Clear 28 1013 42 10000 4.1 270 17:23 21.03.2020
680 Clear 27 1013 37 10000 3.1 300 16:56 21.03.2020
681 Clear 27 1014 47 10000 4.1 310 16:38 21.03.2020
682 Clear 27 1014 47 10000 4.1 310 16:18 21.03.2020
683 Clear 27 1014 47 10000 4.1 310 16:18 21.03.2020
684 Clear 26 1014 44 10000 4.1 310 15:41 21.03.2020
685 Clear 26 1014 44 10000 4.1 310 15:23 21.03.2020
686 Clear 24 1014 56 10000 3.6 320 14:58 21.03.2020
687 Clear 23 1014 56 10000 3.6 320 14:40 21.03.2020
688 Clear 23 1014 56 10000 3.6 320 14:20 21.03.2020
689 Clear 20 1014 82 10000 2.1 360 13:59 21.03.2020
690 Clear 20 1014 82 10000 2.1 360 13:40 21.03.2020
691 Clear 20 1014 82 10000 2.1 360 13:21 21.03.2020
692 Clear 20 1014 82 10000 2.1 360 13:21 21.03.2020
693 Clear 18 1013 100 10000 2.1 10 12:59 21.03.2020
694 Clear 17 1013 100 10000 2.1 10 12:38 21.03.2020
695 Clear 17 1013 100 10000 2.1 10 12:19 21.03.2020
696 Clear 17 1013 100 10000 2.1 10 12:19 21.03.2020
697 Fog 16 1013 93 10000 2.1 20 11:56 21.03.2020
698 Fog 15 1013 100 8000 3.1 30 11:38 21.03.2020
699 Mist 15 1012 93 2000 1.5 10 11:19 21.03.2020
700 Mist 14 1012 93 2000 1.5 10 10:56 21.03.2020
701 Mist 15 1012 100 4000 1.5 20 10:38 21.03.2020
702 Mist 15 1012 100 4000 1.5 20 10:19 21.03.2020
703 Mist 15 1012 93 2000 1.5 10 09:55 21.03.2020
704 Fog 15 1012 93 900 3.11 353 09:37 21.03.2020
705 Fog 15 1012 93 900 3.11 353 09:18 21.03.2020
706 Fog 15 1012 100 200 1 20 08:43 21.03.2020
707 Fog 15 1012 100 200 1 20 08:24 21.03.2020
708 Fog 15 1012 100 800 1.5 20 07:43 21.03.2020
709 Fog 15 1012 100 800 1.5 20 07:23 21.03.2020
710 Fog 16 1012 93 800 1.5 30 06:48 21.03.2020
711 Fog 16 1012 93 800 1.5 30 06:27 21.03.2020
712 Mist 16 1012 93 1600 2.1 20 05:46 21.03.2020
713 Clear 18 1012 88 10000 1.5 90 04:46 21.03.2020
714 Clear 19 1012 82 10000 1.5 140 02:51 21.03.2020
715 Clear 19 1012 82 10000 1.5 140 02:33 21.03.2020
716 Clear 20 1011 88 10000 2.6 150 01:32 21.03.2020
717 Clear 20 1011 83 10000 3.6 180 00:48 21.03.2020
718 Clear 21 1011 83 10000 3.6 180 00:26 21.03.2020
719 Clouds 22 1011 68 10000 1.5 240 23:51 20.03.2020
720 Clouds 22 1011 68 10000 1.5 240 23:27 20.03.2020
721 Clouds 23 1011 60 10000 3.6 280 22:59 20.03.2020
722 Clouds 24 1011 60 10000 3.6 280 22:40 20.03.2020
723 Clouds 24 1011 60 10000 3.6 280 22:21 20.03.2020
724 Clouds 26 1011 50 10000 4.1 270 21:56 20.03.2020
725 Clouds 26 1011 50 10000 4.1 270 21:38 20.03.2020
726 Clouds 26 1011 50 10000 4.1 270 21:18 20.03.2020
727 Clouds 26 1011 50 10000 6.2 270 20:56 20.03.2020
728 Clouds 26 1011 50 10000 6.2 270 20:38 20.03.2020
729 Clouds 25 1011 50 10000 6.2 270 20:18 20.03.2020
730 Clouds 26 1012 57 10000 5.1 270 19:44 20.03.2020
731 Clouds 26 1012 57 10000 5.1 270 19:19 20.03.2020
732 Clouds 25 1012 65 10000 5.1 280 18:55 20.03.2020
733 Clouds 25 1012 65 10000 5.1 280 18:37 20.03.2020
734 Clouds 25 1012 65 10000 5.1 280 18:19 20.03.2020
735 Clouds 24 1013 78 10000 5.1 260 17:39 20.03.2020
736 Clouds 24 1013 73 10000 4.1 270 17:21 20.03.2020
737 Clouds 24 1013 73 10000 4.1 270 16:58 20.03.2020
738 Clouds 24 1013 73 10000 4.1 270 16:58 20.03.2020
739 Clouds 24 1013 73 10000 4.1 270 16:40 20.03.2020
740 Clouds 23 1013 73 10000 4.1 270 16:19 20.03.2020
741 Clouds 22 1013 78 10000 6.2 280 15:43 20.03.2020
742 Clouds 22 1013 78 10000 6.2 280 15:22 20.03.2020
743 Clouds 22 1013 78 10000 6.2 280 15:22 20.03.2020
744 Clouds 21 1013 77 10000 4.1 300 14:56 20.03.2020
745 Clouds 21 1013 77 10000 4.1 300 14:37 20.03.2020
746 Clouds 21 1013 77 10000 4.1 300 14:19 20.03.2020
747 Clouds 19 1013 93 10000 3.1 320 13:45 20.03.2020
748 Clouds 19 1013 93 10000 3.1 320 13:19 20.03.2020
749 Clouds 15 1013 100 10000 2.1 360 12:41 20.03.2020
750 Clouds 15 1013 100 10000 2.1 360 12:23 20.03.2020
751 Clear 15 1013 100 10000 1.5 340 11:59 20.03.2020
752 Fog 14 1013 100 4000 1.5 360 11:38 20.03.2020
753 Fog 14 1012 100 800 1.5 330 11:19 20.03.2020
754 Fog 13 1012 100 800 1.5 330 10:42 20.03.2020
755 Mist 14 1012 93 2000 1.5 320 10:21 20.03.2020
756 Mist 14 1012 93 5000 1.5 340 10:00 20.03.2020
757 Mist 14 1012 93 5000 1.5 340 09:41 20.03.2020
758 Mist 14 1012 93 5000 1.5 340 09:19 20.03.2020
759 Clear 14 1012 93 10000 1.5 340 08:43 20.03.2020
760 Clear 14 1012 93 10000 1.5 340 08:22 20.03.2020
761 Clear 14 1012 93 10000 1.5 330 07:57 20.03.2020
762 Clear 14 1012 93 10000 1.5 330 07:38 20.03.2020
763 Clear 14 1012 93 10000 1.5 330 07:19 20.03.2020
764 Clear 15 1012 87 10000 1.5 320 06:42 20.03.2020
765 Clouds 17 1012 77 10000 3.1 200 04:57 20.03.2020
766 Clouds 18 1012 77 10000 3.1 200 04:26 20.03.2020
767 Clouds 18 1012 72 10000 4.6 190 02:27 20.03.2020
768 Clouds 19 1011 72 10000 6.7 190 01:50 20.03.2020
769 Clouds 19 1011 77 10000 7.7 200 00:38 20.03.2020
770 Clouds 19 1011 77 10000 7.7 200 23:55 19.03.2020
771 Clouds 19 1011 82 10000 7.7 190 23:36 19.03.2020
772 Clouds 20 1010 68 10000 6.2 190 23:18 19.03.2020
773 Clouds 20 1010 68 10000 6.2 190 22:38 19.03.2020
774 Clouds 20 1010 68 10000 6.2 190 22:20 19.03.2020
775 Drizzle 20 1009 88 8000 8.7 190 21:58 19.03.2020
776 Drizzle 21 1009 88 8000 8.7 190 21:38 19.03.2020
777 Drizzle 21 1009 88 8000 8.7 190 21:18 19.03.2020
778 Clouds 21 1009 77 10000 8.7 210 20:43 19.03.2020
779 Clouds 21 1009 77 10000 8.7 210 20:25 19.03.2020
780 Drizzle 20 1008 82 3000 8.7 200 19:59 19.03.2020
781 Drizzle 19 1008 82 3000 8.7 200 19:38 19.03.2020
782 Drizzle 19 1008 82 3000 8.7 200 19:20 19.03.2020
783 Rain 19 1009 88 2000 5.1 210 18:57 19.03.2020
784 Rain 19 1009 88 2000 5.1 210 18:57 19.03.2020
785 Rain 19 1009 88 2000 5.1 210 18:38 19.03.2020
786 Rain 19 1009 88 2000 5.1 210 18:20 19.03.2020
787 Clouds 19 1009 93 8000 5.1 240 17:43 19.03.2020
788 Rain 19 1008 82 6000 7.7 240 17:20 19.03.2020
789 Rain 19 1008 82 6000 7.7 240 16:57 19.03.2020
790 Clouds 18 1009 93 8000 4.1 240 16:39 19.03.2020
791 Clouds 18 1009 93 8000 4.1 240 16:21 19.03.2020
792 Rain 18 1009 93 2000 4.1 240 15:41 19.03.2020
793 Clouds 18 1009 93 10000 6.2 270 15:23 19.03.2020
794 Rain 19 1009 88 2000 5.1 240 14:43 19.03.2020
795 Clouds 19 1009 88 10000 5.1 240 14:22 19.03.2020
796 Clouds 19 1009 93 10000 4.1 240 13:56 19.03.2020
797 Clouds 19 1009 93 10000 4.1 240 13:37 19.03.2020
798 Clouds 19 1009 93 10000 4.1 240 13:18 19.03.2020
799 Clouds 19 1009 93 10000 2.6 240 12:40 19.03.2020
800 Clouds 19 1009 93 10000 2.6 240 12:22 19.03.2020
801 Clouds 18 1009 93 10000 2.6 240 11:57 19.03.2020
802 Clouds 18 1008 93 10000 2.1 270 11:38 19.03.2020
803 Clouds 17 1008 88 10000 3.1 290 11:19 19.03.2020
804 Clouds 18 1007 88 10000 4.1 300 10:41 19.03.2020
805 Clouds 18 1007 88 10000 4.1 300 10:20 19.03.2020
806 Clouds 18 1008 93 10000 4.1 280 09:57 19.03.2020
807 Clouds 18 1008 93 10000 4.1 280 09:37 19.03.2020
808 Clouds 19 1008 93 10000 4.1 280 09:18 19.03.2020
809 Clouds 19 1008 93 10000 2.6 320 08:42 19.03.2020
810 Clouds 19 1008 93 10000 2.6 320 08:21 19.03.2020
811 Clouds 19 1008 93 10000 2.6 340 07:46 19.03.2020
812 Clouds 19 1008 93 10000 2.6 340 07:28 19.03.2020
813 Clouds 19 1009 93 10000 3.6 310 06:43 19.03.2020
814 Clouds 19 1009 93 10000 3.6 310 05:49 19.03.2020
815 Clouds 20 1010 88 10000 4.6 38 04:58 19.03.2020
816 Clouds 20 1010 88 10000 4.6 38 04:40 19.03.2020
817 Clouds 20 1010 88 10000 4.1 60 02:50 19.03.2020
818 Clouds 20 1010 88 10000 3.6 100 01:21 19.03.2020
819 Clouds 19 1010 94 10000 2.1 110 00:32 19.03.2020
820 Clouds 20 1010 94 10000 2.1 110 23:57 18.03.2020
821 Clouds 20 1010 94 10000 3.1 90 23:30 18.03.2020
822 Clouds 20 1010 94 10000 3.1 90 23:30 18.03.2020
823 Clouds 20 1010 94 10000 3.1 90 23:30 18.03.2020
824 Clouds 20 1010 94 10000 3.1 100 22:57 18.03.2020
825 Clouds 20 1010 94 10000 3.1 100 22:39 18.03.2020
826 Clouds 20 1010 94 10000 3.1 100 22:21 18.03.2020
827 Clouds 20 1010 94 8000 3.6 90 21:42 18.03.2020
828 Clouds 20 1010 94 8000 3.6 90 21:22 18.03.2020
829 Clouds 20 1010 94 8000 5.7 100 20:59 18.03.2020
830 Clouds 20 1010 94 8000 5.7 100 20:59 18.03.2020
831 Clouds 20 1010 94 8000 5.7 100 20:40 18.03.2020
832 Clouds 20 1010 94 8000 5.7 100 20:40 18.03.2020
833 Clouds 20 1010 94 8000 5.7 100 20:20 18.03.2020
834 Drizzle 20 1011 100 2000 5.1 90 19:58 18.03.2020
835 Drizzle 20 1011 100 2000 5.1 90 19:39 18.03.2020
836 Drizzle 20 1011 100 2000 5.1 90 19:20 18.03.2020
837 Drizzle 20 1011 94 3000 5.1 100 18:42 18.03.2020
838 Drizzle 20 1011 94 3000 5.1 100 18:42 18.03.2020
839 Drizzle 20 1011 94 3000 5.1 100 18:21 18.03.2020
840 Drizzle 20 1011 94 3000 5.1 100 17:59 18.03.2020
841 Drizzle 20 1011 94 3000 5.1 100 17:59 18.03.2020
842 Drizzle 20 1012 100 1500 6.2 90 17:41 18.03.2020
843 Drizzle 20 1012 100 1500 6.2 90 17:22 18.03.2020
844 Drizzle 19 1012 100 2000 6.2 100 16:58 18.03.2020
845 Drizzle 19 1012 100 2000 6.2 100 16:40 18.03.2020
846 Drizzle 19 1012 100 2000 6.2 100 16:20 18.03.2020
847 Drizzle 19 1012 100 2000 6.2 100 16:20 18.03.2020
848 Drizzle 19 1013 93 2000 7.2 120 15:45 18.03.2020
849 Drizzle 19 1013 93 2000 7.2 120 15:23 18.03.2020
850 Drizzle 19 1013 100 2000 5.1 120 14:58 18.03.2020
851 Drizzle 19 1013 100 2000 5.1 120 14:40 18.03.2020
852 Drizzle 18 1013 100 2000 5.1 120 14:20 18.03.2020
853 Rain 18 1013 93 4000 6.2 120 13:40 18.03.2020
854 Rain 18 1013 93 4000 6.2 120 13:19 18.03.2020
855 Drizzle 19 1013 82 1000 5.7 110 12:42 18.03.2020
856 Rain 19 1013 93 2000 6.2 120 12:21 18.03.2020
857 Rain 19 1013 93 2000 6.2 120 11:57 18.03.2020
858 Rain 19 1012 100 2000 5.1 120 11:37 18.03.2020
859 Rain 19 1012 93 7000 3.6 130 11:18 18.03.2020
860 Rain 19 1012 93 7000 3.6 130 10:54 18.03.2020
861 Rain 19 1012 93 7000 3.6 130 10:36 18.03.2020
862 Rain 19 1012 93 7000 3.6 130 10:36 18.03.2020
863 Rain 19 1012 93 7000 3.6 130 10:18 18.03.2020
864 Rain 19 1012 93 5000 3.1 110 09:41 18.03.2020
865 Rain 19 1012 93 5000 3.1 110 09:22 18.03.2020
866 Rain 19 1012 82 8000 3.1 140 08:40 18.03.2020
867 Rain 19 1012 82 8000 3.1 140 08:22 18.03.2020
868 Clouds 20 1012 82 10000 2.6 110 07:59 18.03.2020
869 Clouds 20 1012 82 10000 2.6 110 07:37 18.03.2020
870 Clouds 20 1012 82 10000 2.6 110 07:19 18.03.2020
871 Clouds 19 1012 82 10000 5.1 80 06:39 18.03.2020
872 Clouds 19 1012 82 10000 6.2 70 05:37 18.03.2020
873 Rain 19 1013 88 9000 5.1 60 04:38 18.03.2020
874 Rain 19 1013 82 10000 6.2 90 03:21 18.03.2020
875 Rain 19 1014 82 10000 7.7 100 02:37 18.03.2020
876 Rain 20 1014 73 10000 7.7 120 01:43 18.03.2020
877 Clouds 21 1014 73 10000 6.7 120 00:45 18.03.2020
878 Clouds 21 1014 73 10000 6.7 120 00:21 18.03.2020
879 Clouds 21 1013 83 10000 5.7 140 23:42 17.03.2020
880 Clouds 21 1013 83 10000 5.7 140 23:21 17.03.2020
881 Rain 21 1014 77 8000 5.1 140 22:46 17.03.2020
882 Rain 21 1014 77 8000 5.1 140 22:28 17.03.2020
883 Clouds 22 1014 73 10000 6.2 150 21:44 17.03.2020
884 Clouds 22 1014 73 10000 6.2 150 21:25 17.03.2020
885 Clouds 22 1014 68 10000 5.1 130 20:58 17.03.2020
886 Clouds 22 1014 68 10000 5.1 130 20:38 17.03.2020
887 Clouds 22 1014 68 10000 5.1 130 20:19 17.03.2020
888 Clouds 22 1013 68 10000 3.1 140 19:42 17.03.2020
889 Rain 22 1013 73 8000 6.2 130 19:21 17.03.2020
890 Clouds 22 1014 57 10000 3.6 120 18:58 17.03.2020
891 Clouds 22 1014 57 10000 3.6 120 18:40 17.03.2020
892 Clouds 23 1014 57 10000 3.6 120 18:21 17.03.2020
893 Clouds 23 1014 57 10000 3.6 120 17:56 17.03.2020
894 Clouds 25 1014 50 10000 3.1 120 17:38 17.03.2020
895 Clouds 25 1014 50 10000 3.1 120 17:19 17.03.2020
896 Clouds 25 1015 50 10000 5.1 30 16:42 17.03.2020
897 Clouds 25 1015 50 10000 5.1 30 16:19 17.03.2020
898 Clouds 25 1016 57 10000 6.2 30 15:47 17.03.2020
899 Clouds 24 1016 57 10000 6.2 30 15:23 17.03.2020
900 Clouds 23 1015 64 10000 7.2 40 14:49 17.03.2020
901 Clouds 23 1015 64 10000 7.2 40 14:30 17.03.2020
902 Clear 20 1016 72 10000 7.2 30 13:59 17.03.2020
903 Clear 21 1016 72 10000 7.2 30 13:41 17.03.2020
904 Clear 21 1016 72 10000 7.2 30 13:22 17.03.2020
905 Clear 19 1016 68 10000 4.6 40 12:47 17.03.2020
906 Clear 18 1016 82 10000 7.2 40 12:25 17.03.2020
907 Clear 17 1016 82 10000 3.6 40 11:57 17.03.2020
908 Clear 17 1016 82 10000 3.6 40 11:39 17.03.2020
909 Clear 17 1015 87 10000 2.6 30 11:20 17.03.2020
910 Clear 16 1015 87 10000 2.6 30 10:54 17.03.2020
911 Clear 16 1015 87 10000 2.6 30 10:36 17.03.2020
912 Clear 16 1015 87 10000 2.6 30 10:18 17.03.2020
913 Clear 16 1015 82 10000 3.1 40 09:45 17.03.2020
914 Clear 16 1015 82 10000 3.1 40 09:20 17.03.2020
915 Clear 16 1015 82 10000 3.6 40 08:58 17.03.2020
916 Clear 16 1015 82 10000 3.6 40 08:40 17.03.2020
917 Clear 16 1015 82 10000 3.6 40 08:18 17.03.2020
918 Clear 16 1015 77 10000 3.1 30 07:49 17.03.2020
919 Clear 17 1015 77 10000 3.1 30 07:20 17.03.2020
920 Clear 17 1016 72 10000 3.6 40 06:45 17.03.2020
921 Clear 17 1016 72 10000 3.6 40 06:25 17.03.2020
922 Clear 17 1016 77 10000 2.1 50 05:20 17.03.2020
923 Clear 18 1016 72 10000 3.6 90 03:31 17.03.2020
924 Clear 19 1016 68 10000 6.2 110 01:50 17.03.2020
925 Clear 19 1016 68 10000 6.2 110 01:31 17.03.2020
926 Clear 19 1015 72 10000 5.7 120 00:53 17.03.2020
927 Clear 20 1015 72 10000 5.7 120 00:18 17.03.2020
928 Clear 20 1015 72 10000 6.2 120 23:34 16.03.2020
929 Clear 21 1015 73 10000 5.7 110 22:58 16.03.2020
930 Clear 21 1015 73 10000 5.7 110 22:38 16.03.2020
931 Clear 21 1015 73 10000 5.7 110 22:19 16.03.2020
932 Clear 22 1015 60 10000 6.2 130 21:44 16.03.2020
933 Clear 22 1015 60 10000 6.2 130 21:25 16.03.2020
934 Clouds 22 1015 56 10000 4.6 110 20:58 16.03.2020
935 Clouds 22 1015 56 10000 4.6 110 20:39 16.03.2020
936 Clouds 22 1015 56 10000 4.6 110 20:20 16.03.2020
937 Clouds 22 1016 60 10000 5.7 130 19:46 16.03.2020
938 Clouds 23 1016 60 10000 5.7 130 19:23 16.03.2020
939 Clouds 23 1016 53 10000 2.6 130 18:57 16.03.2020
940 Clouds 23 1016 53 10000 2.6 130 18:39 16.03.2020
941 Clouds 23 1016 53 10000 2.6 130 18:19 16.03.2020
942 Clouds 22 1017 46 10000 1.5 0 17:45 16.03.2020
943 Clouds 22 1017 46 10000 1.5 0 17:25 16.03.2020
944 Clouds 21 1018 56 10000 1.5 0 16:54 16.03.2020
945 Clouds 21 1018 56 10000 1.5 0 16:36 16.03.2020
946 Clouds 21 1018 56 10000 1.5 0 16:18 16.03.2020
947 Clouds 21 1019 60 10000 2.6 120 15:42 16.03.2020
948 Clouds 21 1019 60 10000 2.6 120 15:22 16.03.2020
949 Clouds 20 1019 63 10000 3.6 120 14:45 16.03.2020
950 Clouds 20 1019 63 10000 3.6 120 14:20 16.03.2020
951 Clouds 19 1019 68 10000 2.6 120 13:45 16.03.2020
952 Clouds 19 1019 68 10000 2.6 120 13:26 16.03.2020
953 Clouds 17 1019 87 10000 1 120 12:57 16.03.2020
954 Clouds 17 1019 87 10000 1 120 12:38 16.03.2020
955 Clouds 15 1019 87 10000 1 120 12:19 16.03.2020
956 Clouds 13 1019 100 10000 1.5 50 11:42 16.03.2020
957 Clouds 14 1019 100 10000 1.5 50 11:23 16.03.2020
958 Clouds 16 1018 67 10000 4.17 95 10:43 16.03.2020
959 Clouds 16 1018 67 10000 4.17 95 10:24 16.03.2020
960 Clouds 16 1018 67 10000 2.6 120 09:49 16.03.2020
961 Clouds 14 1018 67 10000 2.6 120 09:30 16.03.2020
962 Clouds 15 1018 63 10000 2.1 150 08:59 16.03.2020
963 Clouds 16 1018 63 10000 2.1 150 08:39 16.03.2020
964 Clouds 16 1018 63 10000 2.1 150 08:20 16.03.2020
965 Clouds 16 1018 63 10000 2.6 160 07:41 16.03.2020
966 Clouds 16 1018 63 10000 2.6 160 07:18 16.03.2020
967 Clouds 17 1018 59 10000 4.6 150 06:28 16.03.2020
968 Clouds 17 1019 59 10000 3.6 140 05:55 16.03.2020
969 Clouds 17 1019 63 10000 2.6 160 03:54 16.03.2020
970 Clouds 18 1019 63 10000 4.1 150 01:44 16.03.2020
971 Clouds 18 1018 68 10000 3.6 140 00:44 16.03.2020
972 Clouds 19 1019 72 10000 3.6 150 23:56 15.03.2020
973 Clouds 19 1019 72 10000 3.6 150 23:37 15.03.2020
974 Clouds 19 1019 72 10000 3.6 150 23:18 15.03.2020
975 Clouds 20 1019 68 10000 3.6 120 22:41 15.03.2020
976 Clouds 20 1019 68 10000 3.6 120 22:20 15.03.2020
977 Clouds 21 1018 64 10000 3.1 150 21:39 15.03.2020
978 Clouds 21 1018 64 10000 3.1 150 21:21 15.03.2020
979 Clouds 21 1018 64 10000 3.6 150 20:55 15.03.2020
980 Clouds 21 1018 64 10000 3.6 150 20:36 15.03.2020
981 Clouds 22 1018 64 10000 3.6 150 20:18 15.03.2020
982 Clouds 22 1018 60 10000 4.6 180 19:43 15.03.2020
983 Clouds 22 1018 60 10000 4.6 180 19:25 15.03.2020
984 Clouds 22 1018 60 10000 6.7 180 18:59 15.03.2020
985 Clouds 22 1018 60 10000 6.7 180 18:40 15.03.2020
986 Clouds 22 1018 60 10000 6.7 180 18:22 15.03.2020
987 Clouds 22 1019 60 10000 5.7 170 17:57 15.03.2020
988 Clouds 22 1019 60 10000 5.7 170 17:38 15.03.2020
989 Clouds 22 1019 60 10000 5.7 170 17:19 15.03.2020
990 Clouds 21 1019 64 10000 4.6 160 16:44 15.03.2020
991 Clouds 22 1019 64 10000 4.6 160 16:26 15.03.2020
992 Clouds 21 1019 68 10000 5.1 170 15:59 15.03.2020
993 Clouds 21 1019 68 10000 5.1 170 15:41 15.03.2020
994 Clouds 21 1019 68 10000 5.1 170 15:20 15.03.2020
995 Clouds 21 1019 72 10000 3.1 150 14:46 15.03.2020
996 Clouds 21 1019 72 10000 3.1 150 14:25 15.03.2020
997 Clouds 20 1019 77 10000 5.1 160 13:59 15.03.2020
998 Clouds 20 1019 77 10000 5.1 160 13:38 15.03.2020
999 Clouds 20 1019 77 10000 5.1 160 13:20 15.03.2020
1000 Clouds 20 1018 82 10000 3.1 150 12:44 15.03.2020
1001 Clouds 20 1018 82 10000 3.1 150 12:26 15.03.2020
1002 Clouds 19 1018 93 8000 2.1 150 11:57 15.03.2020
1003 Clouds 19 1018 93 8000 2.1 150 11:39 15.03.2020
1004 Clouds 18 1018 93 8000 2.1 150 11:20 15.03.2020
1005 Clouds 19 1017 72 10000 4.6 150 10:56 15.03.2020
1006 Clouds 19 1017 72 10000 4.6 150 10:36 15.03.2020
1007 Clouds 19 1017 72 10000 4.6 150 10:18 15.03.2020
1008 Clouds 19 1017 72 10000 5.7 160 09:40 15.03.2020
1009 Clouds 19 1017 72 10000 5.7 160 09:21 15.03.2020
1010 Clouds 19 1017 68 10000 5.7 170 08:42 15.03.2020
1011 Clouds 19 1017 68 10000 5.7 170 08:21 15.03.2020
1012 Clouds 20 1016 72 10000 4.6 150 07:51 15.03.2020
1013 Clouds 20 1016 72 10000 4.6 150 07:31 15.03.2020
1014 Clouds 20 1017 72 10000 3.6 140 06:53 15.03.2020
1015 Clouds 20 1017 72 10000 3.6 140 06:18 15.03.2020
1016 Clouds 20 1017 72 10000 4.6 150 05:19 15.03.2020
1017 Clouds 20 1017 72 10000 5.1 150 04:43 15.03.2020
1018 Clouds 20 1017 72 10000 5.1 150 04:24 15.03.2020
1019 Clouds 20 1014 77 10000 6.2 150 03:48 15.03.2020
1020 Clouds 20 1016 77 10000 5.7 140 02:44 15.03.2020
1021 Rain 20 1014 88 8000 6.2 130 01:35 15.03.2020
1022 Clouds 21 1015 88 10000 6.2 180 00:46 15.03.2020
1023 Clouds 21 1015 94 10000 1 220 00:27 15.03.2020
1024 Clouds 21 1014 94 10000 2.6 170 23:55 14.03.2020
1025 Clouds 21 1014 94 10000 2.6 170 23:37 14.03.2020
1026 Clouds 21 1014 94 10000 2.6 170 23:18 14.03.2020
1027 Clouds 21 1013 94 10000 2.6 180 22:42 14.03.2020
1028 Clouds 21 1013 94 10000 2.6 180 22:23 14.03.2020
1029 Clouds 21 1012 100 10000 1.5 0 21:56 14.03.2020
1030 Clouds 21 1012 100 10000 1.5 0 21:36 14.03.2020
1031 Clouds 21 1012 100 10000 1.5 0 21:18 14.03.2020
1032 Rain 21 1011 94 8000 5.1 30 20:58 14.03.2020
1033 Rain 21 1011 94 8000 5.1 30 20:40 14.03.2020
1034 Rain 21 1011 94 8000 5.1 30 20:19 14.03.2020
1035 Rain 21 1012 94 7000 3.1 70 19:43 14.03.2020
1036 Rain 21 1012 94 7000 3.1 70 19:43 14.03.2020
1037 Rain 21 1012 94 7000 3.1 70 19:25 14.03.2020
1038 Rain 21 1012 94 7000 3.1 70 18:56 14.03.2020
1039 Clouds 20 1014 94 10000 6.2 60 18:37 14.03.2020
1040 Rain 20 1016 100 5000 4.6 40 18:19 14.03.2020
1041 Thunderstorm 20 1017 100 3000 1.5 120 17:39 14.03.2020
1042 Thunderstorm 20 1019 94 2000 4.1 200 17:20 14.03.2020
1043 Thunderstorm 20 1019 94 2000 4.1 200 16:41 14.03.2020
1044 Thunderstorm 20 1019 94 2000 4.1 200 16:23 14.03.2020
1045 Thunderstorm 20 1019 94 2000 4.1 200 16:23 14.03.2020
1046 Thunderstorm 21 1018 88 1100 2.6 240 15:58 14.03.2020
1047 Thunderstorm 22 1019 94 1000 7.7 230 15:27 14.03.2020
1048 Thunderstorm 22 1015 83 10000 6.2 100 14:59 14.03.2020
1049 Clouds 22 1014 83 10000 8.2 100 14:37 14.03.2020
1050 Clouds 22 1014 83 10000 8.2 100 14:19 14.03.2020
1051 Rain 22 1015 88 8000 5.1 130 13:43 14.03.2020
1052 Rain 22 1015 88 8000 5.1 130 13:24 14.03.2020
1053 Rain 21 1015 88 8000 5.1 130 12:58 14.03.2020
1054 Rain 21 1015 94 8000 7.7 150 12:38 14.03.2020
1055 Rain 21 1015 94 8000 7.7 150 12:20 14.03.2020
1056 Rain 22 1015 94 6000 7.7 180 11:42 14.03.2020
1057 Clouds 22 1010 83 10000 7.7 10 11:24 14.03.2020
1058 Clouds 22 1009 83 10000 6.2 20 10:47 14.03.2020
1059 -273 0 0 0 0 0 10:27 14.03.2020
1060 Clouds 22 1009 78 10000 5.1 20 09:58 14.03.2020
1061 Clouds 22 1009 78 10000 5.1 20 09:40 14.03.2020
1062 Clouds 22 1009 78 10000 5.1 20 09:20 14.03.2020
1063 Clouds 22 1010 73 10000 5.1 20 08:46 14.03.2020
1064 Clouds 23 1010 73 10000 5.1 20 08:24 14.03.2020
1065 Clear 23 1010 73 10000 5.7 30 07:40 14.03.2020
1066 Clear 23 1010 73 10000 5.7 30 07:21 14.03.2020
1067 Clear 23 1011 73 10000 5.1 30 06:41 14.03.2020
1068 Clear 24 1011 69 10000 5.1 30 05:58 14.03.2020
1069 Clear 24 1011 65 10000 5.1 40 04:52 14.03.2020
1070 Clear 25 1012 69 10000 4.1 40 03:25 14.03.2020
1071 Clear 27 1012 57 10000 3.6 50 02:43 14.03.2020
1072 Clear 28 1012 57 10000 4.1 60 01:39 14.03.2020
1073 Clear 28 1012 54 10000 3.6 60 00:23 14.03.2020
1074 Clear 28 1011 54 10000 3.1 100 23:42 13.03.2020
1075 Clear 28 1011 54 10000 3.1 100 23:22 13.03.2020
1076 Clear 29 1012 48 10000 4.1 110 22:41 13.03.2020
1077 Clear 29 1012 48 10000 4.1 110 22:21 13.03.2020
1078 Clear 30 1012 48 10000 5.1 110 21:40 13.03.2020
1079 Clear 30 1012 48 10000 5.1 110 21:19 13.03.2020
1080 Clear 29 1012 48 10000 5.1 100 20:42 13.03.2020
1081 Clear 29 1012 48 10000 5.1 100 20:22 13.03.2020
1082 Clear 31 1013 38 10000 5.7 60 19:57 13.03.2020
1083 Clear 31 1013 38 10000 5.7 60 19:39 13.03.2020
1084 Clear 32 1013 38 10000 5.7 60 19:18 13.03.2020
1085 Clear 31 1015 40 10000 3.1 360 18:40 13.03.2020
1086 Clear 30 1015 40 10000 3.1 360 18:22 13.03.2020
1087 Clear 30 1015 43 10000 5.1 60 17:42 13.03.2020
1088 Clear 29 1015 43 10000 5.1 60 17:21 13.03.2020
1089 Rain 28 1015 54 10000 6.2 60 16:56 13.03.2020
1090 Rain 27 1015 54 10000 6.2 60 16:38 13.03.2020
1091 Rain 27 1015 54 10000 6.2 60 16:20 13.03.2020
1092 Rain 25 1016 61 10000 5.1 40 15:43 13.03.2020
1093 Clear 25 1016 61 10000 5.1 40 15:22 13.03.2020
1094 Clouds 23 1015 94 8000 5.1 60 14:57 13.03.2020
1095 Clouds 23 1015 94 8000 5.1 60 14:38 13.03.2020
1096 Clouds 22 1015 94 8000 5.1 60 14:18 13.03.2020
1097 Clouds 20 1015 82 8000 5.1 40 13:42 13.03.2020
1098 Fog 20 1016 88 8000 4.1 100 13:22 13.03.2020
1099 Clouds 19 1015 93 10000 3.1 30 12:58 13.03.2020
1100 Clouds 18 1015 93 10000 3.1 30 12:38 13.03.2020
1101 Clouds 18 1015 93 10000 3.1 30 12:19 13.03.2020
1102 Clouds 17 1015 100 8000 2.6 90 11:55 13.03.2020
1103 Clouds 17 1015 100 8000 2.6 90 11:36 13.03.2020
1104 Clouds 16 1015 93 10000 2.6 10 11:18 13.03.2020
1105 Clouds 16 1015 93 10000 2.6 10 10:46 13.03.2020
1106 Clouds 16 1015 93 10000 2.6 10 10:25 13.03.2020
1107 Clear 17 1014 100 10000 2.1 100 09:48 13.03.2020
1108 Clear 17 1014 100 10000 2.1 100 09:28 13.03.2020
1109 Mist 17 1014 93 5000 2.1 120 08:59 13.03.2020
1110 Fog 17 1014 93 1500 5.44 25 08:38 13.03.2020
1111 Fog 17 1014 93 1500 5.28 57 08:20 13.03.2020
1112 Fog 18 1014 93 500 5.28 57 07:44 13.03.2020
1113 Mist 18 1014 100 3000 5.28 57 07:25 13.03.2020
1114 Fog 18 1014 93 300 5.28 57 06:46 13.03.2020
1115 Fog 18 1014 93 300 5.28 57 06:21 13.03.2020
1116 Clear 19 1014 94 10000 3.6 110 05:45 13.03.2020
1117 Clouds 20 1004 94 10000 2.1 90 04:57 13.03.2020
1118 Clouds 20 1014 94 10000 3.6 100 04:26 13.03.2020
1119 Clouds 21 1014 94 10000 4.1 120 02:43 13.03.2020
1120 Clouds 21 1013 88 10000 3.1 130 01:37 13.03.2020
1121 Clouds 22 1013 88 10000 3.1 130 01:18 13.03.2020
1122 Clear 22 1013 83 10000 3.1 150 00:41 13.03.2020
1123 Clear 22 1013 83 10000 3.1 150 00:19 13.03.2020
1124 Clear 23 1013 83 10000 3.1 150 23:38 12.03.2020
1125 Clear 23 1013 83 10000 3.1 150 23:19 12.03.2020
1126 Clear 24 1012 65 10000 4.1 200 22:46 12.03.2020
1127 Clear 25 1012 65 10000 4.1 200 22:27 12.03.2020
1128 Clear 26 1012 58 10000 2.1 270 21:57 12.03.2020
1129 Clear 27 1012 58 10000 2.1 270 21:39 12.03.2020
1130 Clear 26 1012 58 10000 2.1 270 21:20 12.03.2020
1131 Clouds 26 1012 61 10000 2.1 240 20:42 12.03.2020
1132 Clouds 27 1012 61 10000 2.1 240 20:20 12.03.2020
1133 Clouds 26 1013 74 10000 2.1 280 19:56 12.03.2020
1134 Clouds 26 1013 74 10000 2.1 280 19:37 12.03.2020
1135 Clouds 25 1013 69 10000 1.5 220 19:18 12.03.2020
1136 Clouds 25 1013 69 10000 1.5 220 18:41 12.03.2020
1137 Clouds 25 1013 69 10000 1.5 220 18:22 12.03.2020
1138 Clouds 25 1013 69 10000 1.5 220 17:56 12.03.2020
1139 Clouds 24 1013 78 10000 4.1 180 17:37 12.03.2020
1140 Clouds 25 1013 69 10000 4.6 200 17:18 12.03.2020
1141 Clouds 24 1013 78 10000 4.6 210 16:41 12.03.2020
1142 Clouds 24 1013 78 10000 4.6 210 16:22 12.03.2020
1143 Clouds 24 1013 83 10000 3.6 220 15:49 12.03.2020
1144 Clouds 24 1013 83 10000 3.6 220 15:28 12.03.2020
1145 Clouds 24 1013 83 10000 3.6 220 15:28 12.03.2020
1146 Clouds 24 1013 83 10000 3.6 230 14:56 12.03.2020
1147 Clouds 24 1013 83 10000 3.6 230 14:56 12.03.2020
1148 Clouds 24 1013 83 10000 3.6 230 14:37 12.03.2020
1149 Clouds 23 1013 83 10000 3.6 230 14:18 12.03.2020
1150 Clouds 23 1012 94 10000 5.1 230 13:40 12.03.2020
1151 Clouds 22 1012 94 10000 2.6 270 13:21 12.03.2020
1152 Clouds 21 1012 100 8000 1.5 300 12:55 12.03.2020
1153 Clouds 21 1012 100 8000 1.5 300 12:55 12.03.2020
1154 Clouds 21 1012 100 8000 1.5 300 12:37 12.03.2020
1155 Clouds 21 1012 100 8000 1.5 300 12:37 12.03.2020
1156 Clouds 20 1012 100 8000 1.5 300 12:18 12.03.2020
1157 Clouds 20 1012 100 8000 1.5 300 12:18 12.03.2020
1158 Clouds 20 1012 100 8000 1.5 300 11:55 12.03.2020
1159 Mist 19 1011 100 2000 1.5 340 11:36 12.03.2020
1160 Mist 20 1011 93 3000 1.5 310 11:18 12.03.2020
1161 Mist 19 1011 93 3000 1.5 310 10:43 12.03.2020
1162 Fog 19 1010 93 300 1 0 10:23 12.03.2020
1163 Fog 19 1010 93 500 3.15 333 09:55 12.03.2020
1164 Rain 20 1010 88 10000 1 0 09:37 12.03.2020
1165 Rain 20 1010 88 10000 1 0 09:19 12.03.2020
1166 Clouds 19 1010 94 10000 2.1 20 08:38 12.03.2020
1167 Clouds 20 1010 94 10000 2.1 20 08:18 12.03.2020
1168 Clouds 20 1010 88 10000 2.1 60 07:47 12.03.2020
1169 Clouds 20 1010 88 10000 2.1 60 07:22 12.03.2020
1170 Clouds 21 1011 94 10000 1 0 06:20 12.03.2020
1171 Clouds 21 1010 83 10000 1.5 130 05:35 12.03.2020
1172 Clouds 22 1010 78 10000 1.5 80 03:44 12.03.2020
1173 Rain 21 1008 88 8000 5.7 40 01:58 12.03.2020
1174 Rain 21 1008 88 8000 5.7 40 01:23 12.03.2020
1175 Rain 22 1012 88 6000 1 0 00:42 12.03.2020
1176 Rain 22 1012 88 6000 1 0 23:59 11.03.2020
1177 Rain 22 1012 94 4000 2.6 180 23:37 11.03.2020
1178 Rain 23 1012 78 4000 2.6 170 23:18 11.03.2020
1179 Rain 22 1013 78 4000 2.6 180 22:41 11.03.2020
1180 Rain 22 1013 78 4000 2.6 180 22:23 11.03.2020
1181 Clouds 22 1012 78 8000 5.1 150 21:58 11.03.2020
1182 Clouds 23 1012 78 8000 5.1 150 21:39 11.03.2020
1183 Clouds 23 1012 78 8000 5.1 150 21:21 11.03.2020
1184 Clouds 23 1013 73 10000 3.6 130 20:56 11.03.2020
1185 Clouds 23 1013 73 10000 3.6 130 20:37 11.03.2020
1186 Clouds 23 1013 73 10000 3.6 130 20:19 11.03.2020
1187 Clouds 23 1013 73 8000 2.1 140 19:42 11.03.2020
1188 Clouds 24 1013 73 8000 2.1 140 19:24 11.03.2020
1189 Rain 23 1014 78 5000 2.6 150 18:57 11.03.2020
1190 Rain 23 1014 78 5000 2.6 150 18:38 11.03.2020
1191 Rain 23 1014 78 5000 2.6 150 18:18 11.03.2020
1192 Rain 23 1014 78 5000 2.6 150 17:55 11.03.2020
1193 Rain 23 1015 73 8000 3.6 30 17:37 11.03.2020
1194 Rain 23 1016 69 5000 2.6 60 17:18 11.03.2020
1195 Rain 23 1016 69 5000 2.6 60 16:43 11.03.2020
1196 Clouds 23 1016 69 10000 3.6 60 16:20 11.03.2020
1197 Clouds 23 1016 73 10000 4.1 40 15:43 11.03.2020
1198 Clouds 23 1016 73 10000 4.1 40 15:23 11.03.2020
1199 Clouds 22 1016 77 10000 4.1 50 14:56 11.03.2020
1200 Clouds 22 1016 77 10000 4.1 50 14:37 11.03.2020
1201 Clouds 22 1016 77 10000 4.1 50 14:18 11.03.2020
1202 Clouds 22 1016 77 10000 4.1 60 13:42 11.03.2020
1203 Clouds 21 1016 77 10000 4.1 60 13:24 11.03.2020
1204 Clear 20 1015 88 10000 2.6 80 12:56 11.03.2020
1205 Clear 20 1015 88 10000 2.6 80 12:38 11.03.2020
1206 Clear 19 1015 88 10000 2.6 80 12:19 11.03.2020
1207 Clear 18 1015 93 10000 3.1 70 11:41 11.03.2020
1208 Clear 17 1015 93 10000 3.1 70 11:21 11.03.2020
1209 Clear 17 1015 77 10000 3.1 90 10:49 11.03.2020
1210 Clear 17 1015 77 10000 3.1 90 10:21 11.03.2020
1211 Clear 17 1015 77 10000 3.6 90 10:00 11.03.2020
1212 Clear 17 1015 77 10000 3.6 90 09:41 11.03.2020
1213 Clear 17 1015 77 10000 3.6 90 09:22 11.03.2020
1214 Clear 17 1015 77 10000 3.6 90 09:22 11.03.2020
1215 Clear 17 1015 82 10000 3.6 90 08:44 11.03.2020
1216 Clear 17 1015 82 10000 3.6 90 08:26 11.03.2020
1217 Clear 17 1016 77 0 0.45 98 07:48 11.03.2020
1218 Clear 18 1017 77 10000 3.6 80 07:22 11.03.2020
1219 Clear 18 1017 77 10000 3.6 80 06:53 11.03.2020
1220 Clear 18 1017 77 10000 3.6 80 06:33 11.03.2020
1221 Clear 18 1017 77 10000 5.1 80 05:33 11.03.2020
1222 Clear 21 1018 72 10000 4.1 90 03:34 11.03.2020
1223 Clear 21 1018 73 10000 6.2 100 01:56 11.03.2020
1224 Clouds 21 1018 73 10000 6.2 100 01:25 11.03.2020
1225 Clouds 21 1017 68 10000 7.2 110 00:44 11.03.2020
1226 Clouds 21 1017 73 10000 7.7 100 23:50 10.03.2020
1227 Clouds 21 1017 73 10000 7.7 100 23:28 10.03.2020
1228 Clouds 22 1017 68 10000 7.7 100 22:58 10.03.2020
1229 Clouds 22 1017 68 10000 7.7 100 22:38 10.03.2020
1230 Clouds 22 1017 68 10000 7.7 100 22:19 10.03.2020
1231 Clouds 23 1017 68 10000 7.7 110 21:56 10.03.2020
1232 Clouds 22 1017 68 10000 7.7 110 21:38 10.03.2020
1233 Clouds 22 1017 68 10000 7.7 110 21:19 10.03.2020
1234 Clouds 23 1018 68 10000 7.7 120 20:54 10.03.2020
1235 Clouds 23 1018 68 10000 7.7 120 20:36 10.03.2020
1236 Clouds 23 1018 68 10000 7.7 120 20:18 10.03.2020
1237 Clouds 22 1019 64 10000 7.7 120 19:42 10.03.2020
1238 Clouds 22 1019 64 10000 7.7 120 19:42 10.03.2020
1239 Clouds 23 1019 64 10000 7.7 120 19:23 10.03.2020
1240 Clouds 23 1019 73 10000 6.7 120 18:58 10.03.2020
1241 Clouds 23 1019 73 10000 6.7 120 18:40 10.03.2020
1242 Clouds 23 1019 73 10000 6.7 120 18:21 10.03.2020
1243 Clouds 23 1019 73 10000 6.7 120 17:56 10.03.2020
1244 Clouds 23 1020 64 10000 6.2 130 17:37 10.03.2020
1245 Clouds 23 1020 64 10000 6.2 130 17:19 10.03.2020
1246 Clouds 23 1020 64 10000 6.2 120 16:38 10.03.2020
1247 Clouds 23 1020 64 10000 6.2 120 16:18 10.03.2020
1248 Clouds 23 1020 57 10000 5.1 120 15:44 10.03.2020
1249 Clouds 23 1020 57 10000 5.1 120 15:20 10.03.2020
1250 Clouds 22 1020 64 10000 6.2 100 14:59 10.03.2020
1251 Clouds 22 1020 64 10000 6.2 100 14:40 10.03.2020
1252 Clouds 22 1020 64 10000 6.2 100 14:19 10.03.2020
1253 Clouds 21 1020 73 10000 6.2 100 13:45 10.03.2020
1254 Clouds 21 1020 73 10000 6.2 100 13:27 10.03.2020
1255 Clouds 21 1020 77 10000 3.6 110 12:59 10.03.2020
1256 Clouds 20 1020 77 10000 3.6 110 12:39 10.03.2020
1257 Clouds 20 1019 82 10000 3.1 100 12:18 10.03.2020
1258 Clouds 19 1019 82 10000 3.1 100 11:43 10.03.2020
1259 Clouds 19 1019 82 10000 3.1 100 11:24 10.03.2020
1260 Clouds 19 1018 72 10000 7.2 120 10:58 10.03.2020
1261 Clouds 19 1018 72 10000 7.2 120 10:40 10.03.2020
1262 Clouds 19 1018 72 10000 7.2 120 10:21 10.03.2020
1263 Clouds 19 1019 77 10000 3.1 100 09:56 10.03.2020
1264 Clouds 19 1019 77 10000 3.1 100 09:37 10.03.2020
1265 Clouds 19 1019 77 10000 3.1 100 09:18 10.03.2020
1266 Clouds 18 1019 72 10000 4.1 110 08:43 10.03.2020
1267 Clouds 18 1019 72 10000 4.1 110 08:25 10.03.2020
1268 Clouds 19 1019 72 10000 5.7 130 07:46 10.03.2020
1269 Clouds 19 1019 72 10000 5.7 130 07:28 10.03.2020
1270 Clouds 18 1020 72 10000 4.6 120 06:42 10.03.2020
1271 Clouds 18 1020 72 10000 4.6 120 06:23 10.03.2020
1272 Clouds 19 1019 72 10000 5.1 130 05:38 10.03.2020
1273 Clouds 19 1020 72 10000 7.7 140 04:34 10.03.2020
1274 Clouds 19 1020 68 10000 7.2 130 03:34 10.03.2020
1275 Clouds 20 1019 68 10000 7.2 140 01:55 10.03.2020
1276 Clouds 20 1018 68 10000 7.7 150 00:53 10.03.2020
1277 Clouds 20 1018 68 10000 7.7 150 00:30 10.03.2020
1278 Clouds 21 1018 68 10000 7.7 150 23:56 09.03.2020
1279 Clouds 21 1017 73 10000 8.7 140 23:37 09.03.2020
1280 Clouds 21 1017 77 10000 6.2 140 23:19 09.03.2020
1281 Clouds 21 1017 77 10000 6.2 140 22:40 09.03.2020
1282 Clouds 22 1017 77 10000 6.2 140 22:21 09.03.2020
1283 Rain 22 1017 78 8000 6.2 150 21:56 09.03.2020
1284 Rain 22 1017 78 8000 6.2 150 21:56 09.03.2020
1285 Rain 22 1017 78 8000 6.2 150 21:38 09.03.2020
1286 Rain 22 1017 78 8000 6.2 150 21:20 09.03.2020
1287 Clouds 23 1017 73 10000 7.2 130 20:41 09.03.2020
1288 Clouds 23 1017 73 10000 7.2 130 20:23 09.03.2020
1289 Clouds 23 1017 69 10000 6.7 140 19:59 09.03.2020
1290 Clouds 23 1017 69 10000 6.7 140 19:41 09.03.2020
1291 Clouds 24 1017 69 10000 6.7 140 19:20 09.03.2020
1292 Rain 24 1017 65 10000 6.2 130 18:57 09.03.2020
1293 Rain 24 1017 65 10000 6.2 130 18:38 09.03.2020
1294 Rain 24 1017 65 10000 6.2 130 18:18 09.03.2020
1295 Clouds 24 1017 65 10000 6.2 130 17:56 09.03.2020
1296 Clouds 23 1017 73 10000 6.2 120 17:37 09.03.2020
1297 Clouds 23 1017 73 10000 6.2 120 17:37 09.03.2020
1298 Rain 23 1016 73 10000 6.2 110 17:19 09.03.2020
1299 Rain 23 1016 73 10000 6.2 110 16:56 09.03.2020
1300 Rain 22 1016 86 0 5.81 144 16:38 09.03.2020
1301 Clouds 23 1017 69 10000 5.1 150 16:20 09.03.2020
1302 Clouds 23 1017 69 10000 5.1 150 15:56 09.03.2020
1303 Clouds 23 1017 69 10000 5.1 150 15:38 09.03.2020
1304 Clouds 23 1017 69 10000 5.1 150 15:18 09.03.2020
1305 Clouds 22 1017 83 10000 4.6 140 14:39 09.03.2020
1306 Clouds 22 1017 83 10000 4.6 140 14:21 09.03.2020
1307 Clouds 23 1016 73 10000 6.2 140 13:59 09.03.2020
1308 Clouds 23 1016 73 10000 6.2 140 13:59 09.03.2020
1309 Clouds 23 1016 73 10000 6.2 140 13:39 09.03.2020
1310 Clouds 23 1016 73 10000 6.2 140 13:21 09.03.2020
1311 Clouds 23 1016 83 10000 6.7 140 12:58 09.03.2020
1312 Clouds 23 1016 83 10000 6.7 140 12:39 09.03.2020
1313 Clouds 23 1016 83 10000 6.7 140 12:39 09.03.2020
1314 Clouds 22 1016 83 10000 6.7 140 12:19 09.03.2020
1315 Clouds 22 1014 83 10000 4.6 160 11:40 09.03.2020
1316 Clouds 22 1014 83 10000 4.6 160 11:20 09.03.2020
1317 Clouds 23 1013 94 10000 3.1 160 10:57 09.03.2020
1318 Clouds 23 1013 94 10000 3.1 160 10:39 09.03.2020
1319 Clouds 22 1013 94 10000 3.1 160 10:19 09.03.2020
1320 Clouds 22 1013 94 10000 4.1 170 09:42 09.03.2020
1321 Clouds 22 1013 94 10000 4.1 170 09:24 09.03.2020
1322 Clouds 23 1013 83 10000 3.6 160 08:47 09.03.2020
1323 Clouds 23 1013 83 10000 3.6 160 08:29 09.03.2020
1324 Clouds 23 1013 83 10000 3.1 180 07:58 09.03.2020
1325 Clouds 23 1013 83 10000 3.1 180 07:37 09.03.2020
1326 Clouds 23 1013 83 10000 3.1 180 07:18 09.03.2020
1327 Clouds 23 1013 73 10000 2.1 190 06:40 09.03.2020
1328 Clouds 23 1013 73 10000 2.1 190 06:21 09.03.2020
1329 Clouds 23 1013 65 10000 2.1 250 05:45 09.03.2020
1330 Clouds 25 1012 57 10000 1 250 04:59 09.03.2020
1331 Clouds 24 1012 57 10000 1 250 04:39 09.03.2020
1332 Clouds 24 1012 57 10000 1 250 04:20 09.03.2020
1333 Clouds 25 1012 57 10000 1 220 02:55 09.03.2020
1334 Clouds 27 1010 47 10000 1.5 280 00:44 09.03.2020
1335 Clouds 27 1010 47 10000 1.5 280 00:25 09.03.2020
1336 Clouds 27 1010 54 10000 2.1 290 23:59 08.03.2020
1337 Clouds 27 1010 54 10000 2.1 290 23:38 08.03.2020
1338 Clouds 27 1010 54 10000 2.1 290 23:18 08.03.2020
1339 Clouds 29 1010 51 10000 2.1 240 22:41 08.03.2020
1340 Clouds 29 1010 51 10000 2.1 240 22:41 08.03.2020
1341 Clouds 29 1010 51 10000 2.1 240 22:22 08.03.2020
1342 Clouds 31 1010 38 10000 4.1 250 21:59 08.03.2020
1343 Clouds 31 1010 38 10000 4.1 250 21:41 08.03.2020
1344 Clouds 31 1010 38 10000 4.1 250 21:20 08.03.2020
1345 Clouds 31 1009 38 10000 4.1 250 20:57 08.03.2020
1346 Clouds 31 1009 38 10000 4.1 250 20:37 08.03.2020
1347 Clouds 33 1009 38 10000 4.1 250 20:19 08.03.2020
1348 Clouds 33 1009 38 10000 4.1 250 20:19 08.03.2020
1349 Clouds 33 1010 40 10000 5.1 240 19:40 08.03.2020
1350 Clouds 33 1010 40 10000 5.1 240 19:19 08.03.2020
1351 Clear 34 1010 32 10000 5.1 280 18:55 08.03.2020
1352 Clear 34 1010 32 10000 5.1 280 18:37 08.03.2020
1353 Clear 34 1010 32 10000 5.1 280 18:18 08.03.2020
1354 Clear 33 1010 33 10000 5.1 320 17:40 08.03.2020
1355 Clear 33 1010 33 10000 5.1 320 17:21 08.03.2020
1356 Clear 33 1010 33 10000 5.1 320 16:58 08.03.2020
1357 Clear 31 1010 43 10000 6.2 350 16:40 08.03.2020
1358 Clear 31 1010 43 10000 6.2 350 16:21 08.03.2020
1359 Clear 29 1011 51 10000 6.2 350 15:41 08.03.2020
1360 Clear 29 1011 51 10000 6.2 350 15:41 08.03.2020
1361 Clear 28 1011 51 10000 6.2 350 15:22 08.03.2020
1362 Clear 27 1011 65 10000 7.2 10 14:57 08.03.2020
1363 Clear 26 1011 65 10000 7.2 10 14:37 08.03.2020
1364 Clouds 25 1011 65 10000 7.2 10 14:19 08.03.2020
1365 Clouds 23 1011 73 10000 6.2 10 13:41 08.03.2020
1366 Clouds 23 1011 73 10000 6.2 10 13:20 08.03.2020
1367 Clouds 23 1011 73 10000 6.2 10 12:56 08.03.2020
1368 Clouds 21 1011 88 10000 6.2 20 12:36 08.03.2020
1369 Clouds 21 1011 88 10000 6.2 20 12:18 08.03.2020
1370 Clouds 22 1015 93 0 4.47 333 11:41 08.03.2020
1371 Clouds 21 1010 82 10000 4.1 30 11:21 08.03.2020
1372 Clouds 21 1010 82 10000 4.1 30 10:57 08.03.2020
1373 Clouds 21 1010 82 10000 4.1 30 10:39 08.03.2020
1374 Clouds 21 1010 82 10000 4.1 30 10:20 08.03.2020
1375 Clouds 21 1010 88 10000 4.6 30 09:38 08.03.2020
1376 Clouds 21 1010 88 10000 4.6 30 09:20 08.03.2020
1377 Clouds 21 1009 82 10000 5.1 30 08:43 08.03.2020
1378 Clouds 21 1009 82 10000 5.1 30 08:21 08.03.2020
1379 Clear 21 1010 82 10000 4.6 30 07:46 08.03.2020
1380 Clear 21 1010 82 10000 4.6 30 07:27 08.03.2020
1381 Clear 22 1010 73 10000 4.6 40 06:43 08.03.2020
1382 Clear 22 1010 73 10000 4.6 40 06:25 08.03.2020
1383 Clear 22 1015 93 0 4.47 333 05:43 08.03.2020
1384 Clear 23 1010 53 10000 4.1 40 03:52 08.03.2020
1385 Clear 23 1010 53 10000 3.6 50 02:58 08.03.2020
1386 Clouds 23 1009 64 10000 3.6 70 01:38 08.03.2020
1387 Clouds 23 1009 64 10000 3.6 70 01:19 08.03.2020
1388 Clouds 24 1009 69 10000 3.6 100 00:32 08.03.2020
1389 Clouds 25 1009 50 10000 5.1 100 23:58 07.03.2020
1390 Clouds 25 1009 50 10000 5.1 100 23:37 07.03.2020
1391 Clouds 25 1009 50 10000 5.1 100 23:18 07.03.2020
1392 Clouds 26 1009 48 10000 6.2 100 22:38 07.03.2020
1393 Clouds 26 1009 48 10000 6.2 100 22:19 07.03.2020
1394 Clouds 26 1009 48 10000 6.2 100 22:19 07.03.2020
1395 Clouds 27 1009 29 10000 5.1 40 21:45 07.03.2020
1396 Clouds 28 1009 29 10000 5.1 40 21:23 07.03.2020
1397 Clouds 27 1010 31 10000 3.6 50 20:41 07.03.2020
1398 Clouds 28 1010 31 10000 3.6 50 20:22 07.03.2020
1399 Clouds 28 1010 33 10000 3.6 360 19:55 07.03.2020
1400 Clouds 28 1010 33 10000 3.6 360 19:36 07.03.2020
1401 Clouds 28 1010 33 10000 3.6 360 19:18 07.03.2020
1402 Clouds 28 1011 35 10000 6.2 360 18:39 07.03.2020
1403 Clouds 28 1011 35 10000 6.2 360 18:21 07.03.2020
1404 Clouds 28 1012 39 10000 5.1 20 17:42 07.03.2020
1405 Clear 29 1012 39 10000 5.1 20 17:20 07.03.2020
1406 Clear 27 1013 44 10000 6.2 20 16:59 07.03.2020
1407 Clear 27 1013 44 10000 6.2 20 16:40 07.03.2020
1408 Clear 27 1013 44 10000 6.2 20 16:22 07.03.2020
1409 Clear 26 1013 54 10000 7.7 360 15:57 07.03.2020
1410 Clear 26 1013 54 10000 7.7 360 15:37 07.03.2020
1411 Clear 25 1013 54 10000 7.7 360 15:19 07.03.2020
1412 Clear 24 1014 60 10000 8.2 30 14:46 07.03.2020
1413 Clear 24 1014 60 10000 8.2 30 14:25 07.03.2020
1414 Clear 22 1014 77 10000 6.2 30 13:58 07.03.2020
1415 Clear 21 1014 77 10000 6.2 30 13:38 07.03.2020
1416 Clear 21 1014 77 10000 6.2 30 13:19 07.03.2020
1417 Clear 20 1014 73 10000 4.1 40 12:41 07.03.2020
1418 Clear 19 1014 82 10000 6.2 40 12:20 07.03.2020
1419 Clear 18 1013 88 10000 6.2 40 11:57 07.03.2020
1420 Clear 17 1013 88 10000 6.2 40 11:39 07.03.2020
1421 Clear 17 1013 88 10000 6.2 40 11:20 07.03.2020
1422 Clear 17 1013 82 10000 1.5 30 10:41 07.03.2020
1423 Clear 17 1013 82 10000 1.5 30 10:20 07.03.2020
1424 Clear 17 1013 82 10000 3.1 40 09:56 07.03.2020
1425 Clear 17 1013 82 10000 3.1 40 09:37 07.03.2020
1426 Clear 17 1013 82 10000 3.1 40 09:18 07.03.2020
1427 Clear 17 1013 82 10000 2.1 10 08:44 07.03.2020
1428 Clear 17 1013 82 10000 2.1 10 08:21 07.03.2020
1429 Clear 17 1013 77 10000 2.6 340 07:51 07.03.2020
1430 Clear 17 1014 72 0 0.45 19 07:23 07.03.2020
1431 Clear 18 1014 70 0 0.89 5 06:56 07.03.2020
1432 Clear 18 1014 70 0 1.34 17 06:30 07.03.2020
1433 Clear 18 1014 69 0 1.34 96 05:53 07.03.2020
1434 Clear 21 1014 72 10000 5.1 50 04:43 07.03.2020
1435 Clear 24 1015 93 0 4.47 333 02:47 07.03.2020
1436 Clear 24 1014 78 10000 5.1 110 02:24 07.03.2020
1437 Clouds 23 1014 78 10000 5.1 110 01:26 07.03.2020
1438 Clouds 23 1014 78 10000 4.6 110 00:39 07.03.2020
1439 Clouds 24 1014 78 10000 4.6 110 00:20 07.03.2020
1440 Clouds 24 1014 69 10000 5.1 120 23:45 06.03.2020
1441 Clouds 24 1014 69 10000 5.1 120 23:26 06.03.2020
1442 Clouds 24 1014 69 10000 5.1 120 22:48 06.03.2020
1443 Clouds 24 1014 65 10000 6.2 120 22:22 06.03.2020
1444 Clouds 25 1014 61 10000 6.2 120 21:56 06.03.2020
1445 Clouds 25 1014 61 10000 6.2 120 21:38 06.03.2020
1446 Clouds 25 1014 61 10000 6.2 120 21:18 06.03.2020
1447 Clouds 25 1014 61 10000 6.2 120 21:18 06.03.2020
1448 Clouds 24 1015 61 10000 5.7 140 20:38 06.03.2020
1449 Clouds 25 1015 61 10000 5.7 140 20:20 06.03.2020
1450 Clouds 25 1016 73 10000 6.7 120 19:47 06.03.2020
1451 Clouds 26 1016 51 10000 1.5 0 19:28 06.03.2020
1452 Clouds 26 1016 51 10000 1.5 0 18:57 06.03.2020
1453 Clouds 26 1017 42 10000 3.1 330 18:38 06.03.2020
1454 Clouds 26 1017 42 10000 3.1 330 18:19 06.03.2020
1455 Clouds 26 1017 45 10000 4.1 30 17:42 06.03.2020
1456 Clouds 26 1017 45 10000 4.1 30 17:42 06.03.2020
1457 Clouds 26 1018 50 10000 5.1 10 17:23 06.03.2020
1458 Clouds 26 1018 50 10000 5.1 10 16:59 06.03.2020
1459 Clouds 26 1018 50 10000 5.1 10 16:40 06.03.2020
1460 Clouds 27 1018 50 10000 5.1 10 16:40 06.03.2020
1461 Clouds 26 1018 50 10000 5.1 10 16:20 06.03.2020
1462 Clouds 25 1018 65 10000 6.2 20 15:44 06.03.2020
1463 Clouds 25 1018 65 10000 6.2 20 15:24 06.03.2020
1464 Clouds 24 1018 69 10000 7.2 30 14:45 06.03.2020
1465 Clouds 23 1018 69 10000 7.2 30 14:25 06.03.2020
1466 Clouds 22 1019 83 10000 8.2 30 13:59 06.03.2020
1467 Clouds 22 1019 83 10000 8.2 30 13:41 06.03.2020
1468 Clouds 21 1019 83 10000 8.2 30 13:21 06.03.2020
1469 Clouds 19 1019 88 10000 6.2 30 12:56 06.03.2020
1470 Clouds 19 1019 88 10000 6.2 30 12:37 06.03.2020
1471 Clouds 18 1019 93 10000 3.6 30 12:18 06.03.2020
1472 Clouds 18 1019 93 10000 3.6 30 11:56 06.03.2020
1473 Clouds 17 1019 93 10000 3.6 30 11:38 06.03.2020
1474 Clouds 17 1019 93 10000 3.6 30 11:19 06.03.2020
1475 Clouds 17 1019 88 10000 1.5 70 10:38 06.03.2020
1476 Clouds 17 1019 88 10000 1.5 70 10:20 06.03.2020
1477 Clouds 18 1018 88 10000 1.5 50 09:54 06.03.2020
1478 Clouds 18 1018 88 10000 1.5 50 09:36 06.03.2020
1479 Clouds 18 1018 88 10000 1.5 50 09:18 06.03.2020
1480 Clouds 18 1018 88 10000 1.5 80 08:41 06.03.2020
1481 Clouds 18 1018 88 10000 1.5 80 08:23 06.03.2020
1482 Clouds 20 1018 77 10000 2.1 40 07:47 06.03.2020
1483 Clouds 20 1018 77 10000 2.1 40 07:26 06.03.2020
1484 Clouds 20 1018 77 10000 2.1 70 06:53 06.03.2020
1485 Clouds 20 1018 77 10000 2.1 70 06:34 06.03.2020
1486 Clouds 21 1018 72 10000 2.6 60 05:42 06.03.2020
1487 -273 0 0 0 0 0 05:21 06.03.2020
1488 Clouds 22 1018 73 10000 3.1 80 04:53 06.03.2020
1489 Clouds 23 1018 78 10000 5.1 120 01:56 06.03.2020
1490 Clouds 23 1018 78 10000 5.1 120 01:38 06.03.2020
1491 Clouds 23 1018 78 10000 5.1 120 01:19 06.03.2020
1492 Clouds 23 1018 78 10000 6.7 120 00:32 06.03.2020
1493 Clouds 23 1017 73 10000 5.1 110 23:50 05.03.2020
1494 Clouds 23 1017 73 10000 5.1 110 23:29 05.03.2020
1495 Clear 24 1018 69 10000 7.2 130 22:57 05.03.2020
1496 Clear 24 1018 69 10000 7.2 130 22:38 05.03.2020
1497 Clear 24 1018 69 10000 7.2 130 22:20 05.03.2020
1498 Clear 25 1018 65 10000 8.2 120 21:56 05.03.2020
1499 Clear 24 1018 65 10000 8.2 120 21:38 05.03.2020
1500 Clear 25 1018 65 10000 8.2 120 21:19 05.03.2020
1501 Clear 26 1017 48 10000 6.7 120 20:55 05.03.2020
1502 Clear 26 1017 48 10000 6.7 120 20:37 05.03.2020
1503 Clear 26 1017 48 10000 6.7 120 20:18 05.03.2020
1504 Clear 26 1018 48 10000 4.1 100 19:55 05.03.2020
1505 Clear 26 1018 48 10000 4.1 100 19:37 05.03.2020
1506 Clear 26 1018 48 10000 4.1 100 19:18 05.03.2020
1507 Clear 26 1019 39 10000 3.6 30 18:38 05.03.2020
1508 Clear 26 1019 39 10000 3.6 30 18:20 05.03.2020
1509 Clear 25 1020 42 10000 2.6 70 17:59 05.03.2020
1510 Clear 25 1020 42 10000 2.6 70 17:40 05.03.2020
1511 Clear 25 1020 42 10000 2.6 70 17:22 05.03.2020
1512 Clouds 25 1021 54 10000 3.1 40 16:54 05.03.2020
1513 Clouds 25 1021 54 10000 3.1 40 16:36 05.03.2020
1514 Clouds 25 1021 54 10000 3.1 40 16:18 05.03.2020
1515 Clear 25 1021 57 10000 4.1 40 15:44 05.03.2020
1516 Clear 24 1021 57 10000 4.1 40 15:22 05.03.2020
1517 Clear 23 1021 69 10000 4.1 30 14:56 05.03.2020
1518 Clear 23 1021 69 10000 4.1 30 14:37 05.03.2020
1519 Clouds 23 1021 69 10000 4.1 30 14:18 05.03.2020
1520 Clouds 22 1022 73 10000 5.1 30 13:43 05.03.2020
1521 Clouds 22 1022 73 10000 5.1 30 13:21 05.03.2020
1522 Clouds 20 1021 82 10000 3.1 30 12:58 05.03.2020
1523 Clouds 20 1021 82 10000 3.1 30 12:38 05.03.2020
1524 Clouds 20 1021 82 10000 3.1 30 12:19 05.03.2020
1525 Clouds 18 1020 93 10000 1.5 30 11:56 05.03.2020
1526 Clouds 17 1020 93 10000 1.5 30 11:37 05.03.2020
1527 Clear 16 1020 93 10000 1.5 30 11:18 05.03.2020
1528 Clear 16 1019 88 10000 1 0 10:57 05.03.2020
1529 Clear 16 1019 88 10000 1 0 10:38 05.03.2020
1530 Clear 16 1019 88 10000 1 0 10:38 05.03.2020
1531 Clear 17 1019 88 10000 1 0 10:20 05.03.2020
1532 Clear 16 1019 88 10000 1.5 10 09:45 05.03.2020
1533 Clear 16 1019 88 10000 1.5 10 09:26 05.03.2020
1534 Clear 17 1018 82 10000 2.1 20 08:47 05.03.2020
1535 Clear 18 1018 82 10000 2.1 20 08:29 05.03.2020
1536 Clear 20 1018 82 10000 2.1 30 07:48 05.03.2020
1537 Clear 20 1018 82 10000 2.1 30 07:22 05.03.2020
1538 Clear 19 1018 77 10000 4.1 50 06:49 05.03.2020
1539 Clear 19 1018 77 10000 4.1 50 06:22 05.03.2020
1540 Clear 19 1019 72 10000 2.6 60 05:57 05.03.2020
1541 Clear 19 1019 72 10000 2.6 60 05:31 05.03.2020
1542 Clear 21 1019 77 10000 3.6 90 04:23 05.03.2020
1543 Clear 22 1019 77 10000 3.1 90 03:56 05.03.2020
1544 Clear 23 1019 78 10000 5.1 100 02:21 05.03.2020
1545 Clear 23 1018 83 10000 6.2 110 01:22 05.03.2020
1546 Clear 23 1018 83 10000 6.7 120 00:29 05.03.2020
1547 Clear 23 1017 64 10000 5.7 130 23:43 04.03.2020
1548 Clear 23 1017 64 10000 5.7 130 23:24 04.03.2020
1549 Clouds 24 1017 65 10000 7.2 130 22:59 04.03.2020
1550 Clouds 24 1017 65 10000 7.2 130 22:40 04.03.2020
1551 Clouds 24 1017 65 10000 7.2 130 22:19 04.03.2020
1552 Clouds 25 1017 51 10000 7.7 130 21:59 04.03.2020
1553 Clouds 25 1017 51 10000 7.7 130 21:41 04.03.2020
1554 Clouds 26 1017 51 10000 7.7 130 21:20 04.03.2020
1555 Clouds 26 1017 42 10000 6.2 130 20:57 04.03.2020
1556 Clouds 26 1017 42 10000 6.2 130 20:39 04.03.2020
1557 Clouds 27 1017 42 10000 6.2 130 20:20 04.03.2020
1558 Clouds 26 1017 42 10000 5.1 120 19:42 04.03.2020
1559 Clouds 27 1017 42 10000 5.1 120 19:24 04.03.2020
1560 Clouds 27 1017 42 10000 6.2 130 18:57 04.03.2020
1561 Clouds 27 1017 42 10000 6.2 130 18:38 04.03.2020
1562 Clouds 27 1017 42 10000 6.2 130 18:20 04.03.2020
1563 Clouds 26 1017 48 10000 5.1 190 17:56 04.03.2020
1564 Clouds 26 1017 48 10000 5.1 190 17:38 04.03.2020
1565 Clouds 26 1017 48 10000 5.1 190 17:19 04.03.2020
1566 Clear 26 1018 51 10000 1.5 0 16:44 04.03.2020
1567 Clear 26 1018 51 10000 1.5 0 16:26 04.03.2020
1568 Clear 26 1018 57 10000 1.5 30 15:59 04.03.2020
1569 Clear 26 1018 57 10000 1.5 30 15:41 04.03.2020
1570 Clear 26 1018 57 10000 1.5 30 15:22 04.03.2020
1571 Clear 26 1018 57 10000 1.5 30 14:55 04.03.2020
1572 Clear 25 1018 65 10000 4.6 30 14:37 04.03.2020
1573 Clear 25 1018 65 10000 4.6 30 14:18 04.03.2020
1574 Clear 24 1018 78 10000 5.1 30 13:56 04.03.2020
1575 Clear 23 1018 78 10000 5.1 30 13:38 04.03.2020
1576 Clear 23 1018 78 10000 5.1 30 13:19 04.03.2020
1577 Clear 21 1018 88 10000 6.7 40 12:45 04.03.2020
1578 Clear 20 1018 88 10000 6.7 40 12:27 04.03.2020
1579 Clear 21 1017 100 10000 3.1 30 11:59 04.03.2020
1580 Clear 21 1017 100 10000 3.1 30 11:41 04.03.2020
1581 Clear 20 1017 100 10000 3.1 30 11:22 04.03.2020
1582 Clear 20 1017 93 10000 3.1 20 10:56 04.03.2020
1583 Clear 20 1017 93 10000 3.1 20 10:38 04.03.2020
1584 Clear 20 1017 93 10000 3.1 20 10:18 04.03.2020
1585 Clear 19 1016 88 10000 4.1 20 09:42 04.03.2020
1586 Clear 19 1016 88 10000 4.1 20 09:21 04.03.2020
1587 Clear 19 1016 88 10000 3.6 30 08:44 04.03.2020
1588 Clear 21 1016 88 10000 3.6 30 08:26 04.03.2020
1589 Clear 21 1016 82 10000 4.6 20 07:54 04.03.2020
1590 Clear 21 1016 82 10000 4.6 20 07:35 04.03.2020
1591 Clear 21 1016 82 10000 4.6 30 06:58 04.03.2020
1592 Clear 20 1016 82 10000 4.6 30 06:40 04.03.2020
1593 Clear 20 1016 82 10000 4.6 30 06:20 04.03.2020
1594 Clear 21 1016 77 10000 5.7 40 05:45 04.03.2020
1595 Clear 22 1016 73 10000 4.6 40 04:21 04.03.2020
1596 Clear 23 1016 68 10000 4.6 60 03:38 04.03.2020
1597 Clear 22 1016 83 10000 3.1 90 03:00 04.03.2020
1598 Clear 23 1016 83 10000 3.1 90 02:37 04.03.2020
1599 Clear 23 1016 83 10000 3.1 90 02:18 04.03.2020
1600 Clear 23 1016 83 10000 3.6 110 01:50 04.03.2020
1601 Clear 23 1016 78 10000 5.7 120 00:44 04.03.2020
1602 Clear 24 1016 78 10000 5.7 120 00:24 04.03.2020
1603 Clouds 24 1016 61 10000 5.7 120 23:45 03.03.2020
1604 Clouds 24 1016 61 10000 5.7 120 23:27 03.03.2020
1605 Clouds 25 1016 54 10000 6.7 120 22:57 03.03.2020
1606 Clouds 25 1016 54 10000 6.7 120 22:39 03.03.2020
1607 Clouds 25 1016 54 10000 6.7 120 22:19 03.03.2020
1608 Clouds 26 1016 54 10000 5.1 130 21:56 03.03.2020
1609 Clouds 26 1016 54 10000 5.1 130 21:37 03.03.2020
1610 Clouds 26 1016 54 10000 5.1 130 21:18 03.03.2020
1611 Clouds 27 1016 45 10000 6.7 160 20:41 03.03.2020
1612 Clouds 28 1016 45 10000 6.7 160 20:21 03.03.2020
1613 Clouds 28 1016 45 10000 6.7 160 20:21 03.03.2020
1614 Clouds 28 1016 45 10000 6.2 170 19:59 03.03.2020
1615 Clouds 27 1016 45 10000 6.2 170 19:37 03.03.2020
1616 Clouds 27 1016 45 10000 6.2 170 19:19 03.03.2020
1617 Clouds 27 1017 35 10000 2.6 90 18:58 03.03.2020
1618 Clouds 28 1017 35 10000 2.6 90 18:40 03.03.2020
1619 Clouds 28 1017 35 10000 2.6 90 18:21 03.03.2020
1620 Clouds 28 1018 40 10000 2.1 0 17:57 03.03.2020
1621 Clouds 28 1018 40 10000 2.1 0 17:57 03.03.2020
1622 Clouds 28 1018 40 10000 2.1 0 17:39 03.03.2020
1623 Clouds 28 1018 40 10000 2.1 0 17:21 03.03.2020
1624 Clear 27 1018 51 10000 4.1 20 16:57 03.03.2020
1625 Clear 27 1018 51 10000 4.1 20 16:37 03.03.2020
1626 Clear 27 1018 51 10000 4.1 20 16:19 03.03.2020
1627 Clear 27 1019 57 10000 5.1 30 15:45 03.03.2020
1628 Clear 27 1019 57 10000 5.1 30 15:22 03.03.2020
1629 Clear 25 1019 60 10000 6.2 20 14:57 03.03.2020
1630 Clear 25 1019 60 10000 6.2 20 14:38 03.03.2020
1631 Clear 24 1019 60 10000 6.2 20 14:19 03.03.2020
1632 Clear 23 1019 73 10000 6.2 30 13:56 03.03.2020
1633 Clear 23 1019 73 10000 6.2 30 13:38 03.03.2020
1634 Clear 22 1019 73 10000 6.2 30 13:19 03.03.2020
1635 Clear 20 1019 82 10000 5.1 30 12:43 03.03.2020
1636 Clear 20 1019 82 10000 5.1 30 12:24 03.03.2020
1637 Clear 19 1019 82 10000 4.1 30 11:56 03.03.2020
1638 Clear 19 1019 88 10000 3.6 30 11:37 03.03.2020
1639 Clear 19 1019 88 10000 3.6 30 11:18 03.03.2020
1640 Clear 20 1018 82 10000 3.6 30 10:55 03.03.2020
1641 Clear 20 1018 82 10000 3.6 30 10:37 03.03.2020
1642 Clear 20 1018 82 10000 3.6 30 10:18 03.03.2020
1643 Clear 20 1018 82 10000 3.6 30 10:18 03.03.2020
1644 Clear 19 1018 82 10000 3.6 30 09:43 03.03.2020
1645 Clear 19 1018 82 10000 3.6 30 09:22 03.03.2020
1646 Clear 19 1018 77 10000 3.6 30 08:43 03.03.2020
1647 Clear 19 1018 77 10000 3.6 30 08:24 03.03.2020
1648 Clear 21 1018 77 10000 4.1 30 07:58 03.03.2020
1649 Clear 21 1018 77 10000 4.1 30 07:39 03.03.2020
1650 Clear 21 1018 77 10000 4.1 30 07:19 03.03.2020
1651 Clear 21 1019 73 10000 5.1 30 06:41 03.03.2020
1652 Clear 21 1019 73 10000 5.1 30 06:22 03.03.2020
1653 Clear 21 1019 77 10000 5.1 40 05:46 03.03.2020
1654 Clear 22 1019 73 10000 6.2 40 04:57 03.03.2020
1655 Clear 23 1015 93 0 4.47 333 03:32 03.03.2020
1656 Clear 23 1019 78 10000 3.6 100 01:39 03.03.2020
1657 Clear 24 1018 73 10000 4.6 120 00:48 03.03.2020
1658 Clear 24 1018 73 10000 4.6 120 00:26 03.03.2020
1659 Clear 25 1018 54 10000 5.7 110 23:51 02.03.2020
1660 Clear 25 1018 54 10000 5.7 110 23:23 02.03.2020
1661 Clouds 26 1018 51 10000 5.1 110 22:58 02.03.2020
1662 Clouds 26 1018 51 10000 5.1 110 22:39 02.03.2020
1663 Clouds 27 1018 51 10000 5.1 110 22:20 02.03.2020
1664 Clouds 27 1018 40 10000 6.7 110 21:59 02.03.2020
1665 Clouds 27 1018 40 10000 6.7 110 21:39 02.03.2020
1666 Clouds 28 1018 40 10000 6.7 110 21:21 02.03.2020
1667 Clouds 29 1019 35 10000 5.1 90 20:58 02.03.2020
1668 Clouds 28 1019 35 10000 5.1 90 20:38 02.03.2020
1669 Clouds 29 1019 35 10000 5.1 90 20:20 02.03.2020
1670 Clouds 29 1019 35 10000 5.1 120 19:55 02.03.2020
1671 Clouds 29 1019 35 10000 5.1 120 19:37 02.03.2020
1672 Clouds 29 1019 35 10000 5.1 120 19:18 02.03.2020
1673 Clouds 29 1020 35 10000 5.1 50 18:44 02.03.2020
1674 Clouds 30 1020 35 10000 5.1 50 18:20 02.03.2020
1675 Clear 29 1021 38 10000 6.2 30 17:59 02.03.2020
1676 Clear 29 1021 38 10000 6.2 30 17:40 02.03.2020
1677 Clear 29 1021 38 10000 6.2 30 17:21 02.03.2020
1678 Clear 29 1021 38 10000 6.2 30 17:21 02.03.2020
1679 Clear 29 1021 45 10000 5.1 30 16:56 02.03.2020
1680 Clear 29 1021 45 10000 5.1 30 16:37 02.03.2020
1681 Clear 29 1021 45 10000 5.1 30 16:19 02.03.2020
1682 Clear 27 1022 54 10000 8.2 20 15:44 02.03.2020
1683 Clear 27 1022 54 10000 8.2 20 15:20 02.03.2020
1684 Clear 26 1022 65 10000 6.7 30 14:56 02.03.2020
1685 Clear 26 1022 65 10000 6.7 30 14:36 02.03.2020
1686 Clear 25 1022 65 10000 6.7 30 14:18 02.03.2020
1687 Clear 24 1022 73 10000 7.7 30 13:40 02.03.2020
1688 Clear 23 1022 73 10000 7.7 30 13:19 02.03.2020
1689 Clear 22 1022 83 10000 7.7 40 12:54 02.03.2020
1690 Clear 22 1022 83 10000 7.7 40 12:36 02.03.2020
1691 Clear 21 1022 83 10000 7.7 40 12:18 02.03.2020
1692 Clear 20 1021 94 10000 6.7 40 11:38 02.03.2020
1693 Clear 19 1021 94 10000 6.7 40 11:19 02.03.2020
1694 Clear 21 1020 82 10000 4.1 30 10:55 02.03.2020
1695 Clear 21 1020 82 10000 4.1 30 10:36 02.03.2020
1696 Clear 21 1020 82 10000 4.1 30 10:18 02.03.2020
1697 Clear 21 1020 82 10000 4.1 30 09:45 02.03.2020
1698 Clear 21 1020 82 10000 4.1 30 09:26 02.03.2020
1699 Clear 21 1020 82 10000 3.6 30 08:47 02.03.2020
1700 Clear 21 1020 82 10000 3.6 30 08:22 02.03.2020
1701 Clear 22 1020 83 10000 5.1 30 07:47 02.03.2020
1702 Clear 22 1020 83 10000 5.1 30 07:28 02.03.2020
1703 Clear 23 1020 78 10000 4.6 30 06:50 02.03.2020
1704 Clear 23 1020 73 10000 5.7 40 05:59 02.03.2020
1705 Clear 23 1020 73 10000 5.7 40 05:23 02.03.2020
1706 Clear 24 1020 64 10000 3.6 70 03:25 02.03.2020
1707 Clear 24 1020 61 10000 3.6 100 02:53 02.03.2020
1708 Clear 24 1020 61 10000 3.6 100 02:29 02.03.2020
1709 Clear 24 1020 61 10000 5.1 100 01:33 02.03.2020
1710 Clear 25 1019 57 10000 5.7 110 00:48 02.03.2020
1711 Clear 26 1019 57 10000 5.7 110 00:22 02.03.2020
1712 Clear 26 1019 57 10000 5.1 110 23:41 01.03.2020
1713 Clear 26 1019 57 10000 5.1 110 23:21 01.03.2020
1714 Clear 27 1019 54 10000 6.2 110 22:44 01.03.2020
1715 Clouds 28 1019 51 10000 4.6 120 22:21 01.03.2020
1716 Clouds 28 1019 48 10000 3.1 120 21:57 01.03.2020
1717 Clouds 29 1019 48 10000 3.1 120 21:39 01.03.2020
1718 Clouds 28 1019 48 10000 3.1 120 21:20 01.03.2020
1719 Clouds 28 1019 40 10000 4.1 170 20:45 01.03.2020
1720 Clouds 28 1019 40 10000 4.1 170 20:26 01.03.2020
1721 Clouds 28 1020 43 10000 5.1 190 19:59 01.03.2020
1722 Clouds 28 1020 43 10000 5.1 190 19:40 01.03.2020
1723 Clouds 29 1020 43 10000 5.1 190 19:21 01.03.2020
1724 Clouds 29 1020 38 10000 4.1 150 18:54 01.03.2020
1725 Clouds 30 1020 38 10000 4.1 150 18:36 01.03.2020
1726 Clouds 30 1020 38 10000 4.1 150 18:18 01.03.2020
1727 Clouds 30 1020 38 10000 4.1 150 17:54 01.03.2020
1728 Clouds 30 1020 33 10000 2.1 320 17:36 01.03.2020
1729 Clouds 30 1020 33 10000 2.1 320 17:18 01.03.2020
1730 Clear 29 1021 40 10000 2.6 330 16:39 01.03.2020
1731 Clear 29 1021 40 10000 2.6 330 16:19 01.03.2020
1732 Clear 30 1021 35 10000 5.7 10 15:59 01.03.2020
1733 Clouds 30 1021 45 10000 4.1 20 15:40 01.03.2020
1734 Clouds 30 1021 45 10000 4.1 20 15:22 01.03.2020
1735 Clouds 28 1021 51 10000 5.7 10 14:58 01.03.2020
1736 Clouds 28 1021 51 10000 5.7 10 14:39 01.03.2020
1737 Clouds 28 1021 51 10000 5.7 10 14:21 01.03.2020
1738 Clouds 28 1021 51 10000 5.7 10 14:21 01.03.2020
1739 Clouds 28 1021 51 10000 5.7 10 14:21 01.03.2020
1740 Clear 25 1021 61 10000 6.2 20 13:57 01.03.2020
1741 Clear 25 1021 61 10000 6.2 20 13:38 01.03.2020
1742 Clear 25 1021 61 10000 6.2 20 13:19 01.03.2020
1743 Clear 23 1021 78 10000 5.1 30 12:56 01.03.2020
1744 Clear 22 1021 78 10000 5.1 30 12:38 01.03.2020
1745 Clear 21 1021 78 10000 5.1 30 12:19 01.03.2020
1746 Clear 19 1021 93 10000 5.1 30 11:40 01.03.2020
1747 Clear 19 1021 93 10000 5.1 30 11:19 01.03.2020
1748 Clear 21 1020 82 10000 3.1 20 10:56 01.03.2020
1749 Clear 20 1020 82 10000 3.1 20 10:37 01.03.2020
1750 Clear 20 1020 82 10000 3.1 20 10:18 01.03.2020
1751 Clear 21 1019 82 10000 3.6 30 09:44 01.03.2020
1752 Clear 21 1019 82 10000 3.6 30 09:26 01.03.2020
1753 Clear 21 1019 77 10000 3.6 30 08:47 01.03.2020
1754 Clear 21 1019 77 10000 3.6 30 08:28 01.03.2020
1755 Clear 21 1019 82 10000 3.1 30 07:57 01.03.2020
1756 Clear 21 1019 82 10000 3.1 30 07:39 01.03.2020
1757 Clear 21 1019 82 10000 3.1 30 07:21 01.03.2020
1758 Clear 22 1019 77 10000 3.1 30 06:42 01.03.2020
1759 Clear 22 1020 77 10000 2.6 40 05:58 01.03.2020
1760 Clear 22 1019 83 10000 4.1 110 03:38 01.03.2020
1761 Clear 23 1019 78 10000 3.6 110 02:23 01.03.2020
1762 Clear 23 1019 78 10000 2.6 120 01:46 01.03.2020
1763 Clear 23 1019 73 10000 3.6 120 00:59 01.03.2020
1764 Clear 23 1019 73 10000 3.6 120 00:39 01.03.2020
1765 Clear 24 1019 73 10000 3.6 120 00:18 01.03.2020
1766 Clear 24 1018 54 10000 3.1 110 23:41 29.02.2020
1767 Clear 24 1018 54 10000 3.1 110 23:22 29.02.2020
1768 Clouds 26 1018 45 10000 3.1 130 22:39 29.02.2020
1769 Clouds 26 1018 45 10000 3.1 130 22:21 29.02.2020
1770 Clouds 27 1018 37 10000 5.1 180 21:41 29.02.2020
1771 Clouds 27 1018 37 10000 5.1 180 21:21 29.02.2020
1772 Clouds 28 1018 38 10000 5.1 180 20:42 29.02.2020
1773 Clouds 28 1018 38 10000 5.1 180 20:21 29.02.2020
1774 Clouds 27 1019 48 10000 5.1 170 19:56 29.02.2020
1775 Clouds 27 1019 48 10000 5.1 170 19:37 29.02.2020
1776 Clouds 28 1019 48 10000 5.1 170 19:19 29.02.2020
1777 Clouds 28 1019 40 10000 3.1 190 18:42 29.02.2020
1778 Clouds 28 1019 40 10000 3.1 190 18:23 29.02.2020
1779 Clouds 27 1019 33 10000 2.1 200 17:57 29.02.2020
1780 Clouds 27 1019 33 10000 2.1 200 17:39 29.02.2020
1781 Clouds 28 1019 33 10000 2.1 200 17:19 29.02.2020
1782 Clouds 26 1020 45 10000 2.6 20 16:45 29.02.2020
1783 Clouds 26 1020 45 10000 2.6 20 16:20 29.02.2020
1784 Clouds 25 1021 47 10000 2.1 360 15:58 29.02.2020
1785 Clouds 25 1021 47 10000 2.1 360 15:38 29.02.2020
1786 Clouds 25 1021 47 10000 2.1 360 15:20 29.02.2020
1787 Clouds 24 1021 60 10000 3.1 40 14:40 29.02.2020
1788 Clouds 24 1021 60 10000 3.1 40 14:22 29.02.2020
1789 Clouds 23 1021 73 10000 3.1 70 13:46 29.02.2020
1790 Clouds 22 1021 73 10000 3.1 70 13:28 29.02.2020
1791 Clouds 22 1020 82 10000 5.1 70 12:58 29.02.2020
1792 Clouds 22 1020 82 10000 5.1 70 12:38 29.02.2020
1793 Clouds 21 1020 82 10000 5.1 70 12:20 29.02.2020
1794 Clouds 21 1020 82 10000 3.6 110 11:45 29.02.2020
1795 Clouds 21 1020 82 10000 3.6 110 11:27 29.02.2020
1796 Clouds 18 1019 82 10000 3.1 90 10:55 29.02.2020
1797 Clouds 18 1019 82 10000 3.1 90 10:36 29.02.2020
1798 Clouds 19 1019 82 10000 3.1 90 10:18 29.02.2020
1799 Clouds 18 1019 82 10000 3.6 120 09:46 29.02.2020
1800 Clouds 19 1019 82 10000 3.6 120 09:18 29.02.2020
1801 Clouds 18 1019 82 10000 4.59 65 08:40 29.02.2020
1802 Clouds 18 1019 82 10000 6.66 52 08:21 29.02.2020
1803 Clouds 18 1018 82 10000 2.1 70 07:53 29.02.2020
1804 Clouds 19 1018 82 10000 2.1 70 07:53 29.02.2020
1805 Clouds 19 1018 82 10000 2.1 70 07:25 29.02.2020
1806 Clouds 19 1019 77 10000 2.1 100 06:56 29.02.2020
1807 Clouds 19 1019 77 10000 2.1 100 06:30 29.02.2020
1808 Clouds 19 1018 77 10000 5.1 90 05:52 29.02.2020
1809 Clouds 19 1018 77 10000 5.1 90 05:32 29.02.2020
1810 Clouds 19 1018 82 10000 4.1 90 04:25 29.02.2020
1811 Clouds 19 1018 77 10000 5.7 100 03:37 29.02.2020
1812 Clouds 20 1018 77 10000 5.7 100 03:18 29.02.2020
1813 Clouds 20 1018 82 10000 6.7 120 02:26 29.02.2020
1814 Clouds 21 1017 73 10000 6.2 120 00:52 29.02.2020
1815 Clouds 21 1017 73 10000 6.2 120 00:28 29.02.2020
1816 Clouds 22 1016 73 10000 6.2 120 23:42 28.02.2020
1817 Clouds 21 1016 73 10000 6.2 120 23:24 28.02.2020
1818 Clouds 23 1016 65 10000 6.2 120 22:44 28.02.2020
1819 Clouds 23 1016 65 10000 6.2 120 22:24 28.02.2020
1820 Clouds 24 1016 54 10000 6.2 170 21:56 28.02.2020
1821 Clouds 24 1016 54 10000 6.2 170 21:38 28.02.2020
1822 Clouds 24 1016 54 10000 6.2 170 21:20 28.02.2020
1823 Clouds 25 1016 61 10000 6.7 190 20:39 28.02.2020
1824 Clouds 25 1016 61 10000 6.7 190 20:21 28.02.2020
1825 Clouds 25 1016 57 10000 7.2 200 19:57 28.02.2020
1826 Clouds 26 1016 57 10000 7.2 200 19:39 28.02.2020
1827 Clouds 26 1016 57 10000 7.2 200 19:39 28.02.2020
1828 Clouds 26 1016 57 10000 7.2 200 19:20 28.02.2020
1829 Clouds 28 1016 40 10000 5.1 220 18:48 28.02.2020
1830 Clouds 28 1016 40 10000 5.1 220 18:29 28.02.2020
1831 Clouds 30 1016 42 10000 4.1 240 17:59 28.02.2020
1832 Clouds 29 1016 42 10000 4.1 240 17:40 28.02.2020
1833 Clouds 30 1016 42 10000 4.1 240 17:21 28.02.2020
1834 Clouds 30 1017 42 10000 4.6 270 16:44 28.02.2020
1835 Clouds 30 1017 42 10000 4.6 270 16:20 28.02.2020
1836 Clouds 28 1017 44 10000 4.6 270 15:58 28.02.2020
1837 Clouds 28 1017 44 10000 4.6 270 15:40 28.02.2020
1838 Clouds 27 1017 44 10000 4.6 270 15:19 28.02.2020
1839 Clouds 26 1016 44 10000 3.1 360 14:57 28.02.2020
1840 Clouds 26 1016 44 10000 3.1 360 14:38 28.02.2020
1841 Clouds 27 1016 44 10000 3.1 360 14:18 28.02.2020
1842 Clouds 23 1016 56 10000 4.1 340 13:41 28.02.2020
1843 Clouds 23 1016 56 10000 4.1 340 13:20 28.02.2020
1844 Clouds 20 1016 63 10000 3.1 360 12:58 28.02.2020
1845 Clouds 20 1016 63 10000 3.1 360 12:40 28.02.2020
1846 Clouds 19 1016 63 10000 3.1 360 12:22 28.02.2020
1847 Clouds 16 1015 72 10000 3.1 360 11:41 28.02.2020
1848 Clouds 16 1015 72 10000 3.1 360 11:23 28.02.2020
1849 Clouds 18 1014 67 10000 2.6 360 10:57 28.02.2020
1850 Clouds 20 1014 67 10000 2.6 360 10:37 28.02.2020
1851 Clouds 20 1014 67 10000 2.6 360 10:37 28.02.2020
1852 Clouds 19 1014 67 10000 2.6 360 10:18 28.02.2020
1853 Clouds 19 1013 67 10000 1 0 09:43 28.02.2020
1854 Clouds 19 1013 67 10000 1 0 09:20 28.02.2020
1855 Clouds 21 1013 59 10000 2.6 360 08:55 28.02.2020
1856 Clouds 20 1013 59 10000 2.6 360 08:36 28.02.2020
1857 Clouds 20 1013 59 10000 2.6 360 08:18 28.02.2020
1858 Clouds 21 1013 55 10000 2.1 350 07:39 28.02.2020
1859 Clouds 21 1013 55 10000 2.1 350 07:19 28.02.2020
1860 Clouds 21 1013 55 10000 2.1 20 06:41 28.02.2020
1861 Clouds 22 1013 52 10000 2.1 30 05:50 28.02.2020
1862 Clear 21 1013 52 10000 3.1 10 04:34 28.02.2020
1863 Clear 22 1013 49 10000 2.1 340 03:43 28.02.2020
1864 Clear 21 1013 46 10000 2.6 20 02:45 28.02.2020
1865 Clear 21 1013 46 10000 2.6 20 02:20 28.02.2020
1866 Clouds 24 1012 35 10000 1.5 270 00:39 28.02.2020
1867 Clouds 24 1012 35 10000 1.5 270 00:21 28.02.2020
1868 Clouds 26 1012 39 10000 2.1 230 23:41 27.02.2020
1869 Clouds 25 1012 39 10000 2.1 230 23:19 27.02.2020
1870 Clouds 26 1012 36 10000 3.1 240 22:41 27.02.2020
1871 Clouds 27 1012 36 10000 3.1 240 22:22 27.02.2020
1872 Clouds 27 1012 30 10000 5.1 210 21:56 27.02.2020
1873 Clouds 28 1012 30 10000 5.1 210 21:37 27.02.2020
1874 Clouds 28 1012 30 10000 5.1 210 21:18 27.02.2020
1875 Clouds 28 1013 32 10000 5.1 240 20:54 27.02.2020
1876 Clouds 27 1013 32 10000 5.1 240 20:36 27.02.2020
1877 Clouds 27 1013 32 10000 5.1 240 20:18 27.02.2020
1878 Clouds 27 1013 34 10000 4.6 240 19:42 27.02.2020
1879 Clouds 27 1013 34 10000 4.6 240 19:23 27.02.2020
1880 Clouds 27 1014 32 10000 4.1 230 18:58 27.02.2020
1881 Clouds 27 1014 32 10000 4.1 230 18:39 27.02.2020
1882 Clouds 27 1014 32 10000 4.1 230 18:20 27.02.2020
1883 Clouds 27 1014 28 10000 5.7 260 17:56 27.02.2020
1884 Clouds 27 1014 28 10000 5.7 260 17:37 27.02.2020
1885 Clouds 27 1014 28 10000 5.7 260 17:18 27.02.2020
1886 Clear 26 1015 36 10000 5.1 280 16:54 27.02.2020
1887 Clear 27 1015 36 10000 5.1 280 16:36 27.02.2020
1888 Clear 26 1015 36 10000 5.1 280 16:18 27.02.2020
1889 Clear 24 1015 33 10000 4.6 310 15:39 27.02.2020
1890 Clear 24 1015 33 10000 4.6 310 15:20 27.02.2020
1891 Clear 24 1015 53 10000 5.7 330 14:59 27.02.2020
1892 Clear 23 1015 53 10000 5.7 330 14:39 27.02.2020
1893 Clear 23 1015 53 10000 5.7 330 14:21 27.02.2020
1894 Clear 17 1015 63 10000 3.6 330 13:45 27.02.2020
1895 Clear 16 1015 63 10000 3.6 330 13:23 27.02.2020
1896 Clear 17 1015 72 10000 5.1 340 12:59 27.02.2020
1897 Clear 17 1015 72 10000 5.1 340 12:59 27.02.2020
1898 Clear 16 1015 72 10000 5.1 340 12:41 27.02.2020
1899 Clear 16 1015 72 10000 5.1 340 12:19 27.02.2020
1900 Clear 14 1015 58 10000 3.6 350 11:45 27.02.2020
1901 Clear 14 1015 58 10000 3.6 350 11:23 27.02.2020
1902 Clear 12 1014 76 10000 3.1 350 10:55 27.02.2020
1903 Clear 12 1014 76 10000 3.1 350 10:37 27.02.2020
1904 Clear 12 1014 76 10000 3.1 350 10:18 27.02.2020
1905 Clear 12 1014 76 10000 2.1 340 09:40 27.02.2020
1906 Clear 12 1014 76 10000 2.1 340 09:40 27.02.2020
1907 Clear 12 1014 76 10000 2.1 340 09:22 27.02.2020
1908 Clear 13 1014 71 10000 2.6 350 08:42 27.02.2020
1909 Clear 18 1014 71 10000 2.6 350 08:23 27.02.2020
1910 Clouds 19 1014 76 10000 2.6 330 07:48 27.02.2020
1911 Clouds 19 1014 76 10000 2.6 330 07:48 27.02.2020
1912 Clouds 18 1014 76 10000 2.6 330 07:28 27.02.2020
1913 Clouds 13 1014 76 10000 2.1 10 06:54 27.02.2020
1914 Clouds 13 1014 76 10000 2.1 10 06:20 27.02.2020
1915 Clear 14 1015 76 10000 2.6 30 04:22 27.02.2020
1916 Clear 16 1015 67 10000 3.1 30 02:54 27.02.2020
1917 Clouds 19 1014 52 10000 1.5 150 00:47 27.02.2020
1918 Clouds 20 1014 52 10000 1.5 150 00:29 27.02.2020
1919 Clouds 20 1014 46 10000 4.1 180 23:41 26.02.2020
1920 Clear 20 1014 46 10000 4.1 180 23:20 26.02.2020
1921 Clear 21 1014 49 10000 5.1 160 22:59 26.02.2020
1922 Clear 21 1014 49 10000 5.1 160 22:40 26.02.2020
1923 Clear 21 1014 49 10000 5.1 160 22:21 26.02.2020
1924 Clear 22 1014 53 10000 5.1 190 21:58 26.02.2020
1925 Clear 22 1014 53 10000 5.1 190 21:38 26.02.2020
1926 Clear 22 1014 53 10000 5.1 190 21:19 26.02.2020
1927 Clouds 22 1014 46 10000 5.1 190 20:56 26.02.2020
1928 Clouds 22 1014 46 10000 5.1 190 20:38 26.02.2020
1929 Clouds 22 1014 46 10000 5.1 190 20:18 26.02.2020
1930 Clouds 22 1014 56 10000 5.1 180 19:47 26.02.2020
1931 Clouds 22 1014 56 10000 5.1 180 19:21 26.02.2020
1932 Clouds 23 1014 56 10000 5.1 190 18:59 26.02.2020
1933 Clouds 22 1014 56 10000 5.1 190 18:41 26.02.2020
1934 Clouds 22 1014 56 10000 5.1 190 18:41 26.02.2020
1935 Clouds 23 1014 56 10000 5.1 190 18:22 26.02.2020
1936 Clouds 22 1014 53 10000 1 0 17:59 26.02.2020
1937 Clouds 23 1014 53 10000 1 0 17:39 26.02.2020
1938 Clouds 23 1014 53 10000 1 0 17:18 26.02.2020
1939 Clouds 23 1014 53 10000 1 0 16:56 26.02.2020
1940 Clouds 23 1014 53 10000 1 0 16:37 26.02.2020
1941 Clouds 22 1014 49 10000 4.1 200 16:18 26.02.2020
1942 Clouds 22 1015 60 10000 2.6 220 15:42 26.02.2020
1943 Clouds 22 1015 60 10000 2.6 220 15:23 26.02.2020
1944 Clouds 21 1015 64 10000 2.6 250 14:43 26.02.2020
1945 Clouds 20 1015 64 10000 2.6 250 14:23 26.02.2020
1946 Clouds 18 1015 68 10000 3.1 270 13:44 26.02.2020
1947 Clouds 18 1015 68 10000 3.1 270 13:44 26.02.2020
1948 Clouds 18 1015 68 10000 3.1 270 13:23 26.02.2020
1949 Clouds 17 1015 82 10000 1 0 12:58 26.02.2020
1950 Clouds 15 1015 82 10000 1 0 12:37 26.02.2020
1951 Clouds 15 1015 82 10000 1 0 12:18 26.02.2020
1952 Clouds 13 1014 87 10000 3.06 200 11:42 26.02.2020
1953 Clouds 13 1014 87 10000 3.06 200 11:22 26.02.2020
1954 Clouds 13 1014 87 10000 3.06 200 11:22 26.02.2020
1955 Clouds 12 1014 81 10000 1.5 320 10:59 26.02.2020
1956 Clouds 12 1014 81 10000 1.5 320 10:39 26.02.2020
1957 Clouds 12 1014 81 10000 1.5 320 10:21 26.02.2020
1958 Clear 12 1013 81 10000 1.5 320 09:43 26.02.2020
1959 Clear 12 1013 81 10000 1.5 320 09:23 26.02.2020
1960 Clear 12 1013 81 10000 0.5 250 08:58 26.02.2020
1961 Clear 12 1013 81 10000 0.5 250 08:37 26.02.2020
1962 Clear 12 1013 81 10000 0.5 250 08:18 26.02.2020
1963 Clear 12 1013 81 10000 1 330 07:42 26.02.2020
1964 Clear 12 1013 81 10000 1 330 07:23 26.02.2020
1965 Clear 13 1013 71 10000 1.5 30 06:50 26.02.2020
1966 Clear 13 1013 71 10000 1.5 30 06:32 26.02.2020
1967 Clear 14 1013 67 10000 3.1 70 05:51 26.02.2020
1968 Clear 13 1013 67 10000 3.1 70 05:23 26.02.2020
1969 Clear 15 1014 55 10000 2.6 50 04:19 26.02.2020
1970 Clear 18 1013 55 10000 3.6 120 02:21 26.02.2020
1971 Clear 18 1012 63 10000 4.1 130 01:45 26.02.2020
1972 Clouds 18 1012 63 10000 4.1 140 00:48 26.02.2020
1973 Clouds 19 1012 63 10000 4.1 140 00:24 26.02.2020
1974 Clear 20 1011 60 10000 5.1 150 23:45 25.02.2020
1975 Clear 20 1011 60 10000 5.1 150 23:27 25.02.2020
1976 Clear 21 1011 60 10000 5.7 180 22:59 25.02.2020
1977 Clear 21 1011 60 10000 5.7 180 22:41 25.02.2020
1978 Clear 21 1011 60 10000 5.7 180 22:19 25.02.2020
1979 Clouds 21 1011 60 10000 8.2 190 21:55 25.02.2020
1980 Clouds 21 1011 60 10000 8.2 190 21:36 25.02.2020
1981 Clouds 21 1011 60 10000 8.2 190 21:18 25.02.2020
1982 Clouds 21 1011 60 10000 6.2 150 20:54 25.02.2020
1983 Clouds 21 1011 60 10000 6.2 150 20:36 25.02.2020
1984 Clouds 21 1011 60 10000 6.2 150 20:18 25.02.2020
1985 Clouds 21 1011 56 10000 5.1 210 19:40 25.02.2020
1986 Clouds 21 1011 56 10000 5.1 210 19:19 25.02.2020
1987 Clouds 21 1011 60 10000 6.2 200 18:42 25.02.2020
1988 Clouds 21 1011 60 10000 6.2 200 18:22 25.02.2020
1989 Clouds 21 1011 60 10000 6.7 180 17:59 25.02.2020
1990 Clouds 21 1011 60 10000 6.7 180 17:38 25.02.2020
1991 Clouds 21 1011 60 10000 6.7 180 17:20 25.02.2020
1992 Clouds 21 1010 56 10000 4.1 190 16:58 25.02.2020
1993 Clouds 21 1010 56 10000 4.1 190 16:40 25.02.2020
1994 Clouds 21 1010 56 10000 4.1 190 16:22 25.02.2020
1995 Clouds 22 1010 56 10000 6.7 210 15:57 25.02.2020
1996 Clouds 22 1010 56 10000 6.7 210 15:38 25.02.2020
1997 Clouds 22 1010 56 10000 6.7 210 15:18 25.02.2020
1998 Clouds 22 1010 60 10000 4.6 190 14:56 25.02.2020
1999 Clouds 22 1010 60 10000 4.6 190 14:37 25.02.2020
2000 Clouds 22 1010 60 10000 4.6 190 14:37 25.02.2020
2001 Clouds 22 1010 60 10000 4.6 190 14:18 25.02.2020
2002 Clouds 22 1010 60 10000 4.6 190 14:18 25.02.2020
2003 Clouds 22 1010 60 10000 4.6 190 14:18 25.02.2020
2004 Clouds 22 1008 64 10000 3.1 210 13:55 25.02.2020
2005 Clouds 22 1008 64 10000 3.1 210 13:37 25.02.2020
2006 Clouds 21 1008 64 10000 3.1 210 13:18 25.02.2020
2007 Clouds 21 1008 68 10000 3.1 190 12:41 25.02.2020
2008 Clouds 21 1008 68 10000 3.1 190 12:21 25.02.2020
2009 Clouds 22 1007 73 10000 6.2 200 11:57 25.02.2020
2010 Clouds 22 1007 73 10000 6.2 200 11:38 25.02.2020
2011 Clouds 22 1007 73 10000 6.2 200 11:19 25.02.2020
2012 Clouds 22 1007 73 10000 6.2 200 11:19 25.02.2020
2013 Clouds 22 1007 68 10000 4.1 230 10:59 25.02.2020
2014 Clouds 22 1007 68 10000 4.1 230 10:59 25.02.2020
2015 Clouds 22 1007 68 10000 4.1 230 10:40 25.02.2020
2016 Clouds 22 1007 68 10000 4.1 230 10:21 25.02.2020
2017 Clouds 21 1006 72 10000 1.5 280 09:41 25.02.2020
2018 Clouds 20 1006 72 10000 1.5 280 09:21 25.02.2020
2019 Clouds 19 1006 77 10000 2.1 300 08:45 25.02.2020
2020 Clouds 21 1006 77 10000 2.1 300 08:27 25.02.2020
2021 Clouds 22 1005 72 10000 2.6 350 07:56 25.02.2020
2022 Clouds 20 1005 72 10000 2.6 350 07:36 25.02.2020
2023 Clouds 20 1005 72 10000 2.6 350 07:18 25.02.2020
2024 Clouds 21 1006 72 10000 2.1 350 06:28 25.02.2020
2025 Clouds 21 1006 72 10000 2.1 360 05:25 25.02.2020
2026 Clouds 23 1006 64 10000 2.1 310 02:54 25.02.2020
2027 Clear 23 1005 49 10000 2.6 300 01:30 25.02.2020
2028 Clear 25 1005 44 10000 3.1 350 00:43 25.02.2020
2029 Clear 25 1005 44 10000 3.1 350 00:22 25.02.2020
2030 Clouds 26 1004 42 10000 5.1 340 23:40 24.02.2020
2031 Clouds 26 1004 42 10000 5.1 340 23:20 24.02.2020
2032 Clouds 27 1005 37 10000 5.1 360 22:39 24.02.2020
2033 Clouds 28 1005 37 10000 5.1 360 22:19 24.02.2020
2034 Clouds 28 1005 37 10000 5.1 340 21:57 24.02.2020
2035 Clouds 28 1005 37 10000 5.1 340 21:39 24.02.2020
2036 Clouds 29 1005 37 10000 5.1 340 21:19 24.02.2020
2037 Clouds 29 1006 35 10000 5.1 360 20:57 24.02.2020
2038 Clouds 29 1006 35 10000 5.1 360 20:38 24.02.2020
2039 Clouds 30 1006 35 10000 5.1 360 20:19 24.02.2020
2040 Clouds 29 1007 39 10000 5.1 360 19:56 24.02.2020
2041 Clouds 29 1007 39 10000 5.1 360 19:37 24.02.2020
2042 Clouds 29 1007 39 10000 5.1 360 19:19 24.02.2020
2043 Clouds 29 1008 39 10000 5.1 360 18:42 24.02.2020
2044 Clouds 29 1008 39 10000 5.1 360 18:24 24.02.2020
2045 Clouds 27 1009 42 10000 6.2 360 17:57 24.02.2020
2046 Clouds 28 1009 42 10000 6.2 360 17:39 24.02.2020
2047 Clouds 28 1009 42 10000 6.2 360 17:19 24.02.2020
2048 Clouds 26 1010 47 10000 7.7 360 16:55 24.02.2020
2049 Clouds 26 1010 47 10000 7.7 360 16:37 24.02.2020
2050 Clouds 26 1010 47 10000 7.7 360 16:19 24.02.2020
2051 Clear 25 1011 50 10000 7.7 360 15:57 24.02.2020
2052 Clear 26 1011 50 10000 7.7 360 15:38 24.02.2020
2053 Clear 25 1011 50 10000 7.7 360 15:20 24.02.2020
2054 Clear 23 1011 64 10000 7.7 30 14:42 24.02.2020
2055 Clear 23 1011 64 10000 7.7 30 14:23 24.02.2020
2056 Clear 22 1012 68 10000 7.7 30 13:59 24.02.2020
2057 Clear 21 1012 68 10000 7.7 30 13:41 24.02.2020
2058 Clear 21 1012 68 10000 7.7 30 13:23 24.02.2020
2059 Clear 19 1012 77 10000 7.7 30 12:59 24.02.2020
2060 Clear 19 1012 77 10000 7.7 30 12:41 24.02.2020
2061 Clear 18 1012 77 10000 7.7 30 12:22 24.02.2020
2062 Clear 16 1012 82 10000 5.1 30 11:49 24.02.2020
2063 Clear 16 1012 82 10000 5.1 30 11:31 24.02.2020
2064 Clear 16 1012 82 10000 4.6 30 10:52 24.02.2020
2065 Clear 16 1012 82 10000 4.6 30 10:32 24.02.2020
2066 Clear 16 1012 77 10000 5.1 30 09:58 24.02.2020
2067 Clear 16 1012 77 10000 5.1 30 09:39 24.02.2020
2068 Clear 16 1012 77 10000 5.1 30 09:19 24.02.2020
2069 Clear 16 1012 77 10000 5.1 30 09:19 24.02.2020
2070 Clear 17 1012 77 10000 5.7 30 08:48 24.02.2020
2071 Clear 17 1012 77 10000 5.7 30 08:28 24.02.2020
2072 Clouds 17 1012 72 10000 6.7 30 07:54 24.02.2020
2073 Clouds 17 1012 72 10000 6.7 30 07:32 24.02.2020
2074 Clouds 17 1013 68 10000 4.6 30 06:49 24.02.2020
2075 Clouds 17 1013 68 10000 4.6 30 06:22 24.02.2020
2076 Clouds 18 1014 68 10000 4.6 40 05:41 24.02.2020
2077 Clouds 18 1014 68 10000 4.6 40 05:23 24.02.2020
2078 Clouds 20 1014 88 10000 8.55 12 02:57 24.02.2020
2079 Clear 21 1014 77 10000 3.6 100 01:53 24.02.2020
2080 Clear 21 1014 77 10000 3.6 100 01:28 24.02.2020
2081 Clear 21 1014 73 10000 5.1 120 00:44 24.02.2020
2082 Clear 22 1014 73 10000 5.1 120 00:20 24.02.2020
2083 Clouds 23 1014 50 10000 5.1 120 23:42 23.02.2020
2084 Clouds 23 1014 50 10000 5.1 120 23:23 23.02.2020
2085 Clouds 23 1014 57 10000 4.1 120 22:58 23.02.2020
2086 Clouds 23 1014 57 10000 4.1 120 22:40 23.02.2020
2087 Clouds 23 1014 57 10000 4.1 120 22:21 23.02.2020
2088 Clouds 24 1015 50 10000 5.1 140 21:46 23.02.2020
2089 Clouds 24 1015 50 10000 5.1 140 21:21 23.02.2020
2090 Clouds 24 1016 41 10000 2.6 120 20:59 23.02.2020
2091 Clouds 24 1016 41 10000 2.6 120 20:40 23.02.2020
2092 Clouds 24 1016 41 10000 2.6 120 20:22 23.02.2020
2093 Clouds 25 1017 36 10000 4.6 360 19:59 23.02.2020
2094 Clouds 24 1017 36 10000 4.6 360 19:41 23.02.2020
2095 Clouds 25 1017 36 10000 4.6 360 19:20 23.02.2020
2096 Clouds 24 1018 41 10000 2.1 50 18:59 23.02.2020
2097 Clouds 24 1018 41 10000 2.1 50 18:38 23.02.2020
2098 Clouds 24 1018 41 10000 2.1 50 18:19 23.02.2020
2099 Clouds 24 1019 41 10000 3.6 340 17:58 23.02.2020
2100 Clouds 24 1019 41 10000 3.6 340 17:39 23.02.2020
2101 Clouds 24 1019 41 10000 3.6 340 17:21 23.02.2020
2102 Clouds 23 1020 56 10000 5.1 20 16:56 23.02.2020
2103 Clouds 23 1020 56 10000 5.1 20 16:36 23.02.2020
2104 Clouds 23 1020 56 10000 5.1 20 16:18 23.02.2020
2105 Clouds 23 1020 53 10000 5.1 10 15:40 23.02.2020
2106 Clouds 22 1020 53 10000 5.1 10 15:21 23.02.2020
2107 Clear 21 1021 60 10000 6.7 30 14:59 23.02.2020
2108 Clear 21 1021 60 10000 6.7 30 14:59 23.02.2020
2109 Clear 21 1021 60 10000 6.7 30 14:41 23.02.2020
2110 Clear 20 1021 60 10000 6.7 30 14:22 23.02.2020
2111 Clear 20 1021 60 10000 6.7 30 14:22 23.02.2020
2112 Clear 19 1021 68 10000 3.6 30 13:58 23.02.2020
2113 Clear 18 1021 68 10000 3.6 30 13:39 23.02.2020
2114 Clear 18 1021 68 10000 3.6 30 13:21 23.02.2020
2115 Clear 16 1021 82 10000 2.1 30 12:44 23.02.2020
2116 Clear 15 1021 82 10000 2.1 30 12:23 23.02.2020
2117 Clear 12 1021 93 10000 1.5 30 11:59 23.02.2020
2118 Clear 12 1021 93 10000 1.5 30 11:38 23.02.2020
2119 Clear 12 1021 93 10000 1.5 30 11:19 23.02.2020
2120 Clear 10 1020 87 10000 1 10 10:56 23.02.2020
2121 Clear 11 1020 87 10000 1 10 10:38 23.02.2020
2122 Clear 11 1020 87 10000 1 10 10:20 23.02.2020
2123 Clear 12 1020 87 10000 3.41 355 09:41 23.02.2020
2124 Clear 12 1020 87 10000 3.41 355 09:21 23.02.2020
2125 Clear 12 1020 87 10000 1.5 20 08:59 23.02.2020
2126 Clear 12 1020 87 10000 1.5 20 08:41 23.02.2020
2127 Clear 12 1020 87 10000 1.5 20 08:21 23.02.2020
2128 Clear 12 1020 87 10000 3.88 15 07:40 23.02.2020
2129 Clear 12 1020 87 10000 3.88 15 07:18 23.02.2020
2130 Clear 12 1021 81 8000 3.88 15 06:19 23.02.2020
2131 Clear 14 1022 76 10000 2.97 88 04:49 23.02.2020
2132 Clear 17 1022 67 10000 2.97 88 03:50 23.02.2020
2133 Clouds 17 1022 63 10000 1.5 140 02:38 23.02.2020
2134 Clouds 17 1022 63 10000 1 130 01:27 23.02.2020
2135 Clouds 17 1022 63 10000 2.6 150 00:55 23.02.2020
2136 Clouds 17 1022 63 10000 2.6 150 00:36 23.02.2020
2137 Clouds 18 1022 63 10000 2.6 150 00:18 23.02.2020
2138 Clear 18 1022 63 10000 4.1 180 23:41 22.02.2020
2139 Clouds 18 1022 63 10000 4.1 180 23:19 22.02.2020
2140 Clouds 19 1022 59 10000 4.6 170 22:44 22.02.2020
2141 Clouds 19 1022 59 10000 4.6 170 22:19 22.02.2020
2142 Clouds 19 1022 59 10000 4.6 180 21:43 22.02.2020
2143 Clouds 19 1022 59 10000 4.6 180 21:24 22.02.2020
2144 Clouds 19 1022 52 10000 3.6 200 20:55 22.02.2020
2145 Clouds 19 1022 52 10000 3.6 200 20:36 22.02.2020
2146 Clouds 20 1022 52 10000 3.6 200 20:18 22.02.2020
2147 Clouds 20 1023 56 10000 4.6 180 19:42 22.02.2020
2148 Clouds 20 1023 56 10000 4.6 180 19:42 22.02.2020
2149 Clouds 20 1023 56 10000 4.6 180 19:22 22.02.2020
2150 Clouds 20 1023 56 10000 3.6 180 18:54 22.02.2020
2151 Clouds 20 1023 56 10000 3.6 180 18:54 22.02.2020
2152 Clouds 20 1023 56 10000 3.6 180 18:36 22.02.2020
2153 Clouds 20 1023 56 10000 3.6 180 18:18 22.02.2020
2154 Clouds 20 1024 59 10000 5.1 150 17:43 22.02.2020
2155 Clouds 20 1024 59 10000 5.1 150 17:25 22.02.2020
2156 Clouds 19 1025 55 10000 4.6 180 16:58 22.02.2020
2157 Clouds 20 1025 55 10000 4.6 180 16:39 22.02.2020
2158 Clouds 19 1025 55 10000 4.6 180 16:20 22.02.2020
2159 Clouds 19 1025 55 10000 4.6 180 16:20 22.02.2020
2160 Clouds 19 1025 59 10000 5.1 190 15:45 22.02.2020
2161 Clouds 19 1025 59 10000 5.1 190 15:45 22.02.2020
2162 Clouds 19 1025 59 10000 5.1 190 15:27 22.02.2020
2163 Clouds 19 1025 59 10000 4.6 190 14:57 22.02.2020
2164 Clouds 19 1025 59 10000 4.6 190 14:39 22.02.2020
2165 Clouds 18 1025 59 10000 4.6 190 14:19 22.02.2020
2166 Clouds 18 1024 59 10000 5.1 170 13:41 22.02.2020
2167 Clouds 18 1024 59 10000 5.1 170 13:20 22.02.2020
2168 Clouds 18 1024 59 10000 4.1 180 12:48 22.02.2020
2169 Clouds 18 1024 59 10000 4.1 180 12:26 22.02.2020
2170 Clouds 16 1023 63 10000 4.1 180 11:56 22.02.2020
2171 Clouds 16 1023 63 10000 4.1 180 11:38 22.02.2020
2172 Clouds 16 1023 63 10000 4.1 180 11:20 22.02.2020
2173 Clouds 16 1022 59 10000 6.7 190 10:42 22.02.2020
2174 Clouds 16 1022 59 10000 6.7 190 10:42 22.02.2020
2175 Clouds 15 1022 59 10000 6.7 190 10:21 22.02.2020
2176 Clouds 15 1022 58 10000 6.2 190 09:59 22.02.2020
2177 Clouds 15 1022 58 10000 6.2 190 09:40 22.02.2020
2178 Clouds 15 1022 58 10000 6.2 190 09:22 22.02.2020
2179 Clouds 16 1022 59 10000 6.7 190 08:51 22.02.2020
2180 Clouds 16 1022 59 10000 6.7 190 08:28 22.02.2020
2181 Clouds 15 1022 63 10000 7.7 190 07:58 22.02.2020
2182 Clouds 16 1022 63 10000 7.7 190 07:38 22.02.2020
2183 Clouds 16 1022 63 10000 7.7 190 07:18 22.02.2020
2184 Clouds 16 1022 55 10000 7.2 200 06:43 22.02.2020
2185 Clouds 16 1022 55 10000 7.2 200 04:45 22.02.2020
2186 Clouds 16 1022 55 10000 8.2 180 03:52 22.02.2020
2187 Clouds 17 1022 51 10000 10.3 200 02:38 22.02.2020
2188 Clouds 17 1022 55 10000 8.7 180 01:48 22.02.2020
2189 Clouds 17 1022 55 10000 8.7 180 01:29 22.02.2020
2190 Clouds 17 1021 48 10000 9.8 200 00:48 22.02.2020
2191 Clouds 17 1021 48 10000 9.8 200 00:29 22.02.2020
2192 Clouds 17 1022 55 10000 12.22 182 23:53 21.02.2020
2193 Clouds 17 1022 55 10000 12.22 182 23:26 21.02.2020
2194 Clouds 18 1021 55 10000 7.7 210 22:59 21.02.2020
2195 Clouds 18 1021 55 10000 7.7 210 22:40 21.02.2020
2196 Clouds 18 1021 55 10000 7.7 210 22:21 21.02.2020
2197 Clouds 19 1021 48 10000 7.7 220 21:55 21.02.2020
2198 Clouds 19 1021 48 10000 7.7 220 21:37 21.02.2020
2199 Clouds 19 1021 48 10000 7.7 220 21:18 21.02.2020
2200 Clouds 19 1021 45 10000 7.7 210 20:41 21.02.2020
2201 Clouds 19 1021 45 10000 7.7 210 20:23 21.02.2020
2202 Clouds 19 1021 45 10000 11.14 200 19:39 21.02.2020
2203 Clouds 19 1021 45 10000 11.14 200 19:19 21.02.2020
2204 Clouds 20 1021 45 10000 11.14 200 18:43 21.02.2020
2205 Clouds 19 1021 45 10000 11.14 200 18:23 21.02.2020
2206 Clouds 19 1021 45 10000 11.14 200 17:57 21.02.2020
2207 Clouds 19 1021 45 10000 11.14 200 17:37 21.02.2020
2208 Clouds 19 1021 45 10000 12.11 208 17:19 21.02.2020
2209 Clouds 19 1021 48 10000 10.3 210 16:44 21.02.2020
2210 Clouds 19 1021 48 10000 10.3 210 16:24 21.02.2020
2211 Clouds 19 1021 52 10000 7.7 210 15:59 21.02.2020
2212 Clouds 18 1021 52 10000 7.7 210 15:38 21.02.2020
2213 Clouds 19 1021 52 10000 7.7 210 15:18 21.02.2020
2214 Clouds 18 1021 55 10000 7.7 210 14:42 21.02.2020
2215 Clouds 18 1021 55 10000 7.7 210 14:22 21.02.2020
2216 Rain 18 1020 52 3000 8.7 240 13:59 21.02.2020
2217 Rain 18 1020 52 3000 8.7 240 13:39 21.02.2020
2218 Rain 18 1020 52 3000 8.7 240 13:20 21.02.2020
2219 Clouds 17 1020 59 10000 9.3 210 12:43 21.02.2020
2220 Clouds 16 1020 77 10000 9.3 210 12:24 21.02.2020
2221 Rain 15 1020 72 5000 7.7 210 11:56 21.02.2020
2222 Clouds 16 1019 82 10000 7.7 220 11:37 21.02.2020
2223 Clouds 15 1019 82 10000 7.7 220 11:19 21.02.2020
2224 Clouds 16 1019 51 10000 7.7 230 10:42 21.02.2020
2225 Clouds 16 1018 59 10000 8.2 230 10:20 21.02.2020
2226 Clouds 16 1018 55 10000 7.7 220 09:58 21.02.2020
2227 Clouds 16 1018 55 10000 7.7 220 09:38 21.02.2020
2228 Clouds 17 1018 55 10000 7.7 220 09:20 21.02.2020
2229 Clouds 17 1018 55 10000 7.2 230 08:54 21.02.2020
2230 Clouds 17 1018 55 10000 7.2 230 08:36 21.02.2020
2231 Clouds 17 1018 55 10000 7.2 230 08:18 21.02.2020
2232 Clouds 17 1018 55 10000 6.7 230 07:41 21.02.2020
2233 Clouds 17 1018 55 10000 6.7 230 07:20 21.02.2020
2234 Clouds 17 1018 55 10000 6.2 220 06:55 21.02.2020
2235 Clouds 17 1018 55 10000 6.2 220 06:31 21.02.2020
2236 Clouds 17 1018 52 10000 7.2 210 05:55 21.02.2020
2237 Clouds 17 1018 52 10000 7.2 210 04:39 21.02.2020
2238 Clouds 17 1018 52 10000 7.2 210 04:20 21.02.2020
2239 Clouds 17 1018 48 10000 7.2 230 03:44 21.02.2020
2240 Clouds 18 1017 48 10000 5.7 210 02:58 21.02.2020
2241 Clouds 19 1017 52 10000 7.7 210 01:29 21.02.2020
2242 Clouds 19 1016 48 10000 6.2 210 00:46 21.02.2020
2243 Clouds 19 1016 48 10000 6.2 210 00:24 21.02.2020
2244 Clouds 20 1016 48 10000 7.7 210 23:57 20.02.2020
2245 Clouds 20 1016 48 10000 7.7 210 23:39 20.02.2020
2246 Clouds 20 1016 48 10000 7.7 210 23:20 20.02.2020
2247 Clouds 21 1016 49 10000 7.7 230 22:39 20.02.2020
2248 Clouds 21 1016 49 10000 7.7 230 22:21 20.02.2020
2249 Clouds 21 1017 40 10000 7.7 200 21:57 20.02.2020
2250 Clouds 21 1017 40 10000 7.7 200 21:57 20.02.2020
2251 Clouds 21 1017 40 10000 7.7 200 21:37 20.02.2020
2252 Clouds 21 1017 40 10000 7.7 200 21:37 20.02.2020
2253 Clouds 22 1017 40 10000 7.7 200 21:19 20.02.2020
2254 Clouds 21 1017 43 10000 7.2 210 20:56 20.02.2020
2255 Clouds 21 1017 43 10000 7.2 210 20:38 20.02.2020
2256 Clouds 21 1017 43 10000 7.2 210 20:19 20.02.2020
2257 Clouds 20 1017 45 10000 7.7 210 19:58 20.02.2020
2258 Clouds 21 1017 45 10000 7.7 210 19:40 20.02.2020
2259 Clouds 20 1017 45 10000 7.7 210 19:22 20.02.2020
2260 Clouds 21 1018 40 10000 7.7 210 18:40 20.02.2020
2261 Clouds 21 1018 40 10000 7.7 210 18:21 20.02.2020
2262 Clouds 21 1017 42 10000 10.3 210 17:58 20.02.2020
2263 Clouds 20 1017 42 10000 10.3 210 17:39 20.02.2020
2264 Clouds 20 1017 42 10000 10.3 210 17:38 20.02.2020
2265 Clouds 20 1017 42 10000 10.3 210 17:19 20.02.2020
2266 Clouds 20 1017 42 10000 10.3 210 16:56 20.02.2020
2267 Clouds 20 1017 42 10000 8.7 200 16:38 20.02.2020
2268 Clouds 20 1017 42 10000 8.7 200 16:18 20.02.2020
2269 Clouds 20 1017 40 10000 10.3 210 15:42 20.02.2020
2270 Clouds 20 1017 40 10000 10.3 210 15:22 20.02.2020
2271 Clouds 19 1017 45 10000 7.7 210 14:57 20.02.2020
2272 Clouds 19 1017 45 10000 7.7 210 14:39 20.02.2020
2273 Clouds 19 1017 45 10000 7.7 210 14:21 20.02.2020
2274 Clouds 19 1016 45 10000 8.2 210 13:54 20.02.2020
2275 Clouds 19 1016 45 10000 8.2 210 13:36 20.02.2020
2276 Clouds 19 1016 45 10000 8.2 210 13:18 20.02.2020
2277 Clouds 19 1015 45 10000 7.2 211 12:42 20.02.2020
2278 Clouds 18 1015 45 10000 7.2 211 12:21 20.02.2020
2279 Clouds 18 1015 52 10000 7.2 210 11:58 20.02.2020
2280 Clouds 18 1015 52 10000 7.2 210 11:39 20.02.2020
2281 Clouds 18 1015 52 10000 7.2 210 11:20 20.02.2020
2282 Clouds 18 1013 48 10000 7.7 210 10:56 20.02.2020
2283 Clouds 18 1013 48 10000 7.7 210 10:37 20.02.2020
2284 Clouds 19 1013 48 10000 7.7 210 10:19 20.02.2020
2285 Clouds 19 1012 60 10000 7.2 210 09:39 20.02.2020
2286 Clouds 20 1012 60 10000 7.2 210 09:20 20.02.2020
2287 Rain 20 1012 60 10000 7.2 210 08:44 20.02.2020
2288 Clouds 19 1012 60 10000 7.2 200 08:24 20.02.2020
2289 Clouds 21 1011 60 10000 6.7 200 07:48 20.02.2020
2290 Clouds 21 1011 60 10000 6.7 200 07:27 20.02.2020
2291 Clear 21 1011 60 10000 4.1 190 06:58 20.02.2020
2292 Clear 21 1011 60 10000 4.1 190 06:40 20.02.2020
2293 Clouds 21 1010 77 10000 6.7 190 05:47 20.02.2020
2294 Clouds 21 1010 77 10000 6.7 190 05:47 20.02.2020
2295 Clouds 21 1010 77 10000 6.7 190 05:25 20.02.2020
2296 Clear 22 1010 77 10000 1.5 340 04:48 20.02.2020
2297 Clear 20 1010 72 10000 2.1 320 03:46 20.02.2020
2298 Clear 22 1009 68 10000 1.5 310 02:47 20.02.2020
2299 Clear 21 1008 52 10000 1.5 320 01:25 20.02.2020
2300 Clear 23 1008 46 10000 2.1 290 00:45 20.02.2020
2301 Clear 24 1008 46 10000 2.1 290 00:24 20.02.2020
2302 Clouds 25 1008 50 10000 5.7 260 23:46 19.02.2020
2303 Clouds 25 1008 50 10000 5.7 260 23:18 19.02.2020
2304 Clouds 26 1008 47 10000 6.2 270 22:42 19.02.2020
2305 Clouds 26 1008 47 10000 6.2 270 22:23 19.02.2020
2306 Rain 26 1008 54 10000 6.7 240 21:58 19.02.2020
2307 Rain 26 1008 54 10000 6.7 240 21:39 19.02.2020
2308 Rain 26 1008 54 10000 6.7 240 21:19 19.02.2020
2309 Clouds 27 1008 45 10000 7.2 260 20:57 19.02.2020
2310 Clouds 27 1008 45 10000 7.2 260 20:37 19.02.2020
2311 Clouds 27 1008 45 10000 7.2 260 20:19 19.02.2020
2312 Clouds 27 1009 34 10000 5.7 270 19:57 19.02.2020
2313 Clouds 28 1009 34 10000 5.7 270 19:37 19.02.2020
2314 Clouds 27 1009 34 10000 5.7 270 19:19 19.02.2020
2315 Clouds 27 1009 48 10000 4.1 300 18:57 19.02.2020
2316 Clouds 27 1009 48 10000 4.1 300 18:39 19.02.2020
2317 Clouds 27 1009 48 10000 4.1 300 18:20 19.02.2020
2318 Clouds 27 1010 48 10000 5.1 290 17:44 19.02.2020
2319 Clouds 27 1010 48 10000 5.1 290 17:20 19.02.2020
2320 Clouds 25 1011 61 10000 3.1 310 16:56 19.02.2020
2321 Clouds 25 1011 61 10000 3.1 310 16:37 19.02.2020
2322 Clouds 25 1011 61 10000 3.1 310 16:18 19.02.2020
2323 Clouds 24 1011 64 10000 3.6 350 15:43 19.02.2020
2324 Clouds 24 1011 64 10000 3.6 350 15:24 19.02.2020
2325 Clouds 23 1012 73 10000 4.1 350 14:57 19.02.2020
2326 Clouds 23 1012 73 10000 4.1 350 14:39 19.02.2020
2327 Clouds 23 1012 73 10000 4.1 350 14:21 19.02.2020
2328 Clouds 22 1012 77 10000 3.1 350 13:41 19.02.2020
2329 Clouds 22 1012 77 10000 3.1 350 13:22 19.02.2020
2330 Clouds 21 1011 88 8000 3.1 350 12:55 19.02.2020
2331 Clouds 20 1011 88 8000 3.1 350 12:36 19.02.2020
2332 Clouds 20 1011 88 8000 3.1 350 12:18 19.02.2020
2333 Clouds 18 1011 93 8000 2.6 350 11:38 19.02.2020
2334 Clouds 17 1011 93 8000 2.6 350 11:20 19.02.2020
2335 Clouds 19 1011 88 10000 2.1 340 10:58 19.02.2020
2336 Clouds 19 1011 88 10000 2.1 340 10:38 19.02.2020
2337 Clouds 19 1011 88 10000 2.1 340 10:20 19.02.2020
2338 Clouds 17 1011 77 10000 1.77 82 09:58 19.02.2020
2339 Clouds 17 1011 77 10000 1.77 82 09:37 19.02.2020
2340 Clouds 18 1011 77 10000 1.77 82 09:19 19.02.2020
2341 Clouds 18 1011 72 10000 1.77 82 08:45 19.02.2020
2342 Clouds 18 1011 72 10000 1.98 68 08:24 19.02.2020
2343 Clouds 18 1011 72 10000 1.98 68 08:24 19.02.2020
2344 Clouds 20 1011 72 10000 2.1 170 07:44 19.02.2020
2345 Clouds 20 1011 72 10000 2.1 170 07:26 19.02.2020
2346 Clouds 20 1010 72 10000 5.1 160 06:57 19.02.2020
2347 Clouds 19 1010 72 10000 5.1 160 06:31 19.02.2020
2348 Clouds 21 1010 73 10000 4.6 190 04:28 19.02.2020
2349 Clouds 22 1010 77 10000 3.6 180 03:20 19.02.2020
2350 Clouds 21 1010 77 10000 4.6 180 02:33 19.02.2020
2351 Clouds 22 1010 73 10000 4.1 190 01:25 19.02.2020
2352 Clouds 22 1009 68 10000 6.2 220 00:53 19.02.2020
2353 Clouds 23 1009 68 10000 6.2 220 00:34 19.02.2020
2354 Clouds 23 1009 69 10000 6.2 210 23:57 18.02.2020
2355 Clouds 23 1009 69 10000 6.2 210 23:39 18.02.2020
2356 Clouds 23 1009 69 10000 6.2 210 23:19 18.02.2020
2357 Clouds 24 1009 61 10000 6.7 210 22:45 18.02.2020
2358 Clouds 24 1009 61 10000 6.7 210 22:20 18.02.2020
2359 Clouds 24 1008 57 10000 7.2 220 21:59 18.02.2020
2360 Clouds 25 1008 57 10000 7.2 220 21:38 18.02.2020
2361 Clouds 25 1008 57 10000 7.2 220 21:19 18.02.2020
2362 Clouds 25 1009 57 10000 7.2 220 20:58 18.02.2020
2363 Clouds 25 1009 57 10000 7.2 220 20:39 18.02.2020
2364 Clouds 25 1009 57 10000 7.2 220 20:20 18.02.2020
2365 Clouds 24 1009 64 10000 7.7 230 19:56 18.02.2020
2366 Clouds 24 1009 64 10000 7.7 230 19:37 18.02.2020
2367 Clouds 24 1009 64 10000 7.7 230 19:18 18.02.2020
2368 Clouds 24 1008 64 10000 7.7 240 18:41 18.02.2020
2369 Clouds 24 1008 64 10000 7.7 240 18:21 18.02.2020
2370 Clouds 24 1008 69 10000 8.2 240 17:57 18.02.2020
2371 Clouds 24 1008 69 10000 8.2 240 17:38 18.02.2020
2372 Clouds 23 1008 69 10000 8.2 240 17:19 18.02.2020
2373 Clouds 23 1007 69 10000 6.7 230 16:40 18.02.2020
2374 Clouds 23 1007 69 10000 6.7 230 16:21 18.02.2020
2375 Clouds 23 1006 78 10000 7.2 240 15:42 18.02.2020
2376 Clouds 23 1006 78 10000 7.2 240 15:21 18.02.2020
2377 Clouds 22 1006 83 10000 6.2 220 14:59 18.02.2020
2378 Clouds 22 1006 83 10000 6.2 220 14:41 18.02.2020
2379 Clouds 22 1006 83 10000 6.2 220 14:21 18.02.2020
2380 Clouds 22 1005 88 10000 7.7 240 13:59 18.02.2020
2381 Clouds 22 1005 88 10000 7.7 240 13:40 18.02.2020
2382 Clouds 22 1005 88 10000 7.7 240 13:21 18.02.2020
2383 Clouds 21 1004 94 10000 5.1 240 12:44 18.02.2020
2384 Clouds 21 1004 94 10000 5.1 240 12:25 18.02.2020
2385 Clouds 21 1004 94 10000 4.1 240 11:56 18.02.2020
2386 Clouds 21 1004 94 1000 7.2 550 11:38 18.02.2020
2387 Clouds 21 1004 94 1000 7.2 550 11:20 18.02.2020
2388 Clouds 22 1003 88 10000 3.1 330 10:44 18.02.2020
2389 Clouds 22 1003 88 10000 3.1 330 10:23 18.02.2020
2390 Clouds 22 1002 88 10000 3.1 330 09:57 18.02.2020
2391 Clouds 22 1002 88 10000 3.1 330 09:38 18.02.2020
2392 Clouds 22 1002 88 10000 3.1 330 09:19 18.02.2020
2393 Clouds 22 1002 88 10000 3.1 320 08:55 18.02.2020
2394 Clouds 22 1002 88 10000 3.1 320 08:37 18.02.2020
2395 Clouds 22 1002 88 10000 3.1 320 08:19 18.02.2020
2396 Clouds 22 1002 88 10000 4.1 320 07:46 18.02.2020
2397 Clouds 22 1002 88 10000 4.1 320 07:25 18.02.2020
2398 Clouds 22 1002 88 10000 2.6 260 06:51 18.02.2020
2399 Clouds 22 1002 88 10000 2.6 260 06:28 18.02.2020
2400 Clouds 22 1001 88 10000 5.1 350 05:48 18.02.2020
2401 Clouds 22 1001 88 10000 5.1 350 05:20 18.02.2020
2402 Clouds 22 1004 88 10000 3.6 350 03:52 18.02.2020
2403 Rain 23 1005 77 0 1.34 43 02:58 18.02.2020
2404 Thunderstorm 23 1003 83 800 8.2 310 01:25 18.02.2020
2405 Thunderstorm 24 1003 83 800 8.2 310 00:43 18.02.2020
2406 Thunderstorm 25 1003 83 800 8.2 310 00:18 18.02.2020
2407 Clouds 28 1001 62 10000 3.6 350 23:39 17.02.2020
2408 Clouds 29 1001 62 10000 3.6 350 23:20 17.02.2020
2409 Clouds 29 1001 55 10000 5.1 340 22:58 17.02.2020
2410 Clouds 29 1001 55 10000 5.1 340 22:39 17.02.2020
2411 Clouds 30 1001 55 10000 5.1 340 22:18 17.02.2020
2412 Clouds 30 1001 55 10000 4.1 310 21:39 17.02.2020
2413 Clouds 31 1001 55 10000 4.1 310 21:19 17.02.2020
2414 Clouds 31 1002 59 10000 5.7 350 20:55 17.02.2020
2415 Clouds 32 1002 59 10000 5.7 350 20:37 17.02.2020
2416 Clouds 32 1002 59 10000 5.7 350 20:19 17.02.2020
2417 Clouds 31 1003 55 10000 6.2 360 19:43 17.02.2020
2418 Clouds 31 1003 55 10000 6.2 360 19:21 17.02.2020
2419 Clouds 30 1003 58 10000 5.1 350 18:57 17.02.2020
2420 Clouds 30 1003 58 10000 5.1 350 18:36 17.02.2020
2421 Clouds 30 1003 58 10000 5.1 350 18:18 17.02.2020
2422 Clouds 30 1004 62 10000 6.2 350 17:38 17.02.2020
2423 Clouds 30 1004 62 10000 6.2 350 17:20 17.02.2020
2424 Clouds 30 1005 58 10000 5.1 330 16:59 17.02.2020
2425 Clouds 30 1005 58 10000 5.1 330 16:41 17.02.2020
2426 Clouds 30 1005 58 10000 5.1 330 16:22 17.02.2020
2427 Clouds 29 1006 58 10000 3.6 10 15:56 17.02.2020
2428 Clouds 29 1006 58 10000 3.6 10 15:37 17.02.2020
2429 Clouds 29 1006 58 10000 3.6 10 15:37 17.02.2020
2430 Clouds 29 1006 58 10000 3.6 10 15:19 17.02.2020
2431 Clouds 28 1006 61 10000 2.6 70 14:42 17.02.2020
2432 Clouds 28 1006 61 10000 2.6 70 14:42 17.02.2020
2433 Clouds 28 1006 61 10000 2.6 70 14:24 17.02.2020
2434 Rain 26 1006 73 10000 4.1 110 13:58 17.02.2020
2435 Rain 26 1006 73 10000 4.1 110 13:39 17.02.2020
2436 Rain 26 1006 73 10000 4.1 110 13:19 17.02.2020
2437 Clouds 26 1007 73 10000 4.6 130 12:44 17.02.2020
2438 Clouds 26 1007 73 10000 4.6 130 12:25 17.02.2020
2439 Clouds 24 1006 73 10000 2.6 110 11:59 17.02.2020
2440 Clouds 24 1006 73 10000 2.6 110 11:39 17.02.2020
2441 Rain 23 1006 73 10000 2.6 110 11:21 17.02.2020
2442 Clouds 22 1005 78 10000 1 10 10:55 17.02.2020
2443 Clouds 23 1005 78 10000 1 10 10:37 17.02.2020
2444 Clouds 21 1005 78 10000 1 10 10:18 17.02.2020
2445 Clouds 21 1005 78 10000 1 10 10:18 17.02.2020
2446 Clouds 23 1004 73 10000 4.8 48 09:41 17.02.2020
2447 Clouds 24 1004 73 10000 4.8 48 09:23 17.02.2020
2448 Clouds 24 1004 65 10000 2.1 160 08:59 17.02.2020
2449 Clouds 24 1004 65 10000 2.1 160 08:40 17.02.2020
2450 Clouds 25 1004 65 10000 2.1 160 08:20 17.02.2020
2451 Clouds 25 1007 61 10000 2.6 90 07:47 17.02.2020
2452 Clouds 25 1007 61 10000 2.6 90 07:25 17.02.2020
2453 Clouds 26 1006 47 10000 1.5 0 06:52 17.02.2020
2454 Clouds 26 1006 47 10000 1.5 0 06:33 17.02.2020
2455 Clouds 24 1006 61 10000 2.1 20 05:59 17.02.2020
2456 Clouds 25 1006 61 10000 2.1 20 05:38 17.02.2020
2457 Clouds 28 1007 69 10000 1 350 03:22 17.02.2020
2458 Clouds 27 1006 69 10000 2.1 120 01:59 17.02.2020
2459 Clouds 27 1005 65 10000 4.6 110 00:51 17.02.2020
2460 Clouds 28 1005 65 10000 4.6 110 00:22 17.02.2020
2461 Clouds 29 1005 51 10000 4.6 120 23:54 16.02.2020
2462 Clouds 29 1005 51 10000 4.6 120 23:33 16.02.2020
2463 Clouds 30 1005 52 10000 5.1 140 22:58 16.02.2020
2464 Clouds 30 1005 52 10000 5.1 140 22:39 16.02.2020
2465 Clouds 30 1005 52 10000 5.1 140 22:39 16.02.2020
2466 Clouds 30 1005 52 10000 5.1 140 22:21 16.02.2020
2467 Clouds 30 1005 52 10000 5.1 140 22:21 16.02.2020
2468 Clouds 30 1005 55 10000 7.2 130 21:58 16.02.2020
2469 Clouds 30 1005 55 10000 7.2 130 21:40 16.02.2020
2470 Clouds 31 1005 55 10000 7.2 130 21:22 16.02.2020
2471 Clouds 32 1006 46 10000 6.7 170 20:58 16.02.2020
2472 Clouds 32 1006 46 10000 6.7 170 20:40 16.02.2020
2473 Clouds 32 1006 46 10000 6.7 170 20:21 16.02.2020
2474 Clouds 32 1007 46 10000 6.2 180 19:58 16.02.2020
2475 Clouds 32 1007 46 10000 6.2 180 19:38 16.02.2020
2476 Clouds 32 1007 46 10000 6.2 180 19:19 16.02.2020
2477 Clouds 32 1007 38 10000 2.1 330 18:45 16.02.2020
2478 Clouds 32 1007 38 10000 2.1 330 18:26 16.02.2020
2479 Clouds 32 1008 38 10000 4.6 60 17:58 16.02.2020
2480 Clouds 33 1008 38 10000 4.6 60 17:40 16.02.2020
2481 Clouds 33 1008 38 10000 4.6 60 17:19 16.02.2020
2482 Clouds 31 1008 43 10000 3.1 10 16:56 16.02.2020
2483 Clouds 32 1008 43 10000 3.1 10 16:37 16.02.2020
2484 Clouds 33 1008 43 10000 3.1 10 16:19 16.02.2020
2485 Clear 30 1009 58 10000 5.1 20 15:41 16.02.2020
2486 Clear 31 1009 58 10000 5.1 20 15:22 16.02.2020
2487 Clear 31 1009 58 10000 5.1 20 14:55 16.02.2020
2488 Clear 31 1009 58 10000 5.1 20 14:36 16.02.2020
2489 Clear 31 1009 52 10000 4.6 350 14:18 16.02.2020
2490 Clear 29 1009 69 10000 3.1 10 13:42 16.02.2020
2491 Clear 28 1009 69 10000 3.1 10 13:23 16.02.2020
2492 -273 0 0 0 0 0 12:41 16.02.2020
2493 Clear 24 1009 78 10000 5.1 360 12:20 16.02.2020
2494 Clear 21 1008 94 10000 3.6 100 11:57 16.02.2020
2495 Clear 20 1008 94 10000 3.6 100 11:37 16.02.2020
2496 Clear 20 1008 94 10000 3.6 100 11:18 16.02.2020
2497 Clear 20 1007 72 10000 1 0 10:56 16.02.2020
2498 Clear 20 1007 72 10000 1 0 10:37 16.02.2020
2499 Clear 20 1007 72 10000 1 0 10:37 16.02.2020
2500 Clear 20 1007 72 10000 1 0 10:37 16.02.2020
2501 Clear 20 1007 72 10000 1 0 10:18 16.02.2020
2502 Clear 20 1007 72 10000 1 0 09:39 16.02.2020
2503 Clear 20 1007 72 10000 1 0 09:21 16.02.2020
2504 Clear 20 1007 72 10000 2.1 20 08:59 16.02.2020
2505 Clear 20 1007 72 10000 2.1 20 08:40 16.02.2020
2506 Clear 19 1007 72 10000 2.1 20 08:19 16.02.2020
2507 Clear 20 1007 68 10000 3.1 10 07:44 16.02.2020
2508 Clear 20 1007 68 10000 3.1 10 07:25 16.02.2020
2509 Clear 21 1007 68 10000 3.6 20 06:32 16.02.2020
2510 Clear 21 1007 68 10000 3.6 20 06:32 16.02.2020
2511 Clear 20 1007 77 7000 1 0 04:37 16.02.2020
2512 Clear 19 1007 82 10000 1 0 03:24 16.02.2020
2513 Clear 22 1007 73 10000 1 0 02:27 16.02.2020
2514 Clear 24 1007 64 10000 3.6 110 01:40 16.02.2020
2515 Clear 24 1007 64 10000 3.6 110 01:21 16.02.2020
2516 Clear 24 1007 57 10000 3.1 120 00:51 16.02.2020
2517 Clear 25 1007 57 10000 3.1 120 00:28 16.02.2020
2518 Clear 26 1007 44 10000 3.6 100 23:45 15.02.2020
2519 Clear 26 1007 44 10000 3.6 100 23:26 15.02.2020
2520 Clear 26 1007 44 10000 3.6 100 23:26 15.02.2020
2521 Clear 27 1007 54 10000 4.1 120 22:59 15.02.2020
2522 Clear 28 1007 35 10000 4.1 110 22:41 15.02.2020
2523 Clear 28 1007 35 10000 4.1 110 22:21 15.02.2020
2524 Clear 29 1007 35 10000 3.6 160 21:58 15.02.2020
2525 Clear 29 1007 35 10000 3.6 160 21:39 15.02.2020
2526 Clear 29 1007 35 10000 3.6 160 21:20 15.02.2020
2527 Clear 29 1007 35 10000 3.6 160 20:39 15.02.2020
2528 Clear 29 1007 35 10000 3.6 160 20:21 15.02.2020
2529 Clear 29 1008 33 10000 4.1 160 19:44 15.02.2020
2530 Clear 29 1008 33 10000 4.1 160 19:22 15.02.2020
2531 Clear 29 1008 33 10000 4.1 160 19:22 15.02.2020
2532 Clear 29 1009 29 10000 3.6 190 18:45 15.02.2020
2533 Clear 29 1009 29 10000 3.6 190 18:24 15.02.2020
2534 Clear 28 1009 30 10000 3.1 170 17:58 15.02.2020
2535 Clear 28 1009 30 10000 3.1 170 17:58 15.02.2020
2536 Clear 29 1009 30 10000 3.1 170 17:39 15.02.2020
2537 Clear 29 1009 30 10000 3.1 170 17:21 15.02.2020
2538 Clear 29 1010 35 10000 2.1 0 16:43 15.02.2020
2539 Clear 28 1010 35 10000 2.1 0 16:25 15.02.2020
2540 Clear 28 1010 37 10000 1.5 0 15:59 15.02.2020
2541 Clear 28 1010 37 10000 1.5 0 15:41 15.02.2020
2542 Clear 28 1010 37 10000 1.5 0 15:22 15.02.2020
2543 Clear 26 1010 44 10000 1.5 0 14:45 15.02.2020
2544 Clear 26 1010 44 10000 1.5 0 14:19 15.02.2020
2545 Clear 25 1010 60 10000 3.1 20 13:56 15.02.2020
2546 Clear 25 1010 60 10000 3.1 20 13:56 15.02.2020
2547 Clear 24 1010 60 10000 3.1 20 13:38 15.02.2020
2548 Clear 24 1010 60 10000 3.1 20 13:20 15.02.2020
2549 Clear 21 1010 88 10000 2.1 10 12:42 15.02.2020
2550 Clear 20 1010 88 10000 2.1 10 12:24 15.02.2020
2551 Clear 17 1010 93 8000 1.5 20 11:52 15.02.2020
2552 Clear 17 1010 93 8000 1.5 20 11:33 15.02.2020
2553 Fog 16 1010 93 400 3.64 20 10:58 15.02.2020
2554 Fog 16 1010 93 400 3.64 20 10:58 15.02.2020
2555 Fog 16 1010 93 400 3.64 20 10:39 15.02.2020
2556 Fog 16 1010 93 400 3.64 20 10:39 15.02.2020
2557 Fog 16 1010 93 400 3.64 20 10:20 15.02.2020
2558 Fog 17 1009 93 800 3.64 20 09:44 15.02.2020
2559 Fog 17 1009 93 800 3.64 20 09:25 15.02.2020
2560 Mist 17 1009 93 5000 1 0 08:46 15.02.2020
2561 Mist 17 1009 93 5000 1 0 08:26 15.02.2020
2562 Fog 17 1009 93 9000 5.37 63 07:59 15.02.2020
2563 Fog 17 1010 93 10000 5.37 63 07:39 15.02.2020
2564 Fog 17 1010 93 10000 5.37 63 07:21 15.02.2020
2565 Clear 17 1010 93 10000 1 0 06:38 15.02.2020
2566 Clouds 18 1010 88 10000 1.5 360 05:56 15.02.2020
2567 Clouds 19 1010 88 10000 1.5 30 04:49 15.02.2020
2568 Clouds 19 1010 88 10000 1.5 30 04:24 15.02.2020
2569 Clouds 19 1009 77 10000 1.5 60 02:58 15.02.2020
2570 Clouds 21 1009 77 10000 1.5 60 02:26 15.02.2020
2571 Thunderstorm 22 1009 73 10000 1.5 80 01:50 15.02.2020
2572 Thunderstorm 22 1009 73 10000 1.5 80 01:31 15.02.2020
2573 Clouds 23 1008 73 10000 1.5 150 00:28 15.02.2020
2574 Clouds 24 1008 69 10000 3.1 180 23:47 14.02.2020
2575 Clouds 24 1008 69 10000 3.1 180 23:21 14.02.2020
2576 Clouds 24 1008 69 10000 3.1 180 22:56 14.02.2020
2577 Clouds 24 1008 69 10000 3.1 180 22:56 14.02.2020
2578 Clouds 24 1008 69 10000 3.1 180 22:37 14.02.2020
2579 Clouds 24 1008 69 10000 3.1 180 22:19 14.02.2020
2580 Clouds 25 1008 61 10000 4.1 200 21:49 14.02.2020
2581 Clouds 25 1008 61 10000 4.1 200 21:30 14.02.2020
2582 Clouds 25 1008 61 10000 5.7 200 20:46 14.02.2020
2583 Clouds 25 1008 61 10000 5.7 200 20:20 14.02.2020
2584 Clouds 25 1008 69 10000 5.1 220 19:59 14.02.2020
2585 Clouds 25 1008 69 10000 5.1 220 19:41 14.02.2020
2586 Clouds 26 1008 69 10000 5.1 220 19:22 14.02.2020
2587 Clouds 26 1009 65 10000 5.1 220 18:56 14.02.2020
2588 Clouds 26 1009 65 10000 5.1 220 18:38 14.02.2020
2589 Clouds 26 1009 65 10000 5.1 220 18:19 14.02.2020
2590 Clouds 28 1009 51 10000 5.1 240 17:44 14.02.2020
2591 Clouds 28 1009 51 10000 5.1 240 17:21 14.02.2020
2592 Clouds 28 1009 51 10000 5.1 270 16:59 14.02.2020
2593 Clouds 28 1009 51 10000 5.1 270 16:40 14.02.2020
2594 Clouds 28 1009 51 10000 5.1 270 16:22 14.02.2020
2595 Clouds 27 1009 58 10000 5.7 270 15:56 14.02.2020
2596 Clouds 28 1009 58 10000 5.7 270 15:37 14.02.2020
2597 Clouds 28 1009 58 10000 5.7 270 15:19 14.02.2020
2598 Clear 27 1009 78 10000 4.1 360 14:58 14.02.2020
2599 Clear 27 1009 78 10000 4.1 360 14:40 14.02.2020
2600 Rain 27 1009 78 10000 4.1 360 14:21 14.02.2020
2601 Rain 25 1009 78 10000 5.1 360 13:54 14.02.2020
2602 Rain 24 1009 78 10000 5.1 360 13:36 14.02.2020
2603 Clouds 24 1009 78 10000 5.1 360 13:18 14.02.2020
2604 Clouds 23 1008 88 10000 5.1 20 12:54 14.02.2020
2605 Clouds 23 1008 88 10000 5.1 20 12:54 14.02.2020
2606 Clouds 22 1008 88 10000 5.1 20 12:36 14.02.2020
2607 Clouds 22 1008 88 10000 5.1 20 12:18 14.02.2020
2608 Clouds 21 1007 94 10000 3.6 40 11:41 14.02.2020
2609 Rain 21 1007 94 10000 3.6 40 11:21 14.02.2020
2610 Rain 20 1008 94 10000 1 0 10:56 14.02.2020
2611 Rain 20 1008 94 10000 1 0 10:38 14.02.2020
2612 Rain 20 1008 94 10000 1 0 10:19 14.02.2020
2613 Thunderstorm 21 1009 88 10000 1.5 290 09:43 14.02.2020
2614 Thunderstorm 21 1009 88 10000 1.5 290 09:22 14.02.2020
2615 Thunderstorm 22 1008 83 10000 3.6 10 08:55 14.02.2020
2616 Thunderstorm 21 1008 83 10000 3.6 10 08:37 14.02.2020
2617 Thunderstorm 22 1008 83 10000 3.6 10 08:18 14.02.2020
2618 Thunderstorm 22 1008 83 10000 3.1 20 07:43 14.02.2020
2619 Thunderstorm 22 1008 83 10000 3.1 20 07:24 14.02.2020
2620 Rain 23 1008 73 10000 3.1 20 06:30 14.02.2020
2621 Rain 23 1009 69 10000 4.6 50 05:48 14.02.2020
2622 Clear 24 1009 69 10000 5.7 50 04:47 14.02.2020
2623 Clear 25 1009 61 10000 7.2 50 03:30 14.02.2020
2624 Clear 27 1009 54 10000 5.7 50 02:32 14.02.2020
2625 Clouds 27 1009 51 10000 6.2 50 01:50 14.02.2020
2626 Clouds 26 1009 61 10000 2.6 120 00:44 14.02.2020
2627 Clouds 27 1009 61 10000 2.6 120 00:24 14.02.2020
2628 Clouds 28 1009 38 10000 4.1 30 23:46 13.02.2020
2629 Clouds 28 1009 38 10000 4.1 30 23:23 13.02.2020
2630 Clouds 29 1009 40 10000 5.1 80 22:56 13.02.2020
2631 Clouds 29 1009 40 10000 5.1 80 22:37 13.02.2020
2632 Clouds 29 1009 40 10000 5.1 80 22:18 13.02.2020
2633 Clouds 29 1009 38 10000 5.1 90 21:41 13.02.2020
2634 Clouds 29 1009 38 10000 5.1 90 21:23 13.02.2020
2635 Clouds 29 1010 33 10000 3.6 40 20:58 13.02.2020
2636 Clouds 29 1010 33 10000 3.6 40 20:39 13.02.2020
2637 Clouds 29 1010 33 10000 3.6 40 20:39 13.02.2020
2638 Clouds 29 1010 33 10000 3.6 40 20:21 13.02.2020
2639 Clouds 29 1011 35 10000 3.1 60 19:56 13.02.2020
2640 Clouds 29 1011 35 10000 3.1 60 19:37 13.02.2020
2641 Clouds 30 1011 35 10000 3.1 60 19:19 13.02.2020
2642 Clouds 30 1012 27 10000 5.1 60 18:45 13.02.2020
2643 Clouds 30 1012 27 10000 5.1 60 18:25 13.02.2020
2644 Clouds 29 1013 30 10000 4.1 30 17:59 13.02.2020
2645 Clouds 29 1013 30 10000 4.1 30 17:40 13.02.2020
2646 Clouds 29 1013 30 10000 4.1 30 17:22 13.02.2020
2647 Clouds 29 1014 48 10000 3.1 40 16:58 13.02.2020
2648 Clouds 29 1014 48 10000 3.1 40 16:40 13.02.2020
2649 Clouds 29 1014 48 10000 3.1 40 16:20 13.02.2020
2650 Clouds 28 1014 54 10000 6.2 30 15:56 13.02.2020
2651 Clouds 28 1014 54 10000 6.2 30 15:38 13.02.2020
2652 Clouds 27 1014 54 10000 6.2 30 15:19 13.02.2020
2653 Clouds 26 1015 61 10000 7.2 40 14:58 13.02.2020
2654 Clouds 26 1015 61 10000 7.2 40 14:39 13.02.2020
2655 Clouds 26 1015 61 10000 7.2 40 14:21 13.02.2020
2656 Clouds 24 1015 69 10000 6.2 50 13:48 13.02.2020
2657 Clouds 24 1015 69 10000 6.2 50 13:19 13.02.2020
2658 Clouds 22 1015 73 10000 5.1 50 12:56 13.02.2020
2659 Clouds 22 1015 73 10000 5.1 50 12:56 13.02.2020
2660 Clouds 21 1015 73 10000 5.1 50 12:38 13.02.2020
2661 Clouds 21 1015 73 10000 5.1 50 12:38 13.02.2020
2662 Clouds 21 1015 73 10000 5.1 50 12:38 13.02.2020
2663 Clouds 21 1015 73 10000 5.1 50 12:19 13.02.2020
2664 Clouds 19 1015 77 10000 6.2 40 11:45 13.02.2020
2665 Clouds 19 1015 77 10000 6.2 40 11:20 13.02.2020
2666 Clouds 18 1015 82 10000 2.1 80 10:55 13.02.2020
2667 Clouds 18 1015 82 10000 2.1 80 10:37 13.02.2020
2668 Clouds 18 1015 82 10000 2.1 80 10:19 13.02.2020
2669 Clouds 18 1015 82 10000 2.1 60 09:41 13.02.2020
2670 Clouds 18 1015 82 10000 2.1 60 09:22 13.02.2020
2671 Clouds 19 1015 77 10000 1.5 60 08:44 13.02.2020
2672 Clouds 19 1015 77 10000 1.5 60 08:19 13.02.2020
2673 Clouds 19 1015 77 10000 2.6 30 07:42 13.02.2020
2674 Clouds 19 1015 77 10000 2.6 30 07:22 13.02.2020
2675 Clouds 19 1015 77 10000 2.6 30 07:22 13.02.2020
2676 Clouds 20 1015 72 10000 5.1 50 06:49 13.02.2020
2677 Clouds 20 1015 72 10000 5.1 50 06:31 13.02.2020
2678 Clouds 20 1015 72 10000 6.2 50 05:43 13.02.2020
2679 Clear 21 1015 68 10000 7.2 60 04:39 13.02.2020
2680 Clear 21 1015 68 10000 7.2 60 04:18 13.02.2020
2681 Clear 21 1015 60 10000 6.2 60 03:29 13.02.2020
2682 Clear 22 1015 56 10000 7.2 70 02:55 13.02.2020
2683 Clear 23 1015 56 10000 7.2 70 02:20 13.02.2020
2684 Clear 23 1015 56 10000 7.2 70 02:20 13.02.2020
2685 -273 0 0 0 0 0 01:40 13.02.2020
2686 Clear 24 1015 53 10000 6.7 70 01:40 13.02.2020
2687 -273 0 0 0 0 0 01:40 13.02.2020
2688 Clear 24 1015 53 10000 6.7 70 01:39 13.02.2020
2689 Clear 25 1014 50 10000 4.6 60 00:44 13.02.2020
2690 Clear 26 1014 50 10000 4.6 60 00:25 13.02.2020
2691 Clouds 26 1014 42 10000 5.7 90 23:42 12.02.2020
2692 Clouds 26 1014 42 10000 5.7 90 23:23 12.02.2020
2693 Clouds 26 1014 48 10000 4.6 100 22:56 12.02.2020
2694 Clouds 26 1014 48 10000 4.6 100 22:38 12.02.2020
2695 Clouds 27 1014 48 10000 4.6 100 22:20 12.02.2020
2696 Clouds 26 1015 51 10000 6.2 130 21:55 12.02.2020
2697 Clouds 26 1015 51 10000 6.2 130 21:36 12.02.2020
2698 Clouds 26 1015 51 10000 6.2 130 21:18 12.02.2020
2699 Clouds 26 1015 51 10000 7.7 120 20:42 12.02.2020
2700 Clouds 26 1015 51 10000 7.7 120 20:23 12.02.2020
2701 Clouds 27 1016 45 10000 6.2 90 19:57 12.02.2020
2702 Clouds 27 1016 45 10000 6.2 90 19:38 12.02.2020
2703 Clouds 27 1016 45 10000 6.2 90 19:19 12.02.2020
2704 Clouds 27 1017 37 10000 5.7 70 18:47 12.02.2020
2705 Clouds 27 1017 37 10000 5.7 70 18:20 12.02.2020
2706 Clouds 27 1018 39 10000 5.1 50 17:58 12.02.2020
2707 Clouds 27 1018 39 10000 5.1 50 17:38 12.02.2020
2708 Clouds 27 1018 39 10000 5.1 50 17:38 12.02.2020
2709 Clouds 27 1018 39 10000 5.1 50 17:19 12.02.2020
2710 Clouds 26 1018 41 10000 5.1 60 16:40 12.02.2020
2711 Clouds 26 1018 41 10000 5.1 60 16:22 12.02.2020
2712 Clouds 25 1019 50 10000 5.1 50 15:58 12.02.2020
2713 Clouds 26 1019 50 10000 5.1 50 15:37 12.02.2020
2714 Clouds 25 1019 50 10000 5.1 50 15:18 12.02.2020
2715 Clouds 24 1020 53 10000 7.2 40 14:42 12.02.2020
2716 Clouds 24 1020 53 10000 7.2 40 14:21 12.02.2020
2717 Clear 22 1020 73 10000 6.2 50 13:59 12.02.2020
2718 Clear 22 1020 73 10000 6.2 50 13:40 12.02.2020
2719 Clear 22 1020 73 10000 6.2 50 13:40 12.02.2020
2720 Clear 21 1020 73 10000 6.2 50 13:22 12.02.2020
2721 Clear 20 1020 82 10000 4.1 50 12:58 12.02.2020
2722 Clear 20 1020 82 10000 4.1 50 12:39 12.02.2020
2723 Clear 19 1020 82 10000 4.1 50 12:19 12.02.2020
2724 Clear 16 1020 87 10000 2.6 90 11:59 12.02.2020
2725 Clear 16 1020 87 10000 2.6 90 11:40 12.02.2020
2726 Clear 16 1020 87 10000 2.6 90 11:21 12.02.2020
2727 Clear 15 1020 82 10000 2.1 90 10:58 12.02.2020
2728 Clear 16 1020 82 10000 2.1 90 10:39 12.02.2020
2729 Clear 15 1020 82 10000 2.1 90 10:20 12.02.2020
2730 Clear 16 1020 82 10000 3.1 80 09:42 12.02.2020
2731 Clear 16 1020 82 10000 3.1 80 09:42 12.02.2020
2732 Clear 16 1020 82 10000 3.1 80 09:24 12.02.2020
2733 Clear 16 1020 77 10000 1.5 60 08:58 12.02.2020
2734 Clear 16 1020 77 10000 1.5 60 08:58 12.02.2020
2735 Clear 16 1020 77 10000 1.5 60 08:38 12.02.2020
2736 Clear 16 1020 77 10000 1.5 60 08:20 12.02.2020
2737 Clear 16 1020 77 10000 3.1 90 07:58 12.02.2020
2738 Clear 16 1020 77 10000 3.1 90 07:39 12.02.2020
2739 Clear 16 1020 77 10000 3.1 90 07:19 12.02.2020
2740 Clear 17 1020 68 10000 3.1 80 06:41 12.02.2020
2741 Clear 17 1020 68 10000 3.1 80 06:18 12.02.2020
2742 Clear 18 1021 68 10000 5.1 100 05:21 12.02.2020
2743 Clear 18 1021 63 10000 4.6 100 04:42 12.02.2020
2744 Clear 19 1021 60 10000 5.7 90 03:57 12.02.2020
2745 Clear 19 1021 60 10000 5.7 90 03:28 12.02.2020
2746 Clear 21 1020 56 10000 6.7 80 02:43 12.02.2020
2747 Clear 21 1020 56 10000 6.7 80 02:24 12.02.2020
2748 Clouds 22 1020 56 10000 8.2 90 01:29 12.02.2020
2749 Clouds 22 1019 60 10000 8.2 120 00:41 12.02.2020
2750 Clouds 22 1019 60 10000 8.2 120 00:22 12.02.2020
2751 Clouds 23 1019 60 10000 7.7 120 23:47 11.02.2020
2752 Clouds 23 1019 60 10000 7.7 120 23:29 11.02.2020
2753 Clouds 24 1019 57 10000 7.7 110 22:57 11.02.2020
2754 Clouds 24 1019 57 10000 7.7 110 22:39 11.02.2020
2755 Clouds 24 1019 57 10000 7.7 110 22:20 11.02.2020
2756 Clouds 24 1020 57 10000 9.8 130 21:57 11.02.2020
2757 Clouds 24 1020 57 10000 9.8 130 21:38 11.02.2020
2758 Clouds 24 1020 57 10000 9.8 130 21:18 11.02.2020
2759 Clouds 24 1020 50 10000 7.7 130 20:57 11.02.2020
2760 Clouds 24 1020 50 10000 7.7 130 20:38 11.02.2020
2761 Clouds 24 1020 50 10000 7.7 130 20:19 11.02.2020
2762 Clouds 25 1021 50 10000 6.2 120 19:56 11.02.2020
2763 Clouds 25 1021 50 10000 6.2 120 19:38 11.02.2020
2764 Clouds 25 1021 50 10000 6.2 120 19:20 11.02.2020
2765 Clouds 24 1021 50 10000 6.7 120 18:44 11.02.2020
2766 Clouds 25 1021 50 10000 6.7 120 18:25 11.02.2020
2767 Clouds 24 1022 50 10000 4.1 170 17:56 11.02.2020
2768 Clouds 24 1022 50 10000 4.1 170 17:56 11.02.2020
2769 Clouds 25 1022 50 10000 4.1 170 17:38 11.02.2020
2770 Clouds 24 1022 50 10000 4.1 170 17:19 11.02.2020
2771 Clouds 24 1022 47 10000 3.1 90 16:58 11.02.2020
2772 Clouds 24 1022 47 10000 3.1 90 16:38 11.02.2020
2773 Clouds 24 1022 47 10000 3.1 90 16:20 11.02.2020
2774 Clouds 24 1023 50 10000 3.6 120 15:57 11.02.2020
2775 Clouds 24 1023 50 10000 3.6 120 15:38 11.02.2020
2776 Clouds 24 1023 50 10000 3.6 120 15:18 11.02.2020
2777 Clouds 23 1023 60 10000 3.1 40 14:41 11.02.2020
2778 Clouds 23 1023 60 10000 3.1 40 14:19 11.02.2020
2779 Rain 22 1023 64 10000 3.1 40 13:42 11.02.2020
2780 Rain 22 1023 64 10000 3.1 40 13:23 11.02.2020
2781 Rain 20 1022 72 10000 3.6 90 12:59 11.02.2020
2782 Rain 20 1022 72 10000 3.6 90 12:41 11.02.2020
2783 Rain 20 1022 72 10000 3.6 90 12:21 11.02.2020
2784 Rain 16 1022 93 10000 2.6 100 11:57 11.02.2020
2785 Rain 16 1022 93 10000 2.6 100 11:39 11.02.2020
2786 Rain 16 1022 93 10000 2.6 100 11:19 11.02.2020
2787 Clouds 15 1022 77 10000 3.73 26 10:40 11.02.2020
2788 Clouds 15 1022 77 10000 3.73 26 10:21 11.02.2020
2789 Clouds 15 1021 72 10000 3.73 26 09:58 11.02.2020
2790 Clouds 15 1021 72 10000 3.73 26 09:40 11.02.2020
2791 Clouds 15 1021 72 10000 3.73 26 09:22 11.02.2020
2792 Clouds 15 1021 72 10000 3.73 26 08:49 11.02.2020
2793 Clouds 15 1021 72 10000 3.73 26 08:25 11.02.2020
2794 Clouds 15 1021 72 10000 3.73 26 08:25 11.02.2020
2795 Clouds 16 1022 72 10000 1.5 50 07:55 11.02.2020
2796 Clouds 16 1022 72 10000 1.5 50 07:34 11.02.2020
2797 Clouds 15 1022 72 10000 2.1 60 06:58 11.02.2020
2798 Clouds 15 1022 72 10000 2.1 60 06:39 11.02.2020
2799 Clouds 16 1022 72 10000 2.1 60 06:20 11.02.2020
2800 Clouds 16 1022 68 10000 2.1 50 05:44 11.02.2020
2801 Clouds 19 1022 68 10000 2.1 50 05:20 11.02.2020
2802 Clouds 20 1022 64 10000 4.6 50 04:18 11.02.2020
2803 Clouds 20 1022 64 10000 4.1 140 02:38 11.02.2020
2804 Clouds 20 1021 60 10000 5.7 140 01:59 11.02.2020
2805 Clouds 20 1021 60 10000 5.7 140 01:31 11.02.2020
2806 Clouds 20 1021 60 10000 5.1 130 00:26 11.02.2020
2807 Clouds 20 1021 68 10000 6.7 140 23:50 10.02.2020
2808 Clouds 20 1021 68 10000 6.7 140 23:30 10.02.2020
2809 Clouds 21 1021 60 10000 7.2 140 22:58 10.02.2020
2810 Clouds 21 1021 60 10000 7.2 140 22:38 10.02.2020
2811 Clouds 21 1021 60 10000 7.2 140 22:19 10.02.2020
2812 Clouds 22 1021 60 10000 6.2 130 21:41 10.02.2020
2813 Clouds 22 1021 60 10000 6.2 130 21:23 10.02.2020
2814 Clouds 22 1021 56 10000 6.2 150 20:56 10.02.2020
2815 Clouds 22 1021 56 10000 6.2 150 20:38 10.02.2020
2816 Clouds 22 1021 56 10000 6.2 150 20:20 10.02.2020
2817 Clouds 23 1022 53 10000 6.7 160 19:58 10.02.2020
2818 Clouds 23 1022 53 10000 6.7 160 19:37 10.02.2020
2819 Clouds 23 1022 53 10000 6.7 160 19:18 10.02.2020
2820 Clouds 22 1022 53 10000 6.2 150 18:58 10.02.2020
2821 Clouds 22 1022 53 10000 6.2 150 18:58 10.02.2020
2822 Clouds 23 1022 53 10000 6.2 150 18:39 10.02.2020
2823 Clouds 22 1022 53 10000 6.2 150 18:20 10.02.2020
2824 Clouds 22 1022 53 10000 4.6 140 17:56 10.02.2020
2825 Clouds 22 1022 53 10000 4.6 140 17:37 10.02.2020
2826 Clouds 22 1022 53 10000 4.6 140 17:37 10.02.2020
2827 Clouds 22 1022 53 10000 4.6 140 17:18 10.02.2020
2828 Clouds 22 1022 53 10000 5.1 140 16:56 10.02.2020
2829 Clouds 22 1022 53 10000 5.1 140 16:38 10.02.2020
2830 Clouds 22 1022 53 10000 5.1 140 16:18 10.02.2020
2831 Clouds 22 1022 52 10000 4.1 150 15:42 10.02.2020
2832 Clouds 22 1022 52 10000 4.1 150 15:22 10.02.2020
2833 Clouds 21 1022 60 10000 5.1 140 14:59 10.02.2020
2834 Clouds 21 1022 60 10000 5.1 140 14:41 10.02.2020
2835 Clouds 21 1022 60 10000 5.1 140 14:19 10.02.2020
2836 Clouds 20 1022 55 10000 4.1 150 13:56 10.02.2020
2837 Clouds 20 1022 55 10000 4.1 150 13:56 10.02.2020
2838 Clouds 20 1022 55 10000 4.1 150 13:38 10.02.2020
2839 Clouds 20 1022 55 10000 4.1 150 13:18 10.02.2020
2840 Clouds 20 1022 68 10000 4.6 150 12:44 10.02.2020
2841 Clouds 20 1022 68 10000 4.6 150 12:25 10.02.2020
2842 Clouds 17 1021 82 10000 2.6 130 11:55 10.02.2020
2843 Clouds 17 1021 82 10000 2.6 130 11:37 10.02.2020
2844 Clouds 17 1021 82 10000 2.6 130 11:19 10.02.2020
2845 Clouds 18 1021 59 10000 3.6 160 10:45 10.02.2020
2846 Clouds 18 1021 59 10000 3.6 160 10:26 10.02.2020
2847 Clouds 18 1021 59 10000 4.1 150 09:45 10.02.2020
2848 Clouds 18 1021 59 10000 4.1 150 09:25 10.02.2020
2849 Clouds 18 1021 63 10000 3.1 160 08:55 10.02.2020
2850 Clouds 17 1021 63 10000 3.1 160 08:36 10.02.2020
2851 Clouds 18 1021 63 10000 3.1 160 08:18 10.02.2020
2852 Clouds 18 1021 55 10000 3.6 150 07:46 10.02.2020
2853 Clouds 18 1021 55 10000 3.6 150 07:25 10.02.2020
2854 Clouds 18 1021 59 10000 4.1 160 06:19 10.02.2020
2855 Clouds 17 1021 59 10000 3.6 150 04:27 10.02.2020
2856 Clouds 17 1021 59 10000 4.6 170 03:34 10.02.2020
2857 Clouds 18 1021 55 10000 4.6 170 02:54 10.02.2020
2858 Clouds 18 1021 59 10000 5.1 180 01:38 10.02.2020
2859 Clouds 18 1020 59 10000 5.7 180 00:48 10.02.2020
2860 Clouds 19 1020 59 10000 5.7 180 00:30 10.02.2020
2861 Clouds 19 1020 59 10000 6.2 180 23:55 09.02.2020
2862 Clouds 19 1020 59 10000 6.2 180 23:36 09.02.2020
2863 Clouds 19 1020 59 10000 6.2 180 23:18 09.02.2020
2864 Clouds 19 1020 59 10000 7.7 180 22:39 09.02.2020
2865 Clouds 20 1020 59 10000 7.7 180 22:20 09.02.2020
2866 Clouds 21 1020 56 10000 7.7 170 21:42 09.02.2020
2867 Clouds 21 1020 56 10000 7.7 170 21:42 09.02.2020
2868 Clouds 21 1020 56 10000 7.7 170 21:23 09.02.2020
2869 Clouds 21 1020 64 10000 6.2 170 20:48 09.02.2020
2870 Clouds 21 1020 64 10000 6.2 170 20:27 09.02.2020
2871 Clouds 21 1021 56 10000 7.7 170 19:58 09.02.2020
2872 Clouds 21 1021 56 10000 7.7 170 19:39 09.02.2020
2873 Clouds 21 1021 56 10000 7.7 170 19:21 09.02.2020
2874 Clouds 22 1021 49 10000 8.7 170 18:56 09.02.2020
2875 Clouds 22 1021 49 10000 8.7 170 18:38 09.02.2020
2876 Clouds 22 1021 49 10000 8.7 170 18:20 09.02.2020
2877 Clouds 22 1021 52 10000 7.7 180 17:42 09.02.2020
2878 Clouds 22 1021 52 10000 7.7 180 17:22 09.02.2020
2879 Clouds 22 1020 52 10000 8.7 180 16:56 09.02.2020
2880 Clouds 22 1020 52 10000 8.7 180 16:37 09.02.2020
2881 Clouds 22 1020 52 10000 8.7 180 16:18 09.02.2020
2882 Clouds 22 1020 60 10000 6.2 180 15:54 09.02.2020
2883 Clouds 22 1020 60 10000 6.2 180 15:36 09.02.2020
2884 Clouds 22 1020 60 10000 6.2 180 15:18 09.02.2020
2885 Clouds 21 1020 64 10000 6.2 170 14:41 09.02.2020
2886 Clouds 21 1020 64 10000 6.2 170 14:22 09.02.2020
2887 Clouds 20 1019 68 10000 6.2 170 13:47 09.02.2020
2888 Clouds 20 1019 68 10000 6.2 170 13:28 09.02.2020
2889 Clouds 20 1018 63 10000 6.7 160 12:57 09.02.2020
2890 Clouds 20 1018 63 10000 6.7 160 12:38 09.02.2020
2891 Clouds 19 1018 63 10000 6.7 160 12:19 09.02.2020
2892 Clouds 19 1018 63 10000 6.7 160 12:19 09.02.2020
2893 Clouds 19 1018 63 10000 6.7 160 12:19 09.02.2020
2894 Clouds 19 1018 63 10000 6.7 160 11:42 09.02.2020
2895 Clouds 19 1018 63 10000 6.7 160 11:22 09.02.2020
2896 Clouds 19 1017 63 10000 7.2 180 10:59 09.02.2020
2897 Clouds 19 1017 63 10000 7.2 180 10:41 09.02.2020
2898 Clouds 18 1017 63 10000 7.2 180 10:22 09.02.2020
2899 Clouds 19 1017 68 10000 8.2 170 09:46 09.02.2020
2900 Clouds 19 1017 68 10000 8.2 170 09:27 09.02.2020
2901 Clouds 19 1017 68 10000 7.2 160 08:54 09.02.2020
2902 Clouds 19 1017 68 10000 7.2 160 08:36 09.02.2020
2903 Clouds 19 1017 68 10000 7.2 160 08:18 09.02.2020
2904 Clouds 19 1017 63 10000 6.7 170 07:44 09.02.2020
2905 Clouds 19 1016 64 10000 7.2 160 06:49 09.02.2020
2906 Clouds 19 1016 64 10000 7.2 160 06:29 09.02.2020
2907 Clouds 19 1017 68 10000 6.7 160 05:43 09.02.2020
2908 Clouds 20 1017 68 10000 6.7 160 05:19 09.02.2020
2909 Clouds 20 1017 68 10000 7.2 160 03:53 09.02.2020
2910 Clouds 20 1016 68 10000 7.7 170 02:47 09.02.2020
2911 Clouds 20 1016 68 10000 7.7 170 02:26 09.02.2020
2912 Clouds 20 1016 68 10000 6.7 160 01:35 09.02.2020
2913 Clouds 21 1015 68 10000 8.7 160 00:48 09.02.2020
2914 Clouds 21 1015 68 10000 8.7 160 00:27 09.02.2020
2915 Clouds 21 1015 77 10000 8.2 160 23:44 08.02.2020
2916 Clouds 21 1015 77 10000 8.2 160 23:22 08.02.2020
2917 Clouds 22 1015 68 10000 8.7 150 22:55 08.02.2020
2918 Clouds 22 1015 68 10000 8.7 150 22:36 08.02.2020
2919 Clouds 22 1015 68 10000 8.7 150 22:18 08.02.2020
2920 Clouds 23 1015 73 10000 8.7 170 21:41 08.02.2020
2921 Clouds 23 1015 73 10000 8.7 170 21:23 08.02.2020
2922 Clouds 23 1015 69 10000 9.3 160 20:58 08.02.2020
2923 Clouds 23 1015 69 10000 9.3 160 20:39 08.02.2020
2924 Clouds 23 1015 69 10000 9.3 160 20:19 08.02.2020
2925 Clouds 24 1015 69 10000 9.8 160 19:55 08.02.2020
2926 Clouds 24 1015 69 10000 9.8 160 19:37 08.02.2020
2927 Clouds 23 1015 69 10000 9.8 160 19:19 08.02.2020
2928 Clouds 24 1015 69 10000 9.3 160 18:43 08.02.2020
2929 Clouds 24 1015 69 10000 9.3 160 18:24 08.02.2020
2930 Clouds 24 1015 73 10000 7.7 150 17:56 08.02.2020
2931 Clouds 24 1015 73 10000 7.7 150 17:37 08.02.2020
2932 Clouds 24 1015 73 10000 7.7 150 17:18 08.02.2020
2933 Clouds 24 1015 69 10000 7.7 150 16:40 08.02.2020
2934 Clouds 24 1015 69 10000 7.7 150 16:22 08.02.2020
2935 Clouds 24 1015 83 10000 7.7 170 15:56 08.02.2020
2936 Clouds 23 1015 83 10000 7.7 170 15:38 08.02.2020
2937 Clouds 23 1015 83 10000 7.7 170 15:38 08.02.2020
2938 Clouds 23 1015 83 10000 7.7 170 15:18 08.02.2020
2939 Clouds 23 1015 83 10000 7.7 170 15:18 08.02.2020
2940 Clouds 23 1015 83 10000 6.7 160 14:41 08.02.2020
2941 Clouds 23 1015 83 10000 6.7 160 14:19 08.02.2020
2942 Clouds 23 1015 83 10000 6.7 160 14:19 08.02.2020
2943 Rain 23 1015 88 10000 5.1 160 13:55 08.02.2020
2944 Rain 22 1015 88 10000 5.1 160 13:37 08.02.2020
2945 Rain 22 1015 88 10000 5.1 160 13:18 08.02.2020
2946 Clouds 21 1015 94 10000 4.1 140 12:39 08.02.2020
2947 Clouds 21 1015 94 10000 4.1 140 12:20 08.02.2020
2948 Rain 21 1014 94 8000 5.1 170 11:47 08.02.2020
2949 Rain 21 1014 94 8000 5.1 170 11:22 08.02.2020
2950 Rain 21 1014 94 6000 3.6 170 10:59 08.02.2020
2951 Rain 21 1014 94 6000 3.6 170 10:40 08.02.2020
2952 Rain 21 1014 94 6000 3.6 170 10:20 08.02.2020
2953 Rain 22 1014 94 6000 5.1 180 09:50 08.02.2020
2954 Rain 22 1014 94 6000 5.1 180 09:26 08.02.2020
2955 Clouds 22 1014 94 8000 5.1 180 08:48 08.02.2020
2956 Clouds 22 1014 94 8000 5.1 180 08:29 08.02.2020
2957 Clouds 22 1014 94 8000 4.1 150 07:54 08.02.2020
2958 Drizzle 23 1014 88 3000 3.1 160 07:35 08.02.2020
2959 Clouds 23 1014 88 10000 6.2 180 06:55 08.02.2020
2960 Clouds 23 1014 88 10000 6.2 180 06:23 08.02.2020
2961 Clouds 23 1014 88 10000 4.1 180 05:37 08.02.2020
2962 Clouds 23 1014 88 10000 4.1 180 05:18 08.02.2020
2963 Clouds 23 1014 88 10000 4.1 140 04:26 08.02.2020
2964 Clouds 24 1014 83 10000 4.6 120 03:39 08.02.2020
2965 Clouds 24 1015 83 10000 4.6 150 02:43 08.02.2020
2966 Clouds 24 1015 83 10000 4.1 180 01:35 08.02.2020
2967 Clouds 24 1014 83 10000 5.7 200 00:59 08.02.2020
2968 Clouds 24 1014 83 10000 5.7 200 00:37 08.02.2020
2969 Clouds 25 1014 83 10000 5.7 200 00:18 08.02.2020
2970 Clouds 26 1014 74 10000 5.7 200 23:42 07.02.2020
2971 Clouds 26 1014 74 10000 5.7 200 23:20 07.02.2020
2972 Clouds 26 1014 74 10000 5.7 200 22:55 07.02.2020
2973 Clouds 26 1013 69 10000 5.7 200 22:37 07.02.2020
2974 Clouds 26 1013 69 10000 5.7 200 22:18 07.02.2020
2975 Clouds 26 1013 69 10000 5.7 200 22:18 07.02.2020
2976 Clouds 29 1012 45 10000 3.6 190 21:41 07.02.2020
2977 Clouds 29 1012 45 10000 3.6 190 21:21 07.02.2020
2978 Clouds 31 1011 41 10000 1 0 20:41 07.02.2020
2979 Clouds 31 1011 41 10000 1 0 20:22 07.02.2020
2980 Clouds 31 1011 41 10000 1 0 20:22 07.02.2020
2981 Clouds 30 1012 46 10000 2.6 120 19:57 07.02.2020
2982 Clouds 30 1012 46 10000 2.6 120 19:37 07.02.2020
2983 Clouds 30 1012 46 10000 2.6 120 19:19 07.02.2020
2984 Clouds 29 1013 45 10000 4.6 120 18:46 07.02.2020
2985 Clouds 29 1013 45 10000 4.6 120 18:26 07.02.2020
2986 Clouds 28 1015 62 10000 7.2 140 17:57 07.02.2020
2987 Clouds 28 1015 62 10000 7.2 140 17:39 07.02.2020
2988 Clouds 28 1015 62 10000 7.2 140 17:20 07.02.2020
2989 Clouds 27 1016 88 10000 8.2 150 16:52 07.02.2020
2990 Clouds 26 1016 88 10000 8.2 150 16:24 07.02.2020
2991 Clouds 25 1016 83 10000 6.38 119 15:55 07.02.2020
2992 Clouds 26 1016 69 10000 6.7 160 15:36 07.02.2020
2993 Clouds 26 1016 69 10000 6.7 160 15:18 07.02.2020
2994 Clouds 28 1015 69 10000 4.1 190 14:42 07.02.2020
2995 Clouds 28 1015 69 10000 4.1 190 14:24 07.02.2020
2996 Clouds 28 1015 62 10000 5.7 170 13:57 07.02.2020
2997 Clear 27 1014 74 10000 5.7 40 13:38 07.02.2020
2998 Rain 28 1014 74 10000 5.7 40 13:20 07.02.2020
2999 Rain 27 1013 78 10000 6.2 40 12:44 07.02.2020
3000 Rain 27 1013 78 10000 6.2 40 12:26 07.02.2020
3001 Rain 26 1012 94 10000 4.6 40 11:58 07.02.2020
3002 Rain 26 1012 94 10000 4.6 40 11:39 07.02.2020
3003 Clouds 25 1012 94 10000 4.6 40 11:18 07.02.2020
3004 Clouds 24 1012 83 10000 4.6 30 10:40 07.02.2020
3005 Clouds 24 1012 83 10000 4.6 30 10:20 07.02.2020
3006 Clouds 25 1013 78 10000 2.6 30 09:46 07.02.2020
3007 Clouds 25 1013 78 10000 2.6 30 09:26 07.02.2020
3008 Clouds 25 1012 83 10000 4.1 40 08:58 07.02.2020
3009 Clouds 25 1012 83 10000 4.1 40 08:37 07.02.2020
3010 Clouds 27 1012 83 10000 4.1 40 08:19 07.02.2020
3011 Clouds 27 1013 83 10000 3.1 30 07:40 07.02.2020
3012 Clouds 27 1013 83 10000 3.1 30 07:40 07.02.2020
3013 Clouds 27 1013 83 10000 3.1 30 07:22 07.02.2020
3014 Clouds 26 1012 78 10000 4.6 40 06:43 07.02.2020
3015 Clouds 26 1012 78 10000 4.6 40 06:23 07.02.2020
3016 Clouds 27 1013 78 10000 3.1 30 05:43 07.02.2020
3017 Clouds 28 1013 69 10000 5.7 40 04:24 07.02.2020
3018 Clouds 28 1012 69 10000 3.1 50 02:32 07.02.2020
3019 Clouds 27 1012 74 10000 4.1 110 01:34 07.02.2020
3020 Clouds 28 1011 69 10000 5.1 110 00:39 07.02.2020
3021 Clouds 29 1011 62 10000 5.1 100 23:57 06.02.2020
3022 Clouds 29 1011 62 10000 5.1 100 23:36 06.02.2020
3023 Clouds 29 1011 62 10000 5.1 100 23:18 06.02.2020
3024 Clouds 29 1011 58 10000 5.1 120 22:42 06.02.2020
3025 Clouds 30 1011 58 10000 5.1 120 22:23 06.02.2020
3026 Clouds 30 1011 49 10000 6.2 120 21:37 06.02.2020
3027 Clouds 31 1011 49 10000 6.2 120 21:19 06.02.2020
3028 Clouds 30 1011 49 10000 5.1 180 20:56 06.02.2020
3029 Clouds 30 1011 49 10000 5.1 180 20:38 06.02.2020
3030 Clouds 31 1011 49 10000 5.1 180 20:18 06.02.2020
3031 Clouds 32 1011 44 10000 4.1 360 19:58 06.02.2020
3032 Clouds 32 1011 44 10000 4.1 360 19:40 06.02.2020
3033 Clouds 32 1011 44 10000 4.1 360 19:21 06.02.2020
3034 Clouds 32 1012 47 10000 5.1 360 18:58 06.02.2020
3035 Clouds 33 1012 47 10000 5.1 360 18:39 06.02.2020
3036 Clouds 33 1012 47 10000 5.1 360 18:20 06.02.2020
3037 Clouds 33 1012 52 10000 6.2 360 17:42 06.02.2020
3038 Rain 33 1012 52 10000 6.2 360 17:21 06.02.2020
3039 Rain 33 1013 55 10000 7.2 20 16:57 06.02.2020
3040 Rain 33 1013 55 10000 7.2 20 16:39 06.02.2020
3041 Rain 33 1013 55 10000 7.2 20 16:20 06.02.2020
3042 Clouds 31 1013 62 10000 7.2 20 15:42 06.02.2020
3043 Clouds 30 1013 62 10000 7.2 20 15:21 06.02.2020
3044 Rain 29 1013 65 10000 7.7 30 14:49 06.02.2020
3045 Rain 29 1013 65 10000 7.7 30 14:27 06.02.2020
3046 Rain 28 1013 69 10000 8.7 30 13:57 06.02.2020
3047 Rain 28 1013 69 10000 8.7 30 13:39 06.02.2020
3048 Rain 27 1013 69 10000 8.7 30 13:19 06.02.2020
3049 Rain 26 1013 73 10000 8.2 40 12:43 06.02.2020
3050 Rain 25 1013 73 10000 8.2 40 12:19 06.02.2020
3051 Rain 24 1012 78 10000 7.7 40 11:56 06.02.2020
3052 Rain 24 1012 78 10000 7.7 40 11:38 06.02.2020
3053 Rain 24 1012 78 10000 7.7 40 11:18 06.02.2020
3054 Rain 24 1012 73 10000 4.6 40 10:56 06.02.2020
3055 Rain 24 1012 73 10000 4.6 40 10:38 06.02.2020
3056 Rain 24 1012 73 10000 4.6 40 10:18 06.02.2020
3057 Rain 24 1012 73 10000 4.6 40 09:44 06.02.2020
3058 Rain 24 1012 73 10000 4.6 40 09:20 06.02.2020
3059 Rain 24 1011 73 10000 5.7 40 08:47 06.02.2020
3060 Rain 24 1011 73 10000 5.7 40 08:25 06.02.2020
3061 Rain 24 1011 73 10000 5.1 40 07:59 06.02.2020
3062 Rain 24 1011 73 10000 5.1 40 07:39 06.02.2020
3063 Rain 24 1011 73 10000 5.1 40 07:21 06.02.2020
3064 Rain 25 1011 69 10000 6.2 40 06:21 06.02.2020
3065 Rain 25 1011 73 10000 7.2 50 05:44 06.02.2020
3066 Clouds 26 1011 69 10000 7.7 60 04:19 06.02.2020
3067 Clouds 28 1011 69 10000 7.7 50 03:19 06.02.2020
3068 Clouds 28 1011 65 10000 7.7 60 02:27 06.02.2020
3069 Clouds 29 1010 62 10000 6.7 60 01:25 06.02.2020
3070 Clouds 28 1009 69 10000 5.1 110 00:53 06.02.2020
3071 Clouds 28 1009 69 10000 5.1 110 00:23 06.02.2020
3072 Clouds 28 1008 55 10000 5.1 130 23:43 05.02.2020
3073 Clouds 28 1008 55 10000 5.1 130 23:24 05.02.2020
3074 Clouds 29 1008 49 10000 5.1 130 22:57 05.02.2020
3075 Clouds 29 1008 49 10000 5.1 130 22:39 05.02.2020
3076 Clouds 29 1008 49 10000 5.1 130 22:20 05.02.2020
3077 Clouds 30 1009 44 10000 5.1 100 21:41 05.02.2020
3078 Clouds 30 1009 44 10000 5.1 100 21:23 05.02.2020
3079 Rain 29 1009 41 10000 5.1 10 20:56 05.02.2020
3080 Rain 30 1009 41 10000 5.1 10 20:38 05.02.2020
3081 Rain 31 1009 41 10000 5.1 10 20:18 05.02.2020
3082 Clouds 31 1010 44 10000 4.1 40 19:55 05.02.2020
3083 Clouds 31 1010 44 10000 4.1 40 19:37 05.02.2020
3084 Clouds 32 1010 44 10000 4.1 40 19:18 05.02.2020
3085 Clouds 32 1010 49 10000 6.7 10 18:43 05.02.2020
3086 Clouds 33 1010 49 10000 6.7 10 18:21 05.02.2020
3087 Clear 32 1011 52 10000 6.2 340 17:58 05.02.2020
3088 Clear 33 1011 52 10000 6.2 340 17:37 05.02.2020
3089 Clear 32 1011 52 10000 8.2 30 17:18 05.02.2020
3090 Clear 32 1011 52 10000 8.2 30 16:43 05.02.2020
3091 Clear 32 1011 52 10000 8.2 30 16:25 05.02.2020
3092 Clear 30 1011 55 10000 6.2 20 15:59 05.02.2020
3093 Clear 30 1011 55 10000 6.2 20 15:40 05.02.2020
3094 Clear 30 1011 55 10000 6.2 20 15:19 05.02.2020
3095 Clear 29 1012 61 10000 8.2 30 14:43 05.02.2020
3096 Clear 28 1012 61 10000 8.2 30 14:25 05.02.2020
3097 Clear 27 1012 69 10000 8.7 30 13:59 05.02.2020
3098 Clear 26 1012 69 10000 8.7 30 13:39 05.02.2020
3099 Clouds 26 1012 69 10000 8.7 30 13:19 05.02.2020
3100 Clouds 24 1012 73 10000 7.2 40 12:43 05.02.2020
3101 Clouds 24 1012 73 10000 7.2 40 12:24 05.02.2020
3102 Clouds 23 1012 83 10000 8.7 40 11:57 05.02.2020
3103 Clouds 23 1012 83 10000 8.7 40 11:38 05.02.2020
3104 Clouds 23 1012 83 10000 8.7 40 11:19 05.02.2020
3105 Clouds 22 1012 78 10000 7.7 30 10:42 05.02.2020
3106 Clouds 22 1012 78 10000 7.7 30 10:24 05.02.2020
3107 Clouds 23 1011 73 10000 8.2 30 09:57 05.02.2020
3108 Clouds 23 1011 73 10000 8.2 30 09:37 05.02.2020
3109 Clouds 23 1011 73 10000 8.2 30 09:19 05.02.2020
3110 Clouds 23 1012 78 10000 7.7 30 08:43 05.02.2020
3111 Clear 23 1012 78 10000 7.7 30 08:23 05.02.2020
3112 Clear 23 1012 78 10000 7.7 30 08:23 05.02.2020
3113 Clear 23 1012 73 10000 9.3 40 07:48 05.02.2020
3114 Clear 23 1012 73 10000 9.3 40 07:29 05.02.2020
3115 Clear 24 1012 73 10000 7.2 40 06:49 05.02.2020
3116 Clear 24 1012 73 10000 7.2 40 06:23 05.02.2020
3117 Clear 24 1013 73 10000 6.2 50 05:52 05.02.2020
3118 Clear 24 1013 73 10000 6.2 50 05:18 05.02.2020
3119 Clear 24 1013 69 10000 6.2 40 04:45 05.02.2020
3120 Clear 25 1013 73 10000 5.1 50 03:50 05.02.2020
3121 Clear 28 1012 65 10000 7.2 60 02:25 05.02.2020
3122 Clouds 29 1011 58 10000 7.7 70 01:37 05.02.2020
3123 Clouds 29 1011 58 10000 7.7 70 01:37 05.02.2020
3124 Clouds 30 1010 51 10000 7.7 70 00:43 05.02.2020
3125 Clouds 32 1010 34 10000 7.2 30 23:57 04.02.2020
3126 Clouds 32 1010 34 10000 7.2 30 23:37 04.02.2020
3127 Clouds 33 1010 34 10000 7.2 30 23:18 04.02.2020
3128 Clouds 34 1010 34 10000 7.2 30 22:42 04.02.2020
3129 Clouds 34 1010 34 10000 7.2 30 22:42 04.02.2020
3130 Clouds 34 1010 34 10000 7.2 30 22:22 04.02.2020
3131 Clouds 33 1010 36 10000 7.2 40 22:00 04.02.2020
3132 Clouds 34 1010 36 10000 7.2 40 21:41 04.02.2020
3133 Clouds 34 1010 36 10000 7.2 40 21:19 04.02.2020
3134 Clouds 34 1010 36 10000 7.2 40 21:19 04.02.2020
3135 Clouds 32 1011 39 10000 6.2 20 20:59 04.02.2020
3136 Clouds 33 1011 39 10000 6.2 20 20:39 04.02.2020
3137 Clouds 34 1011 39 10000 6.2 20 20:20 04.02.2020
3138 Clouds 34 1011 39 10000 6.2 20 20:20 04.02.2020
3139 Clouds 34 1011 44 10000 7.2 10 19:57 04.02.2020
3140 Clouds 34 1011 44 10000 7.2 10 19:39 04.02.2020
3141 Clouds 34 1011 44 10000 7.2 10 19:21 04.02.2020
3142 Clouds 33 1012 46 10000 7.7 20 18:55 04.02.2020
3143 Clouds 33 1012 46 10000 7.7 20 18:36 04.02.2020
3144 Clouds 33 1012 46 10000 7.7 20 18:18 04.02.2020
3145 Clouds 33 1013 46 10000 7.7 50 17:42 04.02.2020
3146 Clouds 32 1013 46 10000 7.7 50 17:20 04.02.2020
3147 Clouds 32 1013 46 10000 7.7 50 16:55 04.02.2020
3148 Clouds 31 1013 55 10000 10.3 20 16:36 04.02.2020
3149 Clouds 31 1013 55 10000 10.3 20 16:18 04.02.2020
3150 Clouds 30 1014 55 10000 8.2 40 15:55 04.02.2020
3151 Clouds 30 1014 55 10000 8.2 40 15:37 04.02.2020
3152 Clouds 30 1014 55 10000 8.2 40 15:18 04.02.2020
3153 Clear 29 1015 61 10000 8.7 40 14:41 04.02.2020
3154 Clear 28 1015 61 10000 8.7 40 14:21 04.02.2020
3155 Clouds 27 1015 65 10000 8.2 40 13:56 04.02.2020
3156 Clouds 26 1015 65 10000 8.2 40 13:38 04.02.2020
3157 Clouds 26 1015 65 10000 8.2 40 13:18 04.02.2020
3158 Clear 25 1015 78 10000 8.7 50 12:43 04.02.2020
3159 Clear 24 1015 78 10000 8.7 50 12:24 04.02.2020
3160 Clear 23 1015 88 10000 5.7 50 11:57 04.02.2020
3161 Clear 22 1015 88 10000 5.7 50 11:39 04.02.2020
3162 Clear 22 1015 88 10000 5.7 50 11:19 04.02.2020
3163 Clear 21 1014 83 10000 3.6 70 10:49 04.02.2020
3164 Clear 21 1014 83 10000 3.6 70 10:27 04.02.2020
3165 Clear 21 1014 83 10000 3.1 80 09:58 04.02.2020
3166 Clear 21 1014 83 10000 3.1 80 09:39 04.02.2020
3167 Clear 21 1014 83 10000 3.1 80 09:21 04.02.2020
3168 Clouds 21 1014 83 10000 2.6 70 08:47 04.02.2020
3169 Clouds 21 1014 83 10000 2.6 70 08:28 04.02.2020
3170 Clouds 21 1015 83 10000 3.1 80 07:56 04.02.2020
3171 Clouds 21 1015 83 10000 3.1 80 07:37 04.02.2020
3172 Clouds 21 1015 83 10000 3.1 80 07:18 04.02.2020
3173 Clear 22 1015 78 10000 3.6 60 06:41 04.02.2020
3174 Clear 22 1015 78 10000 6.2 70 05:35 04.02.2020
3175 Clear 23 1015 73 10000 7.7 70 04:28 04.02.2020
3176 Clear 24 1015 61 10000 6.7 60 03:48 04.02.2020
3177 Clear 24 1015 61 10000 6.7 60 03:29 04.02.2020
3178 Clear 26 1014 50 10000 5.1 60 02:42 04.02.2020
3179 Clear 26 1014 50 10000 5.1 60 02:24 04.02.2020
3180 Clear 27 1014 51 10000 4.6 70 01:45 04.02.2020
3181 Clear 26 1014 69 10000 2.6 110 00:56 04.02.2020
3182 Clear 27 1014 69 10000 2.6 110 00:23 04.02.2020
3183 Clear 27 1013 54 10000 5.1 120 23:49 03.02.2020
3184 Clear 27 1013 54 10000 5.1 120 23:49 03.02.2020
3185 Clear 28 1013 54 10000 5.1 120 23:30 03.02.2020
3186 Clear 29 1013 48 10000 5.7 110 22:58 03.02.2020
3187 Clear 29 1013 48 10000 5.7 110 22:58 03.02.2020
3188 Clear 28 1013 48 10000 5.7 110 22:38 03.02.2020
3189 Clear 28 1013 48 10000 5.7 110 22:19 03.02.2020
3190 Clear 29 1014 46 10000 5.1 120 21:41 03.02.2020
3191 Clear 29 1014 46 10000 5.1 120 21:20 03.02.2020
3192 Clear 29 1014 46 10000 5.1 120 21:20 03.02.2020
3193 Clear 27 1015 58 10000 6.2 130 20:56 03.02.2020
3194 Clear 27 1015 58 10000 6.2 130 20:38 03.02.2020
3195 Clear 27 1015 58 10000 6.2 130 20:38 03.02.2020
3196 Clear 29 1015 58 10000 6.2 130 20:18 03.02.2020
3197 Clear 30 1015 38 10000 5.1 10 19:42 03.02.2020
3198 Clear 30 1015 38 10000 5.1 10 19:23 03.02.2020
3199 Clear 29 1016 40 10000 4.6 30 18:59 03.02.2020
3200 Clear 29 1016 40 10000 4.6 30 18:40 03.02.2020
3201 Clear 29 1016 40 10000 4.6 30 18:21 03.02.2020
3202 Clear 29 1016 40 10000 4.1 30 17:57 03.02.2020
3203 Clear 29 1016 40 10000 4.1 30 17:39 03.02.2020
3204 Clear 29 1017 45 10000 5.1 20 17:19 03.02.2020
3205 Clear 30 1017 45 10000 5.1 20 16:40 03.02.2020
3206 Clear 30 1017 45 10000 5.1 20 16:22 03.02.2020
3207 Clear 29 1017 51 10000 5.1 360 15:58 03.02.2020
3208 Clear 29 1017 51 10000 5.1 360 15:39 03.02.2020
3209 Clear 29 1017 51 10000 5.1 360 15:20 03.02.2020
3210 Clear 27 1017 73 10000 6.7 30 14:57 03.02.2020
3211 Clear 27 1017 73 10000 6.7 30 14:39 03.02.2020
3212 Clear 27 1017 73 10000 6.7 30 14:21 03.02.2020
3213 Clear 26 1017 65 10000 7.2 30 13:43 03.02.2020
3214 Clear 26 1017 65 10000 7.2 30 13:21 03.02.2020
3215 Clear 24 1017 88 10000 7.7 30 12:59 03.02.2020
3216 Clear 23 1017 88 10000 7.7 30 12:40 03.02.2020
3217 Clear 23 1017 88 10000 7.7 30 12:21 03.02.2020
3218 Clear 21 1016 88 10000 6.2 30 11:56 03.02.2020
3219 Clear 21 1016 88 10000 6.2 30 11:37 03.02.2020
3220 Clear 21 1016 88 10000 6.2 30 11:18 03.02.2020
3221 Clear 21 1015 83 10000 4.6 20 10:40 03.02.2020
3222 Clear 21 1015 83 10000 4.6 20 10:22 03.02.2020
3223 Clear 22 1015 73 10000 4.1 30 09:48 03.02.2020
3224 Clear 22 1015 73 10000 4.1 30 09:24 03.02.2020
3225 Clear 22 1015 73 10000 4.1 30 08:56 03.02.2020
3226 Clear 22 1015 73 10000 4.1 30 08:56 03.02.2020
3227 Clear 22 1015 73 10000 4.1 30 08:37 03.02.2020
3228 Clear 22 1015 73 10000 4.1 30 08:19 03.02.2020
3229 Clear 23 1015 73 10000 4.6 30 07:40 03.02.2020
3230 Clear 23 1015 73 10000 4.6 30 07:21 03.02.2020
3231 Clear 23 1015 69 10000 5.1 30 06:51 03.02.2020
3232 Clear 24 1015 69 10000 5.1 30 06:28 03.02.2020
3233 Clear 24 1015 65 10000 5.7 40 05:37 03.02.2020
3234 Clear 25 1015 65 10000 5.7 40 05:18 03.02.2020
3235 Clear 26 1015 57 10000 5.7 60 03:51 03.02.2020
3236 Clear 24 1015 69 10000 4.6 100 02:36 03.02.2020
3237 Clear 25 1014 61 10000 4.6 120 01:42 03.02.2020
3238 Clear 26 1014 61 10000 4.1 130 00:47 03.02.2020
3239 Clear 27 1014 61 10000 4.1 130 00:25 03.02.2020
3240 Clouds 28 1013 42 0 5.1 120 23:39 02.02.2020
3241 Clouds 28 1013 42 0 5.1 120 23:21 02.02.2020
3242 Clouds 28 1013 45 10000 4.1 190 22:58 02.02.2020
3243 Clouds 28 1013 45 10000 4.1 190 22:38 02.02.2020
3244 Clouds 28 1013 45 10000 4.1 190 22:38 02.02.2020
3245 Clouds 29 1013 45 10000 4.1 190 22:20 02.02.2020
3246 Clouds 29 1013 45 10000 4.1 190 21:56 02.02.2020
3247 Clouds 29 1013 45 10000 4.1 190 21:38 02.02.2020
3248 Clouds 29 1013 45 10000 4.1 190 21:20 02.02.2020
3249 Clouds 29 1013 40 10000 6.2 130 20:56 02.02.2020
3250 Clouds 29 1013 40 10000 6.2 130 20:37 02.02.2020
3251 Clouds 30 1013 40 10000 6.2 130 20:19 02.02.2020
3252 Clouds 30 1013 32 10000 3.1 80 19:55 02.02.2020
3253 Clouds 31 1013 32 10000 3.1 80 19:37 02.02.2020
3254 Clouds 31 1013 32 10000 3.1 80 19:18 02.02.2020
3255 Clouds 31 1014 36 10000 3.1 40 18:39 02.02.2020
3256 Clouds 31 1014 36 10000 3.1 40 18:21 02.02.2020
3257 Clouds 30 1014 38 10000 3.6 80 17:58 02.02.2020
3258 Clouds 30 1014 38 10000 3.6 80 17:38 02.02.2020
3259 Clouds 30 1014 38 10000 3.6 80 17:19 02.02.2020
3260 Clouds 29 1014 45 10000 2.1 60 16:59 02.02.2020
3261 Clouds 29 1014 45 10000 2.1 60 16:39 02.02.2020
3262 Clouds 30 1014 45 10000 2.1 60 16:19 02.02.2020
3263 Clear 28 1015 51 10000 2.1 60 15:59 02.02.2020
3264 Clear 28 1015 51 10000 2.1 60 15:40 02.02.2020
3265 Clear 28 1015 51 10000 2.1 60 15:20 02.02.2020
3266 Clear 26 1015 69 10000 3.1 330 14:58 02.02.2020
3267 Clear 26 1015 69 10000 3.1 330 14:40 02.02.2020
3268 Clear 26 1015 69 10000 3.1 330 14:18 02.02.2020
3269 Clear 25 1015 64 10000 5.1 30 13:55 02.02.2020
3270 Clear 25 1015 64 10000 5.1 30 13:37 02.02.2020
3271 Clear 25 1015 64 10000 5.1 30 13:18 02.02.2020
3272 Clear 22 1014 77 10000 5.1 30 12:44 02.02.2020
3273 Clear 22 1014 77 10000 5.1 30 12:22 02.02.2020
3274 Clear 21 1014 77 10000 3.6 30 11:59 02.02.2020
3275 Clear 21 1014 77 10000 3.6 30 11:40 02.02.2020
3276 Clear 20 1014 77 10000 3.6 30 11:19 02.02.2020
3277 Clear 19 1014 82 10000 3.1 20 10:56 02.02.2020
3278 Clear 19 1014 82 10000 3.1 20 10:36 02.02.2020
3279 Clear 19 1014 82 10000 3.1 20 10:36 02.02.2020
3280 Clear 19 1014 82 10000 3.1 20 10:18 02.02.2020
3281 Clear 19 1013 77 10000 3.6 20 09:55 02.02.2020
3282 Clear 19 1013 77 10000 3.6 20 09:36 02.02.2020
3283 Clear 19 1013 77 10000 3.6 20 09:36 02.02.2020
3284 Clear 19 1013 77 10000 3.6 20 09:18 02.02.2020
3285 Clear 19 1012 72 10000 4.1 30 08:41 02.02.2020
3286 Clear 19 1012 72 10000 4.1 30 08:22 02.02.2020
3287 Clear 19 1012 72 10000 4.6 30 07:46 02.02.2020
3288 Clear 19 1012 72 10000 4.6 30 07:46 02.02.2020
3289 Clear 19 1012 72 10000 4.6 30 07:28 02.02.2020
3290 Clear 20 1012 73 10000 4.1 30 06:43 02.02.2020
3291 Clear 20 1012 73 10000 4.1 30 06:25 02.02.2020
3292 Clear 20 1012 68 10000 3.6 40 05:47 02.02.2020
3293 Clear 21 1012 64 10000 4.1 50 04:42 02.02.2020
3294 Clear 20 1012 78 10000 1.5 60 03:25 02.02.2020
3295 Clear 21 1011 73 10000 4.1 100 02:29 02.02.2020
3296 Clear 22 1011 73 10000 4.1 110 01:54 02.02.2020
3297 Clear 22 1011 73 10000 4.1 110 01:22 02.02.2020
3298 Clear 23 1011 64 10000 4.6 120 00:43 02.02.2020
3299 Clear 24 1011 64 10000 4.6 120 00:22 02.02.2020
3300 Clouds 24 1011 61 10000 6.7 120 23:46 01.02.2020
3301 Clouds 25 1011 61 10000 6.7 120 23:21 01.02.2020
3302 Clear 25 1011 47 10000 4.1 120 22:51 01.02.2020
3303 Clear 26 1011 47 10000 4.1 120 22:20 01.02.2020
3304 Clouds 26 1012 42 10000 5.7 130 21:59 01.02.2020
3305 Clouds 26 1012 42 10000 5.7 130 21:39 01.02.2020
3306 Clouds 26 1012 42 10000 5.7 130 21:18 01.02.2020
3307 Clear 27 1012 45 10000 5.7 160 20:41 01.02.2020
3308 Clear 28 1012 45 10000 5.7 160 20:20 01.02.2020
3309 Clear 28 1013 33 10000 7.7 180 19:57 01.02.2020
3310 Clear 28 1013 33 10000 7.7 180 19:39 01.02.2020
3311 Clear 29 1013 33 10000 7.7 180 19:19 01.02.2020
3312 Clouds 28 1013 32 10000 5.1 180 18:57 01.02.2020
3313 Clouds 28 1013 32 10000 5.1 180 18:39 01.02.2020
3314 Clouds 28 1013 32 10000 5.1 180 18:21 01.02.2020
3315 Clouds 28 1013 32 10000 5.1 180 18:21 01.02.2020
3316 Clouds 29 1014 35 10000 4.6 300 17:56 01.02.2020
3317 Clouds 29 1014 35 10000 4.6 300 17:38 01.02.2020
3318 Clouds 29 1014 35 10000 4.6 300 17:19 01.02.2020
3319 Clouds 28 1015 39 10000 4.1 300 16:42 01.02.2020
3320 Clouds 28 1015 39 10000 4.1 300 16:24 01.02.2020
3321 Clouds 27 1015 47 10000 4.1 10 15:58 01.02.2020
3322 Clouds 27 1015 47 10000 4.1 10 15:38 01.02.2020
3323 Clouds 26 1015 47 10000 4.1 10 15:18 01.02.2020
3324 Clear 25 1016 61 10000 4.1 330 14:41 01.02.2020
3325 Clear 25 1016 61 10000 4.1 330 14:21 01.02.2020
3326 Clear 21 1016 68 10000 5.1 10 13:46 01.02.2020
3327 Clear 21 1016 68 10000 5.1 10 13:25 01.02.2020
3328 Clear 20 1016 77 10000 4.1 20 12:59 01.02.2020
3329 Clear 20 1016 77 10000 4.1 20 12:41 01.02.2020
3330 Clear 19 1016 77 10000 4.1 20 12:22 01.02.2020
3331 Clear 19 1016 77 10000 4.1 20 12:22 01.02.2020
3332 Clear 18 1015 82 10000 3.1 20 11:44 01.02.2020
3333 Clear 18 1015 82 10000 3.1 20 11:24 01.02.2020
3334 Clear 17 1015 87 10000 3.6 20 10:59 01.02.2020
3335 Clear 17 1015 87 10000 3.6 20 10:40 01.02.2020
3336 Clear 17 1015 87 10000 3.6 20 10:40 01.02.2020
3337 Clear 17 1015 87 10000 3.6 20 10:22 01.02.2020
3338 Clear 17 1014 82 10000 2.6 20 09:59 01.02.2020
3339 Clear 17 1014 82 10000 2.6 20 09:40 01.02.2020
3340 Clear 17 1014 82 10000 2.6 20 09:21 01.02.2020
3341 Clear 17 1014 82 10000 3.1 20 08:52 01.02.2020
3342 Clear 17 1014 82 10000 2.6 20 07:56 01.02.2020
3343 Clear 17 1014 82 10000 2.6 20 07:38 01.02.2020
3344 Clear 17 1014 82 10000 2.6 20 07:19 01.02.2020
3345 Clear 18 1014 72 10000 3.1 50 06:42 01.02.2020
3346 Clear 18 1014 63 10000 3.1 50 05:53 01.02.2020
3347 Clear 18 1016 59 10000 3.1 60 04:22 01.02.2020
3348 Clear 18 1015 55 10000 2.6 80 03:25 01.02.2020
3349 Clear 19 1015 60 10000 2.6 80 02:50 01.02.2020
3350 Clear 19 1015 60 10000 2.6 80 02:30 01.02.2020
3351 Clear 19 1014 56 10000 3.1 110 01:56 01.02.2020
3352 Clear 19 1014 56 10000 3.1 110 01:37 01.02.2020
3353 Clear 21 1014 52 10000 3.6 110 00:38 01.02.2020
3354 Clear 22 1014 52 10000 3.6 110 00:19 01.02.2020
3355 Clear 23 1014 46 10000 4.1 130 23:38 31.01.2020
3356 Clear 23 1014 46 10000 4.1 130 23:18 31.01.2020
3357 Clear 23 1014 41 10000 4.6 140 22:54 31.01.2020
3358 Clear 24 1014 41 10000 4.6 140 22:36 31.01.2020
3359 Clear 24 1014 41 10000 4.6 140 22:18 31.01.2020
3360 Clear 24 1014 44 10000 5.1 180 21:39 31.01.2020
3361 Clear 23 1014 44 10000 5.1 180 21:21 31.01.2020
3362 Clear 23 1014 44 10000 5.1 170 20:57 31.01.2020
3363 Clear 23 1014 44 10000 5.1 170 20:39 31.01.2020
3364 Clear 23 1014 47 10000 4.6 150 20:20 31.01.2020
3365 Clear 23 1014 47 10000 4.6 150 19:56 31.01.2020
3366 Clear 23 1014 47 10000 4.6 150 19:38 31.01.2020
3367 Clear 24 1014 47 10000 4.6 150 19:19 31.01.2020
3368 Clear 24 1014 41 10000 2.6 130 18:46 31.01.2020
3369 Clear 24 1014 41 10000 2.6 130 18:27 31.01.2020
3370 Clear 23 1015 44 10000 4.1 150 17:59 31.01.2020
3371 Clear 23 1015 44 10000 4.1 150 17:40 31.01.2020
3372 Clear 23 1015 44 10000 4.1 150 17:21 31.01.2020
3373 Clear 23 1015 49 10000 3.1 160 16:56 31.01.2020
3374 Clear 23 1015 49 10000 3.1 160 16:37 31.01.2020
3375 Clear 22 1015 49 10000 3.1 160 16:18 31.01.2020
3376 Clear 23 1015 49 10000 3.1 220 15:56 31.01.2020
3377 Clear 23 1015 49 10000 3.1 220 15:56 31.01.2020
3378 Clear 23 1015 49 10000 3.1 220 15:37 31.01.2020
3379 Clear 23 1015 49 10000 3.1 220 15:19 31.01.2020
3380 Clear 21 1015 52 10000 1 0 14:42 31.01.2020
3381 Clear 21 1015 52 10000 1 0 14:20 31.01.2020
3382 Clear 19 1015 59 10000 2.6 270 13:50 31.01.2020
3383 Clear 19 1015 59 10000 2.6 270 13:32 31.01.2020
3384 Clear 18 1015 82 10000 2.75 267 12:56 31.01.2020
3385 Clear 18 1015 82 10000 2.75 267 12:56 31.01.2020
3386 Clear 18 1015 82 10000 2.56 274 12:38 31.01.2020
3387 Clear 18 1015 82 10000 2.56 274 12:38 31.01.2020
3388 Clear 17 1015 82 10000 2.56 274 12:20 31.01.2020
3389 Clear 13 1014 87 10000 1.5 60 11:41 31.01.2020
3390 Clear 12 1014 87 10000 1.5 60 11:23 31.01.2020
3391 Fog 15 1014 87 8000 2.72 328 10:58 31.01.2020
3392 Fog 14 1014 87 8000 2.72 328 10:38 31.01.2020
3393 Fog 14 1014 87 8000 2.72 328 10:20 31.01.2020
3394 Clouds 15 1014 87 10000 2.88 327 09:55 31.01.2020
3395 Clouds 15 1014 87 10000 2.72 328 09:37 31.01.2020
3396 Clouds 15 1014 87 10000 2.72 328 09:37 31.01.2020
3397 Clouds 15 1014 87 10000 2.72 328 09:18 31.01.2020
3398 Clouds 16 1014 82 10000 2.72 328 08:49 31.01.2020
3399 Clouds 15 1014 82 10000 2.88 327 08:24 31.01.2020
3400 Clouds 15 1014 87 10000 1.5 350 07:52 31.01.2020
3401 Clear 15 1014 82 10000 1.5 330 07:24 31.01.2020
3402 Clear 15 1014 81 10000 1.5 300 06:42 31.01.2020
3403 Clear 18 1015 63 10000 3.9 6 05:58 31.01.2020
3404 Clear 18 1015 63 10000 3.9 6 05:37 31.01.2020
3405 Clear 18 1015 59 10000 2.1 140 04:46 31.01.2020
3406 Clear 19 1015 59 10000 3.1 120 02:55 31.01.2020
3407 Clouds 19 1014 59 10000 3.6 150 01:32 31.01.2020
3408 Clouds 19 1014 60 10000 6.2 130 00:42 31.01.2020
3409 Clouds 19 1014 60 10000 6.2 130 00:23 31.01.2020
3410 Clouds 20 1014 60 10000 5.1 140 23:48 30.01.2020
3411 Clouds 20 1014 60 10000 5.1 140 23:23 30.01.2020
3412 Clouds 21 1014 56 10000 8.7 170 22:56 30.01.2020
3413 Clouds 21 1014 56 10000 8.7 170 22:56 30.01.2020
3414 Clouds 21 1014 56 10000 8.7 170 22:36 30.01.2020
3415 Clouds 21 1014 56 10000 8.7 170 22:18 30.01.2020
3416 Clouds 22 1014 53 10000 8.7 180 21:43 30.01.2020
3417 Clouds 22 1014 53 10000 8.7 180 21:19 30.01.2020
3418 Clouds 22 1014 53 10000 8.7 170 20:59 30.01.2020
3419 Clouds 23 1014 53 10000 8.7 170 20:38 30.01.2020
3420 Clouds 23 1014 53 10000 8.7 170 20:20 30.01.2020
3421 Clouds 22 1014 60 10000 8.7 170 19:55 30.01.2020
3422 Clouds 22 1014 60 10000 8.7 170 19:36 30.01.2020
3423 Clouds 22 1014 60 10000 8.7 170 19:18 30.01.2020
3424 Clouds 22 1014 60 10000 8.7 170 19:18 30.01.2020
3425 Clouds 23 1015 56 10000 8.7 160 18:39 30.01.2020
3426 Clouds 23 1015 56 10000 8.7 160 18:19 30.01.2020
3427 Clouds 22 1015 56 10000 9.8 180 17:55 30.01.2020
3428 Clouds 23 1015 56 10000 9.8 180 17:36 30.01.2020
3429 Clouds 24 1015 56 10000 9.8 180 17:18 30.01.2020
3430 Clouds 23 1014 60 10000 9.8 170 16:41 30.01.2020
3431 Clouds 23 1014 60 10000 9.8 170 16:21 30.01.2020
3432 Clouds 23 1014 60 10000 9.3 180 15:58 30.01.2020
3433 Clouds 22 1014 60 10000 9.3 180 15:40 30.01.2020
3434 Clouds 22 1014 60 10000 9.3 180 15:19 30.01.2020
3435 Clouds 22 1014 60 10000 10.3 180 14:43 30.01.2020
3436 Clouds 22 1014 60 10000 10.3 180 14:43 30.01.2020
3437 Clouds 22 1014 60 10000 10.3 180 14:25 30.01.2020
3438 Clouds 21 1014 60 10000 9.3 170 13:43 30.01.2020
3439 Clouds 21 1014 60 10000 9.3 170 13:24 30.01.2020
3440 Clouds 21 1013 64 10000 8.7 180 12:58 30.01.2020
3441 Clouds 21 1013 64 10000 8.7 180 12:39 30.01.2020
3442 Clouds 21 1013 64 10000 8.7 180 12:21 30.01.2020
3443 Clouds 19 1013 68 10000 7.2 160 11:41 30.01.2020
3444 Clouds 18 1013 68 10000 7.2 160 11:23 30.01.2020
3445 Clouds 19 1012 68 10000 6.2 170 10:59 30.01.2020
3446 Clouds 19 1012 68 10000 6.2 170 10:59 30.01.2020
3447 Clouds 19 1012 68 10000 6.2 170 10:41 30.01.2020
3448 Clouds 19 1012 68 10000 6.2 170 10:21 30.01.2020
3449 Clouds 19 1011 68 10000 6.2 170 09:47 30.01.2020
3450 Clouds 19 1011 68 10000 6.2 170 09:28 30.01.2020
3451 Clouds 19 1011 72 10000 7.2 180 08:57 30.01.2020
3452 Clouds 19 1011 72 10000 7.2 180 08:37 30.01.2020
3453 Clouds 19 1011 72 10000 7.2 180 08:18 30.01.2020
3454 Clouds 19 1012 68 10000 6.2 170 07:48 30.01.2020
3455 Clouds 19 1012 68 10000 6.2 170 07:20 30.01.2020
3456 Rain 19 1012 63 10000 6.7 170 06:46 30.01.2020
3457 Rain 19 1012 63 10000 6.7 170 06:26 30.01.2020
3458 Rain 20 1013 77 9000 6.7 170 05:43 30.01.2020
3459 Rain 19 1013 77 9000 6.7 170 05:19 30.01.2020
3460 Clouds 19 1013 82 10000 6.2 160 03:52 30.01.2020
3461 Clouds 19 1013 82 10000 6.2 160 03:34 30.01.2020
3462 Clouds 20 1013 68 10000 7.7 160 01:57 30.01.2020
3463 Clouds 20 1012 72 10000 9.3 160 00:38 30.01.2020
3464 Clouds 20 1012 72 10000 9.3 160 00:19 30.01.2020
3465 Clouds 20 1010 82 10000 9.8 160 23:45 29.01.2020
3466 Clouds 21 1010 82 10000 9.8 160 23:21 29.01.2020
3467 Clouds 21 1010 82 10000 9.8 160 23:21 29.01.2020
3468 Clouds 21 1009 77 10000 10.3 150 22:56 29.01.2020
3469 Clouds 21 1009 77 10000 10.3 150 22:38 29.01.2020
3470 Clouds 21 1009 77 10000 10.3 150 22:19 29.01.2020
3471 Clouds 22 1009 78 10000 10.3 160 21:57 29.01.2020
3472 Clouds 22 1009 78 10000 10.3 160 21:38 29.01.2020
3473 Clouds 22 1009 78 10000 10.3 160 21:18 29.01.2020
3474 Clouds 23 1009 73 10000 10.3 170 20:57 29.01.2020
3475 Clouds 23 1009 73 10000 10.3 170 20:57 29.01.2020
3476 Clouds 23 1009 73 10000 10.3 170 20:37 29.01.2020
3477 Clouds 23 1009 73 10000 10.3 170 20:37 29.01.2020
3478 Clouds 24 1009 73 10000 10.3 170 20:18 29.01.2020
3479 Clouds 24 1009 73 10000 10.3 170 20:18 29.01.2020
3480 Clouds 25 1009 69 10000 10.3 180 19:55 29.01.2020
3481 Clouds 25 1009 69 10000 10.3 180 19:36 29.01.2020
3482 Clouds 26 1009 69 10000 10.3 180 19:18 29.01.2020
3483 Clouds 26 1009 61 10000 9.3 180 18:40 29.01.2020
3484 Clouds 27 1009 61 10000 9.3 180 18:19 29.01.2020
3485 Clouds 27 1009 61 10000 6.7 200 17:41 29.01.2020
3486 Clouds 27 1009 61 10000 6.7 200 17:23 29.01.2020
3487 Clouds 27 1009 54 10000 6.2 210 16:59 29.01.2020
3488 Clouds 27 1009 54 10000 6.2 210 16:40 29.01.2020
3489 Clouds 27 1009 54 10000 6.2 210 16:20 29.01.2020
3490 Clear 29 1009 48 10000 4.6 250 15:40 29.01.2020
3491 Clear 29 1009 48 10000 4.6 250 15:22 29.01.2020
3492 Clear 28 1008 54 10000 5.7 360 14:58 29.01.2020
3493 Clear 28 1008 54 10000 5.7 360 14:40 29.01.2020
3494 Clouds 27 1008 54 10000 5.7 360 14:18 29.01.2020
3495 Clouds 25 1008 69 10000 5.1 10 13:41 29.01.2020
3496 Clouds 25 1008 69 10000 5.1 10 13:22 29.01.2020
3497 Clouds 23 1008 83 10000 5.1 360 12:57 29.01.2020
3498 Clouds 22 1008 83 10000 5.1 360 12:39 29.01.2020
3499 Clouds 22 1008 83 10000 5.1 360 12:21 29.01.2020
3500 Clouds 20 1008 82 10000 5.1 10 11:56 29.01.2020
3501 Clouds 20 1008 82 10000 5.1 10 11:37 29.01.2020
3502 Clouds 20 1008 82 10000 5.1 10 11:19 29.01.2020
3503 Clouds 19 1008 82 10000 3.1 20 10:45 29.01.2020
3504 Clouds 18 1008 88 10000 1 0 10:22 29.01.2020
3505 Clouds 18 1008 88 10000 1 0 09:40 29.01.2020
3506 Clouds 18 1008 88 10000 1 0 09:40 29.01.2020
3507 Clouds 18 1008 88 10000 1 0 09:40 29.01.2020
3508 Clouds 18 1008 88 10000 1 0 09:22 29.01.2020
3509 Clouds 18 1007 88 10000 2.6 30 08:58 29.01.2020
3510 Clouds 18 1007 88 10000 2.6 30 08:39 29.01.2020
3511 Clear 18 1007 88 10000 2.6 30 08:20 29.01.2020
3512 Clear 19 1007 77 10000 4.1 30 07:45 29.01.2020
3513 Clear 19 1007 77 10000 4.1 30 07:25 29.01.2020
3514 Clear 19 1007 72 10000 4.1 20 06:55 29.01.2020
3515 Clear 19 1007 72 10000 4.1 20 06:55 29.01.2020
3516 Clear 20 1007 72 10000 4.1 20 06:37 29.01.2020
3517 Clear 20 1007 72 10000 4.1 20 06:18 29.01.2020
3518 Clear 20 1007 64 10000 3.6 30 05:46 29.01.2020
3519 Clear 20 1007 64 10000 3.6 30 05:27 29.01.2020
3520 Clear 21 1007 46 10000 3.1 30 04:38 29.01.2020
3521 Clear 22 1007 46 10000 2.6 20 03:50 29.01.2020
3522 Clear 24 1013 45 0 1.79 51 02:33 29.01.2020
3523 Clear 23 1007 60 10000 2.1 120 00:51 29.01.2020
3524 Clear 25 1007 60 10000 2.1 120 00:29 29.01.2020
3525 Clear 26 1007 28 10000 4.6 350 23:58 28.01.2020
3526 Clear 27 1007 28 10000 4.6 350 23:37 28.01.2020
3527 Clear 27 1007 28 10000 4.6 350 23:19 28.01.2020
3528 Clear 27 1007 30 10000 4.6 350 22:44 28.01.2020
3529 Clear 27 1007 30 10000 4.6 350 22:26 28.01.2020
3530 Clear 27 1008 37 10000 5.1 20 21:54 28.01.2020
3531 Clear 27 1008 37 10000 5.1 20 21:36 28.01.2020
3532 Clear 28 1008 37 10000 5.1 20 21:18 28.01.2020
3533 Clear 28 1009 27 10000 3.6 360 20:45 28.01.2020
3534 Clear 29 1009 27 10000 3.6 360 20:25 28.01.2020
3535 Clear 28 1011 37 10000 4.1 340 19:55 28.01.2020
3536 Clear 28 1011 37 10000 4.1 340 19:36 28.01.2020
3537 Clear 28 1011 37 10000 4.1 340 19:18 28.01.2020
3538 Clear 28 1011 37 10000 4.1 340 18:41 28.01.2020
3539 Clear 28 1011 37 10000 4.1 340 18:22 28.01.2020
3540 Clear 28 1012 29 10000 3.1 320 17:59 28.01.2020
3541 Clear 27 1012 29 10000 3.1 320 17:39 28.01.2020
3542 Clear 26 1012 29 10000 3.1 320 17:21 28.01.2020
3543 Clear 25 1013 29 10000 4.1 10 16:56 28.01.2020
3544 Clear 25 1013 29 10000 4.1 10 16:37 28.01.2020
3545 Clear 25 1013 29 10000 4.1 10 16:19 28.01.2020
3546 Clear 24 1014 38 10000 5.7 20 15:44 28.01.2020
3547 Clear 23 1014 38 10000 5.7 20 15:19 28.01.2020
3548 Clear 22 1014 52 10000 5.1 360 14:57 28.01.2020
3549 Clear 22 1014 52 10000 5.1 360 14:38 28.01.2020
3550 Clear 22 1014 52 10000 5.1 360 14:38 28.01.2020
3551 Clear 21 1014 52 10000 5.1 360 14:18 28.01.2020
3552 Clear 19 1015 63 10000 5.1 20 13:40 28.01.2020
3553 Clear 19 1015 63 10000 5.1 20 13:22 28.01.2020
3554 Clear 18 1015 72 10000 3.6 40 12:43 28.01.2020
3555 Clear 18 1015 72 10000 3.6 40 12:24 28.01.2020
3556 Clear 15 1015 87 10000 3.1 50 11:56 28.01.2020
3557 Clear 15 1015 87 10000 3.1 50 11:37 28.01.2020
3558 Clear 14 1015 87 10000 3.1 50 11:19 28.01.2020
3559 Fog 11 1015 87 10000 5.72 30 10:41 28.01.2020
3560 Fog 11 1015 87 10000 5.72 30 10:22 28.01.2020
3561 Clear 12 1015 76 10000 5.72 30 09:56 28.01.2020
3562 Clear 12 1015 76 10000 5.72 30 09:37 28.01.2020
3563 Clear 12 1015 76 10000 5.72 30 09:19 28.01.2020
3564 Clear 12 1015 81 10000 1.5 60 08:42 28.01.2020
3565 Clear 12 1015 81 10000 1.5 60 08:21 28.01.2020
3566 Clear 13 1015 76 10000 2.1 50 07:39 28.01.2020
3567 Clear 13 1016 76 10000 4.1 40 06:58 28.01.2020
3568 Clear 13 1016 76 10000 4.1 40 06:40 28.01.2020
3569 -273 0 0 0 0 0 06:22 28.01.2020
3570 Clear 14 1016 71 10000 3.6 70 05:34 28.01.2020
3571 Clouds 14 1017 67 10000 3.1 80 04:40 28.01.2020
3572 Clouds 16 1017 59 10000 2.6 110 03:41 28.01.2020
3573 Clouds 16 1017 59 10000 4.6 110 02:40 28.01.2020
3574 Clouds 16 1017 59 10000 4.6 110 02:21 28.01.2020
3575 Clouds 17 1017 59 10000 4.1 130 01:48 28.01.2020
3576 Clouds 18 1017 55 10000 5.1 140 00:51 28.01.2020
3577 Clouds 18 1017 55 10000 5.1 140 00:30 28.01.2020
3578 Clouds 19 1016 55 10000 6.2 140 23:59 27.01.2020
3579 Clouds 19 1016 55 10000 6.2 140 23:41 27.01.2020
3580 Clouds 19 1016 55 10000 6.2 140 23:18 27.01.2020
3581 Clouds 20 1016 49 10000 5.1 150 22:44 27.01.2020
3582 Clouds 21 1016 49 10000 5.1 150 22:20 27.01.2020
3583 Clouds 21 1016 46 10000 7.2 140 21:57 27.01.2020
3584 Clouds 21 1016 46 10000 7.2 140 21:38 27.01.2020
3585 Clouds 21 1016 46 10000 7.2 140 21:18 27.01.2020
3586 Clouds 21 1017 49 10000 7.2 150 20:55 27.01.2020
3587 Clouds 21 1017 49 10000 7.2 150 20:37 27.01.2020
3588 Clouds 22 1017 49 10000 7.2 150 20:18 27.01.2020
3589 Clouds 21 1017 49 10000 8.2 160 19:41 27.01.2020
3590 Clouds 21 1017 49 10000 8.2 160 19:23 27.01.2020
3591 Clouds 22 1017 46 10000 6.2 130 18:57 27.01.2020
3592 Clouds 22 1017 46 10000 6.2 130 18:39 27.01.2020
3593 Clouds 22 1017 46 10000 6.2 130 18:39 27.01.2020
3594 Clouds 22 1017 46 10000 6.2 130 18:20 27.01.2020
3595 Clouds 22 1017 46 10000 8.2 160 17:55 27.01.2020
3596 Clear 22 1023 44 0 1.79 150 17:37 27.01.2020
3597 Clear 22 1023 44 0 1.79 150 17:37 27.01.2020
3598 Clouds 21 1017 46 10000 8.2 160 17:18 27.01.2020
3599 Clouds 21 1017 46 10000 8.2 160 16:42 27.01.2020
3600 Clouds 21 1017 46 10000 8.2 160 16:42 27.01.2020
3601 Clouds 21 1017 46 10000 8.2 160 16:23 27.01.2020
3602 Clear 22 1017 40 10000 6.7 170 15:55 27.01.2020
3603 Clear 22 1017 40 10000 6.7 170 15:37 27.01.2020
3604 Clear 22 1017 40 10000 6.7 170 15:19 27.01.2020
3605 Clear 21 1011 52 10000 2.6 130 14:54 27.01.2020
3606 Clear 21 1011 52 10000 2.6 130 14:36 27.01.2020
3607 Clouds 21 1011 52 10000 2.6 130 14:18 27.01.2020
3608 Clouds 21 1015 52 10000 7.7 140 13:41 27.01.2020
3609 Clouds 21 1015 52 10000 7.7 140 13:20 27.01.2020
3610 Clouds 21 1014 56 0 3.6 150 12:56 27.01.2020
3611 Clouds 21 1014 56 0 3.6 150 12:37 27.01.2020
3612 Clouds 20 1014 56 0 3.6 150 12:19 27.01.2020
3613 Clouds 19 1014 68 10000 7.2 150 11:41 27.01.2020
3614 Clouds 19 1014 68 10000 7.2 150 11:21 27.01.2020
3615 Clouds 19 1013 63 10000 7.2 160 10:43 27.01.2020
3616 Clouds 19 1013 63 10000 7.2 160 10:25 27.01.2020
3617 Clouds 20 1012 68 10000 7.7 170 09:57 27.01.2020
3618 Clouds 20 1012 68 10000 7.7 170 09:38 27.01.2020
3619 Clouds 20 1012 68 10000 7.7 170 09:18 27.01.2020
3620 Clouds 21 1011 68 10000 8.2 150 08:43 27.01.2020
3621 Clouds 22 1011 68 10000 8.2 150 08:22 27.01.2020
3622 Clouds 22 1011 73 10000 5.7 170 07:54 27.01.2020
3623 Clouds 22 1011 73 10000 5.7 170 07:35 27.01.2020
3624 Clouds 22 1010 83 10000 2.6 190 06:55 27.01.2020
3625 Clouds 22 1010 83 10000 2.6 190 06:27 27.01.2020
3626 Clouds 20 1010 88 10000 2.6 260 05:28 27.01.2020
3627 Smoke 20 1009 82 5000 4.1 94 03:58 27.01.2020
3628 Clouds 19 1009 88 10000 4.1 94 03:23 27.01.2020
3629 Clear 21 1008 73 10000 2.1 150 01:31 27.01.2020
3630 Clouds 22 1008 78 10000 3.1 150 00:59 27.01.2020
3631 Clouds 22 1008 78 10000 3.1 150 00:37 27.01.2020
3632 Clouds 23 1008 78 10000 3.1 150 00:19 27.01.2020
3633 Clouds 23 1007 64 10000 3.6 170 23:41 26.01.2020
3634 Clouds 24 1007 64 10000 3.6 170 23:20 26.01.2020
3635 Clouds 24 1007 65 10000 6.2 160 22:57 26.01.2020
3636 Clouds 25 1007 65 10000 6.2 160 22:37 26.01.2020
3637 Clouds 25 1007 65 10000 6.2 160 22:18 26.01.2020
3638 Clouds 26 1007 61 10000 6.2 170 21:56 26.01.2020
3639 Clouds 26 1007 61 10000 6.2 170 21:38 26.01.2020
3640 Clouds 26 1007 61 10000 6.2 170 21:19 26.01.2020
3641 Clouds 26 1007 54 10000 3.6 180 20:55 26.01.2020
3642 Clouds 26 1007 54 10000 3.6 180 20:37 26.01.2020
3643 Clouds 27 1007 54 10000 3.6 180 20:18 26.01.2020
3644 Clouds 25 1007 50 10000 5.1 150 19:56 26.01.2020
3645 Clouds 25 1007 50 10000 5.1 150 19:37 26.01.2020
3646 Clouds 27 1007 50 10000 5.1 150 19:18 26.01.2020
3647 Clouds 27 1007 48 10000 6.7 180 18:41 26.01.2020
3648 Clouds 27 1007 48 10000 6.7 180 18:22 26.01.2020
3649 Clear 27 1007 54 10000 6.25 163 17:59 26.01.2020
3650 Clear 27 1007 54 10000 6.25 163 17:39 26.01.2020
3651 Clear 28 1007 54 10000 4.78 137 17:20 26.01.2020
3652 Clear 27 1007 54 10000 4.78 137 16:58 26.01.2020
3653 Clear 27 1007 54 10000 4.78 137 16:40 26.01.2020
3654 Clouds 27 1007 39 10000 4.6 130 16:21 26.01.2020
3655 Clear 27 1008 48 0 1.79 0 15:58 26.01.2020
3656 Clear 26 1006 70 0 4.47 103 15:39 26.01.2020
3657 Clear 28 1006 71 0 4.47 73 15:19 26.01.2020
3658 Clear 29 1008 55 0 1.79 350 14:41 26.01.2020
3659 Clouds 25 1006 75 0 4.47 83 14:21 26.01.2020
3660 Clouds 27 1008 55 0 0.89 103 13:57 26.01.2020
3661 Clouds 26 1006 71 0 4.02 84 13:37 26.01.2020
3662 Clouds 24 1006 73 0 3.13 96 13:18 26.01.2020
3663 Clouds 25 1007 72 0 3.13 86 12:42 26.01.2020
3664 Clouds 25 1008 55 0 0.89 34 12:24 26.01.2020
3665 Clouds 25 1008 55 0 0.89 34 12:24 26.01.2020
3666 Clouds 24 1013 51 0 1.34 84 11:58 26.01.2020
3667 Clouds 23 1008 57 0 1.34 58 11:39 26.01.2020
3668 Clouds 23 1008 57 0 1.34 58 11:39 26.01.2020
3669 Clouds 21 1007 60 10000 2.1 120 11:19 26.01.2020
3670 Clouds 21 1007 60 10000 2.1 120 10:58 26.01.2020
3671 Clouds 20 1007 60 10000 2.1 120 10:38 26.01.2020
3672 Clouds 20 1007 60 10000 2.1 120 10:38 26.01.2020
3673 Clouds 20 1007 60 10000 2.1 120 10:20 26.01.2020
3674 Clouds 20 1007 56 10000 3.43 50 09:58 26.01.2020
3675 Clouds 20 1007 56 10000 3.43 50 09:40 26.01.2020
3676 Clouds 20 1007 56 10000 3.43 50 09:21 26.01.2020
3677 Clouds 20 1006 56 10000 1.5 30 08:43 26.01.2020
3678 Clouds 21 1006 56 10000 1.5 30 08:23 26.01.2020
3679 Clear 21 1006 56 10000 2.6 30 07:57 26.01.2020
3680 Clear 21 1006 56 10000 2.6 30 07:39 26.01.2020
3681 Clear 21 1006 56 10000 2.6 30 07:21 26.01.2020
3682 Clear 21 1007 52 10000 2.1 20 06:31 26.01.2020
3683 Clear 22 1007 46 10000 2.6 40 05:32 26.01.2020
3684 Clear 22 1007 46 10000 2.6 40 05:32 26.01.2020
3685 Clear 22 1007 46 10000 3.6 50 04:45 26.01.2020
3686 Clear 22 1007 53 10000 4.1 90 02:58 26.01.2020
3687 Clear 22 1007 60 10000 4.1 100 01:50 26.01.2020
3688 Clear 22 1007 60 10000 4.1 100 01:25 26.01.2020
3689 Clear 23 1007 64 10000 4.6 120 00:58 26.01.2020
3690 Clear 23 1007 64 10000 4.6 120 00:37 26.01.2020
3691 Clear 23 1007 64 10000 4.6 120 00:19 26.01.2020
3692 Clear 24 1013 50 0 0.89 92 23:37 25.01.2020
3693 Clear 25 1006 71 0 4.47 89 23:18 25.01.2020
3694 Clear 26 1006 73 0 4.02 98 22:40 25.01.2020
3695 Clear 27 1012 35 0 0.89 152 22:19 25.01.2020
3696 Clear 27 1005 76 0 4.47 86 21:57 25.01.2020
3697 Clear 27 1005 76 0 4.47 86 21:57 25.01.2020
3698 Clear 28 1005 74 0 4.02 116 21:38 25.01.2020
3699 Clear 26 1005 78 0 3.58 116 21:20 25.01.2020
3700 Clear 23 1005 72 0 7.93 79 20:44 25.01.2020
3701 Clear 28 1006 73 0 4.47 154 20:25 25.01.2020
3702 Clouds 28 1006 77 0 5.81 159 19:56 25.01.2020
3703 Clouds 28 1012 55 0 2.24 179 19:37 25.01.2020
3704 Clouds 28 1013 61 0 2.68 191 19:18 25.01.2020
3705 Clouds 28 1006 84 0 5.36 169 18:43 25.01.2020
3706 Clouds 28 1013 61 0 2.68 191 18:23 25.01.2020
3707 Clouds 28 1006 88 0 3.58 176 17:59 25.01.2020
3708 Clouds 28 1006 88 0 3.58 176 17:39 25.01.2020
3709 Clouds 27 1006 84 0 3.58 176 17:19 25.01.2020
3710 Rain 29 1006 78 0 1.79 207 16:56 25.01.2020
3711 Clouds 29 1006 74 0 3.13 209 16:36 25.01.2020
3712 Clouds 29 1006 74 0 2.24 234 16:18 25.01.2020
3713 Clouds 30 1005 73 0 3.58 275 15:42 25.01.2020
3714 Clouds 29 1008 61 0 2.68 240 15:23 25.01.2020
3715 Clouds 29 1006 74 0 3.58 232 14:44 25.01.2020
3716 Clouds 27 1007 65 0 2.68 247 14:19 25.01.2020
3717 Clouds 27 1005 76 0 2.68 267 13:56 25.01.2020
3718 Clouds 27 1007 70 0 2.24 280 13:38 25.01.2020
3719 Clouds 27 1011 75 0 2.24 315 13:18 25.01.2020
3720 Clouds 26 1005 77 0 1.79 280 12:41 25.01.2020
3721 Clouds 25 1006 73 10000 2.6 340 12:20 25.01.2020
3722 Clouds 24 1006 73 10000 2.6 340 11:40 25.01.2020
3723 Clouds 23 1006 73 10000 2.6 340 11:21 25.01.2020
3724 Clouds 22 1006 77 10000 2.1 350 10:56 25.01.2020
3725 Clouds 21 1006 77 10000 2.1 350 10:38 25.01.2020
3726 Clouds 21 1006 77 10000 2.1 350 10:38 25.01.2020
3727 Clouds 21 1006 77 10000 2.1 350 10:38 25.01.2020
3728 Clouds 21 1006 77 10000 2.1 350 10:19 25.01.2020
3729 Clouds 21 1006 73 10000 2.6 340 09:40 25.01.2020
3730 Clouds 20 1006 73 10000 2.6 340 09:20 25.01.2020
3731 Clouds 21 1006 68 10000 2.6 350 08:43 25.01.2020
3732 Clear 21 1006 68 10000 2.6 350 08:20 25.01.2020
3733 Clear 21 1006 68 10000 1.5 240 07:40 25.01.2020
3734 Clear 23 1006 68 10000 3.6 360 06:44 25.01.2020
3735 Clear 22 1006 68 10000 3.6 360 06:24 25.01.2020
3736 Clear 22 1007 73 10000 2.6 10 05:44 25.01.2020
3737 Clear 21 1008 73 10000 2.1 260 04:25 25.01.2020
3738 Clear 23 1007 60 10000 3.1 30 03:50 25.01.2020
3739 Clear 23 1008 64 10000 1.5 30 02:40 25.01.2020
3740 Clear 24 1008 64 10000 2.6 90 01:58 25.01.2020
3741 Clear 24 1008 64 10000 2.6 90 01:34 25.01.2020
3742 Clear 25 1008 65 10000 3.1 130 00:41 25.01.2020
3743 Clear 26 1008 65 10000 3.1 130 00:23 25.01.2020
3744 Clear 27 1008 51 10000 3.1 270 23:42 24.01.2020
3745 Clear 27 1008 51 10000 3.1 270 23:42 24.01.2020
3746 Clear 27 1008 51 10000 3.1 270 23:24 24.01.2020
3747 Clear 28 1008 48 10000 3.1 270 22:56 24.01.2020
3748 Clear 29 1008 48 10000 3.1 270 22:37 24.01.2020
3749 Clear 29 1008 48 10000 3.1 270 22:19 24.01.2020
3750 Clear 29 1009 43 10000 4.1 250 21:41 24.01.2020
3751 Clear 29 1009 43 10000 4.1 250 21:20 24.01.2020
3752 Clear 29 1009 43 10000 3.1 260 20:55 24.01.2020
3753 Clear 30 1009 43 10000 3.1 260 20:37 24.01.2020
3754 Clear 30 1009 43 10000 3.1 260 20:18 24.01.2020
3755 Clear 30 1010 38 10000 5.1 270 19:55 24.01.2020
3756 Clear 31 1010 38 10000 5.1 270 19:37 24.01.2020
3757 Clear 31 1010 38 10000 5.1 270 19:19 24.01.2020
3758 Clear 30 1010 33 10000 3.6 20 18:42 24.01.2020
3759 Clear 31 1010 33 10000 3.6 20 18:22 24.01.2020
3760 Clear 30 1011 43 10000 5.1 300 17:45 24.01.2020
3761 Clear 30 1011 43 10000 5.1 300 17:22 24.01.2020
3762 Clear 29 1012 45 10000 5.1 350 16:57 24.01.2020
3763 Clear 29 1012 45 10000 5.1 350 16:38 24.01.2020
3764 Clear 29 1012 45 10000 5.1 350 16:19 24.01.2020
3765 Clear 28 1013 54 10000 6.2 340 15:42 24.01.2020
3766 Clear 28 1013 54 10000 6.2 340 15:21 24.01.2020
3767 Clear 27 1013 61 10000 6.7 360 14:55 24.01.2020
3768 Clear 26 1013 61 10000 6.7 360 14:36 24.01.2020
3769 Clouds 26 1013 61 10000 6.7 360 14:18 24.01.2020
3770 Clouds 24 1013 69 10000 6.2 360 13:41 24.01.2020
3771 Clouds 24 1013 69 10000 6.2 360 13:21 24.01.2020
3772 Clouds 22 1013 88 10000 6.7 10 12:43 24.01.2020
3773 Clouds 21 1013 88 10000 6.7 10 12:21 24.01.2020
3774 Clouds 20 1013 88 10000 6.2 20 11:45 24.01.2020
3775 Clear 19 1013 88 10000 6.2 20 11:19 24.01.2020
3776 Clear 19 1013 88 10000 6.2 20 11:19 24.01.2020
3777 Clear 19 1013 88 10000 6.2 20 11:19 24.01.2020
3778 Clear 20 1014 88 10000 3.6 10 10:58 24.01.2020
3779 Clear 19 1014 88 10000 3.6 10 10:40 24.01.2020
3780 Clear 19 1014 88 10000 3.6 10 10:19 24.01.2020
3781 Clear 19 1014 88 10000 4.1 30 09:41 24.01.2020
3782 Clear 19 1014 88 10000 4.1 30 09:23 24.01.2020
3783 Clear 20 1014 82 10000 4.6 30 08:41 24.01.2020
3784 Clear 20 1014 82 10000 4.6 30 08:21 24.01.2020
3785 Clear 20 1014 77 10000 4.1 30 07:59 24.01.2020
3786 Clear 20 1014 77 10000 4.1 30 07:39 24.01.2020
3787 Clear 21 1014 77 10000 5.1 30 06:55 24.01.2020
3788 Clear 21 1014 77 10000 5.1 30 06:35 24.01.2020
3789 Clear 21 1014 77 10000 4.6 30 05:59 24.01.2020
3790 Clear 21 1014 77 10000 4.6 30 05:18 24.01.2020
3791 Clear 23 1014 60 10000 4.1 60 02:56 24.01.2020
3792 Clear 23 1014 60 10000 4.1 60 02:38 24.01.2020
3793 Clear 24 1014 60 10000 4.1 60 02:18 24.01.2020
3794 Clear 23 1013 73 10000 1.5 90 01:37 24.01.2020
3795 Clear 24 1013 69 10000 4.1 110 00:39 24.01.2020
3796 Clear 25 1013 69 10000 4.1 110 00:18 24.01.2020
3797 Clear 25 1013 51 10000 5.1 100 23:41 23.01.2020
3798 Clear 25 1013 51 10000 5.1 100 23:21 23.01.2020
3799 Clear 26 1013 65 10000 5.1 120 22:58 23.01.2020
3800 Clear 26 1013 51 10000 5.1 110 22:36 23.01.2020
3801 Clear 26 1013 51 10000 5.1 110 22:18 23.01.2020
3802 Clear 27 1013 51 10000 5.7 90 21:55 23.01.2020
3803 Clear 27 1013 51 10000 5.7 90 21:37 23.01.2020
3804 Clear 27 1013 51 10000 5.7 90 21:18 23.01.2020
3805 Clear 27 1013 51 10000 6.2 100 20:41 23.01.2020
3806 Clear 27 1013 51 10000 6.2 100 20:22 23.01.2020
3807 Clouds 27 1014 40 10000 1.5 0 19:57 23.01.2020
3808 Clouds 27 1014 40 10000 1.5 0 19:39 23.01.2020
3809 Clouds 27 1014 40 10000 1.5 0 19:21 23.01.2020
3810 Clouds 27 1015 42 10000 2.6 60 18:56 23.01.2020
3811 Clouds 27 1015 42 10000 2.6 60 18:38 23.01.2020
3812 Clouds 27 1015 42 10000 2.6 60 18:19 23.01.2020
3813 Clouds 26 1016 48 10000 4.1 50 17:45 23.01.2020
3814 Clouds 26 1016 48 10000 4.1 50 17:21 23.01.2020
3815 Clouds 26 1017 51 10000 4.6 30 16:59 23.01.2020
3816 Clouds 26 1017 51 10000 4.6 30 16:39 23.01.2020
3817 Clouds 26 1017 51 10000 4.6 30 16:19 23.01.2020
3818 Clouds 26 1017 57 10000 6.2 40 15:58 23.01.2020
3819 Clouds 26 1017 57 10000 6.2 40 15:38 23.01.2020
3820 Clouds 26 1017 57 10000 6.2 40 15:38 23.01.2020
3821 Clouds 26 1017 57 10000 6.2 40 15:19 23.01.2020
3822 Clouds 25 1017 65 10000 7.2 40 14:58 23.01.2020
3823 Clouds 25 1017 65 10000 7.2 40 14:40 23.01.2020
3824 Clouds 25 1017 65 10000 7.2 40 14:21 23.01.2020
3825 Clouds 23 1017 78 10000 6.2 30 13:54 23.01.2020
3826 Clouds 23 1017 78 10000 6.2 30 13:36 23.01.2020
3827 Clouds 23 1017 78 10000 6.2 30 13:18 23.01.2020
3828 Clouds 22 1017 83 0 5.1 40 12:40 23.01.2020
3829 Clouds 22 1017 83 0 5.1 40 12:22 23.01.2020
3830 Clear 20 1017 93 10000 3.1 50 11:55 23.01.2020
3831 Clear 20 1017 93 10000 3.1 50 11:36 23.01.2020
3832 Clear 19 1017 93 10000 3.1 50 11:18 23.01.2020
3833 Clear 19 1017 93 10000 1.5 80 10:41 23.01.2020
3834 Clear 18 1017 93 10000 1.5 80 10:19 23.01.2020
3835 Clear 18 1017 93 10000 1.5 80 10:19 23.01.2020
3836 Clear 19 1016 88 10000 1.5 80 09:41 23.01.2020
3837 Clear 19 1016 88 10000 1.5 80 09:22 23.01.2020
3838 Clear 19 1016 88 10000 2.1 70 08:57 23.01.2020
3839 Clear 19 1016 88 10000 2.1 70 08:38 23.01.2020
3840 Clear 19 1016 88 10000 2.1 70 08:19 23.01.2020
3841 Clear 19 1016 88 10000 1.5 60 07:42 23.01.2020
3842 Clear 19 1016 88 10000 1.5 60 07:21 23.01.2020
3843 Clear 19 1016 88 10000 1.5 60 07:21 23.01.2020
3844 Clear 20 1016 77 10000 0.5 0 06:44 23.01.2020
3845 Clear 20 1016 77 10000 0.5 0 06:19 23.01.2020
3846 Clear 21 1016 73 10000 2.1 70 04:44 23.01.2020
3847 Clear 21 1016 73 10000 2.1 70 04:21 23.01.2020
3848 Clear 23 1015 78 10000 5.1 110 01:58 23.01.2020
3849 Clear 24 1014 69 10000 5.7 120 00:47 23.01.2020
3850 Clear 24 1014 69 10000 5.7 120 00:26 23.01.2020
3851 Clear 25 1014 50 10000 7.2 120 23:47 22.01.2020
3852 Clear 25 1014 50 10000 7.2 120 23:47 22.01.2020
3853 Clear 25 1014 50 10000 7.2 120 23:28 22.01.2020
3854 Clouds 26 1014 54 10000 5.7 120 22:55 22.01.2020
3855 Clouds 26 1014 54 10000 5.7 120 22:37 22.01.2020
3856 Clouds 26 1014 54 10000 5.7 120 22:19 22.01.2020
3857 Clouds 27 1014 54 10000 6.2 110 21:38 22.01.2020
3858 Clouds 27 1014 54 10000 6.2 110 21:20 22.01.2020
3859 Clouds 27 1014 54 10000 6.7 110 20:56 22.01.2020
3860 Clouds 27 1014 54 10000 6.7 110 20:56 22.01.2020
3861 Clouds 27 1014 54 10000 6.7 110 20:36 22.01.2020
3862 Clouds 27 1014 54 10000 6.7 110 20:36 22.01.2020
3863 Clouds 27 1014 54 10000 6.7 110 20:36 22.01.2020
3864 Clouds 27 1014 54 10000 6.7 110 20:18 22.01.2020
3865 Clouds 27 1014 54 10000 6.2 120 19:55 22.01.2020
3866 Clouds 27 1014 54 10000 6.2 120 19:37 22.01.2020
3867 Clouds 27 1014 54 10000 6.2 120 19:18 22.01.2020
3868 Clouds 27 1014 54 10000 5.1 110 18:55 22.01.2020
3869 Clouds 27 1014 54 10000 5.1 110 18:36 22.01.2020
3870 Clouds 27 1014 54 10000 5.1 110 18:18 22.01.2020
3871 Clouds 27 1014 54 10000 5.1 110 18:18 22.01.2020
3872 Clouds 27 1015 61 10000 5.1 120 17:39 22.01.2020
3873 Clouds 27 1015 61 10000 5.1 120 17:21 22.01.2020
3874 Clouds 26 1015 61 10000 4.1 90 16:57 22.01.2020
3875 Clouds 26 1015 61 10000 4.1 90 16:39 22.01.2020
3876 Clouds 28 1015 61 10000 4.1 90 16:20 22.01.2020
3877 Clouds 26 1015 65 10000 6.2 90 15:55 22.01.2020
3878 Clouds 26 1015 65 10000 6.2 90 15:37 22.01.2020
3879 Clouds 26 1015 65 10000 6.2 90 15:18 22.01.2020
3880 Clouds 25 1015 74 10000 6.2 60 14:39 22.01.2020
3881 Clouds 25 1015 74 10000 6.2 60 14:20 22.01.2020
3882 Clouds 25 1015 78 10000 5.7 70 13:57 22.01.2020
3883 Clouds 24 1015 78 10000 5.7 70 13:37 22.01.2020
3884 Clouds 25 1015 78 10000 5.7 70 13:19 22.01.2020
3885 Clouds 23 1014 83 10000 4.6 90 12:57 22.01.2020
3886 Clouds 23 1014 83 10000 4.6 90 12:38 22.01.2020
3887 Clouds 23 1014 83 10000 4.6 90 12:19 22.01.2020
3888 Clouds 22 1014 88 10000 4.6 100 11:57 22.01.2020
3889 Clouds 22 1014 88 10000 4.6 100 11:39 22.01.2020
3890 Clouds 22 1014 88 10000 4.6 100 11:19 22.01.2020
3891 Clouds 21 1013 88 10000 5.7 120 10:45 22.01.2020
3892 Clouds 21 1013 88 10000 5.7 120 10:21 22.01.2020
3893 Clouds 21 1012 88 10000 5.1 110 09:58 22.01.2020
3894 Clouds 21 1012 88 10000 5.1 110 09:40 22.01.2020
3895 Clouds 21 1012 88 10000 5.1 110 09:21 22.01.2020
3896 Clouds 21 1012 88 10000 4.1 120 08:55 22.01.2020
3897 Clouds 21 1012 88 10000 4.1 120 08:37 22.01.2020
3898 Clouds 21 1012 88 10000 4.1 120 08:19 22.01.2020
3899 Clouds 21 1012 88 10000 4.1 110 07:44 22.01.2020
3900 Clouds 21 1012 88 10000 4.1 110 07:26 22.01.2020
3901 Clouds 21 1012 88 10000 3.6 100 06:34 22.01.2020
3902 Clouds 21 1012 88 10000 4.1 90 05:54 22.01.2020
3903 Clouds 22 1012 83 10000 6.7 110 04:25 22.01.2020
3904 Clouds 22 1012 83 10000 6.7 110 03:26 22.01.2020
3905 Clouds 23 1011 88 10000 6.7 100 02:43 22.01.2020
3906 Clouds 24 1010 83 10000 6.2 130 00:47 22.01.2020
3907 Clouds 24 1010 83 10000 6.2 130 00:27 22.01.2020
3908 Clouds 24 1009 83 10000 5.1 120 23:57 21.01.2020
3909 Clouds 24 1009 83 10000 5.1 120 23:57 21.01.2020
3910 Clouds 24 1009 83 10000 5.1 120 23:37 21.01.2020
3911 Clouds 24 1009 83 10000 5.1 120 23:19 21.01.2020
3912 Clouds 25 1009 78 10000 5.1 120 22:40 21.01.2020
3913 Clouds 25 1009 78 10000 5.1 120 22:21 21.01.2020
3914 Clouds 25 1010 78 10000 5.7 130 21:58 21.01.2020
3915 Clouds 25 1010 78 10000 5.7 130 21:39 21.01.2020
3916 Clouds 25 1010 78 10000 5.7 130 21:20 21.01.2020
3917 Clouds 25 1010 74 10000 5.1 130 20:57 21.01.2020
3918 Clouds 26 1010 74 10000 5.1 130 20:38 21.01.2020
3919 Clouds 26 1010 74 10000 5.1 130 20:20 21.01.2020
3920 Clouds 26 1010 74 10000 6.7 150 19:57 21.01.2020
3921 Clouds 26 1010 74 10000 6.7 150 19:39 21.01.2020
3922 Clouds 26 1010 74 10000 6.7 150 19:20 21.01.2020
3923 Clouds 27 1010 62 10000 5.1 130 18:55 21.01.2020
3924 Clouds 27 1010 62 10000 5.1 130 18:37 21.01.2020
3925 Clouds 27 1010 62 10000 5.1 130 18:19 21.01.2020
3926 Clouds 26 1010 69 10000 3.6 130 17:45 21.01.2020
3927 Clouds 26 1010 69 10000 3.6 130 17:20 21.01.2020
3928 Clouds 26 1011 69 10000 3.6 120 16:59 21.01.2020
3929 Clouds 26 1011 69 10000 3.6 120 16:37 21.01.2020
3930 Clouds 26 1011 69 10000 3.6 120 16:19 21.01.2020
3931 Clouds 26 1011 69 10000 3.1 150 15:56 21.01.2020
3932 Clouds 26 1011 69 10000 3.1 150 15:36 21.01.2020
3933 Clouds 26 1011 69 10000 3.1 150 15:18 21.01.2020
3934 Clouds 25 1011 74 10000 2.6 120 14:38 21.01.2020
3935 Clouds 25 1011 74 10000 2.6 120 14:20 21.01.2020
3936 Clouds 25 1010 78 10000 2.6 120 13:40 21.01.2020
3937 Clouds 25 1010 78 10000 2.6 120 13:19 21.01.2020
3938 Clouds 24 1010 88 10000 4.21 92 12:56 21.01.2020
3939 Clouds 24 1010 88 10000 4.21 92 12:37 21.01.2020
3940 Clouds 24 1010 88 10000 4.21 92 12:19 21.01.2020
3941 Clouds 23 1010 94 10000 2.1 120 11:40 21.01.2020
3942 Clouds 23 1010 94 10000 2.1 120 11:21 21.01.2020
3943 Clouds 22 1009 83 10000 4.61 99 10:57 21.01.2020
3944 Clouds 22 1009 83 10000 4.61 99 10:57 21.01.2020
3945 Clouds 22 1009 83 10000 4.61 99 10:57 21.01.2020
3946 Clouds 21 1009 83 10000 4.61 99 10:39 21.01.2020
3947 Clouds 21 1009 83 10000 4.61 99 10:20 21.01.2020
3948 Clouds 21 1008 88 10000 4.61 99 09:42 21.01.2020
3949 Clouds 21 1008 88 10000 4.61 99 09:23 21.01.2020
3950 Clouds 21 1008 83 10000 4.61 99 08:54 21.01.2020
3951 Clouds 21 1008 83 10000 4.61 99 08:36 21.01.2020
3952 Clear 21 1008 83 10000 3.62 74 08:18 21.01.2020
3953 Clear 21 1008 83 10000 3.62 74 07:41 21.01.2020
3954 Clear 22 1008 83 10000 3.62 74 07:22 21.01.2020
3955 Clear 21 1009 78 10000 3.62 74 06:49 21.01.2020
3956 Clear 21 1009 78 10000 3.62 74 06:49 21.01.2020
3957 Clear 21 1009 78 10000 3.62 74 06:29 21.01.2020
3958 Clear 22 1008 73 10000 3.62 74 05:43 21.01.2020
3959 Clear 22 1009 69 10000 3.66 64 04:40 21.01.2020
3960 Clear 22 1010 69 10000 1.5 130 02:57 21.01.2020
3961 Clear 24 1009 65 10000 3.1 120 01:56 21.01.2020
3962 Clear 25 1009 65 10000 3.1 120 01:26 21.01.2020
3963 Clouds 26 1009 61 10000 2.1 120 00:37 21.01.2020
3964 Clouds 27 1008 51 10000 4.1 100 23:59 20.01.2020
3965 Clouds 27 1008 51 10000 4.1 100 23:41 20.01.2020
3966 Clouds 27 1008 51 10000 4.1 100 23:19 20.01.2020
3967 Clouds 28 1008 46 10000 6.2 130 22:56 20.01.2020
3968 Clouds 30 1008 46 10000 6.2 130 22:38 20.01.2020
3969 Clouds 29 1008 46 10000 6.2 130 22:20 20.01.2020
3970 Clouds 29 1009 46 10000 6.2 130 21:57 20.01.2020
3971 Clouds 29 1009 46 10000 6.2 130 21:37 20.01.2020
3972 Clouds 29 1009 46 10000 6.2 130 21:19 20.01.2020
3973 Clouds 30 1009 43 10000 6.2 150 20:56 20.01.2020
3974 Clouds 30 1009 43 10000 6.2 150 20:38 20.01.2020
3975 Clouds 30 1009 43 10000 6.2 150 20:18 20.01.2020
3976 Clouds 30 1009 49 10000 6.7 180 19:56 20.01.2020
3977 Clouds 30 1009 49 10000 6.7 180 19:38 20.01.2020
3978 Clouds 30 1009 49 10000 6.7 180 19:18 20.01.2020
3979 Clouds 31 1010 41 10000 5.1 200 18:44 20.01.2020
3980 Clouds 32 1010 41 10000 5.1 200 18:22 20.01.2020
3981 Clouds 31 1010 38 10000 3.1 150 17:58 20.01.2020
3982 Clouds 32 1010 38 10000 3.1 150 17:36 20.01.2020
3983 Clouds 32 1010 38 10000 3.1 150 17:18 20.01.2020
3984 Clouds 31 1011 43 10000 2.6 30 16:39 20.01.2020
3985 Clouds 31 1011 43 10000 2.6 30 16:39 20.01.2020
3986 Clouds 32 1011 43 10000 2.6 30 16:19 20.01.2020
3987 Clouds 32 1011 43 10000 2.6 30 16:19 20.01.2020
3988 Clear 30 1011 43 10000 2.6 20 15:57 20.01.2020
3989 Clear 30 1011 43 10000 2.6 20 15:39 20.01.2020
3990 Clear 30 1011 43 10000 2.6 20 15:20 20.01.2020
3991 Clear 29 1011 55 10000 3.1 360 14:41 20.01.2020
3992 Clear 30 1011 55 10000 3.1 360 14:23 20.01.2020
3993 Clear 28 1011 65 10000 4.1 20 13:58 20.01.2020
3994 Clear 28 1011 65 10000 4.1 20 13:40 20.01.2020
3995 Clouds 28 1011 65 10000 4.1 20 13:22 20.01.2020
3996 Clouds 26 1011 73 10000 3.1 40 12:47 20.01.2020
3997 Clouds 26 1011 73 10000 3.1 40 12:28 20.01.2020
3998 Clouds 26 1011 73 10000 3.1 40 12:28 20.01.2020
3999 Clouds 23 1011 83 10000 2.6 60 11:59 20.01.2020
4000 Clouds 23 1011 83 10000 2.6 60 11:40 20.01.2020
4001 Clouds 23 1011 83 10000 2.6 60 11:21 20.01.2020
4002 Clouds 21 1011 88 10000 1.5 30 10:55 20.01.2020
4003 Clouds 21 1011 88 10000 1.5 30 10:37 20.01.2020
4004 Clouds 21 1011 88 10000 1.5 30 10:18 20.01.2020
4005 Clouds 21 1010 88 10000 2.1 30 09:40 20.01.2020
4006 Clouds 21 1010 88 10000 2.1 30 09:20 20.01.2020
4007 Clouds 21 1010 78 10000 1.5 30 08:46 20.01.2020
4008 Clouds 21 1010 78 10000 1.5 30 08:28 20.01.2020
4009 Clouds 21 1011 73 10000 3.1 40 07:45 20.01.2020
4010 Clouds 21 1011 73 10000 3.1 40 07:25 20.01.2020
4011 Clouds 22 1011 64 10000 3.6 40 06:54 20.01.2020
4012 Clouds 22 1011 64 10000 3.6 40 06:28 20.01.2020
4013 Clouds 23 1011 60 10000 3.1 30 05:43 20.01.2020
4014 Clouds 24 1011 60 10000 3.1 30 05:22 20.01.2020
4015 Clear 24 1011 57 10000 3.6 40 04:47 20.01.2020
4016 Clear 25 1011 69 10000 5.21 27 02:58 20.01.2020
4017 Clouds 24 1010 73 10000 3.1 110 01:57 20.01.2020
4018 Clouds 25 1010 73 10000 3.1 110 01:37 20.01.2020
4019 Clear 25 1010 69 10000 3.6 110 00:45 20.01.2020
4020 Clear 26 1010 69 10000 3.6 110 00:25 20.01.2020
4021 Clouds 27 1010 51 10000 3.1 90 23:40 19.01.2020
4022 Clouds 27 1010 51 10000 3.1 90 23:20 19.01.2020
4023 Clouds 28 1010 43 10000 3.6 100 22:57 19.01.2020
4024 Clouds 28 1010 43 10000 3.6 100 22:39 19.01.2020
4025 Clouds 28 1010 43 10000 3.6 100 22:20 19.01.2020
4026 Clouds 29 1010 36 10000 2.6 120 21:57 19.01.2020
4027 Clouds 29 1010 36 10000 2.6 120 21:39 19.01.2020
4028 Clouds 29 1010 36 10000 2.6 120 21:20 19.01.2020
4029 Clouds 29 1011 33 10000 4.1 40 20:57 19.01.2020
4030 Clouds 29 1011 33 10000 4.1 40 20:39 19.01.2020
4031 Clouds 29 1011 33 10000 4.1 40 20:21 19.01.2020
4032 Clouds 29 1012 31 10000 4.1 40 19:57 19.01.2020
4033 Clouds 29 1012 31 10000 4.1 40 19:39 19.01.2020
4034 Clouds 29 1012 31 10000 4.1 40 19:21 19.01.2020
4035 Clouds 28 1012 45 10000 6.2 130 18:59 19.01.2020
4036 Clouds 28 1012 45 10000 6.2 130 18:41 19.01.2020
4037 Clouds 29 1012 45 10000 6.2 130 18:21 19.01.2020
4038 Clouds 29 1013 38 10000 3.6 30 17:59 19.01.2020
4039 Clouds 29 1013 38 10000 3.6 30 17:40 19.01.2020
4040 Clouds 30 1013 38 10000 3.6 30 17:22 19.01.2020
4041 Clouds 29 1014 42 10000 2.6 360 16:59 19.01.2020
4042 Clouds 29 1014 42 10000 2.6 360 16:40 19.01.2020
4043 Clouds 29 1014 42 10000 2.6 360 16:40 19.01.2020
4044 Clouds 29 1014 42 10000 2.6 360 16:22 19.01.2020
4045 Clouds 28 1014 48 10000 4.6 30 15:59 19.01.2020
4046 Clouds 28 1014 48 10000 4.6 30 15:40 19.01.2020
4047 Clouds 29 1014 48 10000 4.6 30 15:21 19.01.2020
4048 Clouds 27 1015 57 10000 5.7 30 14:59 19.01.2020
4049 Clouds 27 1015 57 10000 5.7 30 14:39 19.01.2020
4050 Clouds 27 1015 57 10000 5.7 30 14:19 19.01.2020
4051 Clouds 26 1015 57 10000 3.1 40 13:58 19.01.2020
4052 Clouds 26 1015 57 10000 3.1 40 13:38 19.01.2020
4053 Clouds 25 1015 57 10000 3.1 40 13:20 19.01.2020
4054 Clouds 23 1015 78 10000 5.1 60 12:56 19.01.2020
4055 Clouds 23 1015 78 10000 5.1 60 12:37 19.01.2020
4056 Clouds 22 1015 78 10000 5.1 60 12:19 19.01.2020
4057 Clouds 21 1015 77 10000 3.6 20 11:56 19.01.2020
4058 Clouds 20 1015 77 10000 3.6 20 11:37 19.01.2020
4059 Clouds 20 1015 77 10000 3.6 20 11:18 19.01.2020
4060 Clouds 19 1015 77 10000 3.6 30 10:39 19.01.2020
4061 Clouds 19 1015 77 10000 3.6 30 10:19 19.01.2020
4062 Clouds 19 1015 72 10000 2.6 40 09:56 19.01.2020
4063 Clouds 19 1015 72 10000 2.6 40 09:37 19.01.2020
4064 Clouds 19 1015 72 10000 2.6 40 09:19 19.01.2020
4065 Clouds 19 1014 63 10000 2.6 30 08:54 19.01.2020
4066 Clouds 19 1014 63 10000 2.6 30 08:30 19.01.2020
4067 Clouds 20 1015 56 10000 3.1 20 07:46 19.01.2020
4068 Clouds 20 1015 56 10000 3.1 20 07:27 19.01.2020
4069 Clouds 20 1015 46 10000 3.6 30 06:54 19.01.2020
4070 Clouds 21 1015 46 10000 3.6 30 06:21 19.01.2020
4071 Clouds 21 1015 73 10000 2.6 100 03:51 19.01.2020
4072 Clouds 23 1015 64 10000 5.7 120 02:28 19.01.2020
4073 Clouds 23 1015 56 10000 4.1 100 01:39 19.01.2020
4074 Clouds 23 1015 56 10000 4.1 100 01:18 19.01.2020
4075 Clouds 23 1015 59 0 1.34 132 00:41 19.01.2020
4076 Clouds 24 1015 44 10000 4.1 140 00:19 19.01.2020
4077 Clouds 25 1015 44 10000 4.1 140 23:42 18.01.2020
4078 Clouds 25 1015 44 10000 4.1 140 23:24 18.01.2020
4079 Clouds 26 1015 45 10000 3.6 180 22:58 18.01.2020
4080 Clouds 26 1015 45 10000 3.6 180 22:40 18.01.2020
4081 Clouds 27 1015 45 10000 3.6 180 22:21 18.01.2020
4082 Clear 27 1015 35 10000 3.1 350 21:58 18.01.2020
4083 Clear 28 1015 35 10000 3.1 350 21:38 18.01.2020
4084 Clear 28 1015 35 10000 3.1 350 21:20 18.01.2020
4085 Clouds 28 1016 37 10000 6.2 60 20:55 18.01.2020
4086 Clouds 28 1016 37 10000 6.2 60 20:36 18.01.2020
4087 Clouds 28 1016 37 10000 6.2 60 20:18 18.01.2020
4088 Clear 29 1017 39 10000 3.6 30 19:42 18.01.2020
4089 Clear 28 1017 39 10000 3.6 30 19:24 18.01.2020
4090 Clouds 28 1017 42 10000 4.6 350 18:43 18.01.2020
4091 Clouds 28 1017 42 10000 4.6 350 18:24 18.01.2020
4092 Clouds 26 1018 47 10000 4.1 360 17:58 18.01.2020
4093 Clouds 26 1018 47 10000 4.1 360 17:40 18.01.2020
4094 Clouds 26 1018 47 10000 4.1 360 17:20 18.01.2020
4095 Clouds 25 1018 50 10000 3.1 30 16:56 18.01.2020
4096 Clouds 24 1018 50 10000 3.1 30 16:37 18.01.2020
4097 Clouds 24 1018 50 10000 3.1 30 16:19 18.01.2020
4098 Clouds 23 1019 53 10000 4.1 360 15:44 18.01.2020
4099 Clouds 23 1019 53 10000 4.1 360 15:25 18.01.2020
4100 Clouds 21 1019 64 10000 6.7 360 14:59 18.01.2020
4101 Clouds 22 1019 64 10000 6.7 360 14:40 18.01.2020
4102 Clouds 21 1019 64 10000 6.7 360 14:19 18.01.2020
4103 Clouds 20 1019 68 10000 6.7 360 13:55 18.01.2020
4104 Clouds 20 1019 68 10000 6.7 360 13:36 18.01.2020
4105 Clouds 20 1019 68 10000 6.7 360 13:18 18.01.2020
4106 Clouds 19 1019 68 10000 6.7 20 12:40 18.01.2020
4107 Clouds 19 1019 68 10000 6.7 20 12:21 18.01.2020
4108 Clouds 16 1020 93 10000 4.6 30 11:45 18.01.2020
4109 Clouds 15 1020 93 10000 4.6 30 11:24 18.01.2020
4110 Clear 17 1019 82 10000 3.1 20 10:58 18.01.2020
4111 Clear 16 1019 82 10000 3.1 20 10:39 18.01.2020
4112 Clear 16 1019 82 10000 3.1 20 10:20 18.01.2020
4113 Clear 16 1019 71 10000 3.1 30 09:49 18.01.2020
4114 Clear 16 1019 71 10000 3.1 30 09:31 18.01.2020
4115 Clear 16 1019 71 10000 3.6 30 08:58 18.01.2020
4116 Clear 16 1019 71 10000 3.6 30 08:39 18.01.2020
4117 Clear 16 1019 71 10000 3.6 30 08:19 18.01.2020
4118 Clear 17 1019 67 10000 3.1 30 07:52 18.01.2020
4119 Clear 16 1019 67 10000 3.1 30 07:32 18.01.2020
4120 Clear 17 1020 62 10000 2.6 30 06:48 18.01.2020
4121 Clear 17 1020 62 10000 2.6 30 06:18 18.01.2020
4122 Clear 16 1020 62 10000 3.1 50 05:25 18.01.2020
4123 Clear 18 1020 52 10000 2.1 60 03:25 18.01.2020
4124 Clear 20 1020 42 10000 3.1 110 01:59 18.01.2020
4125 Clear 19 1020 42 10000 3.1 110 01:35 18.01.2020
4126 Clear 20 1020 37 10000 3.6 120 00:37 18.01.2020
4127 Clear 21 1020 37 10000 3.6 120 00:19 18.01.2020
4128 Clear 21 1020 40 10000 4.1 170 23:44 17.01.2020
4129 Clear 21 1020 40 10000 4.1 170 23:20 17.01.2020
4130 Clear 21 1020 35 10000 4.1 160 22:59 17.01.2020
4131 Clear 22 1020 35 10000 4.1 160 22:40 17.01.2020
4132 Clear 22 1020 35 10000 4.1 160 22:18 17.01.2020
4133 Clear 23 1020 35 10000 4.1 170 21:41 17.01.2020
4134 Clear 23 1020 35 10000 4.1 170 21:22 17.01.2020
4135 Clear 23 1021 29 10000 4.1 220 20:58 17.01.2020
4136 Clear 23 1021 29 10000 4.1 220 20:39 17.01.2020
4137 Clear 24 1021 29 10000 4.1 220 20:20 17.01.2020
4138 Clear 24 1021 31 10000 4.1 220 19:55 17.01.2020
4139 Clear 24 1021 31 10000 4.1 220 19:37 17.01.2020
4140 Clear 24 1021 31 10000 4.1 220 19:19 17.01.2020
4141 Clear 24 1022 27 10000 4.1 220 18:56 17.01.2020
4142 Clear 24 1022 27 10000 4.1 220 18:56 17.01.2020
4143 Clear 24 1022 27 10000 4.1 220 18:36 17.01.2020
4144 Clear 24 1022 27 10000 4.1 220 18:18 17.01.2020
4145 Clear 24 1022 22 10000 4.1 220 17:39 17.01.2020
4146 Clear 24 1022 22 10000 4.1 220 17:20 17.01.2020
4147 Clear 23 1022 33 10000 3.1 210 16:44 17.01.2020
4148 Clear 23 1022 33 10000 3.1 210 16:21 17.01.2020
4149 Clear 23 1022 33 10000 3.1 210 16:21 17.01.2020
4150 Clear 22 1023 37 10000 1.5 90 15:58 17.01.2020
4151 Clear 22 1023 37 10000 1.5 90 15:58 17.01.2020
4152 Clear 22 1023 37 10000 1.5 90 15:39 17.01.2020
4153 Clear 22 1023 37 10000 1.5 90 15:20 17.01.2020
4154 Clear 21 1023 49 10000 1.5 220 14:43 17.01.2020
4155 Clear 21 1023 49 10000 1.5 220 14:24 17.01.2020
4156 Clouds 20 1023 48 10000 1.5 230 13:43 17.01.2020
4157 Clouds 20 1023 48 10000 1.5 230 13:23 17.01.2020
4158 Clear 18 1022 67 10000 4.27 228 12:47 17.01.2020
4159 Clear 17 1022 67 10000 4.27 228 12:23 17.01.2020
4160 Clear 15 1022 87 10000 1.5 30 11:43 17.01.2020
4161 Clear 14 1022 87 10000 1.5 30 11:20 17.01.2020
4162 Clouds 17 1022 82 10000 5.58 206 10:58 17.01.2020
4163 Clouds 16 1022 82 10000 5.58 206 10:40 17.01.2020
4164 Clouds 16 1022 82 10000 5.58 206 10:21 17.01.2020
4165 Clouds 18 1021 72 10000 5.58 206 09:56 17.01.2020
4166 Clouds 17 1021 72 10000 5.58 206 09:37 17.01.2020
4167 Clouds 17 1021 72 10000 5.58 206 09:18 17.01.2020
4168 Clouds 19 1021 63 10000 1.5 180 08:42 17.01.2020
4169 Clouds 18 1021 63 10000 1.5 180 08:23 17.01.2020
4170 Clouds 19 1021 63 10000 2.1 170 07:49 17.01.2020
4171 Clouds 18 1021 63 10000 2.1 170 07:30 17.01.2020
4172 Clouds 19 1021 63 10000 2.6 160 06:56 17.01.2020
4173 Clouds 18 1021 63 10000 2.6 160 06:37 17.01.2020
4174 Clouds 18 1021 63 10000 4.1 160 05:22 17.01.2020
4175 Clear 19 1004 61 0 1.79 194 03:38 17.01.2020
4176 Clear 19 1004 61 0 1.79 194 02:43 17.01.2020
4177 Clear 20 1004 61 0 1.79 194 01:46 17.01.2020
4178 Clear 18 1020 64 0 10.74 150 01:27 17.01.2020
4179 Clear 19 1019 60 0 10.74 150 00:43 17.01.2020
4180 Clouds 21 1019 37 10000 5.1 270 00:20 17.01.2020
4181 Clouds 21 1019 37 10000 5.1 270 23:42 16.01.2020
4182 Clouds 21 1019 37 10000 5.1 270 23:24 16.01.2020
4183 Clear 21 1019 35 10000 5.1 270 22:43 16.01.2020
4184 Clear 21 1019 35 10000 5.1 270 22:22 16.01.2020
4185 Clear 22 1019 28 10000 5.7 280 21:57 16.01.2020
4186 Clear 22 1019 28 10000 5.7 280 21:39 16.01.2020
4187 Clear 22 1019 28 10000 5.7 280 21:19 16.01.2020
4188 Clear 22 1019 25 10000 4.1 270 20:58 16.01.2020
4189 Clear 23 1019 25 10000 4.1 270 20:39 16.01.2020
4190 Clear 22 1019 25 10000 4.1 270 20:20 16.01.2020
4191 Clear 21 1019 26 10000 4.6 250 19:56 16.01.2020
4192 Clear 21 1019 26 10000 4.6 250 19:38 16.01.2020
4193 Clear 21 1019 26 10000 4.6 250 19:19 16.01.2020
4194 Clear 21 1019 30 10000 4.1 210 18:55 16.01.2020
4195 Clear 21 1019 30 10000 4.1 210 18:37 16.01.2020
4196 Clear 21 1019 30 10000 4.1 210 18:37 16.01.2020
4197 Clear 21 1019 30 10000 4.1 210 18:18 16.01.2020
4198 Clear 22 1019 28 10000 4.1 200 17:42 16.01.2020
4199 Clear 21 1019 28 10000 4.1 200 17:23 16.01.2020
4200 Clear 21 1019 30 10000 5.7 220 16:57 16.01.2020
4201 Clear 21 1019 37 10000 5.1 200 16:39 16.01.2020
4202 Clear 21 1019 37 10000 5.1 200 16:20 16.01.2020
4203 Clear 21 1019 35 10000 5.1 210 15:44 16.01.2020
4204 Clear 21 1019 35 10000 5.1 210 15:44 16.01.2020
4205 Clear 21 1019 35 10000 5.1 210 15:24 16.01.2020
4206 Clear 21 1019 35 10000 5.1 210 15:24 16.01.2020
4207 Clear 20 1019 37 10000 6.7 210 14:59 16.01.2020
4208 Clear 20 1019 37 10000 6.7 210 14:41 16.01.2020
4209 Clear 20 1019 37 10000 6.7 210 14:22 16.01.2020
4210 Clear 20 1018 48 10000 6.2 190 13:45 16.01.2020
4211 Clear 20 1018 48 10000 6.2 190 13:26 16.01.2020
4212 Clear 19 1018 45 10000 2.6 200 12:57 16.01.2020
4213 Clear 19 1018 45 10000 2.6 200 12:38 16.01.2020
4214 Clear 19 1018 45 10000 2.6 200 12:20 16.01.2020
4215 Clear 18 1017 55 10000 2.6 210 11:41 16.01.2020
4216 Clear 18 1017 55 10000 2.6 210 11:41 16.01.2020
4217 Clear 17 1017 55 10000 2.6 210 11:23 16.01.2020
4218 Clear 18 1016 42 10000 4.1 210 10:55 16.01.2020
4219 Clear 17 1016 42 10000 4.1 210 10:37 16.01.2020
4220 Clear 17 1016 42 10000 4.1 210 10:19 16.01.2020
4221 Clear 17 1014 51 10000 5.1 200 09:42 16.01.2020
4222 Clear 17 1014 51 10000 5.1 200 09:24 16.01.2020
4223 Clouds 18 1014 55 10000 6.2 180 08:58 16.01.2020
4224 Clouds 17 1014 55 10000 6.2 180 08:40 16.01.2020
4225 Clouds 18 1014 55 10000 6.2 180 08:19 16.01.2020
4226 Clouds 18 1014 55 10000 7.2 180 07:42 16.01.2020
4227 Clouds 18 1014 55 10000 7.2 180 07:23 16.01.2020
4228 Clouds 18 1014 52 10000 6.2 180 06:52 16.01.2020
4229 Clouds 18 1014 52 10000 6.2 180 06:34 16.01.2020
4230 Clouds 18 1014 48 10000 6.2 180 05:49 16.01.2020
4231 Clouds 19 1013 55 10000 7.7 180 04:46 16.01.2020
4232 Clouds 19 1012 59 10000 7.7 180 03:56 16.01.2020
4233 Clouds 19 1011 59 10000 7.7 180 02:46 16.01.2020
4234 Clouds 19 1009 63 10000 6.7 180 01:32 16.01.2020
4235 Clouds 20 1008 60 10000 8.2 170 00:43 16.01.2020
4236 Clouds 20 1008 60 10000 8.2 170 00:23 16.01.2020
4237 Clouds 20 1007 64 10000 10.3 170 23:44 15.01.2020
4238 Clouds 20 1007 64 10000 10.3 170 23:44 15.01.2020
4239 Clouds 20 1007 64 10000 10.3 170 23:22 15.01.2020
4240 Clouds 21 1005 68 10000 7.7 180 22:56 15.01.2020
4241 Clouds 21 1005 68 10000 7.7 180 22:38 15.01.2020
4242 Clouds 21 1005 68 10000 7.7 180 22:18 15.01.2020
4243 Clouds 21 1005 78 10000 9.3 180 21:56 15.01.2020
4244 Clouds 21 1005 78 10000 9.3 180 21:56 15.01.2020
4245 Clouds 22 1005 78 10000 9.3 180 21:37 15.01.2020
4246 Clouds 22 1005 78 10000 9.3 180 21:18 15.01.2020
4247 Clouds 23 1004 88 10000 7.2 230 20:55 15.01.2020
4248 Clouds 23 1004 88 10000 7.2 230 20:37 15.01.2020
4249 Clouds 23 1004 88 10000 7.2 230 20:18 15.01.2020
4250 Clouds 24 1003 88 10000 5.1 250 19:54 15.01.2020
4251 Clouds 25 1003 88 10000 5.1 250 19:36 15.01.2020
4252 Clouds 24 1003 88 10000 5.1 250 19:18 15.01.2020
4253 Clouds 24 1003 83 10000 3.1 300 18:55 15.01.2020
4254 Clouds 24 1003 83 10000 3.1 300 18:37 15.01.2020
4255 Clouds 24 1003 83 10000 3.1 300 18:19 15.01.2020
4256 Clouds 23 1004 94 8000 3.1 300 17:41 15.01.2020
4257 Clouds 22 1004 94 8000 3.1 300 17:22 15.01.2020
4258 Thunderstorm 22 1002 88 10000 5.78 354 16:57 15.01.2020
4259 Rain 22 1001 94 5000 5.1 60 16:38 15.01.2020
4260 Rain 22 1001 94 5000 5.1 60 16:20 15.01.2020
4261 Rain 22 1001 94 5000 5.1 60 16:20 15.01.2020
4262 Rain 22 1001 94 5000 5.1 60 16:20 15.01.2020
4263 Rain 22 1001 94 5000 5.1 60 16:20 15.01.2020
4264 Rain 22 1001 94 5000 5.1 60 16:20 15.01.2020
4265 Rain 21 1001 100 6000 5.1 120 15:43 15.01.2020
4266 Rain 21 1001 100 6000 5.1 120 15:21 15.01.2020
4267 Thunderstorm 22 1003 94 1000 7.7 160 14:57 15.01.2020
4268 Thunderstorm 22 1003 94 1000 7.7 160 14:39 15.01.2020
4269 Thunderstorm 21 1003 94 1000 7.7 160 14:18 15.01.2020
4270 Thunderstorm 22 1003 94 2000 5.7 240 13:44 15.01.2020
4271 Thunderstorm 22 1003 94 2000 5.7 240 13:24 15.01.2020
4272 Thunderstorm 22 1003 94 2000 6.7 260 12:57 15.01.2020
4273 Thunderstorm 22 1003 94 2000 6.7 260 12:39 15.01.2020
4274 Thunderstorm 22 1003 94 2000 6.7 260 12:19 15.01.2020
4275 Thunderstorm 23 1001 83 2000 4.1 10 11:55 15.01.2020
4276 Thunderstorm 23 1001 83 2000 4.1 10 11:36 15.01.2020
4277 Thunderstorm 23 1001 83 2000 4.1 10 11:36 15.01.2020
4278 Thunderstorm 24 1001 83 2000 4.1 10 11:18 15.01.2020
4279 Thunderstorm 24 1001 83 10000 1.5 340 10:41 15.01.2020
4280 Thunderstorm 24 1001 83 10000 1.5 340 10:23 15.01.2020
4281 Thunderstorm 24 1001 83 10000 3.1 30 09:42 15.01.2020
4282 Thunderstorm 24 1001 83 10000 3.1 30 09:22 15.01.2020
4283 Thunderstorm 24 1002 83 10000 3.6 20 08:55 15.01.2020
4284 Thunderstorm 24 1002 83 10000 3.6 20 08:37 15.01.2020
4285 Thunderstorm 24 1002 83 10000 3.6 20 08:19 15.01.2020
4286 Rain 25 1003 78 10000 2.1 40 07:43 15.01.2020
4287 Rain 25 1003 78 10000 2.1 40 07:24 15.01.2020
4288 Clouds 25 1004 78 10000 3.1 30 06:44 15.01.2020
4289 Clouds 25 1004 69 10000 2.6 40 05:57 15.01.2020
4290 Clouds 25 1004 61 10000 3.6 90 03:56 15.01.2020
4291 Clouds 25 1005 69 10000 7.98 39 02:30 15.01.2020
4292 Rain 25 1004 65 10000 1.11 128 01:25 15.01.2020
4293 Clouds 25 1004 54 10000 1.5 140 00:45 15.01.2020
4294 Clouds 27 1004 54 10000 1.5 140 00:26 15.01.2020
4295 Clouds 27 1004 58 10000 1.5 340 23:47 14.01.2020
4296 Clouds 28 1004 58 10000 1.5 340 23:29 14.01.2020
4297 Clouds 29 1004 58 10000 2.1 340 22:59 14.01.2020
4298 Clouds 28 1004 58 10000 2.1 340 22:40 14.01.2020
4299 Clouds 28 1004 58 10000 2.1 340 22:19 14.01.2020
4300 Clouds 27 1005 65 10000 3.1 60 21:58 14.01.2020
4301 Clouds 26 1005 65 10000 3.1 60 21:39 14.01.2020
4302 Clouds 26 1005 65 10000 3.1 60 21:20 14.01.2020
4303 Clouds 26 1005 69 10000 4.1 100 20:57 14.01.2020
4304 Clouds 25 1006 62 0 0.89 109 20:39 14.01.2020
4305 Clouds 26 1009 78 10000 6.2 210 20:19 14.01.2020
4306 Clouds 25 1009 78 10000 6.2 210 19:55 14.01.2020
4307 Clouds 26 1009 78 10000 6.2 210 19:37 14.01.2020
4308 Clouds 26 1009 78 10000 6.2 210 19:18 14.01.2020
4309 Clouds 25 1008 78 0 3.58 266 18:41 14.01.2020
4310 Clouds 30 1009 35 10000 9.3 360 18:20 14.01.2020
4311 Clouds 31 1009 35 10000 9.3 360 17:59 14.01.2020
4312 Clouds 31 1009 35 10000 9.3 360 17:37 14.01.2020
4313 Clouds 32 1009 35 10000 9.3 360 17:18 14.01.2020
4314 Clouds 32 1009 35 10000 9.3 360 17:18 14.01.2020
4315 Clouds 30 1010 37 10000 8.7 20 16:54 14.01.2020
4316 Clouds 30 1010 37 10000 8.7 20 16:36 14.01.2020
4317 Clouds 30 1010 37 10000 8.7 20 16:18 14.01.2020
4318 Clouds 29 1010 42 10000 9.3 360 15:42 14.01.2020
4319 Clouds 29 1010 42 10000 9.3 360 15:19 14.01.2020
4320 Clouds 26 1010 54 10000 8.2 30 14:46 14.01.2020
4321 Clouds 27 1010 54 10000 8.2 30 14:23 14.01.2020
4322 Clouds 25 1011 64 10000 8.2 30 13:58 14.01.2020
4323 Clouds 25 1011 64 10000 8.2 30 13:39 14.01.2020
4324 Clouds 24 1011 64 10000 8.2 30 13:19 14.01.2020
4325 Clouds 24 1011 64 10000 8.2 30 13:19 14.01.2020
4326 Clouds 22 1011 73 10000 8.2 30 12:42 14.01.2020
4327 Clouds 22 1011 73 10000 8.2 30 12:22 14.01.2020
4328 Clouds 21 1011 77 10000 9.3 30 11:57 14.01.2020
4329 Clouds 21 1011 77 10000 9.3 30 11:38 14.01.2020
4330 Clouds 21 1011 77 10000 9.3 30 11:20 14.01.2020
4331 Clouds 20 1011 68 10000 6.2 20 10:55 14.01.2020
4332 Clouds 20 1011 68 10000 6.2 20 10:36 14.01.2020
4333 Clouds 20 1011 68 10000 6.2 20 10:18 14.01.2020
4334 Clouds 20 1011 68 10000 6.2 20 10:18 14.01.2020
4335 Clouds 20 1011 68 10000 5.7 30 09:42 14.01.2020
4336 Clouds 20 1011 68 10000 5.7 30 09:21 14.01.2020
4337 Clouds 20 1011 68 10000 5.1 30 08:57 14.01.2020
4338 Clouds 20 1011 68 10000 5.1 30 08:39 14.01.2020
4339 Clear 20 1011 68 10000 5.1 30 08:20 14.01.2020
4340 Clear 20 1012 68 10000 5.1 30 07:38 14.01.2020
4341 Clear 20 1014 68 10000 3.6 30 06:59 14.01.2020
4342 Clear 20 1014 68 10000 3.6 30 06:40 14.01.2020
4343 Clear 20 1013 64 10000 5.1 40 05:35 14.01.2020
4344 Clear 21 1014 60 10000 5.1 50 04:23 14.01.2020
4345 Clear 21 1014 53 10000 7.2 50 03:43 14.01.2020
4346 Clear 22 1014 56 10000 3.6 80 02:26 14.01.2020
4347 Clouds 23 1014 60 10000 5.7 100 01:18 14.01.2020
4348 Clouds 23 1013 64 10000 7.2 110 00:39 14.01.2020
4349 Clouds 23 1013 64 10000 7.2 110 00:21 14.01.2020
4350 Clouds 23 1014 64 10000 6.2 110 23:38 13.01.2020
4351 Clear 24 1014 64 10000 6.2 110 23:18 13.01.2020
4352 Clear 24 1014 61 10000 7.7 120 22:55 13.01.2020
4353 Clear 24 1014 61 10000 7.7 120 22:37 13.01.2020
4354 Clear 24 1014 61 10000 7.7 120 22:19 13.01.2020
4355 Clear 24 1014 57 10000 7.7 130 21:54 13.01.2020
4356 Clear 24 1014 57 10000 7.7 130 21:54 13.01.2020
4357 Clear 25 1014 57 10000 7.7 130 21:36 13.01.2020
4358 Clear 25 1014 57 10000 7.7 130 21:18 13.01.2020
4359 Clear 25 1015 54 10000 7.2 120 20:42 13.01.2020
4360 Clear 26 1015 54 10000 7.2 120 20:22 13.01.2020
4361 Clear 26 1016 54 10000 6.7 120 19:59 13.01.2020
4362 Clear 25 1016 54 10000 6.7 120 19:41 13.01.2020
4363 Clear 25 1016 54 10000 6.7 120 19:20 13.01.2020
4364 Smoke 26 1016 51 2500 6.7 120 18:58 13.01.2020
4365 Smoke 26 1016 51 2500 6.7 120 18:58 13.01.2020
4366 Smoke 26 1016 51 2500 6.7 120 18:38 13.01.2020
4367 Smoke 26 1016 51 2500 6.7 120 18:38 13.01.2020
4368 Smoke 26 1016 51 2500 6.7 120 18:19 13.01.2020
4369 Clear 26 1017 53 10000 5.1 130 17:57 13.01.2020
4370 Clear 26 1017 53 10000 5.1 130 17:38 13.01.2020
4371 Clear 26 1017 53 10000 5.1 130 17:20 13.01.2020
4372 Clear 25 1017 78 0 4.47 108 16:40 13.01.2020
4373 Clear 26 1012 27 0 2.68 89 16:22 13.01.2020
4374 Clear 26 1017 76 0 4.47 94 15:56 13.01.2020
4375 Clear 26 1013 27 0 1.79 73 15:38 13.01.2020
4376 Clear 25 1013 29 0 1.79 88 15:19 13.01.2020
4377 Clear 24 1018 77 0 5.81 69 14:42 13.01.2020
4378 Clear 24 1018 77 0 5.81 66 14:23 13.01.2020
4379 Clear 23 1018 79 0 5.81 72 13:58 13.01.2020
4380 Clear 24 1019 46 0 1.79 96 13:39 13.01.2020
4381 Clear 22 1019 55 0 1.79 84 13:21 13.01.2020
4382 Clear 23 1020 58 0 2.24 65 12:55 13.01.2020
4383 Clear 22 1014 58 0 0.89 120 12:36 13.01.2020
4384 Clouds 20 1019 72 10000 2.1 50 12:18 13.01.2020
4385 Clouds 19 1019 72 10000 2.1 50 11:39 13.01.2020
4386 Clouds 18 1019 72 10000 2.1 50 11:20 13.01.2020
4387 Clouds 17 1019 77 10000 6.86 84 10:57 13.01.2020
4388 Clouds 17 1019 77 10000 6.86 84 10:57 13.01.2020
4389 Clouds 16 1019 77 10000 6.86 84 10:39 13.01.2020
4390 Clouds 15 1019 77 10000 6.86 84 10:20 13.01.2020
4391 Clear 15 1018 72 10000 1.5 50 09:56 13.01.2020
4392 Clear 15 1018 72 10000 1.5 50 09:38 13.01.2020
4393 Clear 15 1018 72 10000 1.5 50 09:19 13.01.2020
4394 Clear 15 1018 72 10000 1.5 50 09:19 13.01.2020
4395 Clear 15 1018 72 10000 6.86 84 08:39 13.01.2020
4396 Clouds 15 1018 72 10000 6.96 108 08:20 13.01.2020
4397 Clear 16 1018 72 10000 7.26 101 07:47 13.01.2020
4398 Clear 16 1018 72 10000 7.26 101 07:27 13.01.2020
4399 Clear 17 1018 72 10000 1 50 06:42 13.01.2020
4400 Clear 17 1018 72 10000 1 50 06:20 13.01.2020
4401 Clear 18 1018 56 10000 4.1 130 05:23 13.01.2020
4402 Clear 19 1019 56 10000 5.1 130 03:54 13.01.2020
4403 Clear 20 1019 56 10000 5.1 130 03:22 13.01.2020
4404 Clear 20 1019 60 10000 5.1 130 02:44 13.01.2020
4405 Clear 20 1019 60 10000 5.1 130 02:24 13.01.2020
4406 Clear 21 1018 52 10000 6.2 130 01:18 13.01.2020
4407 Clear 21 1018 52 10000 5.7 140 00:41 13.01.2020
4408 Clear 21 1018 52 10000 5.7 140 00:22 13.01.2020
4409 Clear 22 1017 49 10000 6.7 120 23:42 12.01.2020
4410 Clear 22 1017 49 10000 6.7 120 23:23 12.01.2020
4411 Clouds 23 1017 41 10000 7.7 150 22:58 12.01.2020
4412 Clouds 23 1017 41 10000 7.7 150 22:58 12.01.2020
4413 Clouds 23 1017 41 10000 7.7 150 22:39 12.01.2020
4414 Clouds 23 1017 41 10000 7.7 150 22:21 12.01.2020
4415 Clouds 24 1017 44 10000 7.2 150 21:56 12.01.2020
4416 Clouds 24 1017 44 10000 7.2 150 21:38 12.01.2020
4417 Clouds 24 1017 44 10000 7.2 150 21:19 12.01.2020
4418 Clouds 24 1017 50 10000 7.7 160 20:56 12.01.2020
4419 Clouds 25 1017 50 10000 7.7 160 20:37 12.01.2020
4420 Clouds 26 1017 50 10000 7.7 160 20:19 12.01.2020
4421 Clouds 26 1017 50 10000 7.7 160 20:19 12.01.2020
4422 Clouds 26 1017 44 10000 6.7 150 19:55 12.01.2020
4423 Clouds 25 1017 44 10000 6.7 150 19:37 12.01.2020
4424 Clouds 26 1017 44 10000 6.7 150 19:18 12.01.2020
4425 Clear 26 1017 39 10000 6.2 190 18:57 12.01.2020
4426 Clear 26 1017 39 10000 6.2 190 18:38 12.01.2020
4427 Clear 26 1017 39 10000 6.2 190 18:20 12.01.2020
4428 Clear 26 1017 45 10000 6.2 190 17:42 12.01.2020
4429 Clear 26 1017 45 10000 6.2 190 17:23 12.01.2020
4430 Clear 26 1017 54 10000 5.1 180 16:59 12.01.2020
4431 Clear 26 1017 54 10000 5.1 180 16:39 12.01.2020
4432 Clear 26 1017 54 10000 5.1 180 16:20 12.01.2020
4433 Clear 26 1017 65 10000 3.1 170 15:57 12.01.2020
4434 Clear 26 1017 65 10000 3.1 170 15:38 12.01.2020
4435 Clear 26 1017 65 10000 3.1 170 15:20 12.01.2020
4436 Clear 25 1017 61 10000 3.1 110 14:43 12.01.2020
4437 Clear 25 1017 61 10000 3.1 110 14:43 12.01.2020
4438 Clear 25 1017 61 10000 3.1 110 14:24 12.01.2020
4439 Clear 25 1016 65 10000 2.1 120 13:57 12.01.2020
4440 Clear 25 1016 65 10000 2.1 120 13:57 12.01.2020
4441 Clear 25 1016 65 10000 2.1 120 13:39 12.01.2020
4442 Clear 26 1016 65 10000 2.1 120 13:20 12.01.2020
4443 Clear 24 1016 64 10000 3.1 120 12:57 12.01.2020
4444 Clear 24 1016 64 10000 3.1 120 12:38 12.01.2020
4445 Clear 24 1016 64 10000 3.1 120 12:19 12.01.2020
4446 Clear 22 1016 73 10000 3.1 120 11:42 12.01.2020
4447 Clear 22 1016 73 10000 3.1 120 11:22 12.01.2020
4448 Clear 23 1015 68 10000 2.6 140 10:59 12.01.2020
4449 Clear 21 1015 68 10000 2.6 140 10:40 12.01.2020
4450 Clear 21 1015 68 10000 2.6 140 10:21 12.01.2020
4451 Clear 20 1014 64 10000 4.79 148 09:44 12.01.2020
4452 Clear 21 1014 64 10000 4.79 148 09:24 12.01.2020
4453 Clear 21 1013 60 10000 4.79 148 08:57 12.01.2020
4454 Clear 21 1013 60 10000 4.79 148 08:38 12.01.2020
4455 Clear 19 1013 60 10000 5.92 148 08:19 12.01.2020
4456 Clear 19 1013 59 10000 1.5 30 07:38 12.01.2020
4457 Clear 20 1013 59 10000 1.5 30 07:19 12.01.2020
4458 Clear 18 1013 63 10000 1.5 360 06:42 12.01.2020
4459 Clear 18 1013 63 10000 1.5 360 06:18 12.01.2020
4460 Clear 19 1013 68 10000 2.6 20 05:21 12.01.2020
4461 Clear 20 1013 77 10000 3.53 28 03:45 12.01.2020
4462 Clear 20 1012 68 10000 1.5 20 02:59 12.01.2020
4463 Clear 22 1012 68 10000 1.5 20 02:30 12.01.2020
4464 Clear 23 1011 64 10000 2.1 100 01:42 12.01.2020
4465 Clear 23 1011 64 10000 2.1 100 01:21 12.01.2020
4466 Clear 25 1011 53 10000 2.1 110 00:40 12.01.2020
4467 Clear 26 1011 53 10000 2.1 110 00:19 12.01.2020
4468 Clear 27 1011 37 10000 3.1 180 23:42 11.01.2020
4469 Clear 27 1011 37 10000 3.1 180 23:19 11.01.2020
4470 Clear 28 1010 30 10000 2.1 240 22:57 11.01.2020
4471 Clear 28 1010 30 10000 2.1 240 22:39 11.01.2020
4472 Clear 28 1010 30 10000 2.1 240 22:20 11.01.2020
4473 Clear 28 1011 28 10000 4.1 240 21:55 11.01.2020
4474 Clear 29 1011 28 10000 4.1 240 21:37 11.01.2020
4475 Clear 29 1011 28 10000 4.1 240 21:18 11.01.2020
4476 Clear 29 1011 40 10000 5.7 190 20:40 11.01.2020
4477 Clouds 29 1011 40 10000 5.7 190 20:22 11.01.2020
4478 Clouds 29 1012 42 10000 4.1 240 19:58 11.01.2020
4479 Clouds 29 1012 42 10000 4.1 240 19:38 11.01.2020
4480 Clouds 29 1012 42 10000 4.1 240 19:38 11.01.2020
4481 Clouds 29 1012 42 10000 4.1 240 19:38 11.01.2020
4482 Clouds 29 1012 42 10000 4.1 240 19:20 11.01.2020
4483 Clouds 29 1013 40 10000 4.1 240 18:57 11.01.2020
4484 Clouds 28 1013 40 10000 4.1 240 18:38 11.01.2020
4485 Clouds 29 1013 40 10000 4.1 240 18:19 11.01.2020
4486 Clouds 29 1013 35 10000 3.1 210 17:57 11.01.2020
4487 Clouds 28 1013 35 10000 3.1 210 17:39 11.01.2020
4488 Clouds 28 1013 35 10000 3.1 210 17:19 11.01.2020
4489 Clouds 27 1013 37 10000 3.1 350 16:44 11.01.2020
4490 Clouds 27 1013 37 10000 3.1 350 16:26 11.01.2020
4491 Clouds 26 1013 39 10000 3.1 360 15:58 11.01.2020
4492 Clouds 27 1013 39 10000 3.1 360 15:40 11.01.2020
4493 Clouds 26 1013 39 10000 3.1 360 15:20 11.01.2020
4494 Clouds 26 1013 47 10000 3.68 116 14:56 11.01.2020
4495 Clouds 25 1013 47 10000 3.68 116 14:38 11.01.2020
4496 Clouds 25 1013 47 10000 3.63 98 14:19 11.01.2020
4497 Clouds 24 1013 73 10000 2.1 120 13:39 11.01.2020
4498 Clear 24 1013 73 10000 2.1 120 13:20 11.01.2020
4499 Clear 22 1013 83 10000 2.1 120 12:57 11.01.2020
4500 Clear 22 1013 83 10000 2.1 120 12:38 11.01.2020
4501 Clear 22 1013 83 10000 2.1 120 12:20 11.01.2020
4502 Clear 21 1013 88 10000 2.6 120 11:46 11.01.2020
4503 Clear 21 1013 88 10000 2.6 120 11:25 11.01.2020
4504 Mist 21 1012 82 10000 1.5 130 10:50 11.01.2020
4505 Mist 20 1012 82 10000 1.5 130 10:30 11.01.2020
4506 Clear 19 1011 82 10000 2.6 130 09:55 11.01.2020
4507 Clear 19 1011 82 10000 2.6 130 09:37 11.01.2020
4508 Clear 18 1011 82 10000 2.6 130 09:18 11.01.2020
4509 Clouds 18 1011 88 10000 2.6 150 08:41 11.01.2020
4510 Clouds 20 1011 88 10000 2.6 150 08:21 11.01.2020
4511 Clouds 19 1011 88 10000 1.5 150 07:43 11.01.2020
4512 Clouds 19 1011 88 10000 1.5 150 07:25 11.01.2020
4513 Clouds 19 1011 88 10000 8.04 126 06:45 11.01.2020
4514 Clear 19 1011 88 8000 8.04 126 05:34 11.01.2020
4515 Clear 19 1010 88 8000 3.6 140 04:46 11.01.2020
4516 Clear 18 1010 88 8000 3.6 140 04:27 11.01.2020
4517 Clear 19 1011 77 10000 3.6 140 02:49 11.01.2020
4518 Clouds 22 1010 68 10000 1.5 120 01:57 11.01.2020
4519 Clouds 21 1010 68 10000 1.5 120 01:38 11.01.2020
4520 Clouds 23 1010 68 10000 1.5 120 01:18 11.01.2020
4521 Clouds 24 1010 64 10000 3.1 110 00:32 11.01.2020
4522 Clouds 24 1009 47 10000 3.6 150 23:59 10.01.2020
4523 Clouds 25 1009 47 10000 3.6 150 23:40 10.01.2020
4524 Clouds 24 1009 47 10000 3.6 150 23:21 10.01.2020
4525 Clouds 26 1009 57 10000 4.1 180 22:56 10.01.2020
4526 Clouds 26 1009 57 10000 4.1 180 22:38 10.01.2020
4527 Clouds 26 1009 57 10000 4.1 180 22:19 10.01.2020
4528 Clouds 27 1009 42 10000 3.6 190 21:55 10.01.2020
4529 Clouds 27 1009 42 10000 3.6 190 21:36 10.01.2020
4530 Clouds 27 1009 42 10000 3.6 190 21:18 10.01.2020
4531 Clouds 27 1009 48 10000 5.1 180 20:42 10.01.2020
4532 Clouds 27 1009 48 10000 5.1 180 20:24 10.01.2020
4533 Clouds 27 1009 48 10000 5.1 180 20:24 10.01.2020
4534 Clouds 27 1009 58 10000 5.1 210 19:55 10.01.2020
4535 Clouds 27 1009 58 10000 5.1 210 19:37 10.01.2020
4536 Clouds 27 1009 58 10000 5.1 210 19:19 10.01.2020
4537 Clouds 27 1009 54 10000 3.6 190 18:41 10.01.2020
4538 Clouds 27 1009 54 10000 3.6 190 18:19 10.01.2020
4539 Clouds 27 1009 54 10000 3.6 190 18:19 10.01.2020
4540 Clouds 27 1010 51 10000 3.1 210 17:57 10.01.2020
4541 Clouds 27 1010 51 10000 3.1 210 17:39 10.01.2020
4542 Clouds 27 1010 51 10000 3.1 210 17:20 10.01.2020
4543 Clouds 27 1010 54 10000 1 0 16:55 10.01.2020
4544 Clouds 27 1010 54 10000 1 0 16:37 10.01.2020
4545 Clouds 27 1010 54 10000 1 0 16:19 10.01.2020
4546 Clear 26 1009 54 10000 1 0 15:55 10.01.2020
4547 Clear 26 1009 54 10000 1 0 15:36 10.01.2020
4548 Clear 26 1009 54 10000 1 0 15:18 10.01.2020
4549 Clear 25 1010 54 10000 1 0 14:54 10.01.2020
4550 Clear 26 1010 54 10000 1 0 14:36 10.01.2020
4551 Clouds 26 1010 54 10000 1 0 14:18 10.01.2020
4552 Clouds 24 1010 64 10000 3.6 60 13:42 10.01.2020
4553 Clouds 25 1010 64 10000 3.6 60 13:23 10.01.2020
4554 Clouds 23 1011 73 10000 3.6 100 12:58 10.01.2020
4555 Clouds 23 1011 73 10000 3.6 100 12:39 10.01.2020
4556 Clouds 22 1011 73 10000 3.6 100 12:19 10.01.2020
4557 Clouds 21 1011 77 10000 4.1 110 11:55 10.01.2020
4558 Clouds 21 1011 77 10000 4.1 110 11:37 10.01.2020
4559 Clouds 22 1011 77 10000 4.1 110 11:18 10.01.2020
4560 Clouds 22 1011 77 10000 4.1 110 11:18 10.01.2020
4561 Clouds 21 1010 68 10000 4.6 120 10:43 10.01.2020
4562 Clouds 21 1010 68 10000 4.6 120 10:24 10.01.2020
4563 Clouds 20 1010 64 10000 4.6 120 09:59 10.01.2020
4564 Clouds 20 1010 64 10000 4.6 120 09:40 10.01.2020
4565 Clouds 20 1010 64 10000 4.6 120 09:22 10.01.2020
4566 Clouds 20 1009 73 10000 5.7 120 08:43 10.01.2020
4567 Clouds 20 1009 73 10000 5.7 120 08:24 10.01.2020
4568 Clear 20 1010 77 10000 5.7 110 07:46 10.01.2020
4569 Clear 20 1010 77 10000 5.7 110 07:28 10.01.2020
4570 Clear 20 1010 77 10000 4.6 110 06:55 10.01.2020
4571 Clear 21 1010 77 10000 4.6 110 06:27 10.01.2020
4572 Clouds 21 1011 83 10000 4.6 110 05:52 10.01.2020
4573 Clouds 21 1011 78 10000 5.1 120 03:47 10.01.2020
4574 Clouds 21 1011 78 10000 5.1 120 03:28 10.01.2020
4575 Clouds 21 1010 73 10000 5.1 130 02:51 10.01.2020
4576 Clouds 22 1009 73 10000 3.6 130 01:49 10.01.2020
4577 Clouds 22 1009 73 10000 3.6 130 01:28 10.01.2020
4578 Clouds 23 1009 73 10000 2.6 130 00:47 10.01.2020
4579 Clouds 23 1009 73 10000 2.6 130 00:29 10.01.2020
4580 Clouds 24 1008 57 10000 4.1 160 23:39 09.01.2020
4581 Clouds 24 1008 57 10000 4.1 160 23:39 09.01.2020
4582 Clouds 24 1008 57 10000 4.1 160 23:39 09.01.2020
4583 Clouds 24 1008 57 10000 4.1 160 23:39 09.01.2020
4584 Clouds 25 1008 57 10000 4.1 160 23:21 09.01.2020
4585 Clouds 25 1008 69 10000 6.2 160 22:58 09.01.2020
4586 Clouds 25 1008 69 10000 6.2 160 22:39 09.01.2020
4587 Clouds 25 1008 69 10000 6.2 160 22:19 09.01.2020
4588 Clouds 25 1008 69 10000 5.1 170 21:57 09.01.2020
4589 Clouds 25 1008 69 10000 5.1 170 21:57 09.01.2020
4590 Clouds 25 1008 69 10000 5.1 170 21:38 09.01.2020
4591 Clouds 26 1008 69 10000 5.1 170 21:20 09.01.2020
4592 Clouds 26 1008 65 10000 5.1 180 20:58 09.01.2020
4593 Clouds 26 1008 65 10000 5.1 180 20:39 09.01.2020
4594 Clouds 26 1008 65 10000 5.1 180 20:20 09.01.2020
4595 Clouds 26 1008 65 10000 5.1 180 20:20 09.01.2020
4596 Clouds 26 1008 57 10000 6.2 220 19:59 09.01.2020
4597 Clouds 26 1008 57 10000 6.2 220 19:39 09.01.2020
4598 Clouds 27 1008 57 10000 6.2 220 19:20 09.01.2020
4599 Clouds 27 1009 61 10000 3.6 280 18:56 09.01.2020
4600 Clouds 26 1009 61 10000 3.6 280 18:38 09.01.2020
4601 Clouds 27 1009 61 10000 3.6 280 18:20 09.01.2020
4602 Clouds 26 1009 65 10000 4.6 340 17:41 09.01.2020
4603 Clouds 26 1009 65 10000 4.6 340 17:19 09.01.2020
4604 Clouds 24 1009 78 10000 3.1 320 16:58 09.01.2020
4605 Clouds 24 1009 78 10000 3.1 320 16:39 09.01.2020
4606 Clouds 24 1009 78 10000 3.1 320 16:20 09.01.2020
4607 Clouds 24 1008 78 10000 6.2 360 15:43 09.01.2020
4608 Clouds 24 1008 78 10000 6.2 360 15:22 09.01.2020
4609 Clouds 24 1008 73 10000 4.1 20 14:58 09.01.2020
4610 Clouds 24 1008 73 10000 4.1 20 14:40 09.01.2020
4611 Clouds 24 1008 73 10000 4.1 20 14:19 09.01.2020
4612 Clouds 23 1007 78 10000 4.1 30 13:55 09.01.2020
4613 Clouds 23 1007 78 10000 4.1 30 13:37 09.01.2020
4614 Clouds 24 1007 78 10000 4.1 30 13:18 09.01.2020
4615 Clouds 23 1009 78 10000 3.1 20 12:55 09.01.2020
4616 Clouds 23 1009 78 10000 3.1 20 12:37 09.01.2020
4617 Clouds 23 1009 78 10000 3.1 20 12:18 09.01.2020
4618 Clouds 21 1009 73 10000 5.68 329 11:42 09.01.2020
4619 Clouds 21 1008 88 8000 4.1 20 11:24 09.01.2020
4620 Clouds 20 1009 77 10000 8.7 250 10:57 09.01.2020
4621 Clouds 20 1009 77 10000 8.7 250 10:57 09.01.2020
4622 Clouds 20 1009 77 10000 8.7 250 10:39 09.01.2020
4623 Clouds 20 1009 77 10000 8.7 250 10:20 09.01.2020
4624 Rain 19 1007 77 10000 3.1 280 09:41 09.01.2020
4625 Rain 19 1007 77 10000 3.1 280 09:41 09.01.2020
4626 Thunderstorm 20 1007 68 10000 5.7 30 09:23 09.01.2020
4627 Thunderstorm 20 1007 60 10000 3.1 260 08:57 09.01.2020
4628 Thunderstorm 20 1007 60 10000 3.1 260 08:38 09.01.2020
4629 Thunderstorm 21 1005 56 10000 3.6 50 08:20 09.01.2020
4630 Clear 23 1005 49 10000 3.6 50 07:46 09.01.2020
4631 Clear 23 1005 49 10000 3.6 50 07:28 09.01.2020
4632 Clear 23 1006 49 10000 2.6 50 06:40 09.01.2020
4633 Clear 23 1006 49 10000 2.6 50 06:21 09.01.2020
4634 Clear 23 1005 50 10000 4.6 30 05:51 09.01.2020
4635 Clear 23 1005 50 10000 7.2 30 04:54 09.01.2020
4636 Clear 24 1005 50 10000 7.2 30 04:36 09.01.2020
4637 Clear 25 1006 41 10000 5.7 40 03:26 09.01.2020
4638 Clear 26 1006 34 10000 4.1 50 02:33 09.01.2020
4639 Clear 27 1005 34 10000 3.1 30 01:41 09.01.2020
4640 Clear 28 1004 28 10000 4.1 10 00:56 09.01.2020
4641 Clear 28 1004 28 10000 4.1 10 00:36 09.01.2020
4642 Clear 29 1004 28 10000 4.1 10 00:18 09.01.2020
4643 Clear 31 1004 31 10000 8.2 10 23:39 08.01.2020
4644 Clear 31 1004 31 10000 8.2 10 23:20 08.01.2020
4645 Clear 31 1004 29 10000 9.3 20 22:40 08.01.2020
4646 Clear 31 1004 29 10000 9.3 20 22:21 08.01.2020
4647 Clear 31 1005 25 10000 7.7 20 21:58 08.01.2020
4648 Clear 31 1005 25 10000 7.7 20 21:40 08.01.2020
4649 Clear 32 1005 25 10000 7.7 20 21:20 08.01.2020
4650 Clear 33 1006 22 10000 7.7 10 20:59 08.01.2020
4651 Clear 33 1006 22 10000 7.7 10 20:41 08.01.2020
4652 Clear 33 1006 22 10000 7.7 10 20:21 08.01.2020
4653 Clear 32 1007 19 10000 5.1 20 19:58 08.01.2020
4654 Clear 32 1007 19 10000 5.1 20 19:38 08.01.2020
4655 Clear 32 1007 19 10000 5.1 20 19:19 08.01.2020
4656 Clear 32 1008 25 10000 7.7 10 18:58 08.01.2020
4657 Clear 32 1008 25 10000 7.7 10 18:39 08.01.2020
4658 Clear 32 1008 25 10000 7.7 10 18:19 08.01.2020
4659 Clear 31 1009 27 10000 7.2 10 17:56 08.01.2020
4660 Clear 31 1009 27 10000 7.2 10 17:38 08.01.2020
4661 Clear 31 1009 27 10000 7.2 10 17:19 08.01.2020
4662 Clear 30 1009 35 10000 7.2 360 16:55 08.01.2020
4663 Clear 30 1009 35 10000 7.2 360 16:37 08.01.2020
4664 Clear 30 1009 35 10000 7.2 360 16:18 08.01.2020
4665 Clear 29 1010 35 10000 5.1 360 15:44 08.01.2020
4666 Clear 29 1010 35 10000 5.1 360 15:21 08.01.2020
4667 Clear 27 1010 44 10000 6.2 10 14:58 08.01.2020
4668 Clear 27 1010 44 10000 6.2 10 14:58 08.01.2020
4669 Clear 27 1010 44 10000 6.2 10 14:40 08.01.2020
4670 Clear 27 1010 44 10000 6.2 10 14:20 08.01.2020
4671 Clear 27 1010 44 10000 6.2 10 14:20 08.01.2020
4672 Clear 25 1011 53 10000 6.2 10 13:41 08.01.2020
4673 Clear 24 1011 53 10000 6.2 10 13:21 08.01.2020
4674 Clear 21 1011 60 10000 5.1 10 12:54 08.01.2020
4675 Clear 21 1011 60 10000 5.1 10 12:36 08.01.2020
4676 Clear 20 1011 60 10000 5.1 10 12:18 08.01.2020
4677 Clear 18 1010 68 10000 5.1 10 11:47 08.01.2020
4678 Clear 18 1010 68 10000 5.1 10 11:19 08.01.2020
4679 Clear 18 1010 67 10000 1.5 20 10:57 08.01.2020
4680 Clear 18 1010 67 10000 1.5 20 10:57 08.01.2020
4681 Clear 17 1010 67 10000 1.5 20 10:39 08.01.2020
4682 Clear 16 1010 67 10000 1.5 20 10:19 08.01.2020
4683 Clear 16 1009 63 10000 2.6 30 09:42 08.01.2020
4684 Clear 16 1009 63 10000 2.6 30 09:20 08.01.2020
4685 Clear 17 1008 63 10000 3.1 30 08:58 08.01.2020
4686 Clear 17 1008 63 10000 3.1 30 08:38 08.01.2020
4687 Clear 17 1008 63 10000 3.1 30 08:20 08.01.2020
4688 Clear 17 1008 59 10000 3.1 20 07:51 08.01.2020
4689 Clear 17 1008 59 10000 3.1 20 07:33 08.01.2020
4690 Clear 17 1009 55 10000 3.1 30 06:50 08.01.2020
4691 Clear 17 1009 55 10000 3.1 30 06:32 08.01.2020
4692 Clear 18 1008 48 10000 3.6 40 05:54 08.01.2020
4693 Clear 19 1008 48 10000 3.6 40 05:18 08.01.2020
4694 Clear 19 1008 42 10000 2.6 30 04:35 08.01.2020
4695 Clear 22 1008 35 10000 1.5 60 02:45 08.01.2020
4696 Clear 21 1008 35 10000 1.5 60 02:27 08.01.2020
4697 Clear 22 1007 31 10000 2.1 30 01:52 08.01.2020
4698 Clear 25 1007 31 10000 2.1 30 01:26 08.01.2020
4699 Clear 25 1007 25 10000 1.5 360 00:42 08.01.2020
4700 Clear 26 1007 25 10000 1.5 360 00:21 08.01.2020
4701 Clear 26 1007 27 10000 2.1 270 23:44 07.01.2020
4702 Clear 27 1007 27 10000 2.1 270 23:20 07.01.2020
4703 Clear 27 1007 24 10000 3.6 270 22:41 07.01.2020
4704 Clear 27 1007 24 10000 3.6 270 22:21 07.01.2020
4705 Clear 28 1008 20 10000 4.1 270 21:57 07.01.2020
4706 Clear 28 1008 20 10000 4.1 270 21:39 07.01.2020
4707 Clear 28 1008 20 10000 4.1 270 21:21 07.01.2020
4708 Clear 28 1008 20 10000 4.1 270 21:21 07.01.2020
4709 Clear 28 1008 21 10000 4.6 250 20:57 07.01.2020
4710 Clear 28 1008 21 10000 4.6 250 20:38 07.01.2020
4711 Clear 27 1008 21 10000 4.6 250 20:20 07.01.2020
4712 Clear 27 1008 26 10000 5.7 270 19:55 07.01.2020
4713 Clear 27 1008 26 10000 5.7 270 19:36 07.01.2020
4714 Clear 27 1008 26 10000 5.7 270 19:18 07.01.2020
4715 Clear 27 1008 26 10000 5.7 270 19:18 07.01.2020
4716 Clear 27 1009 36 10000 7.7 270 18:55 07.01.2020
4717 Clear 27 1009 36 10000 7.7 270 18:36 07.01.2020
4718 Clear 27 1009 36 10000 7.7 270 18:18 07.01.2020
4719 Clear 26 1009 36 10000 7.7 270 17:40 07.01.2020
4720 Clear 26 1009 36 10000 7.7 270 17:22 07.01.2020
4721 Clouds 26 1009 41 10000 6.7 270 16:57 07.01.2020
4722 Clouds 26 1009 41 10000 6.7 270 16:38 07.01.2020
4723 Clouds 26 1009 41 10000 6.7 270 16:38 07.01.2020
4724 Clouds 26 1009 41 10000 6.7 270 16:38 07.01.2020
4725 Clouds 26 1009 41 10000 6.7 270 16:19 07.01.2020
4726 Clouds 25 1009 27 10000 6.2 260 15:58 07.01.2020
4727 Clouds 25 1009 27 10000 6.2 260 15:40 07.01.2020
4728 Clouds 25 1009 27 10000 6.2 260 15:22 07.01.2020
4729 Clouds 24 1009 44 10000 6.2 270 14:55 07.01.2020
4730 Clouds 25 1009 44 10000 6.2 270 14:37 07.01.2020
4731 Clouds 24 1009 44 10000 6.2 270 14:18 07.01.2020
4732 Clear 24 1009 50 10000 5.1 270 13:40 07.01.2020
4733 Clear 23 1009 50 10000 5.1 270 13:19 07.01.2020
4734 Clear 22 1009 60 10000 2.1 340 12:42 07.01.2020
4735 Clear 22 1009 60 10000 2.1 340 12:42 07.01.2020
4736 Clear 22 1009 60 10000 2.1 340 12:21 07.01.2020
4737 Clear 21 1009 53 10000 1 330 11:58 07.01.2020
4738 Clear 21 1009 53 10000 1 330 11:38 07.01.2020
4739 Clear 21 1009 53 10000 1 330 11:20 07.01.2020
4740 Clear 18 1008 77 10000 7.77 239 10:42 07.01.2020
4741 Clear 18 1008 77 10000 7.77 239 10:42 07.01.2020
4742 Clear 17 1008 77 10000 7.77 239 10:24 07.01.2020
4743 Clouds 17 1008 77 10000 7.77 239 09:59 07.01.2020
4744 Clouds 17 1008 77 10000 7.77 239 09:38 07.01.2020
4745 Clouds 17 1008 77 10000 7.77 239 09:20 07.01.2020
4746 Clouds 18 1007 68 10000 7.77 239 08:46 07.01.2020
4747 Clouds 18 1007 68 10000 7.77 239 08:26 07.01.2020
4748 Clouds 19 1007 63 10000 7.52 240 07:54 07.01.2020
4749 Clouds 19 1007 63 10000 7.52 240 07:29 07.01.2020
4750 Clouds 19 1007 72 10000 1 0 06:54 07.01.2020
4751 Clouds 19 1007 72 10000 1 0 06:54 07.01.2020
4752 Clouds 20 1007 72 10000 1 0 06:35 07.01.2020
4753 Clouds 20 1007 77 10000 1.5 130 05:57 07.01.2020
4754 Clouds 21 1007 77 10000 1.5 130 05:35 07.01.2020
4755 Clouds 22 1005 49 10000 5.7 230 03:29 07.01.2020
4756 Clouds 23 1005 56 10000 2.6 230 02:24 07.01.2020
4757 Clouds 23 1004 56 10000 4.1 220 01:57 07.01.2020
4758 Clouds 23 1004 56 10000 4.1 220 01:32 07.01.2020
4759 Clouds 24 1003 49 10000 3.1 300 00:37 07.01.2020
4760 Clouds 24 1003 49 10000 3.1 300 00:19 07.01.2020
4761 Clouds 25 1002 44 10000 5.7 290 23:55 06.01.2020
4762 Clouds 25 1002 44 10000 5.7 290 23:36 06.01.2020
4763 Clouds 25 1002 44 10000 5.7 290 23:36 06.01.2020
4764 Clouds 25 1002 44 10000 5.7 290 23:18 06.01.2020
4765 Clouds 25 1002 44 10000 7.2 280 22:42 06.01.2020
4766 Clouds 25 1002 44 10000 7.2 280 22:22 06.01.2020
4767 Clouds 25 1002 53 10000 6.2 270 21:57 06.01.2020
4768 Clouds 25 1002 53 10000 6.2 270 21:38 06.01.2020
4769 Clouds 25 1002 53 10000 6.2 270 21:20 06.01.2020
4770 Clouds 25 1002 53 10000 6.2 270 21:20 06.01.2020
4771 Clouds 25 1002 53 10000 6.2 270 21:20 06.01.2020
4772 Clouds 25 1003 60 10000 6.7 280 20:56 06.01.2020
4773 Clouds 25 1003 60 10000 6.7 280 20:38 06.01.2020
4774 Clouds 25 1003 60 10000 6.7 280 20:20 06.01.2020
4775 Clouds 24 1003 60 10000 7.7 270 19:56 06.01.2020
4776 Clouds 24 1003 60 10000 7.7 270 19:38 06.01.2020
4777 Clouds 25 1003 60 10000 7.7 270 19:19 06.01.2020
4778 Clouds 25 1003 60 10000 7.2 270 18:47 06.01.2020
4779 Clouds 25 1003 60 10000 7.2 270 18:47 06.01.2020
4780 Clouds 24 1003 60 10000 7.2 270 18:21 06.01.2020
4781 Clouds 25 1003 57 10000 7.7 270 17:58 06.01.2020
4782 Clouds 24 1003 57 10000 7.7 270 17:38 06.01.2020
4783 Clouds 25 1003 57 10000 7.7 270 17:18 06.01.2020
4784 Clouds 24 1003 53 10000 7.2 270 16:44 06.01.2020
4785 Clouds 24 1003 53 10000 7.2 270 16:25 06.01.2020
4786 Clouds 24 1003 60 10000 6.7 270 15:59 06.01.2020
4787 Clouds 25 1003 60 10000 6.7 270 15:39 06.01.2020
4788 Clouds 24 1003 60 10000 6.7 270 15:19 06.01.2020
4789 Clouds 24 1003 57 10000 6.2 270 14:57 06.01.2020
4790 Rain 25 1003 57 10000 6.2 270 14:39 06.01.2020
4791 Rain 24 1003 57 10000 6.2 270 14:19 06.01.2020
4792 Rain 23 1002 73 10000 1.5 310 13:54 06.01.2020
4793 Clouds 23 1002 73 10000 1.5 310 13:36 06.01.2020
4794 Rain 22 1002 73 10000 1.5 310 13:18 06.01.2020
4795 Rain 21 1002 82 10000 2.6 350 12:41 06.01.2020
4796 Rain 21 1002 82 10000 2.6 350 12:20 06.01.2020
4797 Rain 20 1002 77 10000 1.5 230 11:57 06.01.2020
4798 Rain 20 1002 77 10000 1.5 230 11:38 06.01.2020
4799 Rain 20 1002 77 10000 1.5 230 11:20 06.01.2020
4800 Rain 21 1003 66 0 0.89 209 10:45 06.01.2020
4801 Rain 21 1014 66 0 0.89 228 10:27 06.01.2020
4802 Rain 20 1015 75 0 0.89 238 09:59 06.01.2020
4803 Rain 21 1015 70 0 2.68 237 09:37 06.01.2020
4804 Rain 21 1015 74 0 1.79 255 09:19 06.01.2020
4805 Rain 21 1003 77 0 2.24 256 08:43 06.01.2020
4806 Rain 21 1003 76 0 2.24 222 08:24 06.01.2020
4807 Rain 23 1014 75 0 2.24 7 07:51 06.01.2020
4808 Rain 23 1014 73 0 1.79 9 07:26 06.01.2020
4809 Rain 22 1012 68 0 1.79 13 06:45 06.01.2020
4810 Rain 22 1013 69 0 0.89 64 06:19 06.01.2020
4811 Rain 23 1001 65 0 3.13 19 05:42 06.01.2020
4812 Clouds 24 1001 53 10000 7.2 50 04:33 06.01.2020
4813 Clouds 24 1001 53 10000 7.2 50 03:59 06.01.2020
4814 Clouds 25 1000 60 10000 7.7 60 02:46 06.01.2020
4815 Clouds 24 1000 60 10000 7.7 60 02:23 06.01.2020
4816 Clouds 24 1013 65 0 1.79 70 01:43 06.01.2020
4817 Clouds 24 1001 57 10000 6.2 120 01:21 06.01.2020
4818 Clouds 24 1001 57 10000 6.2 120 00:41 06.01.2020
4819 Clouds 25 1001 57 10000 6.2 120 00:20 06.01.2020
4820 Clouds 25 1001 50 10000 5.1 130 23:41 05.01.2020
4821 Clouds 25 1001 50 10000 5.1 130 23:22 05.01.2020
4822 Clouds 26 1002 57 10000 5.1 130 22:56 05.01.2020
4823 Clouds 26 1002 57 10000 5.1 130 22:37 05.01.2020
4824 Clouds 26 1002 57 10000 5.1 130 22:19 05.01.2020
4825 Clouds 26 1002 57 10000 5.1 130 22:19 05.01.2020
4826 Clouds 27 1003 54 10000 6.7 120 21:54 05.01.2020
4827 Clouds 27 1003 54 10000 6.7 120 21:36 05.01.2020
4828 Clouds 27 1003 54 10000 6.7 120 21:18 05.01.2020
4829 Clouds 27 1003 54 10000 6.7 120 21:18 05.01.2020
4830 Clouds 27 1003 54 10000 6.7 120 20:54 05.01.2020
4831 Clouds 26 1003 54 10000 6.7 120 20:36 05.01.2020
4832 Clouds 26 1003 54 10000 6.7 120 20:36 05.01.2020
4833 Clouds 27 1003 54 10000 6.7 120 20:18 05.01.2020
4834 Clouds 26 1004 58 10000 6.2 160 19:41 05.01.2020
4835 Clouds 26 1004 58 10000 6.2 160 19:21 05.01.2020
4836 Clouds 28 1005 55 10000 5.1 170 18:57 05.01.2020
4837 Clouds 28 1005 55 10000 5.1 170 18:38 05.01.2020
4838 Clouds 28 1005 55 10000 5.1 170 18:20 05.01.2020
4839 Clouds 28 1006 48 10000 3.1 160 17:59 05.01.2020
4840 Clouds 28 1006 48 10000 3.1 160 17:39 05.01.2020
4841 Clouds 28 1006 48 10000 3.1 160 17:20 05.01.2020
4842 Clouds 27 1007 58 10000 2.6 10 16:57 05.01.2020
4843 Clouds 27 1007 58 10000 2.6 10 16:39 05.01.2020
4844 Clouds 27 1007 58 10000 2.6 10 16:20 05.01.2020
4845 Clouds 27 1007 54 10000 2.6 360 15:41 05.01.2020
4846 Clouds 27 1007 54 10000 2.6 360 15:22 05.01.2020
4847 Clouds 26 1007 57 10000 3.6 360 14:58 05.01.2020
4848 Clouds 27 1007 57 10000 3.6 360 14:40 05.01.2020
4849 Clouds 26 1007 57 10000 3.6 360 14:22 05.01.2020
4850 Clouds 25 1008 60 10000 3.6 30 13:59 05.01.2020
4851 Clouds 25 1008 60 10000 3.6 30 13:39 05.01.2020
4852 Clouds 24 1008 60 10000 3.6 30 13:20 05.01.2020
4853 Clouds 23 1012 77 10000 3.6 30 12:57 05.01.2020
4854 Clouds 22 1012 77 10000 3.6 30 12:38 05.01.2020
4855 Clouds 22 1012 77 10000 3.6 30 12:20 05.01.2020
4856 Clouds 20 1011 77 10000 2.1 130 11:55 05.01.2020
4857 Clear 22 1008 77 10000 3.6 20 11:36 05.01.2020
4858 Clear 22 1008 77 10000 3.6 20 11:36 05.01.2020
4859 Clear 20 1008 77 10000 3.6 20 11:18 05.01.2020
4860 Clear 20 1008 77 10000 3.1 30 10:41 05.01.2020
4861 Clear 20 1008 77 10000 3.1 30 10:20 05.01.2020
4862 Clear 20 1008 77 10000 3.1 30 09:57 05.01.2020
4863 Clear 19 1008 77 10000 3.1 30 09:38 05.01.2020
4864 Clear 19 1008 77 10000 3.1 30 09:38 05.01.2020
4865 Clear 19 1008 77 10000 3.1 30 09:20 05.01.2020
4866 Clear 20 1008 77 10000 3.6 30 08:45 05.01.2020
4867 Clear 21 1008 77 10000 3.6 30 08:21 05.01.2020
4868 Clear 21 1008 77 10000 4.1 30 07:47 05.01.2020
4869 Clear 21 1008 77 10000 4.1 30 07:29 05.01.2020
4870 Clear 20 1008 77 10000 2.6 20 06:55 05.01.2020
4871 Clear 20 1008 77 10000 3.6 40 05:43 05.01.2020
4872 Clear 22 1009 73 10000 4.1 50 04:56 05.01.2020
4873 Clear 22 1009 73 10000 4.1 50 04:19 05.01.2020
4874 Clear 22 1010 77 10000 3.1 100 03:40 05.01.2020
4875 Clear 21 1010 77 10000 4.1 120 02:36 05.01.2020
4876 Clear 21 1010 77 10000 4.1 120 02:36 05.01.2020
4877 Clear 21 1010 77 10000 4.1 120 02:18 05.01.2020
4878 Clear 22 1010 73 10000 4.6 120 01:21 05.01.2020
4879 Clear 22 1010 64 10000 6.2 120 00:58 05.01.2020
4880 Clear 22 1010 64 10000 6.2 120 00:39 05.01.2020
4881 Clear 23 1010 64 10000 6.2 120 00:20 05.01.2020
4882 Clear 23 1011 60 10000 5.7 130 23:58 04.01.2020
4883 Clear 23 1011 60 10000 5.7 130 23:38 04.01.2020
4884 Clear 24 1011 60 10000 5.7 130 23:18 04.01.2020
4885 Clouds 24 1011 57 10000 6.2 120 22:39 04.01.2020
4886 Clouds 24 1011 57 10000 6.2 120 22:20 04.01.2020
4887 Clouds 25 1011 57 10000 6.2 130 21:56 04.01.2020
4888 Clouds 25 1011 57 10000 6.2 130 21:37 04.01.2020
4889 Clouds 25 1011 57 10000 6.2 130 21:19 04.01.2020
4890 Clouds 25 1012 47 10000 6.2 150 20:56 04.01.2020
4891 Clouds 25 1012 47 10000 6.2 150 20:37 04.01.2020
4892 Clouds 25 1012 47 10000 6.2 150 20:18 04.01.2020
4893 Clouds 25 1013 57 10000 7.2 120 19:41 04.01.2020
4894 Clouds 25 1013 57 10000 7.2 120 19:23 04.01.2020
4895 Clouds 25 1014 57 10000 6.2 120 18:58 04.01.2020
4896 Clouds 25 1014 57 10000 6.2 120 18:39 04.01.2020
4897 Clouds 25 1014 57 10000 6.2 120 18:20 04.01.2020
4898 Clouds 26 1015 47 10000 2.1 10 17:56 04.01.2020
4899 Clouds 26 1015 47 10000 2.1 10 17:38 04.01.2020
4900 Clouds 25 1015 47 10000 2.1 10 17:20 04.01.2020
4901 Clouds 25 1016 57 10000 4.1 30 16:42 04.01.2020
4902 Clouds 25 1016 57 10000 4.1 30 16:24 04.01.2020
4903 Clouds 25 1017 60 10000 3.6 40 15:57 04.01.2020
4904 Clouds 25 1017 60 10000 3.6 40 15:39 04.01.2020
4905 Clouds 25 1017 60 10000 3.6 40 15:19 04.01.2020
4906 Clouds 24 1018 69 10000 5.1 50 14:56 04.01.2020
4907 Clouds 24 1018 69 10000 5.1 50 14:38 04.01.2020
4908 Clouds 24 1018 69 10000 5.1 50 14:19 04.01.2020
4909 Clouds 24 1018 69 10000 5.1 50 14:19 04.01.2020
4910 Clouds 24 1018 69 10000 5.1 50 14:19 04.01.2020
4911 Clouds 24 1018 69 10000 5.1 50 14:19 04.01.2020
4912 Clouds 23 1018 73 10000 5.1 60 13:55 04.01.2020
4913 Clouds 23 1018 73 10000 5.1 60 13:36 04.01.2020
4914 Clouds 23 1018 73 10000 5.1 60 13:18 04.01.2020
4915 Clear 21 1018 72 10000 5.1 50 12:41 04.01.2020
4916 Clear 20 1018 72 10000 5.1 50 12:20 04.01.2020
4917 Clear 19 1018 77 10000 4.1 60 11:58 04.01.2020
4918 Clear 19 1018 77 10000 4.1 60 11:39 04.01.2020
4919 Clear 18 1018 77 10000 4.1 60 11:19 04.01.2020
4920 Clear 17 1017 87 10000 2.1 110 10:55 04.01.2020
4921 Clear 16 1017 87 10000 2.1 110 10:36 04.01.2020
4922 Clear 16 1017 87 10000 2.1 110 10:18 04.01.2020
4923 Clear 17 1017 82 10000 1.5 40 09:41 04.01.2020
4924 -273 0 0 0 0 0 09:22 04.01.2020
4925 Clear 17 1017 82 10000 1.5 40 08:42 04.01.2020
4926 Clear 17 1017 82 10000 1.5 40 08:21 04.01.2020
4927 Clear 17 1017 77 10000 2.1 50 07:44 04.01.2020
4928 Clear 17 1017 77 10000 2.1 50 07:21 04.01.2020
4929 Clear 18 1017 77 10000 2.6 50 06:33 04.01.2020
4930 Clear 18 1018 77 10000 3.6 60 05:39 04.01.2020
4931 Clear 21 1018 64 10000 3.1 70 04:44 04.01.2020
4932 Clear 21 1018 64 10000 3.1 70 04:25 04.01.2020
4933 Clear 22 1019 60 10000 4.6 80 03:19 04.01.2020
4934 Clouds 22 1018 60 10000 5.7 90 02:23 04.01.2020
4935 Clouds 22 1018 68 10000 7.2 100 01:56 04.01.2020
4936 Clouds 22 1018 68 10000 7.2 100 01:32 04.01.2020
4937 Clouds 23 1018 68 10000 8.7 120 00:46 04.01.2020
4938 Clouds 23 1018 68 10000 8.7 120 00:27 04.01.2020
4939 Clouds 23 1018 57 10000 7.7 110 23:48 03.01.2020
4940 Clouds 23 1018 57 10000 7.7 110 23:26 03.01.2020
4941 Clouds 24 1018 61 10000 7.2 120 22:54 03.01.2020
4942 Clouds 24 1018 61 10000 7.2 120 22:36 03.01.2020
4943 Clouds 24 1018 61 10000 7.2 120 22:18 03.01.2020
4944 Clouds 25 1018 61 10000 7.2 120 21:54 03.01.2020
4945 Clouds 25 1018 61 10000 7.2 120 21:36 03.01.2020
4946 Clouds 25 1018 61 10000 7.2 120 21:18 03.01.2020
4947 Clouds 25 1019 57 10000 7.2 120 20:42 03.01.2020
4948 Clouds 25 1019 57 10000 7.2 120 20:19 03.01.2020
4949 Clouds 25 1020 57 10000 7.2 120 19:58 03.01.2020
4950 Clouds 25 1020 57 10000 7.2 120 19:39 03.01.2020
4951 Clouds 25 1020 57 10000 7.2 120 19:21 03.01.2020
4952 Clouds 25 1020 61 10000 6.2 110 18:44 03.01.2020
4953 Clouds 24 1020 61 10000 6.2 110 18:26 03.01.2020
4954 Clear 24 1021 69 10000 6.2 130 17:57 03.01.2020
4955 Clear 24 1021 69 10000 6.2 130 17:38 03.01.2020
4956 Clear 25 1021 69 10000 6.2 130 17:19 03.01.2020
4957 Clouds 24 1022 61 10000 4.1 110 16:43 03.01.2020
4958 Clouds 25 1022 61 10000 4.1 110 16:24 03.01.2020
4959 Clouds 24 1022 61 10000 4.1 120 15:58 03.01.2020
4960 Clouds 24 1022 61 10000 4.1 120 15:40 03.01.2020
4961 Clouds 24 1022 61 10000 4.1 120 15:18 03.01.2020
4962 Clouds 24 1022 64 10000 4.1 90 14:39 03.01.2020
4963 Clouds 24 1022 64 10000 4.1 90 14:20 03.01.2020
4964 Clouds 23 1022 73 10000 4.1 100 13:56 03.01.2020
4965 Clouds 23 1022 73 10000 4.1 100 13:37 03.01.2020
4966 Clouds 23 1022 73 10000 4.1 100 13:19 03.01.2020
4967 Clouds 22 1023 83 10000 5.1 100 12:39 03.01.2020
4968 Clouds 21 1023 83 10000 5.1 100 12:21 03.01.2020
4969 Clouds 20 1022 88 10000 3.1 110 11:49 03.01.2020
4970 Clouds 20 1022 88 10000 3.1 110 11:30 03.01.2020
4971 Clouds 18 1021 82 10000 3.1 110 10:47 03.01.2020
4972 Clouds 18 1021 82 10000 3.1 110 10:28 03.01.2020
4973 Clouds 17 1021 82 10000 4.6 100 09:59 03.01.2020
4974 Clouds 17 1021 82 10000 4.6 100 09:41 03.01.2020
4975 Clouds 16 1021 82 10000 4.6 100 09:22 03.01.2020
4976 Clouds 17 1020 82 10000 4.1 100 08:57 03.01.2020
4977 Clouds 17 1020 82 10000 4.1 100 08:39 03.01.2020
4978 Clouds 17 1020 82 10000 4.1 100 08:20 03.01.2020
4979 Clouds 17 1020 82 10000 4.1 110 07:41 03.01.2020
4980 Clouds 17 1020 82 10000 4.1 110 07:19 03.01.2020
4981 Clouds 18 1020 82 10000 5.1 120 06:54 03.01.2020
4982 Clouds 18 1020 82 10000 5.1 120 06:35 03.01.2020
4983 Clouds 18 1020 72 10000 5.7 100 05:47 03.01.2020
4984 Clouds 19 1020 72 10000 7.2 110 04:31 03.01.2020
4985 Clouds 19 1020 72 10000 6.7 100 03:18 03.01.2020
4986 Clouds 19 1020 72 10000 8.2 100 02:45 03.01.2020
4987 Clouds 20 1020 77 10000 7.7 110 01:47 03.01.2020
4988 Clouds 21 1019 73 10000 10.3 120 00:56 03.01.2020
4989 Clouds 22 1019 73 10000 10.3 120 00:32 03.01.2020
4990 Clouds 22 1019 73 10000 7.2 110 23:58 02.01.2020
4991 Clouds 22 1019 73 10000 7.2 110 23:39 02.01.2020
4992 Clouds 22 1019 73 10000 7.2 110 23:19 02.01.2020
4993 Clouds 22 1018 69 10000 8.2 120 22:58 02.01.2020
4994 Clouds 22 1018 69 10000 8.2 120 22:39 02.01.2020
4995 Clouds 23 1018 69 10000 8.2 120 22:19 02.01.2020
4996 Clouds 23 1018 73 10000 8.2 110 21:54 02.01.2020
4997 Clouds 23 1018 73 10000 8.2 110 21:36 02.01.2020
4998 Clouds 23 1018 73 10000 8.2 110 21:36 02.01.2020
4999 Clouds 23 1018 73 10000 8.2 110 21:18 02.01.2020
5000 Clouds 24 1018 69 10000 7.7 120 20:40 02.01.2020
5001 Clouds 24 1018 69 10000 7.7 120 20:21 02.01.2020
5002 Clouds 24 1019 64 10000 7.7 130 19:56 02.01.2020
5003 Clouds 24 1019 64 10000 7.7 130 19:56 02.01.2020
5004 Clouds 24 1019 64 10000 7.7 130 19:38 02.01.2020
5005 Clouds 24 1019 64 10000 7.7 130 19:19 02.01.2020
5006 Clouds 24 1019 64 10000 8.2 120 18:59 02.01.2020
5007 Clouds 24 1019 64 10000 8.2 120 18:40 02.01.2020
5008 Clouds 24 1019 64 10000 8.2 120 18:22 02.01.2020
5009 Clouds 24 1019 64 10000 8.2 120 18:22 02.01.2020
5010 Clouds 24 1019 64 10000 6.7 110 17:57 02.01.2020
5011 Clouds 24 1019 64 10000 6.7 110 17:37 02.01.2020
5012 Clouds 24 1019 64 10000 6.7 110 17:19 02.01.2020
5013 Clouds 23 1019 69 10000 7.2 120 16:57 02.01.2020
5014 Clouds 23 1019 69 10000 7.2 120 16:38 02.01.2020
5015 Clouds 23 1019 69 10000 7.2 120 16:38 02.01.2020
5016 Clouds 23 1019 69 10000 7.2 120 16:20 02.01.2020
5017 Clouds 23 1019 69 10000 6.2 120 15:56 02.01.2020
5018 Clouds 23 1019 69 10000 6.2 120 15:37 02.01.2020
5019 Clouds 23 1019 73 10000 6.7 120 15:19 02.01.2020
5020 Clouds 23 1019 73 10000 6.7 120 14:54 02.01.2020
5021 Clouds 22 1019 73 10000 6.7 120 14:36 02.01.2020
5022 Clouds 22 1019 73 10000 6.7 120 14:18 02.01.2020
5023 Clouds 22 1019 77 10000 6.7 110 13:47 02.01.2020
5024 Clouds 22 1019 77 10000 6.7 110 13:29 02.01.2020
5025 Clouds 22 1018 77 10000 6.2 120 12:44 02.01.2020
5026 Clouds 21 1017 82 10000 4.6 120 12:24 02.01.2020
5027 Clouds 20 1017 82 10000 4.6 120 11:43 02.01.2020
5028 Clouds 20 1017 82 10000 4.6 120 11:25 02.01.2020
5029 Clouds 20 1017 77 10000 6.7 130 10:57 02.01.2020
5030 Clouds 20 1017 77 10000 6.7 130 10:38 02.01.2020
5031 Clouds 19 1017 77 10000 6.7 130 10:19 02.01.2020
5032 Clouds 19 1016 82 10000 5.1 130 09:41 02.01.2020
5033 Clouds 19 1016 82 10000 5.1 130 09:22 02.01.2020
5034 Clouds 19 1016 82 10000 5.1 130 08:44 02.01.2020
5035 Clouds 19 1016 82 10000 5.1 130 08:25 02.01.2020
5036 Clouds 19 1015 77 10000 6.2 140 07:49 02.01.2020
5037 Clouds 19 1015 77 10000 6.2 140 07:30 02.01.2020
5038 Clouds 19 1015 77 10000 6.2 130 06:44 02.01.2020
5039 Clouds 19 1015 77 10000 6.2 130 06:26 02.01.2020
5040 Clouds 20 1015 82 10000 5.1 130 04:41 02.01.2020
5041 Clouds 20 1015 82 10000 5.1 130 04:21 02.01.2020
5042 Clouds 21 1016 77 10000 5.1 140 02:28 02.01.2020
5043 Clouds 20 1015 82 10000 6.2 160 01:58 02.01.2020
5044 Clouds 20 1015 82 10000 6.2 160 01:32 02.01.2020
5045 Clouds 21 1014 82 10000 6.7 170 00:53 02.01.2020
5046 Clouds 21 1014 82 10000 6.7 170 00:33 02.01.2020
5047 Rain 21 1014 88 10000 6.7 160 23:49 01.01.2020
5048 Rain 21 1014 88 10000 6.7 160 23:26 01.01.2020
5049 Rain 21 1014 77 8000 6.2 160 22:56 01.01.2020
5050 Rain 21 1014 77 8000 6.2 160 22:37 01.01.2020
5051 Rain 22 1014 83 10000 5.7 150 22:19 01.01.2020
5052 Clouds 22 1013 73 10000 6.7 150 21:55 01.01.2020
5053 Clouds 22 1013 73 10000 6.7 150 21:37 01.01.2020
5054 Clouds 22 1013 73 10000 6.7 150 21:18 01.01.2020
5055 Clouds 22 1014 78 10000 7.7 160 20:42 01.01.2020
5056 Clouds 22 1014 78 10000 7.7 160 20:22 01.01.2020
5057 Clouds 23 1014 73 10000 5.7 150 19:58 01.01.2020
5058 Clouds 23 1014 73 10000 5.7 150 19:40 01.01.2020
5059 Clouds 23 1014 73 10000 5.7 150 19:21 01.01.2020
5060 Clouds 23 1014 69 10000 8.2 170 18:59 01.01.2020
5061 Clouds 23 1014 69 10000 8.2 170 18:39 01.01.2020
5062 Clouds 23 1014 69 10000 8.2 170 18:20 01.01.2020
5063 Clouds 23 1013 69 10000 7.2 150 17:59 01.01.2020
5064 Clouds 23 1013 69 10000 7.2 150 17:40 01.01.2020
5065 Clouds 23 1013 69 10000 7.2 150 17:20 01.01.2020
5066 Clouds 23 1014 64 10000 6.2 140 16:59 01.01.2020
5067 Clouds 23 1014 64 10000 6.2 140 16:59 01.01.2020
5068 Clouds 24 1014 64 10000 6.2 140 16:38 01.01.2020
5069 Clouds 23 1014 64 10000 6.2 140 16:20 01.01.2020
5070 Clouds 23 1013 73 10000 7.7 150 15:57 01.01.2020
5071 Clouds 23 1013 73 10000 7.7 150 15:38 01.01.2020
5072 Clouds 23 1013 73 10000 7.7 150 15:20 01.01.2020
5073 Clouds 22 1013 73 10000 7.2 160 14:56 01.01.2020
5074 Clouds 22 1013 73 10000 7.2 160 14:38 01.01.2020
5075 Clouds 22 1013 73 10000 7.2 160 14:19 01.01.2020
5076 Clouds 22 1012 73 10000 7.2 140 13:55 01.01.2020
5077 Clouds 22 1012 73 10000 7.2 140 13:55 01.01.2020
5078 Clouds 22 1012 73 10000 7.2 140 13:37 01.01.2020
5079 Clouds 22 1012 73 10000 7.2 140 13:18 01.01.2020
5080 Clouds 22 1012 83 10000 7.7 150 12:55 01.01.2020
5081 Clouds 22 1012 83 10000 7.7 150 12:36 01.01.2020
5082 Clouds 22 1012 83 10000 7.7 150 12:18 01.01.2020
5083 Clouds 21 1011 88 10000 5.1 150 11:42 01.01.2020
5084 Clouds 21 1011 88 10000 5.1 150 11:21 01.01.2020
5085 Clouds 21 1011 77 10000 6.7 170 10:57 01.01.2020
5086 Clouds 21 1011 77 10000 6.7 170 10:38 01.01.2020
5087 Clouds 20 1011 77 10000 6.7 170 10:19 01.01.2020
5088 Clouds 21 1010 88 10000 6.2 170 09:42 01.01.2020
5089 Clouds 21 1010 88 10000 6.2 170 09:22 01.01.2020
5090 Clouds 21 1009 88 10000 7.7 150 08:57 01.01.2020
5091 Clouds 21 1009 88 10000 7.7 150 08:39 01.01.2020
5092 Clouds 21 1009 88 10000 7.7 150 08:20 01.01.2020
5093 Clouds 21 1009 88 10000 6.7 150 07:58 01.01.2020
5094 Clouds 21 1009 88 10000 6.7 150 07:40 01.01.2020
5095 Clouds 21 1009 88 10000 6.7 150 07:20 01.01.2020
5096 Clouds 21 1009 94 10000 6.2 150 06:40 01.01.2020
5097 Clouds 21 1009 94 10000 6.2 150 06:18 01.01.2020
5098 Clouds 21 1009 88 10000 7.2 140 04:36 01.01.2020
5099 Clouds 21 1008 94 10000 6.2 150 03:40 01.01.2020
5100 Clouds 21 1008 94 10000 6.2 150 03:21 01.01.2020
5101 Clouds 21 1008 94 10000 7.7 150 02:43 01.01.2020
5102 Clouds 21 1008 94 10000 7.7 150 02:24 01.01.2020
5103 Clouds 21 1008 94 10000 6.7 150 01:45 01.01.2020
5104 Clouds 21 1008 94 10000 6.7 150 01:23 01.01.2020
5105 Clouds 21 1007 94 10000 6.2 160 00:45 01.01.2020
5106 Drizzle 22 1007 88 2000 7.7 170 00:26 01.01.2020
5107 Drizzle 22 1007 88 3000 7.7 160 23:58 31.12.2019
5108 Drizzle 22 1006 88 3000 7.7 160 23:38 31.12.2019
5109 Drizzle 22 1006 88 3000 7.7 160 23:18 31.12.2019
5110 Mist 22 1005 88 5000 6.7 160 22:56 31.12.2019
5111 Mist 22 1005 88 5000 6.7 160 22:37 31.12.2019
5112 Mist 22 1005 88 5000 6.7 160 22:18 31.12.2019
5113 Clouds 23 1004 83 10000 7.7 170 21:43 31.12.2019
5114 Clouds 24 1004 83 10000 7.7 170 21:25 31.12.2019
5115 Clouds 24 1004 83 10000 6.7 160 20:57 31.12.2019
5116 Clouds 25 1004 83 10000 6.7 160 20:39 31.12.2019
5117 Clouds 25 1004 83 10000 6.7 160 20:21 31.12.2019
5118 Clouds 25 1004 88 10000 5.1 220 19:58 31.12.2019
5119 Clouds 25 1004 88 10000 5.1 220 19:40 31.12.2019
5120 Clouds 25 1004 88 10000 5.1 220 19:22 31.12.2019
5121 Clouds 26 1004 74 10000 3.1 300 18:57 31.12.2019
5122 Clouds 26 1004 74 10000 3.1 300 18:38 31.12.2019
5123 Clouds 26 1004 74 10000 3.1 300 18:38 31.12.2019
5124 Clouds 27 1004 74 10000 3.1 300 18:19 31.12.2019
5125 Clouds 26 1004 88 8000 4.1 350 17:56 31.12.2019
5126 Clouds 25 1004 88 8000 4.1 350 17:56 31.12.2019
5127 Clouds 26 1004 88 8000 4.1 350 17:36 31.12.2019
5128 Clouds 26 1004 88 8000 4.1 350 17:18 31.12.2019
5129 Clouds 26 1004 88 8000 4.1 350 17:18 31.12.2019
5130 Clouds 26 1004 83 5000 4.1 10 16:56 31.12.2019
5131 Drizzle 25 1004 88 6000 4.1 330 16:37 31.12.2019
5132 Drizzle 25 1004 88 6000 4.1 330 16:18 31.12.2019
5133 Clouds 25 1004 94 10000 4.6 10 15:56 31.12.2019
5134 Clouds 25 1004 94 10000 4.6 10 15:38 31.12.2019
5135 Drizzle 25 1005 88 2000 5.1 360 15:19 31.12.2019
5136 Drizzle 24 1005 94 2000 5.1 20 14:55 31.12.2019
5137 Rain 23 1005 94 5000 5.1 20 14:37 31.12.2019
5138 Rain 23 1005 94 5000 5.1 20 14:18 31.12.2019
5139 Drizzle 23 1005 94 3000 4.6 40 13:56 31.12.2019
5140 Rain 23 1005 94 3000 6.2 40 13:38 31.12.2019
5141 Rain 23 1005 94 3000 6.2 40 13:19 31.12.2019
5142 Rain 22 1006 94 3000 2.1 60 12:55 31.12.2019
5143 Rain 22 1006 94 3000 2.1 60 12:37 31.12.2019
5144 Rain 22 1006 94 3000 2.1 60 12:18 31.12.2019
5145 Rain 22 1006 94 3000 4.6 330 11:55 31.12.2019
5146 Rain 22 1006 94 3000 4.6 330 11:37 31.12.2019
5147 Rain 22 1006 94 3000 4.6 330 11:19 31.12.2019
5148 Rain 22 1006 94 3000 4.6 330 11:19 31.12.2019
5149 Rain 22 1005 100 4000 1 0 10:56 31.12.2019
5150 Rain 22 1005 100 4000 1 0 10:37 31.12.2019
5151 Rain 22 1005 100 4000 1 0 10:19 31.12.2019
5152 Rain 22 1005 100 5000 1.5 100 09:57 31.12.2019
5153 Rain 22 1005 100 5000 1.5 100 09:57 31.12.2019
5154 Rain 22 1005 100 5000 1.5 100 09:38 31.12.2019
5155 Rain 22 1005 100 5000 1.5 100 09:19 31.12.2019
5156 Rain 22 1005 94 5000 2.1 60 08:42 31.12.2019
5157 Rain 22 1005 94 5000 2.1 60 08:23 31.12.2019
5158 Rain 22 1006 88 7000 3.1 50 07:58 31.12.2019
5159 Rain 22 1006 88 7000 3.1 50 07:40 31.12.2019
5160 Rain 22 1006 88 7000 3.1 50 07:19 31.12.2019
5161 Rain 22 1007 88 5000 3.1 50 06:41 31.12.2019
5162 Clouds 23 1007 88 10000 4.6 60 05:45 31.12.2019
5163 Clouds 23 1008 94 10000 2.1 80 04:27 31.12.2019
5164 Clouds 23 1008 94 10000 4.1 60 03:27 31.12.2019
5165 Rain 22 1008 94 10000 3.6 80 02:39 31.12.2019
5166 Clouds 22 1008 94 10000 5.1 110 01:53 31.12.2019
5167 Clouds 22 1008 94 10000 5.1 110 01:34 31.12.2019
5168 Rain 22 1007 100 5000 2.6 140 00:56 31.12.2019
5169 Rain 22 1007 100 5000 2.6 140 00:37 31.12.2019
5170 Rain 22 1007 100 5000 2.6 140 00:18 31.12.2019
5171 Rain 22 1008 100 6000 4.6 130 23:55 30.12.2019
5172 Rain 22 1008 100 6000 4.6 130 23:37 30.12.2019
5173 Rain 22 1008 100 6000 4.6 130 23:18 30.12.2019
5174 Rain 23 1008 100 3000 3.6 150 22:56 30.12.2019
5175 Rain 23 1008 100 3000 3.6 150 22:37 30.12.2019
5176 Rain 23 1008 100 3000 3.6 150 22:18 30.12.2019
5177 Thunderstorm 23 1010 78 3000 3.1 260 21:55 30.12.2019
5178 Thunderstorm 23 1010 78 3000 3.1 260 21:37 30.12.2019
5179 Thunderstorm 23 1010 78 3000 3.1 260 21:18 30.12.2019
5180 Thunderstorm 23 1008 78 10000 6.2 130 20:56 30.12.2019
5181 Thunderstorm 24 1008 78 10000 6.2 130 20:37 30.12.2019
5182 Thunderstorm 25 1008 78 10000 6.2 130 20:19 30.12.2019
5183 Thunderstorm 25 1009 78 10000 7.97 120 19:55 30.12.2019
5184 Thunderstorm 25 1008 69 10000 6.2 120 19:37 30.12.2019
5185 Thunderstorm 26 1008 69 10000 6.2 120 19:18 30.12.2019
5186 Clouds 26 1009 69 10000 6.2 110 18:56 30.12.2019
5187 Clouds 27 1009 69 10000 6.2 110 18:36 30.12.2019
5188 Clouds 27 1009 69 10000 6.2 110 18:18 30.12.2019
5189 Clouds 27 1010 62 10000 6.2 120 17:54 30.12.2019
5190 Clouds 27 1010 62 10000 6.2 120 17:36 30.12.2019
5191 Clouds 27 1010 62 10000 6.2 120 17:18 30.12.2019
5192 Clouds 27 1010 62 10000 4.6 100 16:41 30.12.2019
5193 Clouds 27 1010 62 10000 4.6 100 16:20 30.12.2019
5194 Clear 27 1011 62 10000 4.6 100 15:57 30.12.2019
5195 Clear 27 1011 62 10000 4.6 100 15:39 30.12.2019
5196 Clear 27 1011 62 10000 4.6 100 15:19 30.12.2019
5197 Clear 27 1011 62 10000 4.6 100 15:19 30.12.2019
5198 Clear 26 1011 69 10000 5.1 110 14:55 30.12.2019
5199 Clear 26 1011 69 10000 5.1 110 14:37 30.12.2019
5200 Clear 26 1011 69 10000 5.1 110 14:37 30.12.2019
5201 Clouds 26 1011 69 10000 5.1 110 14:18 30.12.2019
5202 Clouds 25 1012 73 10000 5.7 110 13:42 30.12.2019
5203 Clouds 25 1012 73 10000 5.7 110 13:24 30.12.2019
5204 Clouds 24 1012 78 10000 5.1 100 12:59 30.12.2019
5205 Clouds 24 1012 78 10000 5.1 100 12:41 30.12.2019
5206 Clouds 24 1012 78 10000 5.1 100 12:19 30.12.2019
5207 Clouds 24 1010 83 10000 5.1 110 11:58 30.12.2019
5208 Clouds 23 1010 83 10000 5.1 110 11:39 30.12.2019
5209 Clouds 24 1010 83 10000 5.1 110 11:18 30.12.2019
5210 Clouds 23 1012 88 10000 5.1 120 10:43 30.12.2019
5211 Clouds 22 1012 88 10000 5.1 120 10:21 30.12.2019
5212 Clouds 22 1011 88 10000 4.1 120 09:55 30.12.2019
5213 Clouds 22 1011 88 10000 4.1 120 09:37 30.12.2019
5214 Clouds 22 1011 88 10000 4.1 120 09:18 30.12.2019
5215 Clouds 22 1011 88 10000 4.6 110 08:46 30.12.2019
5216 Clouds 22 1011 88 10000 4.6 110 08:23 30.12.2019
5217 Clouds 22 1011 88 10000 4.6 120 07:53 30.12.2019
5218 Clouds 22 1011 88 10000 4.6 120 07:33 30.12.2019
5219 Clouds 22 1012 78 10000 3.1 130 06:50 30.12.2019
5220 Clouds 24 1012 69 10000 2.6 90 04:50 30.12.2019
5221 Clouds 24 1013 73 10000 4.1 110 03:52 30.12.2019
5222 Clouds 24 1012 73 10000 5.1 120 02:47 30.12.2019
5223 Clouds 24 1012 73 10000 5.1 120 02:47 30.12.2019
5224 Clouds 24 1012 73 10000 5.1 120 02:29 30.12.2019
5225 Clouds 25 1012 73 10000 5.1 130 01:47 30.12.2019
5226 Clouds 25 1012 73 10000 5.1 130 01:19 30.12.2019
5227 Clouds 25 1011 78 10000 3.1 150 00:42 30.12.2019
5228 Clouds 25 1011 69 10000 6.7 120 23:59 29.12.2019
5229 Clouds 26 1011 69 10000 6.7 120 23:38 29.12.2019
5230 Clouds 26 1011 69 10000 6.7 120 23:20 29.12.2019
5231 Clouds 27 1011 62 10000 5.7 110 22:42 29.12.2019
5232 Clouds 27 1011 62 10000 5.7 110 22:22 29.12.2019
5233 -273 0 0 0 0 0 22:22 29.12.2019
5234 Clouds 28 1011 48 10000 5.1 130 21:57 29.12.2019
5235 Clouds 28 1011 48 10000 5.1 130 21:39 29.12.2019
5236 Clouds 27 1011 48 10000 5.1 130 21:20 29.12.2019
5237 Clouds 29 1012 43 10000 4.6 150 20:57 29.12.2019
5238 Clouds 28 1012 43 10000 4.6 150 20:38 29.12.2019
5239 Clouds 29 1012 43 10000 4.6 150 20:20 29.12.2019
5240 Clouds 29 1012 46 10000 4.6 160 19:58 29.12.2019
5241 Clouds 29 1012 46 10000 4.6 160 19:39 29.12.2019
5242 Clouds 29 1012 46 10000 4.6 160 19:20 29.12.2019
5243 Clouds 29 1012 41 10000 2.6 140 18:56 29.12.2019
5244 Clouds 29 1012 41 10000 2.6 140 18:38 29.12.2019
5245 Clouds 29 1012 41 10000 2.6 140 18:19 29.12.2019
5246 Clouds 29 1013 46 10000 2.6 150 17:57 29.12.2019
5247 Clouds 29 1013 46 10000 2.6 150 17:38 29.12.2019
5248 Clouds 29 1013 46 10000 2.6 150 17:20 29.12.2019
5249 Clouds 28 1013 52 10000 2.6 110 16:56 29.12.2019
5250 Clouds 28 1013 52 10000 2.6 110 16:37 29.12.2019
5251 Clouds 28 1013 52 10000 2.6 110 16:19 29.12.2019
5252 Clouds 28 1013 55 10000 2.6 60 15:56 29.12.2019
5253 Clouds 27 1013 55 10000 2.6 60 15:38 29.12.2019
5254 Clouds 27 1013 55 10000 2.6 60 15:19 29.12.2019
5255 Clouds 27 1013 62 10000 3.6 100 14:55 29.12.2019
5256 Clouds 27 1013 62 10000 3.6 100 14:37 29.12.2019
5257 Clouds 27 1013 62 10000 3.6 100 14:18 29.12.2019
5258 Clouds 26 1013 61 10000 4.6 100 13:55 29.12.2019
5259 Clouds 26 1013 61 10000 4.6 100 13:55 29.12.2019
5260 Clouds 26 1013 61 10000 4.6 100 13:37 29.12.2019
5261 Clouds 26 1013 61 10000 4.6 100 13:18 29.12.2019
5262 Clouds 26 1013 61 10000 4.6 100 13:18 29.12.2019
5263 Clouds 26 1013 69 10000 3.6 110 12:43 29.12.2019
5264 Clouds 26 1013 69 10000 3.6 110 12:25 29.12.2019
5265 Clouds 26 1013 69 10000 3.6 110 12:25 29.12.2019
5266 Clouds 25 1012 78 10000 3.1 100 11:56 29.12.2019
5267 Clouds 25 1012 78 10000 3.1 100 11:38 29.12.2019
5268 Clear 24 1012 78 10000 3.1 100 11:20 29.12.2019
5269 Clear 24 1012 88 10000 2.1 130 10:42 29.12.2019
5270 Clear 23 1012 88 10000 2.1 130 10:23 29.12.2019
5271 Clear 22 1011 88 10000 2.1 140 09:57 29.12.2019
5272 Clear 22 1011 88 10000 2.1 140 09:38 29.12.2019
5273 Clear 22 1011 88 10000 2.1 140 09:20 29.12.2019
5274 Clear 22 1011 83 10000 2.1 150 08:47 29.12.2019
5275 Clouds 22 1011 83 10000 2.1 150 08:24 29.12.2019
5276 Clouds 22 1011 78 10000 0.5 0 07:55 29.12.2019
5277 Clouds 22 1011 78 10000 0.5 0 07:28 29.12.2019
5278 Clouds 22 1012 78 10000 1.5 140 06:55 29.12.2019
5279 Clouds 22 1012 78 10000 1.5 140 06:25 29.12.2019
5280 Clouds 22 1012 69 10000 2.6 30 05:51 29.12.2019
5281 Clouds 22 1012 88 10000 0.5 0 04:36 29.12.2019
5282 Clouds 23 1012 69 10000 3.24 76 03:51 29.12.2019
5283 Clouds 23 1012 69 10000 3.24 76 03:20 29.12.2019
5284 Clouds 24 1012 78 10000 3.66 145 02:20 29.12.2019
5285 Clouds 24 1012 78 10000 1.5 40 01:31 29.12.2019
5286 Clouds 24 1012 78 10000 1.5 40 01:31 29.12.2019
5287 Clouds 25 1012 73 10000 1.5 60 00:58 29.12.2019
5288 Clouds 25 1012 73 10000 1.5 60 00:40 29.12.2019
5289 Clouds 26 1012 73 10000 1.5 60 00:21 29.12.2019
5290 Clouds 26 1011 58 10000 3.1 120 23:43 28.12.2019
5291 Clouds 27 1011 58 10000 3.1 120 23:18 28.12.2019
5292 Clouds 30 1010 35 10000 3.6 130 22:39 28.12.2019
5293 Clouds 30 1010 35 10000 3.6 130 22:39 28.12.2019
5294 Clouds 30 1010 35 10000 3.6 130 22:20 28.12.2019
5295 Clouds 28 1010 58 10000 3.1 210 21:58 28.12.2019
5296 Clouds 28 1010 58 10000 3.1 210 21:39 28.12.2019
5297 Clouds 28 1010 58 10000 3.1 210 21:21 28.12.2019
5298 Clouds 28 1010 58 10000 3.1 360 20:57 28.12.2019
5299 Clouds 28 1010 58 10000 3.1 360 20:37 28.12.2019
5300 Clouds 28 1010 58 10000 3.1 360 20:37 28.12.2019
5301 Rain 28 1010 58 10000 3.1 360 20:19 28.12.2019
5302 Rain 28 1011 66 10000 5.1 30 19:57 28.12.2019
5303 Rain 28 1011 66 10000 5.1 30 19:39 28.12.2019
5304 Rain 28 1011 66 10000 5.1 30 19:20 28.12.2019
5305 Rain 27 1012 78 10000 6.2 80 18:57 28.12.2019
5306 Rain 27 1012 78 10000 6.2 80 18:39 28.12.2019
5307 Rain 26 1012 78 10000 6.2 80 18:18 28.12.2019
5308 Clouds 24 1014 88 10000 6.2 120 17:54 28.12.2019
5309 Clouds 25 1014 88 10000 6.2 120 17:36 28.12.2019
5310 Clouds 24 1014 88 10000 6.2 120 17:18 28.12.2019
5311 Thunderstorm 22 1014 94 8000 4.98 161 16:45 28.12.2019
5312 Thunderstorm 22 1014 94 8000 4.98 161 16:24 28.12.2019
5313 Rain 22 1014 88 2500 4.98 161 15:44 28.12.2019
5314 Clouds 23 1014 88 800 12.9 190 15:23 28.12.2019
5315 Rain 27 1012 58 5000 4.98 161 14:57 28.12.2019
5316 Rain 27 1012 58 5000 4.98 161 14:38 28.12.2019
5317 Clouds 30 1011 66 10000 5.1 330 14:20 28.12.2019
5318 Rain 29 1011 70 10000 6.2 350 13:43 28.12.2019
5319 Rain 29 1011 70 10000 6.2 350 13:22 28.12.2019
5320 Rain 27 1010 78 10000 5.1 360 12:59 28.12.2019
5321 Rain 27 1010 78 10000 5.1 360 12:41 28.12.2019
5322 Rain 27 1010 78 10000 5.1 360 12:22 28.12.2019
5323 Rain 26 1009 83 10000 5.1 360 11:54 28.12.2019
5324 Rain 26 1009 83 10000 5.1 360 11:36 28.12.2019
5325 Rain 26 1009 83 10000 5.1 360 11:18 28.12.2019
5326 Rain 26 1008 88 10000 4.1 20 10:41 28.12.2019
5327 Rain 25 1008 88 10000 4.1 20 10:20 28.12.2019
5328 Rain 25 1009 88 10000 4.1 20 09:55 28.12.2019
5329 Rain 25 1009 88 10000 4.1 20 09:37 28.12.2019
5330 Rain 25 1009 88 10000 4.1 20 09:18 28.12.2019
5331 Rain 25 1009 88 10000 4.1 20 09:18 28.12.2019
5332 Rain 25 1010 88 10000 3.1 20 08:43 28.12.2019
5333 Rain 25 1010 88 10000 3.1 20 08:25 28.12.2019
5334 Rain 26 1010 83 10000 2.1 40 07:49 28.12.2019
5335 Rain 26 1010 83 10000 2.1 40 07:27 28.12.2019
5336 Rain 26 1011 73 10000 2.6 80 05:53 28.12.2019
5337 Rain 25 1012 73 10000 4.6 100 03:52 28.12.2019
5338 Rain 25 1012 73 10000 4.6 100 03:33 28.12.2019
5339 Rain 26 1012 69 10000 5.7 110 02:43 28.12.2019
5340 Clear 26 1011 61 10000 5.1 110 01:59 28.12.2019
5341 Clear 25 1011 61 10000 5.1 110 01:25 28.12.2019
5342 Clouds 25 1011 65 10000 6.7 110 00:51 28.12.2019
5343 Clouds 26 1011 65 10000 6.7 110 00:32 28.12.2019
5344 Clouds 26 1011 61 10000 7.2 110 23:59 27.12.2019
5345 Clouds 26 1011 61 10000 7.2 110 23:41 27.12.2019
5346 Clouds 26 1011 61 10000 7.2 110 23:19 27.12.2019
5347 Clouds 27 1011 61 10000 7.7 120 22:57 27.12.2019
5348 Clouds 27 1011 61 10000 7.7 120 22:57 27.12.2019
5349 Clouds 27 1011 61 10000 7.7 120 22:38 27.12.2019
5350 Clouds 27 1011 61 10000 7.7 120 22:38 27.12.2019
5351 Clouds 27 1011 61 10000 7.7 120 22:20 27.12.2019
5352 Clouds 27 1011 58 10000 6.2 140 21:54 27.12.2019
5353 Clouds 28 1011 58 10000 6.2 140 21:36 27.12.2019
5354 Clouds 28 1011 58 10000 6.2 140 21:18 27.12.2019
5355 Clouds 27 1012 61 10000 7.2 130 20:40 27.12.2019
5356 Clouds 28 1012 61 10000 7.2 130 20:21 27.12.2019
5357 Clouds 28 1012 58 10000 6.2 140 19:42 27.12.2019
5358 Clouds 28 1012 58 10000 6.2 140 19:20 27.12.2019
5359 Clouds 28 1013 55 10000 2.1 140 18:59 27.12.2019
5360 Clouds 28 1013 55 10000 2.1 140 18:38 27.12.2019
5361 Clouds 28 1013 55 10000 2.1 140 18:20 27.12.2019
5362 Clouds 28 1014 62 10000 2.6 90 17:57 27.12.2019
5363 Clouds 28 1014 62 10000 2.6 90 17:39 27.12.2019
5364 Clouds 28 1014 62 10000 2.6 90 17:19 27.12.2019
5365 Rain 27 1014 65 10000 3.6 120 16:58 27.12.2019
5366 Rain 27 1014 65 10000 3.6 120 16:38 27.12.2019
5367 Rain 27 1014 65 10000 3.6 120 16:19 27.12.2019
5368 Rain 26 1014 69 10000 1.5 0 15:44 27.12.2019
5369 Rain 26 1014 69 10000 1.5 0 15:22 27.12.2019
5370 Rain 25 1014 88 10000 1 0 14:57 27.12.2019
5371 Rain 25 1014 88 10000 1 0 14:39 27.12.2019
5372 Rain 24 1014 88 10000 1 0 14:20 27.12.2019
5373 Rain 23 1015 88 10000 1 0 13:48 27.12.2019
5374 Rain 23 1015 88 10000 1 0 13:25 27.12.2019
5375 Rain 23 1015 88 10000 1 0 13:25 27.12.2019
5376 Rain 23 1015 88 10000 2.6 320 12:58 27.12.2019
5377 Rain 23 1015 88 10000 2.6 320 12:40 27.12.2019
5378 Rain 23 1015 88 10000 2.6 320 12:21 27.12.2019
5379 Thunderstorm 22 1014 94 8000 4.1 360 11:45 27.12.2019
5380 Thunderstorm 22 1014 94 8000 4.1 360 11:26 27.12.2019
5381 Clouds 22 1014 88 10000 1 0 10:58 27.12.2019
5382 Clouds 22 1014 88 10000 1 0 10:39 27.12.2019
5383 Clouds 22 1014 88 10000 1 0 10:21 27.12.2019
5384 Rain 21 1014 88 10000 2.1 10 09:43 27.12.2019
5385 Rain 22 1014 88 10000 2.1 10 09:21 27.12.2019
5386 Rain 22 1013 88 10000 1.5 30 08:59 27.12.2019
5387 Rain 22 1013 88 10000 1.5 30 08:36 27.12.2019
5388 Rain 22 1012 88 10000 2.6 40 07:52 27.12.2019
5389 Rain 22 1012 88 10000 2.6 40 07:33 27.12.2019
5390 Rain 23 1013 83 10000 2.6 50 06:38 27.12.2019
5391 Rain 23 1014 83 10000 3.1 40 05:38 27.12.2019
5392 Clouds 22 1014 88 10000 0.5 0 03:47 27.12.2019
5393 Clouds 22 1013 88 10000 5.7 110 02:23 27.12.2019
5394 Clouds 22 1012 88 8000 7.2 110 01:42 27.12.2019
5395 Clouds 22 1012 88 8000 7.2 110 01:20 27.12.2019
5396 Clouds 22 1013 88 7000 6.7 120 00:44 27.12.2019
5397 Clouds 22 1013 88 7000 6.7 120 00:24 27.12.2019
5398 Clouds 22 1013 88 10000 8.2 110 23:42 26.12.2019
5399 Clouds 22 1013 88 10000 8.2 110 23:23 26.12.2019
5400 Clouds 22 1013 94 10000 8.2 110 22:57 26.12.2019
5401 Clouds 22 1013 94 10000 8.2 110 22:37 26.12.2019
5402 Clouds 22 1013 94 10000 8.2 110 22:18 26.12.2019
5403 Clouds 22 1014 88 10000 7.2 120 21:39 26.12.2019
5404 Clouds 22 1014 88 10000 7.2 120 21:39 26.12.2019
5405 Clouds 22 1014 88 10000 7.2 120 21:21 26.12.2019
5406 Clouds 23 1014 73 8000 7.2 140 20:47 26.12.2019
5407 Clouds 23 1014 73 8000 7.2 140 20:24 26.12.2019
5408 Clouds 23 1014 69 10000 7.2 120 19:59 26.12.2019
5409 Clouds 24 1014 69 10000 7.2 120 19:40 26.12.2019
5410 Clouds 25 1014 69 10000 7.2 120 19:22 26.12.2019
5411 Clouds 25 1015 73 10000 7.2 130 18:59 26.12.2019
5412 Clouds 25 1015 73 10000 7.2 130 18:40 26.12.2019
5413 Clouds 25 1015 61 10000 5.1 110 18:20 26.12.2019
5414 Clouds 25 1015 61 10000 6.2 100 17:58 26.12.2019
5415 Clouds 26 1015 61 10000 6.2 100 17:40 26.12.2019
5416 Clouds 26 1015 61 10000 6.2 100 17:19 26.12.2019
5417 Clouds 25 1015 65 10000 5.1 120 16:46 26.12.2019
5418 Clouds 25 1015 65 10000 5.1 120 16:26 26.12.2019
5419 Clouds 25 1015 61 10000 4.1 100 15:56 26.12.2019
5420 Clouds 25 1015 61 10000 4.1 100 15:38 26.12.2019
5421 Clouds 24 1015 61 10000 4.1 100 15:18 26.12.2019
5422 Clouds 24 1015 61 10000 4.1 100 15:18 26.12.2019
5423 Clouds 23 1016 73 10000 4.1 140 14:41 26.12.2019
5424 Clouds 23 1016 73 10000 4.1 140 14:23 26.12.2019
5425 Clouds 22 1016 78 10000 4.1 90 13:45 26.12.2019
5426 Clouds 21 1016 78 10000 4.1 90 13:24 26.12.2019
5427 Clouds 21 1016 73 10000 3.1 90 12:59 26.12.2019
5428 Clouds 21 1016 73 10000 3.1 90 12:59 26.12.2019
5429 Clouds 21 1016 73 10000 3.1 90 12:40 26.12.2019
5430 Clouds 21 1016 73 10000 3.1 90 12:21 26.12.2019
5431 Clouds 20 1016 82 10000 3.1 120 11:58 26.12.2019
5432 Clouds 20 1016 82 10000 3.1 120 11:58 26.12.2019
5433 Clouds 19 1016 82 10000 3.1 120 11:40 26.12.2019
5434 Clouds 19 1016 82 10000 3.1 120 11:20 26.12.2019
5435 Clouds 19 1016 72 10000 3.1 110 10:49 26.12.2019
5436 Clouds 17 1016 72 10000 3.1 110 10:24 26.12.2019
5437 Clouds 17 1016 72 10000 3.6 110 09:54 26.12.2019
5438 Clouds 17 1016 72 10000 3.6 110 09:32 26.12.2019
5439 Clouds 17 1016 72 10000 3.6 120 08:58 26.12.2019
5440 Clouds 17 1016 72 10000 3.6 120 08:39 26.12.2019
5441 Clouds 18 1016 72 10000 3.6 120 08:20 26.12.2019
5442 Clouds 18 1016 68 10000 5.1 100 07:35 26.12.2019
5443 Clouds 19 1016 72 10000 5.1 110 06:57 26.12.2019
5444 Clouds 18 1016 72 10000 5.1 110 06:37 26.12.2019
5445 Clouds 18 1016 72 10000 5.1 110 06:19 26.12.2019
5446 Clouds 18 1017 68 10000 4.6 120 05:40 26.12.2019
5447 Clouds 18 1017 72 10000 5.7 130 04:32 26.12.2019
5448 Clouds 17 1017 77 10000 6.2 130 03:31 26.12.2019
5449 Rain 16 1017 82 10000 5.7 140 02:46 26.12.2019
5450 Rain 16 1017 82 10000 5.7 140 02:25 26.12.2019
5451 Rain 17 1017 82 6000 5.1 160 01:44 26.12.2019
5452 Rain 17 1016 77 8000 7.2 120 01:24 26.12.2019
5453 Rain 17 1015 68 10000 7.2 130 00:43 26.12.2019
5454 Clouds 18 1015 59 10000 7.7 140 00:22 26.12.2019
5455 Clouds 18 1015 77 10000 9.3 150 23:57 25.12.2019
5456 Clouds 19 1015 77 10000 9.3 150 23:36 25.12.2019
5457 Clouds 19 1015 77 10000 9.3 150 23:18 25.12.2019
5458 Clouds 20 1015 60 10000 5.1 180 22:55 25.12.2019
5459 Clouds 20 1015 60 10000 5.1 180 22:37 25.12.2019
5460 Clouds 20 1015 60 10000 5.1 180 22:18 25.12.2019
5461 Clouds 22 1014 56 10000 6.2 180 21:41 25.12.2019
5462 Clouds 22 1014 56 10000 6.2 180 21:23 25.12.2019
5463 Clouds 23 1014 47 10000 7.2 180 20:59 25.12.2019
5464 Clouds 23 1014 47 10000 7.2 180 20:40 25.12.2019
5465 Clouds 23 1014 47 10000 7.2 180 20:19 25.12.2019
5466 Clouds 24 1015 33 10000 10.3 180 19:57 25.12.2019
5467 Clouds 24 1015 33 10000 10.3 180 19:39 25.12.2019
5468 Clouds 24 1015 33 10000 10.3 180 19:21 25.12.2019
5469 Clouds 25 1014 32 10000 6.2 150 18:39 25.12.2019
5470 Clouds 25 1014 32 10000 6.2 150 18:20 25.12.2019
5471 Clouds 25 1015 34 10000 8.2 150 17:57 25.12.2019
5472 Clouds 25 1015 34 10000 8.2 150 17:36 25.12.2019
5473 Clouds 25 1015 34 10000 8.2 150 17:18 25.12.2019
5474 Clear 24 1015 33 10000 8.2 180 16:39 25.12.2019
5475 Clear 24 1015 33 10000 8.2 180 16:20 25.12.2019
5476 Clouds 23 1015 31 10000 6.2 150 15:58 25.12.2019
5477 Clouds 23 1015 31 10000 6.2 150 15:40 25.12.2019
5478 Clouds 24 1015 31 10000 6.2 150 15:21 25.12.2019
5479 Clouds 24 1015 46 10000 7.7 180 14:59 25.12.2019
5480 Clouds 24 1015 46 10000 7.7 180 14:40 25.12.2019
5481 Clouds 24 1015 46 10000 7.7 180 14:22 25.12.2019
5482 Clouds 23 1015 49 10000 10.3 180 13:57 25.12.2019
5483 Clouds 23 1015 49 10000 10.3 180 13:39 25.12.2019
5484 Clouds 23 1015 49 10000 10.3 180 13:19 25.12.2019
5485 Clouds 22 1014 56 10000 10.3 180 12:43 25.12.2019
5486 Clouds 22 1014 56 10000 10.3 180 12:21 25.12.2019
5487 Clouds 21 1013 56 10000 8.2 180 11:57 25.12.2019
5488 Clouds 21 1013 56 10000 8.2 180 11:39 25.12.2019
5489 Clouds 21 1013 56 10000 8.2 180 11:19 25.12.2019
5490 Clouds 21 1012 60 10000 7.2 190 10:39 25.12.2019
5491 Clouds 21 1012 60 10000 7.2 190 10:21 25.12.2019
5492 Clear 21 1011 64 10000 8.2 170 09:51 25.12.2019
5493 Clear 21 1011 64 10000 8.2 170 09:33 25.12.2019
5494 Clear 21 1010 68 10000 8.2 170 08:51 25.12.2019
5495 Clear 21 1010 68 10000 8.2 170 08:51 25.12.2019
5496 Clear 21 1010 68 10000 8.2 170 08:31 25.12.2019
5497 Clear 21 1009 73 10000 8.2 190 07:59 25.12.2019
5498 Clear 21 1009 73 10000 8.2 190 07:37 25.12.2019
5499 Clear 21 1009 73 10000 8.2 190 07:19 25.12.2019
5500 Clear 21 1008 73 10000 7.2 180 06:23 25.12.2019
5501 Clear 21 1008 52 10000 8.2 200 05:43 25.12.2019
5502 Clear 21 1006 43 10000 2.6 20 04:39 25.12.2019
5503 Clear 21 1006 43 10000 2.6 20 04:20 25.12.2019
5504 Clear 22 1006 40 10000 3.6 350 03:43 25.12.2019
5505 Clear 22 1005 36 10000 2.6 360 02:57 25.12.2019
5506 Clear 24 1005 36 10000 2.6 360 02:28 25.12.2019
5507 Clear 25 1005 31 10000 3.1 350 01:36 25.12.2019
5508 Clear 25 1005 31 10000 3.1 350 01:18 25.12.2019
5509 Clear 28 1004 24 10000 3.1 10 00:40 25.12.2019
5510 Clear 31 1004 24 10000 3.1 10 00:22 25.12.2019
5511 Clear 31 1004 24 10000 3.1 10 00:22 25.12.2019
5512 Clear 32 1003 21 10000 6.7 340 23:39 24.12.2019
5513 Clear 32 1003 21 10000 6.7 340 23:20 24.12.2019
5514 Clear 33 1003 17 10000 6.2 320 22:42 24.12.2019
5515 Clear 33 1003 17 10000 6.2 320 22:23 24.12.2019
5516 Clear 34 1003 18 10000 7.2 320 21:59 24.12.2019
5517 Clear 34 1003 18 10000 7.2 320 21:40 24.12.2019
5518 Clear 34 1003 18 10000 7.2 320 21:19 24.12.2019
5519 Clear 34 1004 18 10000 8.2 320 20:42 24.12.2019
5520 Clear 34 1004 18 10000 8.2 320 20:22 24.12.2019
5521 Clear 34 1004 20 10000 7.7 320 19:49 24.12.2019
5522 Clear 34 1004 20 10000 7.7 320 19:22 24.12.2019
5523 Clear 33 1005 22 10000 7.7 350 18:59 24.12.2019
5524 Clear 33 1005 22 10000 7.7 350 18:40 24.12.2019
5525 Clear 33 1005 22 10000 7.7 350 18:18 24.12.2019
5526 Clear 32 1006 24 10000 9.3 350 17:44 24.12.2019
5527 Clear 32 1006 24 10000 9.3 350 17:22 24.12.2019
5528 Clear 31 1006 25 10000 7.7 340 16:58 24.12.2019
5529 Clear 31 1006 25 10000 7.7 340 16:39 24.12.2019
5530 Clear 30 1006 25 10000 7.7 340 16:21 24.12.2019
5531 Clear 29 1007 30 10000 8.2 340 15:57 24.12.2019
5532 Clear 29 1007 30 10000 8.2 340 15:37 24.12.2019
5533 Clear 29 1007 30 10000 8.2 340 15:19 24.12.2019
5534 Clear 28 1008 34 10000 9.3 350 14:58 24.12.2019
5535 Clear 28 1008 34 10000 9.3 350 14:39 24.12.2019
5536 Clouds 27 1008 34 10000 9.3 350 14:21 24.12.2019
5537 Clouds 27 1008 34 10000 9.3 350 14:21 24.12.2019
5538 Clouds 26 1009 38 10000 7.7 340 13:56 24.12.2019
5539 Clouds 26 1009 38 10000 7.7 340 13:38 24.12.2019
5540 Clouds 26 1009 38 10000 7.7 340 13:19 24.12.2019
5541 Clouds 23 1009 49 10000 5.1 350 12:56 24.12.2019
5542 Clouds 22 1009 49 10000 5.1 350 12:38 24.12.2019
5543 Clouds 22 1009 49 10000 5.1 350 12:19 24.12.2019
5544 Clouds 22 1009 49 10000 5.1 350 12:19 24.12.2019
5545 Clouds 19 1009 63 10000 5.1 360 11:56 24.12.2019
5546 Clouds 18 1009 63 10000 5.1 360 11:37 24.12.2019
5547 Clouds 18 1009 63 10000 5.1 360 11:19 24.12.2019
5548 Clouds 18 1009 71 10000 4.1 360 10:56 24.12.2019
5549 Clouds 18 1009 71 10000 4.1 360 10:56 24.12.2019
5550 Clouds 18 1009 71 10000 4.1 360 10:56 24.12.2019
5551 Clouds 17 1009 71 10000 4.1 360 10:38 24.12.2019
5552 Clouds 16 1009 71 10000 4.1 360 10:19 24.12.2019
5553 Clouds 15 1009 67 10000 4.6 20 09:55 24.12.2019
5554 Clouds 15 1009 67 10000 4.6 20 09:37 24.12.2019
5555 Clouds 15 1009 67 10000 4.6 20 09:19 24.12.2019
5556 Clouds 16 1009 63 10000 2.1 20 08:46 24.12.2019
5557 Clear 16 1009 63 10000 2.1 20 08:24 24.12.2019
5558 Clouds 16 1009 59 10000 2.6 20 07:46 24.12.2019
5559 Clouds 17 1009 59 10000 2.6 20 07:27 24.12.2019
5560 Clouds 17 1009 55 10000 3.1 40 06:59 24.12.2019
5561 Clouds 17 1009 55 10000 3.1 40 06:39 24.12.2019
5562 Clouds 17 1009 55 10000 3.1 40 06:19 24.12.2019
5563 Clouds 18 1010 52 10000 2.6 30 05:49 24.12.2019
5564 Clear 18 1010 52 10000 2.6 30 05:18 24.12.2019
5565 Clear 20 1010 37 10000 3.1 30 03:55 24.12.2019
5566 Clear 20 1010 37 10000 3.1 30 03:33 24.12.2019
5567 Clear 22 1010 37 10000 3.6 50 02:28 24.12.2019
5568 Clouds 22 1010 38 10000 3.1 60 01:53 24.12.2019
5569 Clouds 22 1010 38 10000 3.1 60 01:23 24.12.2019
5570 Clouds 23 1011 56 10000 3.1 80 00:55 24.12.2019
5571 Clouds 23 1011 56 10000 3.1 80 00:37 24.12.2019
5572 Clouds 24 1011 56 10000 3.1 80 00:19 24.12.2019
5573 Clouds 26 1011 22 10000 1.5 280 23:41 23.12.2019
5574 Clouds 26 1011 22 10000 1.5 280 23:23 23.12.2019
5575 Clouds 27 1011 20 10000 2.1 270 22:56 23.12.2019
5576 Clouds 28 1011 20 10000 2.1 270 22:37 23.12.2019
5577 Clouds 28 1011 20 10000 2.1 270 22:19 23.12.2019
5578 Clouds 27 1012 21 10000 3.1 240 21:55 23.12.2019
5579 Clouds 27 1012 21 10000 3.1 240 21:36 23.12.2019
5580 Clouds 27 1012 21 10000 3.1 240 21:18 23.12.2019
5581 Clouds 27 1012 19 10000 3.6 270 20:57 23.12.2019
5582 Clouds 27 1012 19 10000 3.6 270 20:39 23.12.2019
5583 Clouds 27 1012 19 10000 3.6 270 20:18 23.12.2019
5584 Clouds 27 1013 31 10000 5.1 270 19:56 23.12.2019
5585 Clouds 27 1013 31 10000 5.1 270 19:38 23.12.2019
5586 Clouds 26 1013 31 10000 5.1 270 19:19 23.12.2019
5587 Clouds 27 1013 30 10000 6.2 270 18:58 23.12.2019
5588 Clouds 27 1013 30 10000 6.2 270 18:39 23.12.2019
5589 Clouds 26 1013 30 10000 6.2 270 18:20 23.12.2019
5590 Clouds 26 1014 28 10000 6.2 280 17:57 23.12.2019
5591 Clouds 26 1014 28 10000 6.2 280 17:39 23.12.2019
5592 Clear 26 1014 28 10000 6.2 280 17:19 23.12.2019
5593 Clear 26 1014 28 10000 6.2 280 17:19 23.12.2019
5594 Clear 25 1014 33 10000 7.2 280 16:55 23.12.2019
5595 Clear 25 1014 33 10000 7.2 280 16:37 23.12.2019
5596 Clear 25 1014 33 10000 7.2 280 16:18 23.12.2019
5597 Clear 24 1014 41 10000 5.1 270 15:55 23.12.2019
5598 Clear 24 1014 41 10000 5.1 270 15:36 23.12.2019
5599 Clear 24 1014 41 10000 5.1 270 15:18 23.12.2019
5600 Clear 22 1014 49 10000 4.6 300 14:55 23.12.2019
5601 Clear 22 1014 49 10000 4.6 300 14:36 23.12.2019
5602 Clear 20 1014 49 10000 4.6 300 14:18 23.12.2019
5603 Clear 20 1014 68 10000 3.1 330 13:55 23.12.2019
5604 Clear 20 1014 68 10000 3.1 330 13:37 23.12.2019
5605 Clear 20 1014 68 10000 3.1 330 13:19 23.12.2019
5606 Clear 18 1014 82 10000 3.1 330 12:41 23.12.2019
5607 Clear 17 1014 82 10000 3.1 330 12:21 23.12.2019
5608 Clear 14 1014 82 10000 1.5 330 11:59 23.12.2019
5609 Clear 13 1014 82 10000 1.5 330 11:41 23.12.2019
5610 Clear 13 1014 82 10000 1.5 330 11:22 23.12.2019
5611 Clear 14 1013 93 10000 1.5 360 10:55 23.12.2019
5612 Clear 15 1013 93 10000 1.5 360 10:37 23.12.2019
5613 Clear 15 1013 93 10000 1.5 360 10:37 23.12.2019
5614 Clear 15 1013 93 10000 1.5 360 10:18 23.12.2019
5615 Clouds 14 1013 93 10000 1.5 330 09:56 23.12.2019
5616 Clouds 15 1013 93 10000 1.5 330 09:37 23.12.2019
5617 Clouds 15 1013 93 10000 1.5 330 09:19 23.12.2019
5618 Clear 15 1013 93 10000 1.5 330 08:41 23.12.2019
5619 Clear 15 1013 93 10000 1.5 330 08:22 23.12.2019
5620 Clear 14 1013 93 10000 2.1 310 07:56 23.12.2019
5621 Clear 15 1013 93 10000 2.1 310 07:38 23.12.2019
5622 Clear 15 1013 93 10000 2.1 310 07:18 23.12.2019
5623 Clear 15 1014 87 10000 1.5 350 06:39 23.12.2019
5624 Clear 15 1014 87 10000 1.5 350 06:21 23.12.2019
5625 Clear 16 1014 87 10000 1.5 300 05:44 23.12.2019
5626 Clear 17 1015 72 10000 1.5 230 04:44 23.12.2019
5627 Clear 17 1015 72 10000 2.6 200 03:58 23.12.2019
5628 Clear 16 1015 72 10000 4.1 190 02:47 23.12.2019
5629 Clear 16 1015 72 10000 4.1 190 02:19 23.12.2019
5630 Clear 16 1015 72 10000 4.6 190 01:50 23.12.2019
5631 Clear 16 1015 72 10000 4.6 190 01:31 23.12.2019
5632 Clear 18 1014 72 10000 4.6 190 00:48 23.12.2019
5633 Clear 18 1014 72 10000 4.6 190 00:27 23.12.2019
5634 Clear 19 1014 68 10000 6.2 180 23:57 22.12.2019
5635 Clear 18 1014 68 10000 6.2 180 23:37 22.12.2019
5636 Clear 19 1014 68 10000 6.2 180 23:19 22.12.2019
5637 Clear 19 1014 63 10000 7.2 180 22:55 22.12.2019
5638 Clear 19 1014 63 10000 7.2 180 22:37 22.12.2019
5639 Clear 19 1014 63 10000 7.2 180 22:18 22.12.2019
5640 Clear 20 1014 64 10000 7.7 200 21:54 22.12.2019
5641 Clear 20 1014 64 10000 7.7 200 21:36 22.12.2019
5642 Clear 20 1014 64 10000 7.7 200 21:18 22.12.2019
5643 Clouds 20 1015 52 10000 7.7 200 20:40 22.12.2019
5644 Clouds 20 1015 52 10000 7.7 200 20:19 22.12.2019
5645 Clouds 20 1015 56 10000 7.7 210 19:57 22.12.2019
5646 Clouds 20 1015 56 10000 7.7 210 19:39 22.12.2019
5647 Clouds 20 1015 56 10000 7.7 210 19:20 22.12.2019
5648 Clouds 20 1015 63 10000 7.2 190 18:55 22.12.2019
5649 Clouds 20 1015 63 10000 7.2 190 18:37 22.12.2019
5650 Clouds 20 1015 63 10000 7.2 190 18:18 22.12.2019
5651 Clouds 20 1016 60 10000 7.2 190 17:54 22.12.2019
5652 Clouds 20 1016 60 10000 7.2 190 17:36 22.12.2019
5653 Clouds 20 1016 60 10000 7.2 190 17:18 22.12.2019
5654 Clouds 19 1016 59 10000 5.1 200 16:42 22.12.2019
5655 Clouds 19 1016 59 10000 5.1 200 16:23 22.12.2019
5656 Clouds 19 1015 68 10000 7.7 200 15:57 22.12.2019
5657 Clouds 19 1015 68 10000 7.7 200 15:39 22.12.2019
5658 Clouds 19 1015 68 10000 7.7 200 15:21 22.12.2019
5659 Clouds 19 1014 63 10000 7.2 210 14:57 22.12.2019
5660 Clouds 19 1014 63 10000 7.2 210 14:38 22.12.2019
5661 Clouds 18 1014 63 10000 7.2 210 14:19 22.12.2019
5662 Clouds 18 1015 72 10000 7.2 200 13:56 22.12.2019
5663 Clouds 18 1015 72 10000 7.2 200 13:38 22.12.2019
5664 Clouds 18 1015 72 10000 7.2 200 13:19 22.12.2019
5665 Clouds 18 1014 77 10000 6.7 190 12:57 22.12.2019
5666 Clouds 17 1014 77 10000 6.7 190 12:38 22.12.2019
5667 Clouds 17 1014 77 10000 6.7 190 12:19 22.12.2019
5668 Clouds 17 1013 77 10000 7.7 200 11:56 22.12.2019
5669 Clouds 17 1013 77 10000 7.7 200 11:38 22.12.2019
5670 Clouds 16 1013 77 10000 7.7 200 11:19 22.12.2019
5671 Clouds 17 1012 72 10000 7.2 210 10:56 22.12.2019
5672 Clouds 17 1012 72 10000 7.2 210 10:38 22.12.2019
5673 Clouds 18 1012 72 10000 7.2 210 10:19 22.12.2019
5674 Clouds 17 1011 72 10000 8.2 200 09:57 22.12.2019
5675 Clouds 17 1011 72 10000 8.2 200 09:39 22.12.2019
5676 Clouds 17 1011 72 10000 8.2 200 09:20 22.12.2019
5677 Clouds 17 1010 72 10000 9.3 200 08:42 22.12.2019
5678 Clouds 17 1010 72 10000 9.3 200 08:22 22.12.2019
5679 Clouds 17 1010 77 10000 9.8 200 07:44 22.12.2019
5680 Clouds 17 1010 77 10000 9.8 200 07:21 22.12.2019
5681 Clouds 17 1010 77 10000 8.7 210 06:53 22.12.2019
5682 Clouds 17 1010 77 10000 8.7 210 06:26 22.12.2019
5683 Clouds 17 1010 82 10000 7.2 210 05:33 22.12.2019
5684 Clouds 17 1010 77 10000 8.2 210 04:46 22.12.2019
5685 Clouds 17 1010 77 10000 8.2 210 04:25 22.12.2019
5686 Clouds 17 1010 82 10000 8.2 210 02:46 22.12.2019
5687 Rain 16 1010 87 10000 8.7 210 02:21 22.12.2019
5688 Rain 16 1010 87 10000 8.7 210 01:31 22.12.2019
5689 Rain 17 1009 82 10000 9.8 220 00:56 22.12.2019
5690 Rain 17 1009 82 10000 9.8 220 00:36 22.12.2019
5691 Rain 17 1009 82 10000 9.8 220 00:18 22.12.2019
5692 Rain 17 1010 87 10000 8.2 210 23:40 21.12.2019
5693 Rain 16 1010 87 10000 8.2 210 23:21 21.12.2019
5694 Rain 17 1009 77 10000 7.7 210 22:56 21.12.2019
5695 Rain 17 1009 77 10000 7.7 210 22:37 21.12.2019
5696 Rain 17 1009 77 10000 7.7 210 22:18 21.12.2019
5697 Rain 18 1009 93 10000 9.3 210 21:54 21.12.2019
5698 Rain 18 1009 93 10000 9.3 210 21:36 21.12.2019
5699 Rain 18 1009 93 10000 9.3 210 21:18 21.12.2019
5700 Clouds 19 1008 82 10000 8.7 220 20:55 21.12.2019
5701 Clouds 19 1008 82 10000 8.7 220 20:37 21.12.2019
5702 Clouds 19 1008 82 10000 8.7 220 20:18 21.12.2019
5703 Clouds 18 1008 77 10000 10.3 220 19:55 21.12.2019
5704 Clouds 18 1008 77 10000 10.3 220 19:36 21.12.2019
5705 Clouds 18 1008 77 10000 10.3 220 19:18 21.12.2019
5706 Clouds 18 1008 88 10000 8.2 220 18:40 21.12.2019
5707 Clouds 18 1008 88 10000 8.2 220 18:22 21.12.2019
5708 Drizzle 18 1007 77 9000 10.8 220 17:55 21.12.2019
5709 Drizzle 18 1007 77 9000 10.8 220 17:37 21.12.2019
5710 Drizzle 18 1007 77 9000 10.8 220 17:18 21.12.2019
5711 Drizzle 19 1006 72 7000 9.3 220 16:54 21.12.2019
5712 Drizzle 18 1006 72 7000 9.3 220 16:36 21.12.2019
5713 Drizzle 18 1006 72 7000 9.3 220 16:36 21.12.2019
5714 Drizzle 18 1006 72 7000 9.3 220 16:18 21.12.2019
5715 Drizzle 18 1006 72 6000 8.7 220 15:55 21.12.2019
5716 Clouds 19 1006 68 10000 11.3 210 15:36 21.12.2019
5717 Clouds 19 1006 68 10000 11.3 210 15:18 21.12.2019
5718 Clouds 19 1005 77 0 10.3 210 14:40 21.12.2019
5719 Clouds 19 1005 77 0 10.3 210 14:22 21.12.2019
5720 Drizzle 18 1005 82 6000 10.3 210 13:58 21.12.2019
5721 Drizzle 18 1005 82 6000 10.3 210 13:39 21.12.2019
5722 Drizzle 18 1005 82 6000 10.3 210 13:19 21.12.2019
5723 Drizzle 17 1005 88 8000 9.3 220 12:56 21.12.2019
5724 Drizzle 17 1005 88 8000 9.3 220 12:38 21.12.2019
5725 Drizzle 17 1005 88 8000 9.3 220 12:19 21.12.2019
5726 Drizzle 18 1005 88 4000 9.8 230 11:46 21.12.2019
5727 Rain 18 1005 100 8000 9.3 220 11:27 21.12.2019
5728 Drizzle 18 1004 88 8000 9.8 220 10:58 21.12.2019
5729 Drizzle 18 1004 88 8000 9.8 220 10:39 21.12.2019
5730 Drizzle 18 1004 88 3000 8.7 220 10:21 21.12.2019
5731 Drizzle 18 1003 93 7000 7.2 220 09:57 21.12.2019
5732 Drizzle 18 1003 93 7000 7.2 220 09:39 21.12.2019
5733 Drizzle 18 1003 93 7000 7.2 220 09:19 21.12.2019
5734 Drizzle 18 1003 88 5000 7.2 220 08:47 21.12.2019
5735 Drizzle 19 1002 93 10000 7.2 210 08:26 21.12.2019
5736 Drizzle 19 1002 94 10000 4.6 230 07:47 21.12.2019
5737 Drizzle 19 1002 94 10000 4.6 230 07:23 21.12.2019
5738 Rain 19 1004 100 8000 4.1 240 06:49 21.12.2019
5739 Rain 19 1004 100 8000 4.1 240 06:31 21.12.2019
5740 Drizzle 20 1004 100 3000 1.5 280 05:59 21.12.2019
5741 Clouds 20 1005 94 10000 13.92 176 04:59 21.12.2019
5742 Clouds 20 1005 94 10000 13.92 176 04:34 21.12.2019
5743 Clouds 20 1005 94 10000 13.92 176 03:56 21.12.2019
5744 Rain 20 1005 88 10000 13.92 176 02:23 21.12.2019
5745 Rain 20 1003 94 8000 6.7 100 01:43 21.12.2019
5746 Rain 21 1003 94 8000 6.7 100 01:24 21.12.2019
5747 Rain 21 1006 94 7000 3.1 110 00:40 21.12.2019
5748 Rain 21 1006 94 7000 5.7 90 00:21 21.12.2019
5749 Rain 21 1007 88 6000 2.6 160 23:39 20.12.2019
5750 Rain 21 1007 88 6000 2.6 160 23:20 20.12.2019
5751 Rain 21 1008 88 3000 5.7 200 22:57 20.12.2019
5752 Rain 21 1008 88 3000 5.7 200 22:38 20.12.2019
5753 Rain 21 1008 88 3000 5.7 200 22:18 20.12.2019
5754 Clouds 21 1008 88 10000 7.2 180 21:41 20.12.2019
5755 Clouds 21 1008 88 10000 7.2 180 21:21 20.12.2019
5756 Clouds 21 1007 83 10000 6.2 190 20:59 20.12.2019
5757 Clouds 21 1007 83 10000 6.2 190 20:38 20.12.2019
5758 Rain 21 1007 83 10000 9.3 180 20:19 20.12.2019
5759 Rain 22 1006 88 10000 5.1 190 19:43 20.12.2019
5760 Rain 22 1006 88 10000 5.1 190 19:21 20.12.2019
5761 Rain 22 1006 78 10000 8.2 190 18:58 20.12.2019
5762 Rain 22 1006 78 10000 8.2 190 18:40 20.12.2019
5763 Rain 22 1006 78 10000 8.2 190 18:21 20.12.2019
5764 Thunderstorm 26 1005 69 8000 6.7 140 17:57 20.12.2019
5765 Thunderstorm 26 1005 69 8000 6.7 140 17:39 20.12.2019
5766 Thunderstorm 26 1005 69 8000 6.7 140 17:39 20.12.2019
5767 Thunderstorm 26 1005 69 8000 6.7 140 17:20 20.12.2019
5768 Clouds 28 1006 55 10000 5.1 40 16:56 20.12.2019
5769 Clouds 28 1006 55 10000 5.1 40 16:38 20.12.2019
5770 Clouds 28 1006 55 10000 5.1 40 16:19 20.12.2019
5771 Clouds 28 1008 58 10000 5.1 90 15:54 20.12.2019
5772 Clouds 28 1008 58 10000 5.1 90 15:36 20.12.2019
5773 Clouds 27 1008 58 10000 5.1 90 15:18 20.12.2019
5774 Clouds 27 1009 65 10000 5.1 30 14:42 20.12.2019
5775 Clouds 26 1009 65 10000 5.1 30 14:24 20.12.2019
5776 Clouds 27 1009 65 10000 6.2 40 13:57 20.12.2019
5777 Clouds 26 1009 65 10000 6.2 40 13:37 20.12.2019
5778 Clouds 26 1009 65 10000 6.2 40 13:18 20.12.2019
5779 Clouds 26 1009 65 10000 6.2 40 13:18 20.12.2019
5780 Clouds 25 1010 73 10000 6.2 30 12:55 20.12.2019
5781 Clouds 25 1010 73 10000 6.2 30 12:36 20.12.2019
5782 Clouds 25 1010 73 10000 6.2 30 12:18 20.12.2019
5783 Clouds 24 1009 78 10000 6.2 40 11:57 20.12.2019
5784 Clouds 23 1009 78 10000 6.2 40 11:38 20.12.2019
5785 Clouds 23 1009 78 10000 6.2 40 11:18 20.12.2019
5786 Clouds 22 1009 83 10000 3.1 20 10:55 20.12.2019
5787 Clouds 23 1009 83 10000 3.1 20 10:37 20.12.2019
5788 Clouds 22 1009 83 10000 3.1 20 10:19 20.12.2019
5789 Rain 22 1009 83 10000 2.6 30 09:42 20.12.2019
5790 Rain 22 1009 83 10000 2.6 30 09:21 20.12.2019
5791 Rain 22 1009 83 10000 3.1 40 08:54 20.12.2019
5792 Rain 22 1009 83 10000 3.1 40 08:54 20.12.2019
5793 Rain 22 1009 83 10000 3.1 40 08:36 20.12.2019
5794 Clouds 22 1009 83 10000 3.1 40 08:18 20.12.2019
5795 Clouds 22 1009 78 10000 6.13 12 07:55 20.12.2019
5796 Clouds 22 1009 78 10000 6.13 12 07:36 20.12.2019
5797 Clouds 22 1009 78 10000 6.13 12 07:18 20.12.2019
5798 Clouds 22 1009 83 10000 2.1 110 06:43 20.12.2019
5799 Clouds 22 1009 83 10000 2.1 110 06:25 20.12.2019
5800 Clouds 22 1010 88 10000 2.6 110 05:47 20.12.2019
5801 Clouds 22 1011 88 10000 3.1 130 04:57 20.12.2019
5802 Clouds 23 1011 73 10000 4.1 130 03:48 20.12.2019
5803 Clouds 23 1010 64 10000 5.1 100 02:46 20.12.2019
5804 Clear 23 1010 60 10000 6.2 110 01:59 20.12.2019
5805 Clear 23 1010 60 10000 6.2 110 01:35 20.12.2019
5806 Clear 23 1010 64 10000 5.7 110 00:54 20.12.2019
5807 Clear 24 1010 64 10000 5.7 110 00:35 20.12.2019
5808 Clear 25 1010 42 10000 5.7 120 23:57 19.12.2019
5809 Clear 25 1010 42 10000 5.7 120 23:39 19.12.2019
5810 Clear 25 1010 42 10000 5.7 120 23:19 19.12.2019
5811 Clear 25 1010 42 10000 5.7 120 23:19 19.12.2019
5812 Clear 27 1010 37 10000 7.2 130 22:39 19.12.2019
5813 Clear 27 1010 37 10000 7.2 130 22:21 19.12.2019
5814 Clear 27 1010 30 10000 5.7 120 21:56 19.12.2019
5815 Clear 27 1010 30 10000 5.7 120 21:38 19.12.2019
5816 Clear 28 1010 30 10000 5.7 120 21:19 19.12.2019
5817 Clouds 28 1010 33 10000 6.7 150 20:56 19.12.2019
5818 Clouds 28 1010 33 10000 6.7 150 20:37 19.12.2019
5819 Clouds 28 1010 33 10000 6.7 150 20:19 19.12.2019
5820 Clouds 28 1011 40 10000 6.2 180 19:58 19.12.2019
5821 Clouds 28 1011 40 10000 6.2 180 19:58 19.12.2019
5822 Clouds 28 1011 40 10000 6.2 180 19:39 19.12.2019
5823 Clouds 28 1011 40 10000 6.2 180 19:19 19.12.2019
5824 Clouds 28 1011 40 10000 6.2 180 19:19 19.12.2019
5825 Clouds 28 1011 40 10000 6.2 180 19:19 19.12.2019
5826 Clear 29 1012 40 10000 5.1 180 18:57 19.12.2019
5827 Clear 28 1012 40 10000 5.1 180 18:39 19.12.2019
5828 Clear 28 1012 40 10000 5.1 180 18:19 19.12.2019
5829 Clear 29 1012 31 10000 2.1 120 17:55 19.12.2019
5830 Clear 29 1012 31 10000 2.1 120 17:37 19.12.2019
5831 Clear 28 1012 31 10000 2.1 120 17:18 19.12.2019
5832 Clear 28 1013 39 10000 4.1 350 16:55 19.12.2019
5833 Clear 28 1013 39 10000 4.1 350 16:55 19.12.2019
5834 Clear 28 1013 39 10000 4.1 350 16:37 19.12.2019
5835 Clear 28 1013 39 10000 4.1 350 16:19 19.12.2019
5836 Clear 27 1013 51 10000 4.1 350 15:55 19.12.2019
5837 Clear 27 1013 51 10000 4.1 350 15:37 19.12.2019
5838 Clear 28 1013 51 10000 4.1 350 15:18 19.12.2019
5839 Clear 26 1014 57 10000 5.1 350 14:42 19.12.2019
5840 Clouds 26 1014 57 10000 5.1 350 14:20 19.12.2019
5841 Clouds 24 1014 64 10000 6.2 20 13:58 19.12.2019
5842 Clouds 24 1014 64 10000 6.2 20 13:38 19.12.2019
5843 Clouds 23 1014 64 10000 6.2 20 13:19 19.12.2019
5844 Clouds 22 1014 73 10000 7.2 30 12:57 19.12.2019
5845 Clouds 22 1014 73 10000 7.2 30 12:39 19.12.2019
5846 Clouds 21 1014 73 10000 7.2 30 12:19 19.12.2019
5847 Clouds 21 1014 73 10000 7.2 30 12:19 19.12.2019
5848 Clouds 20 1014 82 10000 7.7 30 11:58 19.12.2019
5849 Clouds 20 1014 82 10000 7.7 30 11:40 19.12.2019
5850 Clouds 20 1014 82 10000 7.7 30 11:18 19.12.2019
5851 Clouds 19 1013 82 10000 4.6 30 10:58 19.12.2019
5852 Clouds 19 1013 82 10000 4.6 30 10:38 19.12.2019
5853 Clouds 18 1013 82 10000 4.6 30 10:20 19.12.2019
5854 Clouds 19 1013 77 10000 4.6 30 09:54 19.12.2019
5855 Clouds 19 1013 77 10000 4.6 30 09:36 19.12.2019
5856 Clouds 19 1013 77 10000 4.6 30 09:18 19.12.2019
5857 Clouds 19 1013 68 10000 5.1 30 08:41 19.12.2019
5858 Clouds 20 1013 68 10000 5.1 30 08:20 19.12.2019
5859 Clouds 20 1012 68 10000 5.7 40 07:59 19.12.2019
5860 Clouds 20 1012 68 10000 5.7 40 07:38 19.12.2019
5861 Clouds 20 1012 68 10000 5.7 40 07:20 19.12.2019
5862 Clouds 21 1013 68 10000 5.1 30 06:50 19.12.2019
5863 Clouds 21 1013 68 10000 5.1 30 06:30 19.12.2019
5864 Clouds 21 1013 68 10000 5.1 40 05:56 19.12.2019
5865 Clouds 21 1013 68 10000 5.1 40 05:36 19.12.2019
5866 Clouds 22 1013 60 10000 5.7 40 04:56 19.12.2019
5867 Clouds 23 1013 47 10000 5.7 40 03:45 19.12.2019
5868 Clouds 25 1013 38 10000 5.7 40 02:24 19.12.2019
5869 Clouds 26 1012 34 10000 2.6 20 01:23 19.12.2019
5870 Clouds 26 1012 32 10000 3.1 20 00:44 19.12.2019
5871 Clouds 29 1012 32 10000 3.1 20 00:24 19.12.2019
5872 Clouds 29 1011 33 10000 5.1 360 23:58 18.12.2019
5873 Clouds 30 1011 33 10000 5.1 360 23:38 18.12.2019
5874 Clouds 30 1011 33 10000 5.1 360 23:19 18.12.2019
5875 Clouds 31 1011 27 10000 6.2 360 22:56 18.12.2019
5876 Clouds 31 1011 27 10000 6.2 360 22:37 18.12.2019
5877 Clouds 31 1011 27 10000 6.2 360 22:19 18.12.2019
5878 Clouds 31 1011 27 10000 7.2 360 21:57 18.12.2019
5879 Clouds 32 1011 27 10000 7.2 360 21:39 18.12.2019
5880 Clouds 31 1011 27 10000 7.2 360 21:19 18.12.2019
5881 Clouds 32 1012 27 10000 7.2 360 20:55 18.12.2019
5882 Clouds 32 1012 27 10000 7.2 360 20:37 18.12.2019
5883 Clouds 32 1012 27 10000 7.2 360 20:37 18.12.2019
5884 Clouds 32 1012 27 10000 7.2 360 20:19 18.12.2019
5885 Clouds 32 1012 29 10000 6.2 350 19:55 18.12.2019
5886 Clouds 32 1012 29 10000 6.2 350 19:37 18.12.2019
5887 Clouds 32 1012 29 10000 6.2 350 19:18 18.12.2019
5888 Clouds 32 1012 29 10000 6.2 350 19:18 18.12.2019
5889 Clouds 32 1013 29 10000 6.2 350 18:44 18.12.2019
5890 Clouds 32 1013 29 10000 6.2 350 18:25 18.12.2019
5891 Clouds 31 1014 33 10000 6.2 340 17:57 18.12.2019
5892 Clouds 31 1014 33 10000 6.2 340 17:39 18.12.2019
5893 Clouds 31 1014 33 10000 6.2 340 17:19 18.12.2019
5894 Clouds 30 1015 40 10000 7.2 360 16:57 18.12.2019
5895 Clouds 30 1015 40 10000 7.2 360 16:57 18.12.2019
5896 Clouds 30 1015 40 10000 7.2 360 16:38 18.12.2019
5897 Clouds 30 1015 40 10000 7.2 360 16:20 18.12.2019
5898 Clear 29 1015 48 10000 7.2 360 15:55 18.12.2019
5899 Clear 29 1015 48 10000 7.2 360 15:37 18.12.2019
5900 Clear 29 1015 48 10000 7.2 360 15:19 18.12.2019
5901 Clear 27 1016 54 10000 6.2 360 14:42 18.12.2019
5902 Clear 27 1016 54 10000 6.2 360 14:42 18.12.2019
5903 Clear 27 1016 54 10000 6.2 360 14:22 18.12.2019
5904 Clear 25 1016 69 10000 9.3 360 13:57 18.12.2019
5905 Clear 24 1016 69 10000 9.3 360 13:38 18.12.2019
5906 Clear 24 1016 69 10000 9.3 360 13:20 18.12.2019
5907 Clear 22 1016 83 10000 8.7 20 12:58 18.12.2019
5908 Clear 22 1016 83 10000 8.7 20 12:38 18.12.2019
5909 Clear 22 1016 83 10000 8.7 20 12:20 18.12.2019
5910 Clear 20 1016 88 10000 7.2 30 11:56 18.12.2019
5911 Clear 19 1016 88 10000 7.2 30 11:38 18.12.2019
5912 Clear 18 1016 88 10000 7.2 30 11:19 18.12.2019
5913 Clouds 17 1015 93 10000 5.1 30 10:55 18.12.2019
5914 Clouds 17 1015 93 10000 5.1 30 10:37 18.12.2019
5915 Clouds 16 1015 93 10000 5.1 30 10:19 18.12.2019
5916 Clear 16 1015 87 10000 4.1 40 09:50 18.12.2019
5917 Clear 16 1015 87 10000 4.1 40 09:50 18.12.2019
5918 Clear 16 1015 87 10000 4.1 40 09:18 18.12.2019
5919 Clear 16 1015 82 10000 1.5 40 08:41 18.12.2019
5920 Clouds 16 1015 82 10000 1.5 40 08:22 18.12.2019
5921 Clouds 16 1015 77 10000 1.5 50 07:45 18.12.2019
5922 Clouds 15 1015 77 10000 1.5 50 07:24 18.12.2019
5923 Clouds 16 1015 72 10000 2.1 80 06:57 18.12.2019
5924 Clouds 16 1015 72 10000 2.1 80 06:28 18.12.2019
5925 Clouds 16 1015 72 10000 3.1 90 05:57 18.12.2019
5926 Clear 16 1015 72 10000 3.1 90 05:22 18.12.2019
5927 Clear 17 1016 63 10000 3.6 90 03:31 18.12.2019
5928 Clear 17 1016 59 10000 5.1 90 02:38 18.12.2019
5929 Clear 18 1016 59 10000 5.1 90 02:20 18.12.2019
5930 Clear 18 1015 63 10000 6.2 100 01:42 18.12.2019
5931 Clear 18 1015 63 10000 6.2 100 01:23 18.12.2019
5932 Clear 19 1015 63 10000 6.7 120 00:42 18.12.2019
5933 Clear 19 1015 63 10000 6.7 120 00:23 18.12.2019
5934 Clear 20 1014 64 10000 7.7 110 23:58 17.12.2019
5935 Clear 20 1014 64 10000 7.7 110 23:39 17.12.2019
5936 Clear 20 1014 64 10000 7.7 110 23:20 17.12.2019
5937 Clouds 21 1014 60 10000 8.7 120 22:56 17.12.2019
5938 Clouds 21 1014 60 10000 8.7 120 22:38 17.12.2019
5939 Clouds 21 1014 60 10000 8.7 120 22:19 17.12.2019
5940 Clouds 22 1014 64 10000 7.2 110 21:56 17.12.2019
5941 Clouds 22 1014 64 10000 7.2 110 21:38 17.12.2019
5942 Clouds 22 1014 64 10000 7.2 110 21:19 17.12.2019
5943 Clouds 22 1014 60 10000 6.7 130 20:57 17.12.2019
5944 Clouds 22 1014 60 10000 6.7 130 20:38 17.12.2019
5945 Clouds 22 1014 60 10000 6.7 130 20:18 17.12.2019
5946 Clouds 23 1014 60 10000 6.7 140 19:56 17.12.2019
5947 Clouds 23 1014 60 10000 6.7 140 19:38 17.12.2019
5948 Clouds 24 1014 60 10000 6.7 140 19:18 17.12.2019
5949 Clouds 24 1014 44 10000 6.2 170 18:54 17.12.2019
5950 Clouds 24 1014 44 10000 6.2 170 18:36 17.12.2019
5951 Clouds 24 1014 44 10000 6.2 170 18:18 17.12.2019
5952 Clouds 24 1014 44 10000 6.2 170 18:18 17.12.2019
5953 Clouds 24 1014 47 10000 6.2 170 17:42 17.12.2019
5954 Clouds 25 1014 47 10000 6.2 170 17:21 17.12.2019
5955 Clouds 25 1014 47 10000 5.7 160 16:57 17.12.2019
5956 Clouds 25 1014 47 10000 5.7 160 16:38 17.12.2019
5957 Clouds 25 1014 47 10000 5.7 160 16:19 17.12.2019
5958 Clear 26 1014 47 10000 4.1 180 15:58 17.12.2019
5959 Clear 26 1014 47 10000 4.1 180 15:37 17.12.2019
5960 Clear 26 1014 47 10000 4.1 180 15:19 17.12.2019
5961 Clouds 25 1014 64 10000 1.5 0 14:56 17.12.2019
5962 Clouds 25 1014 64 10000 1.5 0 14:37 17.12.2019
5963 Clouds 24 1014 64 10000 1.5 0 14:18 17.12.2019
5964 Clouds 24 1014 64 10000 1.5 0 14:18 17.12.2019
5965 Clouds 23 1014 78 10000 3.6 220 13:56 17.12.2019
5966 Clouds 23 1014 78 10000 3.6 220 13:38 17.12.2019
5967 Clouds 23 1014 78 10000 3.6 220 13:19 17.12.2019
5968 Clouds 21 1014 88 10000 1 0 12:55 17.12.2019
5969 Clouds 21 1014 88 10000 1 0 12:37 17.12.2019
5970 Clouds 21 1014 88 10000 1 0 12:18 17.12.2019
5971 Clouds 19 1013 93 10000 1.5 0 11:55 17.12.2019
5972 Clouds 19 1013 93 10000 1.5 0 11:36 17.12.2019
5973 Clouds 20 1013 93 10000 1.5 0 11:18 17.12.2019
5974 Clouds 20 1013 93 10000 1.5 0 11:18 17.12.2019
5975 Clear 19 1012 88 10000 2.6 30 10:55 17.12.2019
5976 Clear 18 1012 88 10000 2.6 30 10:36 17.12.2019
5977 Clear 17 1012 88 10000 2.6 30 10:18 17.12.2019
5978 Clear 16 1012 88 10000 2.1 30 09:42 17.12.2019
5979 Clear 16 1012 88 10000 2.1 30 09:21 17.12.2019
5980 Clouds 16 1011 88 10000 3.1 360 08:58 17.12.2019
5981 Clouds 16 1011 88 10000 3.1 360 08:39 17.12.2019
5982 Clouds 17 1011 88 10000 3.1 360 08:21 17.12.2019
5983 Thunderstorm 17 1012 88 10000 3.6 340 07:57 17.12.2019
5984 Thunderstorm 17 1012 88 10000 3.6 340 07:38 17.12.2019
5985 Thunderstorm 17 1012 88 10000 3.6 340 07:18 17.12.2019
5986 Clouds 17 1012 87 10000 3.1 330 06:36 17.12.2019
5987 Clouds 17 1011 82 10000 2.6 40 06:18 17.12.2019
5988 Clouds 17 1011 82 10000 2.6 40 05:38 17.12.2019
5989 Clouds 17 1012 88 10000 2.1 60 04:46 17.12.2019
5990 Clouds 18 1011 82 10000 2.1 60 03:31 17.12.2019
5991 Thunderstorm 19 1011 77 10000 3.1 120 01:58 17.12.2019
5992 Thunderstorm 19 1011 77 10000 3.1 120 01:21 17.12.2019
5993 Clouds 19 1010 72 10000 3.6 120 00:39 17.12.2019
5994 Clouds 20 1010 72 10000 3.6 120 00:21 17.12.2019
5995 Clouds 20 1010 73 10000 4.6 120 23:43 16.12.2019
5996 Clouds 21 1010 73 10000 4.6 120 23:19 16.12.2019
5997 Clouds 22 1009 56 10000 3.1 160 22:58 16.12.2019
5998 Clouds 22 1009 56 10000 3.1 160 22:38 16.12.2019
5999 Clouds 22 1009 56 10000 3.1 160 22:20 16.12.2019
6000 Clouds 24 1010 53 10000 4.1 180 21:56 16.12.2019
6001 Clouds 24 1010 53 10000 4.1 180 21:38 16.12.2019
6002 Clouds 23 1010 53 10000 4.1 180 21:20 16.12.2019
6003 Clouds 24 1010 41 10000 5.1 200 20:58 16.12.2019
6004 Clouds 24 1010 41 10000 5.1 200 20:39 16.12.2019
6005 Clouds 24 1010 41 10000 5.1 200 20:19 16.12.2019
6006 Clouds 24 1010 44 10000 5.1 240 19:56 16.12.2019
6007 Clouds 24 1010 44 10000 5.1 240 19:37 16.12.2019
6008 Clouds 24 1010 44 10000 5.1 240 19:19 16.12.2019
6009 Clouds 24 1011 50 10000 5.1 250 18:58 16.12.2019
6010 Clouds 24 1011 50 10000 5.1 250 18:58 16.12.2019
6011 Clouds 24 1011 50 10000 5.1 250 18:40 16.12.2019
6012 Clouds 25 1011 50 10000 5.1 250 18:20 16.12.2019
6013 Clouds 24 1011 57 10000 4.6 270 17:57 16.12.2019
6014 Clouds 24 1011 57 10000 4.6 270 17:57 16.12.2019
6015 Clouds 24 1011 57 10000 4.6 270 17:39 16.12.2019
6016 Clouds 24 1011 57 10000 4.6 270 17:21 16.12.2019
6017 Clouds 24 1011 60 10000 4.1 243 16:57 16.12.2019
6018 Clouds 23 1011 60 10000 4.1 243 16:38 16.12.2019
6019 Clouds 23 1011 60 10000 4.1 243 16:19 16.12.2019
6020 Clouds 23 1010 60 10000 3.6 240 15:58 16.12.2019
6021 Clouds 23 1010 60 10000 3.6 240 15:38 16.12.2019
6022 Clouds 23 1010 60 10000 3.6 240 15:20 16.12.2019
6023 Clouds 23 1010 68 10000 3.6 240 14:55 16.12.2019
6024 Clouds 22 1010 68 10000 3.6 240 14:37 16.12.2019
6025 Clouds 22 1010 68 10000 3.6 240 14:19 16.12.2019
6026 Clouds 22 1010 73 10000 3.6 220 13:56 16.12.2019
6027 Clouds 21 1010 73 10000 3.6 220 13:37 16.12.2019
6028 Clouds 21 1010 73 10000 3.6 220 13:19 16.12.2019
6029 Clouds 20 1010 82 10000 2.6 240 12:57 16.12.2019
6030 Clouds 20 1010 82 10000 2.6 240 12:57 16.12.2019
6031 Clouds 20 1010 82 10000 2.6 240 12:39 16.12.2019
6032 Clouds 20 1010 82 10000 2.6 240 12:18 16.12.2019
6033 Clouds 18 1010 88 10000 1 240 11:57 16.12.2019
6034 Clouds 18 1010 88 10000 1 240 11:39 16.12.2019
6035 Clouds 19 1010 88 10000 1 240 11:19 16.12.2019
6036 Clouds 16 1009 93 10000 3.98 213 10:56 16.12.2019
6037 Clouds 16 1009 93 10000 3.88 212 10:36 16.12.2019
6038 Clouds 16 1009 93 10000 3.88 212 10:18 16.12.2019
6039 Clouds 16 1007 87 10000 3.88 212 09:44 16.12.2019
6040 Clouds 16 1007 87 10000 3.88 212 09:44 16.12.2019
6041 Clouds 15 1007 87 10000 3.98 213 09:26 16.12.2019
6042 Clouds 16 1007 82 10000 3.98 213 08:41 16.12.2019
6043 Clouds 16 1007 82 10000 6.58 185 08:21 16.12.2019
6044 Clouds 17 1007 77 10000 2.6 150 07:57 16.12.2019
6045 Clouds 17 1007 77 10000 2.6 150 07:38 16.12.2019
6046 Clouds 17 1007 77 10000 2.6 150 07:19 16.12.2019
6047 Clouds 16 1007 82 10000 3.1 190 06:40 16.12.2019
6048 Clouds 16 1007 82 10000 3.1 190 06:22 16.12.2019
6049 Clouds 16 1007 82 10000 3.1 190 06:22 16.12.2019
6050 Clouds 17 1006 77 10000 3.6 170 05:44 16.12.2019
6051 Clouds 17 1006 77 10000 3.6 170 05:26 16.12.2019
6052 Clouds 18 1007 82 8000 6.7 180 03:41 16.12.2019
6053 Clouds 18 1005 88 10000 8.2 190 01:58 16.12.2019
6054 Clouds 18 1005 88 10000 8.2 190 01:39 16.12.2019
6055 Rain 18 1004 93 10000 7.7 150 00:41 16.12.2019
6056 Rain 18 1004 93 10000 7.7 150 00:23 16.12.2019
6057 Rain 18 1003 93 8000 8.2 170 23:58 15.12.2019
6058 Rain 18 1003 93 8000 8.2 170 23:38 15.12.2019
6059 Rain 18 1003 93 8000 8.2 170 23:19 15.12.2019
6060 Rain 19 1003 93 8000 4.1 200 22:55 15.12.2019
6061 Rain 19 1003 93 8000 4.1 200 22:37 15.12.2019
6062 Rain 19 1003 93 8000 4.1 200 22:18 15.12.2019
6063 Rain 19 1003 88 3000 2.1 250 21:55 15.12.2019
6064 Clouds 21 1003 64 10000 2.6 330 21:37 15.12.2019
6065 Clouds 21 1003 64 10000 2.6 330 21:37 15.12.2019
6066 Clouds 21 1003 64 10000 2.6 330 21:18 15.12.2019
6067 Rain 22 1004 64 4000 3.6 310 20:54 15.12.2019
6068 Rain 22 1004 64 10000 2.6 310 20:36 15.12.2019
6069 Rain 22 1004 64 10000 2.6 310 20:36 15.12.2019
6070 Rain 22 1004 64 10000 2.6 310 20:18 15.12.2019
6071 Clouds 23 1004 69 10000 2.6 340 19:54 15.12.2019
6072 Clouds 23 1004 69 10000 2.6 340 19:36 15.12.2019
6073 Clouds 22 1004 69 10000 2.6 340 19:18 15.12.2019
6074 Clouds 22 1004 78 10000 3.1 20 18:54 15.12.2019
6075 Clouds 22 1004 78 10000 3.1 20 18:36 15.12.2019
6076 Clouds 22 1004 78 10000 3.1 20 18:18 15.12.2019
6077 Clouds 23 1006 78 10000 5.1 350 17:55 15.12.2019
6078 Clouds 23 1006 78 10000 5.1 350 17:36 15.12.2019
6079 Clouds 23 1006 78 10000 5.1 350 17:18 15.12.2019
6080 Clouds 22 1006 78 10000 5.1 10 16:42 15.12.2019
6081 Clouds 22 1006 78 10000 5.1 10 16:22 15.12.2019
6082 Clouds 22 1007 77 10000 5.1 10 15:57 15.12.2019
6083 Clouds 21 1007 77 10000 5.1 10 15:39 15.12.2019
6084 Clouds 21 1007 77 10000 5.1 10 15:19 15.12.2019
6085 Rain 21 1008 82 10000 4.1 10 14:56 15.12.2019
6086 Rain 20 1008 82 10000 4.1 10 14:37 15.12.2019
6087 Rain 20 1008 82 10000 4.1 10 14:19 15.12.2019
6088 Rain 21 1009 83 10000 5.1 20 13:58 15.12.2019
6089 Rain 21 1009 83 10000 5.1 20 13:38 15.12.2019
6090 Rain 21 1009 83 10000 5.1 20 13:19 15.12.2019
6091 Drizzle 21 1008 82 10000 3.1 60 12:57 15.12.2019
6092 Drizzle 21 1008 82 10000 3.1 60 12:39 15.12.2019
6093 Drizzle 21 1008 82 10000 3.1 60 12:21 15.12.2019
6094 Clouds 21 1009 73 10000 1.5 70 11:58 15.12.2019
6095 Clouds 21 1009 73 10000 1.5 70 11:37 15.12.2019
6096 Clouds 21 1009 73 10000 1.5 70 11:19 15.12.2019
6097 Clouds 21 1009 73 10000 2.6 80 10:55 15.12.2019
6098 Clouds 21 1009 73 10000 2.6 80 10:37 15.12.2019
6099 Clouds 20 1009 73 10000 2.6 80 10:19 15.12.2019
6100 Rain 20 1008 73 10000 3.79 65 09:41 15.12.2019
6101 Rain 20 1008 73 10000 3.79 65 09:20 15.12.2019
6102 Rain 21 1010 73 10000 3.79 65 08:59 15.12.2019
6103 Rain 21 1010 73 10000 3.79 65 08:41 15.12.2019
6104 Clouds 21 1010 73 10000 5.3 356 08:22 15.12.2019
6105 Clouds 21 1010 73 10000 5.3 356 08:22 15.12.2019
6106 Clouds 21 1009 73 10000 1.5 60 07:56 15.12.2019
6107 Clouds 21 1009 73 10000 1.5 60 07:36 15.12.2019
6108 Clouds 21 1010 73 10000 2.6 330 06:56 15.12.2019
6109 Clouds 21 1010 73 10000 2.6 330 06:21 15.12.2019
6110 Clouds 22 1010 60 10000 4.1 30 05:37 15.12.2019
6111 Clouds 22 1010 60 10000 4.1 30 05:18 15.12.2019
6112 Clouds 23 1012 53 10000 1.5 340 03:56 15.12.2019
6113 Clouds 22 1011 53 10000 2.1 10 02:35 15.12.2019
6114 Clouds 24 1011 53 10000 1 0 01:55 15.12.2019
6115 Clouds 24 1011 53 10000 1 0 01:37 15.12.2019
6116 Clouds 23 1011 53 10000 1 0 01:18 15.12.2019
6117 Clouds 24 1011 64 10000 2.1 100 00:42 15.12.2019
6118 Clouds 24 1011 64 10000 2.1 100 00:23 15.12.2019
6119 Clouds 24 1011 50 10000 4.1 100 23:40 14.12.2019
6120 Clouds 25 1011 50 10000 4.1 100 23:21 14.12.2019
6121 Clouds 25 1012 47 10000 5.7 100 22:59 14.12.2019
6122 Clouds 25 1012 47 10000 5.7 100 22:40 14.12.2019
6123 Clouds 25 1012 47 10000 5.7 100 22:21 14.12.2019
6124 Clouds 26 1012 47 10000 6.2 130 21:56 14.12.2019
6125 Clouds 26 1012 47 10000 6.2 130 21:38 14.12.2019
6126 Clouds 26 1012 47 10000 6.2 130 21:19 14.12.2019
6127 Clouds 27 1012 28 10000 6.2 180 20:57 14.12.2019
6128 Clouds 27 1012 28 10000 6.2 180 20:39 14.12.2019
6129 Clear 27 1012 28 10000 6.2 180 20:19 14.12.2019
6130 Clear 29 1012 23 10000 5.7 20 19:57 14.12.2019
6131 Clear 29 1012 23 10000 5.7 20 19:37 14.12.2019
6132 Clear 30 1012 23 10000 5.7 20 19:19 14.12.2019
6133 Clear 30 1012 25 10000 5.1 30 18:56 14.12.2019
6134 Clear 29 1012 25 10000 5.1 30 18:37 14.12.2019
6135 Clear 29 1012 25 10000 5.1 30 18:19 14.12.2019
6136 Clear 29 1012 25 10000 5.1 30 18:19 14.12.2019
6137 Clear 29 1014 27 10000 6.7 10 17:43 14.12.2019
6138 Clear 29 1014 27 10000 6.7 10 17:24 14.12.2019
6139 Clear 29 1014 30 10000 6.2 10 16:58 14.12.2019
6140 Clear 29 1014 30 10000 6.2 10 16:38 14.12.2019
6141 Clear 29 1014 30 10000 6.2 10 16:38 14.12.2019
6142 Clear 29 1014 30 10000 6.2 10 16:38 14.12.2019
6143 Clear 29 1014 30 10000 6.2 10 16:18 14.12.2019
6144 Clear 27 1015 36 10000 6.2 10 15:43 14.12.2019
6145 Clear 27 1015 36 10000 6.2 10 15:22 14.12.2019
6146 Clear 25 1016 47 10000 8.2 20 14:59 14.12.2019
6147 Clear 25 1016 47 10000 8.2 20 14:38 14.12.2019
6148 Clouds 25 1016 47 10000 8.2 20 14:19 14.12.2019
6149 Clouds 23 1016 52 10000 7.2 20 13:55 14.12.2019
6150 Clouds 22 1016 52 10000 7.2 20 13:37 14.12.2019
6151 Clouds 22 1016 52 10000 7.2 20 13:18 14.12.2019
6152 Clouds 20 1016 55 10000 7.7 20 12:54 14.12.2019
6153 Clouds 20 1016 55 10000 7.7 20 12:36 14.12.2019
6154 Clouds 20 1016 55 10000 7.7 20 12:18 14.12.2019
6155 Clouds 17 1015 67 10000 7.2 30 11:54 14.12.2019
6156 Clouds 16 1015 67 10000 7.2 30 11:36 14.12.2019
6157 Clouds 17 1015 67 10000 7.2 30 11:18 14.12.2019
6158 Clouds 16 1015 67 10000 4.6 40 10:55 14.12.2019
6159 Clouds 14 1015 67 10000 4.6 40 10:36 14.12.2019
6160 Clouds 15 1015 67 10000 4.6 40 10:18 14.12.2019
6161 Clouds 14 1015 67 10000 3.1 30 09:40 14.12.2019
6162 Clouds 14 1015 67 10000 3.1 30 09:20 14.12.2019
6163 Clouds 14 1015 67 10000 2.6 30 08:44 14.12.2019
6164 Clouds 14 1015 67 10000 2.6 30 08:20 14.12.2019
6165 Clouds 15 1015 62 10000 2.6 30 07:57 14.12.2019
6166 Clouds 15 1015 62 10000 2.6 30 07:38 14.12.2019
6167 Clouds 15 1015 62 10000 2.6 30 07:19 14.12.2019
6168 Clouds 15 1015 62 10000 2.6 30 07:19 14.12.2019
6169 Clouds 16 1015 59 10000 3.6 40 06:39 14.12.2019
6170 Clouds 16 1015 59 10000 3.6 40 06:20 14.12.2019
6171 Clear 16 1015 55 10000 2.6 50 05:22 14.12.2019
6172 Clear 18 1015 45 10000 3.6 80 02:49 14.12.2019
6173 Clouds 19 1015 45 10000 3.6 80 02:22 14.12.2019
6174 Clouds 19 1015 49 10000 4.1 100 01:43 14.12.2019
6175 Clouds 20 1014 42 10000 4.1 120 00:54 14.12.2019
6176 Clouds 20 1014 42 10000 4.1 120 00:36 14.12.2019
6177 Clouds 20 1014 42 10000 4.1 120 00:18 14.12.2019
6178 Clouds 20 1014 37 10000 5.1 100 23:39 13.12.2019
6179 Clouds 20 1014 37 10000 5.1 100 23:19 13.12.2019
6180 Clouds 20 1014 32 10000 5.7 120 22:55 13.12.2019
6181 Clouds 21 1014 32 10000 5.7 120 22:36 13.12.2019
6182 Clouds 21 1014 32 10000 5.7 120 22:18 13.12.2019
6183 Clouds 21 1014 35 10000 4.6 130 21:40 13.12.2019
6184 Clouds 22 1014 35 10000 4.6 130 21:21 13.12.2019
6185 Clouds 22 1015 38 10000 5.7 170 20:57 13.12.2019
6186 Clouds 21 1014 55 0 4.92 141 20:38 13.12.2019
6187 Clouds 22 1015 38 10000 5.7 160 20:19 13.12.2019
6188 Clouds 22 1015 38 10000 5.7 160 19:56 13.12.2019
6189 Clouds 22 1015 38 10000 5.7 160 19:37 13.12.2019
6190 Clouds 22 1015 38 10000 5.7 160 19:18 13.12.2019
6191 Clouds 23 1016 31 10000 4.6 180 18:42 13.12.2019
6192 Clouds 23 1016 31 10000 4.6 180 18:20 13.12.2019
6193 Clouds 23 1016 31 10000 4.6 180 18:20 13.12.2019
6194 Clouds 22 1016 27 10000 2.1 330 17:59 13.12.2019
6195 Clouds 22 1016 27 10000 2.1 330 17:39 13.12.2019
6196 Clouds 22 1016 27 10000 2.1 330 17:18 13.12.2019
6197 Clouds 21 1017 35 10000 4.6 150 16:56 13.12.2019
6198 Clouds 21 1017 35 10000 4.6 150 16:38 13.12.2019
6199 Clouds 21 1017 35 10000 4.6 150 16:19 13.12.2019
6200 Clouds 20 1017 34 10000 2.6 130 15:42 13.12.2019
6201 Clouds 20 1017 34 10000 2.6 130 15:21 13.12.2019
6202 Clouds 19 1017 37 10000 3.6 140 14:57 13.12.2019
6203 Clouds 19 1017 37 10000 3.6 140 14:37 13.12.2019
6204 Clouds 19 1017 37 10000 3.6 140 14:19 13.12.2019
6205 Clouds 18 1017 45 10000 3.1 150 13:43 13.12.2019
6206 Clouds 18 1017 45 10000 3.1 150 13:24 13.12.2019
6207 Clouds 18 1017 45 10000 3.1 150 13:24 13.12.2019
6208 Clouds 18 1017 45 10000 3.1 190 12:57 13.12.2019
6209 Clouds 17 1017 45 10000 3.1 190 12:39 13.12.2019
6210 Clouds 17 1017 45 10000 3.1 190 12:18 13.12.2019
6211 Clouds 16 1017 51 10000 2.62 162 11:43 13.12.2019
6212 Clouds 16 1017 51 10000 2.62 162 11:25 13.12.2019
6213 Clouds 14 1016 54 10000 5.53 195 10:56 13.12.2019
6214 Clouds 14 1016 54 10000 5.53 195 10:38 13.12.2019
6215 Clouds 14 1016 54 10000 5.53 195 10:20 13.12.2019
6216 Clouds 14 1016 54 10000 2.6 210 09:42 13.12.2019
6217 Clouds 14 1016 54 10000 2.6 210 09:21 13.12.2019
6218 Clouds 14 1015 54 10000 3.1 200 08:45 13.12.2019
6219 Clouds 14 1015 54 10000 3.1 200 08:27 13.12.2019
6220 Clear 14 1015 47 10000 5.7 190 07:50 13.12.2019
6221 Clear 14 1015 47 10000 5.7 190 07:27 13.12.2019
6222 Clear 14 1016 47 10000 6.2 200 06:57 13.12.2019
6223 Clear 14 1016 47 10000 6.2 200 06:32 13.12.2019
6224 Clear 15 1015 48 10000 7.2 200 05:52 13.12.2019
6225 Clear 15 1015 48 10000 7.2 200 05:33 13.12.2019
6226 Clouds 16 1015 48 10000 7.7 210 04:54 13.12.2019
6227 Clouds 17 1015 45 10000 7.2 210 03:55 13.12.2019
6228 Clouds 18 1014 52 10000 7.2 200 02:35 13.12.2019
6229 Clouds 18 1013 48 10000 7.2 210 01:54 13.12.2019
6230 Clouds 19 1013 48 10000 7.2 210 01:27 13.12.2019
6231 Clouds 19 1012 55 10000 5.1 200 00:47 13.12.2019
6232 Clouds 20 1012 55 10000 5.1 200 00:26 13.12.2019
6233 Clouds 20 1011 40 10000 7.7 210 23:42 12.12.2019
6234 Clouds 21 1011 40 10000 7.7 210 23:24 12.12.2019
6235 Clouds 22 1011 35 10000 6.2 210 22:56 12.12.2019
6236 Clouds 22 1011 35 10000 6.2 210 22:38 12.12.2019
6237 Clouds 22 1011 35 10000 6.2 210 22:38 12.12.2019
6238 Clouds 22 1011 35 10000 6.2 210 22:20 12.12.2019
6239 Clouds 22 1010 37 10000 6.2 210 21:56 12.12.2019
6240 Clouds 23 1010 37 10000 6.2 210 21:37 12.12.2019
6241 Clouds 22 1010 37 10000 6.2 210 21:19 12.12.2019
6242 Clouds 23 1010 40 10000 7.7 210 20:58 12.12.2019
6243 Clouds 23 1010 40 10000 7.7 210 20:40 12.12.2019
6244 Clouds 23 1010 40 10000 7.7 210 20:21 12.12.2019
6245 Clouds 23 1009 43 10000 7.7 210 19:56 12.12.2019
6246 Clouds 23 1009 43 10000 7.7 210 19:37 12.12.2019
6247 Clouds 23 1009 43 10000 7.7 210 19:18 12.12.2019
6248 Clouds 23 1009 46 10000 10.3 210 18:55 12.12.2019
6249 Clouds 22 1009 46 10000 10.3 210 18:37 12.12.2019
6250 Clouds 22 1009 46 10000 10.3 210 18:19 12.12.2019
6251 Clouds 23 1008 56 10000 8.7 210 17:56 12.12.2019
6252 Clouds 23 1008 56 10000 8.7 210 17:38 12.12.2019
6253 Clouds 23 1008 56 10000 8.7 210 17:19 12.12.2019
6254 Clouds 22 1007 56 10000 8.2 240 16:54 12.12.2019
6255 Clouds 23 1007 56 10000 8.2 240 16:36 12.12.2019
6256 Clouds 23 1007 56 10000 8.2 240 16:18 12.12.2019
6257 Clouds 24 1006 53 10000 7.7 220 15:42 12.12.2019
6258 Clouds 24 1006 53 10000 7.7 220 15:20 12.12.2019
6259 Clouds 24 1006 53 10000 7.7 220 15:20 12.12.2019
6260 Clear 24 1006 49 10000 7.7 240 14:57 12.12.2019
6261 Clear 24 1006 49 10000 7.7 240 14:57 12.12.2019
6262 Clear 24 1006 47 10000 9.3 240 14:37 12.12.2019
6263 Clouds 24 1006 47 10000 9.3 240 14:19 12.12.2019
6264 Clouds 24 1004 41 10000 8.7 260 13:55 12.12.2019
6265 Clouds 24 1005 47 10000 7.7 260 13:37 12.12.2019
6266 Clouds 24 1005 47 10000 7.7 260 13:19 12.12.2019
6267 Clouds 24 1004 69 10000 9.3 270 12:55 12.12.2019
6268 Clouds 24 1004 69 10000 9.3 270 12:37 12.12.2019
6269 Clouds 23 1004 69 10000 9.3 270 12:18 12.12.2019
6270 Clouds 21 1003 77 10000 4.1 300 11:43 12.12.2019
6271 Clouds 20 1003 77 10000 4.1 300 11:22 12.12.2019
6272 Clouds 21 1003 88 10000 2.1 330 10:59 12.12.2019
6273 Clouds 20 1003 88 10000 2.1 330 10:41 12.12.2019
6274 Clouds 20 1003 88 10000 2.1 330 10:23 12.12.2019
6275 Clouds 21 1002 82 10000 2.6 340 09:58 12.12.2019
6276 Clouds 21 1002 82 10000 2.6 340 09:40 12.12.2019
6277 Clouds 21 1002 82 10000 2.6 340 09:21 12.12.2019
6278 Clouds 21 1001 82 10000 3.1 350 08:54 12.12.2019
6279 Clouds 21 1001 82 10000 3.1 350 08:36 12.12.2019
6280 Clouds 19 1001 82 10000 3.1 350 08:18 12.12.2019
6281 Clouds 19 1000 82 10000 7.7 20 07:41 12.12.2019
6282 Clouds 19 1000 82 10000 7.7 20 07:21 12.12.2019
6283 Clouds 20 1004 77 10000 4.6 20 06:43 12.12.2019
6284 Clouds 20 1004 77 10000 4.6 20 06:23 12.12.2019
6285 Thunderstorm 20 1004 77 10000 1.5 90 05:35 12.12.2019
6286 Thunderstorm 22 1006 73 8000 3.1 270 04:49 12.12.2019
6287 Thunderstorm 24 1004 65 10000 9.8 200 02:57 12.12.2019
6288 Thunderstorm 25 1004 65 10000 9.8 200 02:37 12.12.2019
6289 Thunderstorm 25 1004 65 10000 9.8 200 02:18 12.12.2019
6290 Thunderstorm 29 1002 54 10000 6.7 190 01:36 12.12.2019
6291 Clouds 27 1002 42 10000 2.1 110 01:18 12.12.2019
6292 Clouds 27 1002 42 10000 2.1 110 00:40 12.12.2019
6293 Clouds 29 1002 42 10000 2.1 110 00:18 12.12.2019
6294 Clouds 29 1001 31 10000 1 200 23:42 11.12.2019
6295 Clouds 29 1001 31 10000 1 200 23:20 11.12.2019
6296 Clouds 30 1002 29 10000 2.6 240 22:57 11.12.2019
6297 Clouds 30 1002 29 10000 2.6 240 22:57 11.12.2019
6298 Clouds 30 1002 29 10000 2.6 240 22:38 11.12.2019
6299 Clouds 31 1002 29 10000 2.6 240 22:19 11.12.2019
6300 Clouds 32 1002 26 10000 3.1 210 21:57 11.12.2019
6301 Clouds 32 1002 26 10000 3.1 210 21:37 11.12.2019
6302 Clouds 32 1002 26 10000 3.1 210 21:37 11.12.2019
6303 Clouds 32 1002 26 10000 3.1 210 21:19 11.12.2019
6304 Clouds 32 1002 26 10000 3.1 210 21:19 11.12.2019
6305 Clouds 32 1002 26 10000 4.1 230 20:56 11.12.2019
6306 Clouds 31 1002 26 10000 4.1 230 20:37 11.12.2019
6307 Clouds 31 1002 26 10000 4.1 230 20:19 11.12.2019
6308 Clouds 32 1003 30 10000 5.7 160 19:57 11.12.2019
6309 Clouds 31 1003 30 10000 5.7 160 19:38 11.12.2019
6310 Clouds 31 1003 30 10000 5.7 160 19:18 11.12.2019
6311 Rain 28 1003 75 0 1.79 93 18:40 11.12.2019
6312 Clouds 33 1004 30 10000 4.1 300 18:21 11.12.2019
6313 Clouds 31 1005 29 10000 3.6 130 17:57 11.12.2019
6314 Clouds 30 1005 29 10000 3.6 130 17:38 11.12.2019
6315 Clouds 32 1005 29 10000 3.6 130 17:18 11.12.2019
6316 Clouds 30 1006 35 10000 2.1 130 16:57 11.12.2019
6317 Clouds 30 1006 35 10000 2.1 130 16:38 11.12.2019
6318 Clouds 31 1006 35 10000 2.1 130 16:20 11.12.2019
6319 Clouds 31 1007 35 10000 3.1 230 15:58 11.12.2019
6320 Clouds 32 1007 35 10000 3.1 230 15:39 11.12.2019
6321 Clouds 32 1007 35 10000 3.1 230 15:20 11.12.2019
6322 Clouds 31 1007 43 10000 3.1 260 14:56 11.12.2019
6323 Clouds 31 1007 43 10000 3.1 260 14:37 11.12.2019
6324 Clouds 31 1007 43 10000 3.1 260 14:37 11.12.2019
6325 Rain 31 1007 43 10000 3.1 260 14:19 11.12.2019
6326 Rain 29 1008 48 10000 2.1 250 13:54 11.12.2019
6327 Rain 29 1008 48 10000 2.1 250 13:36 11.12.2019
6328 Clouds 29 1008 48 10000 2.1 250 13:18 11.12.2019
6329 Clouds 27 1008 54 10000 1 330 12:54 11.12.2019
6330 Clouds 27 1008 54 10000 1 330 12:36 11.12.2019
6331 Clouds 26 1008 54 10000 1 330 12:18 11.12.2019
6332 Clouds 23 1007 60 10000 1.5 350 11:55 11.12.2019
6333 Clouds 23 1007 60 10000 1.5 350 11:37 11.12.2019
6334 Clouds 23 1007 60 10000 1.5 350 11:18 11.12.2019
6335 Clouds 22 1007 64 10000 1.5 340 10:41 11.12.2019
6336 Clouds 21 1007 64 10000 1.5 340 10:23 11.12.2019
6337 Clouds 21 1006 60 10000 1.5 10 09:58 11.12.2019
6338 Clouds 20 1006 60 10000 1.5 10 09:38 11.12.2019
6339 Clouds 20 1006 60 10000 1.5 10 09:20 11.12.2019
6340 Clouds 22 1006 53 10000 2.1 30 08:56 11.12.2019
6341 Clouds 22 1006 53 10000 2.1 30 08:37 11.12.2019
6342 Clouds 21 1006 53 10000 2.1 30 08:18 11.12.2019
6343 Clouds 21 1007 49 10000 2.6 40 07:45 11.12.2019
6344 Clouds 21 1007 49 10000 2.6 40 07:25 11.12.2019
6345 Clouds 22 1007 46 10000 3.6 30 06:46 11.12.2019
6346 Clouds 22 1007 46 10000 3.6 30 06:25 11.12.2019
6347 Clouds 23 1007 44 10000 1 330 05:56 11.12.2019
6348 Clouds 23 1007 44 10000 1 330 05:37 11.12.2019
6349 Clouds 25 1008 36 10000 1.5 250 04:55 11.12.2019
6350 Clouds 25 1007 39 10000 5.66 26 03:41 11.12.2019
6351 Clouds 26 1007 41 10000 2.1 340 02:40 11.12.2019
6352 Clear 27 1007 39 10000 2.1 320 01:22 11.12.2019
6353 Clouds 32 1007 37 10000 1.5 310 00:45 11.12.2019
6354 Clouds 30 1007 37 10000 1.5 310 00:21 11.12.2019
6355 Clouds 31 1007 38 10000 5.1 270 23:46 10.12.2019
6356 Clouds 31 1007 38 10000 5.1 270 23:27 10.12.2019
6357 Clear 34 1007 31 10000 6.2 270 22:57 10.12.2019
6358 Clear 34 1007 31 10000 6.2 270 22:39 10.12.2019
6359 Clear 34 1007 31 10000 6.2 270 22:21 10.12.2019
6360 Clouds 35 1007 32 10000 7.7 270 21:55 10.12.2019
6361 Clouds 35 1007 32 10000 7.7 270 21:37 10.12.2019
6362 Clouds 34 1007 32 10000 7.7 270 21:18 10.12.2019
6363 Clouds 33 1007 33 10000 9.3 270 20:56 10.12.2019
6364 Clouds 33 1007 33 10000 9.3 270 20:37 10.12.2019
6365 Clouds 33 1007 33 10000 9.3 270 20:18 10.12.2019
6366 Clouds 33 1008 33 10000 9.3 270 19:54 10.12.2019
6367 Clouds 33 1008 33 10000 9.3 270 19:36 10.12.2019
6368 Clouds 33 1008 33 10000 9.3 270 19:36 10.12.2019
6369 Clouds 34 1008 33 10000 9.3 270 19:18 10.12.2019
6370 Clouds 34 1009 31 10000 10.3 270 18:39 10.12.2019
6371 Clouds 34 1009 31 10000 10.3 270 18:20 10.12.2019
6372 Clouds 33 1009 32 10000 8.2 260 17:57 10.12.2019
6373 Clouds 33 1009 32 10000 8.2 260 17:39 10.12.2019
6374 Clouds 33 1009 32 10000 8.2 260 17:20 10.12.2019
6375 Clouds 32 1010 33 10000 10.3 270 16:43 10.12.2019
6376 Clouds 32 1010 33 10000 10.3 270 16:21 10.12.2019
6377 Clouds 32 1010 33 10000 10.3 270 16:21 10.12.2019
6378 Clear 32 1010 33 10000 10.3 270 15:59 10.12.2019
6379 Clear 32 1010 33 10000 10.3 270 15:37 10.12.2019
6380 Clear 32 1010 33 10000 10.3 270 15:18 10.12.2019
6381 Clear 31 1010 35 10000 8.7 270 14:56 10.12.2019
6382 Clear 31 1010 35 10000 8.7 270 14:37 10.12.2019
6383 Clear 31 1010 35 10000 8.7 270 14:37 10.12.2019
6384 Clear 31 1010 35 10000 8.7 270 14:19 10.12.2019
6385 Clear 30 1010 45 10000 5.1 300 13:56 10.12.2019
6386 Clear 30 1010 45 10000 5.1 300 13:38 10.12.2019
6387 Clear 29 1010 45 10000 5.1 300 13:19 10.12.2019
6388 Clear 27 1010 54 10000 6.2 320 12:45 10.12.2019
6389 Clear 27 1010 54 10000 6.2 320 12:45 10.12.2019
6390 Clear 27 1010 54 10000 6.2 320 12:25 10.12.2019
6391 Clear 23 1009 68 10000 6.2 350 11:45 10.12.2019
6392 Clear 22 1009 68 10000 6.2 350 11:25 10.12.2019
6393 Clear 21 1009 64 10000 4.6 340 10:57 10.12.2019
6394 Clear 21 1009 64 10000 4.6 340 10:39 10.12.2019
6395 Clear 21 1009 64 10000 4.6 340 10:39 10.12.2019
6396 Clear 20 1009 64 10000 4.6 340 10:21 10.12.2019
6397 Clear 19 1008 64 10000 6.7 360 09:56 10.12.2019
6398 Clear 19 1008 64 10000 6.7 360 09:38 10.12.2019
6399 Clear 19 1008 64 10000 6.7 360 09:38 10.12.2019
6400 Clear 19 1008 64 10000 6.7 360 09:20 10.12.2019
6401 Clear 20 1008 60 10000 3.6 20 08:57 10.12.2019
6402 Clear 20 1008 60 10000 3.6 20 08:57 10.12.2019
6403 Clear 20 1008 60 10000 3.6 20 08:38 10.12.2019
6404 Clear 20 1008 60 10000 3.6 20 08:19 10.12.2019
6405 Clear 20 1008 56 10000 5.7 20 07:44 10.12.2019
6406 Clear 21 1008 56 10000 5.7 20 07:26 10.12.2019
6407 Clear 21 1008 60 10000 5.1 20 06:49 10.12.2019
6408 Clear 22 1008 60 10000 5.1 20 06:24 10.12.2019
6409 Clear 22 1009 60 10000 5.7 20 05:55 10.12.2019
6410 Clear 23 1009 53 10000 6.2 20 04:58 10.12.2019
6411 Clear 24 1009 53 10000 4.1 30 03:47 10.12.2019
6412 Clear 24 1009 53 10000 1.5 30 02:48 10.12.2019
6413 Clear 24 1009 53 10000 1.5 30 02:48 10.12.2019
6414 Clear 23 1008 57 10000 6.94 69 01:51 10.12.2019
6415 Clear 23 1008 57 10000 7.41 63 01:26 10.12.2019
6416 Clear 23 1008 57 10000 7.41 63 01:26 10.12.2019
6417 Clear 24 1008 53 10000 2.6 90 00:49 10.12.2019
6418 Clear 26 1008 53 10000 2.6 90 00:24 10.12.2019
6419 Clouds 26 1008 48 10000 3.1 90 23:45 09.12.2019
6420 Clouds 26 1008 48 10000 3.1 90 23:24 09.12.2019
6421 Clouds 27 1008 33 10000 2.6 280 22:59 09.12.2019
6422 Clouds 27 1008 33 10000 2.6 280 22:40 09.12.2019
6423 Clouds 27 1008 33 10000 2.6 280 22:21 09.12.2019
6424 Clouds 27 1009 38 10000 4.1 270 21:58 09.12.2019
6425 Clouds 27 1009 38 10000 4.1 270 21:39 09.12.2019
6426 Clouds 27 1009 38 10000 4.1 270 21:19 09.12.2019
6427 Clouds 27 1009 40 10000 3.6 250 20:57 09.12.2019
6428 Clouds 27 1009 40 10000 3.6 250 20:39 09.12.2019
6429 Clouds 27 1009 40 10000 3.6 250 20:20 09.12.2019
6430 Clouds 27 1010 43 10000 3.6 230 19:57 09.12.2019
6431 Clouds 27 1010 43 10000 3.6 230 19:39 09.12.2019
6432 Clouds 27 1010 43 10000 3.6 230 19:20 09.12.2019
6433 Clouds 27 1010 43 10000 3.6 230 19:20 09.12.2019
6434 Clouds 27 1010 43 10000 3.6 230 19:20 09.12.2019
6435 Clouds 27 1011 35 10000 3.1 230 18:59 09.12.2019
6436 Clouds 27 1011 35 10000 3.1 230 18:40 09.12.2019
6437 Clouds 27 1011 35 10000 3.1 230 18:20 09.12.2019
6438 Clear 26 1011 42 10000 6.2 190 17:59 09.12.2019
6439 Clear 26 1011 42 10000 6.2 190 17:59 09.12.2019
6440 Clear 29 1011 42 10000 6.2 190 17:41 09.12.2019
6441 Clear 28 1011 42 10000 6.2 190 17:21 09.12.2019
6442 Clear 29 1011 45 10000 3.6 290 16:57 09.12.2019
6443 -273 0 0 0 0 0 16:39 09.12.2019
6444 Clear 29 1011 45 10000 3.6 290 16:20 09.12.2019
6445 Clear 28 1012 45 10000 4.6 280 15:56 09.12.2019
6446 Clear 29 1012 45 10000 4.6 280 15:38 09.12.2019
6447 Clear 28 1012 45 10000 4.6 280 15:19 09.12.2019
6448 Clear 27 1012 51 10000 3.6 260 14:59 09.12.2019
6449 Clear 27 1012 51 10000 3.6 260 14:40 09.12.2019
6450 Clear 27 1012 51 10000 3.6 260 14:18 09.12.2019
6451 Clouds 26 1012 47 10000 3.1 280 13:55 09.12.2019
6452 Clouds 26 1012 47 10000 3.1 280 13:36 09.12.2019
6453 Clouds 25 1012 47 10000 3.1 280 13:18 09.12.2019
6454 Clouds 24 1012 69 10000 1 0 12:54 09.12.2019
6455 Clouds 23 1012 69 10000 1 0 12:36 09.12.2019
6456 Clouds 23 1012 69 10000 1 0 12:18 09.12.2019
6457 Clear 21 1012 78 10000 1 290 11:40 09.12.2019
6458 Clear 21 1012 78 10000 1 290 11:22 09.12.2019
6459 Clear 18 1011 72 10000 2.11 249 10:59 09.12.2019
6460 Clear 19 1011 72 10000 2.11 249 10:39 09.12.2019
6461 Clear 18 1011 72 10000 2.11 249 10:19 09.12.2019
6462 Clear 17 1011 72 10000 2.11 249 09:45 09.12.2019
6463 Clear 17 1011 72 10000 2.11 249 09:25 09.12.2019
6464 Clear 19 1011 68 10000 2.11 249 08:57 09.12.2019
6465 Clear 19 1011 68 10000 2.11 249 08:39 09.12.2019
6466 Clear 19 1011 68 10000 3.83 300 08:21 09.12.2019
6467 Clear 18 1010 63 10000 3.83 300 07:52 09.12.2019
6468 Clear 17 1010 63 10000 3.83 300 07:33 09.12.2019
6469 Clear 18 1009 59 10000 3.83 300 06:58 09.12.2019
6470 Clear 17 1009 59 10000 3.83 300 06:32 09.12.2019
6471 Clear 19 1010 49 10000 1.5 340 05:48 09.12.2019
6472 Clear 20 1010 49 10000 1.5 340 05:24 09.12.2019
6473 Rain 21 1009 40 10000 3.1 300 04:28 09.12.2019
6474 Rain 24 1011 47 10000 3.6 190 02:35 09.12.2019
6475 Thunderstorm 25 1010 50 10000 6.7 230 01:47 09.12.2019
6476 Thunderstorm 24 1010 50 10000 6.7 230 01:23 09.12.2019
6477 Clouds 25 1008 38 10000 2.1 320 00:34 09.12.2019
6478 Clouds 27 1008 39 10000 4.1 270 23:58 08.12.2019
6479 Clouds 28 1008 39 10000 4.1 270 23:37 08.12.2019
6480 Clear 28 1008 39 10000 4.1 270 23:19 08.12.2019
6481 Clear 28 1007 37 10000 6.2 280 22:56 08.12.2019
6482 Clear 29 1007 37 10000 6.2 280 22:38 08.12.2019
6483 Clear 28 1007 37 10000 6.2 280 22:18 08.12.2019
6484 Clear 29 1008 35 10000 6.2 280 21:57 08.12.2019
6485 Clear 30 1008 35 10000 6.2 280 21:38 08.12.2019
6486 Clear 30 1008 35 10000 6.2 280 21:19 08.12.2019
6487 Clear 29 1009 37 10000 8.2 260 20:56 08.12.2019
6488 Clear 29 1009 37 10000 8.2 260 20:37 08.12.2019
6489 Clear 29 1009 37 10000 8.2 260 20:19 08.12.2019
6490 Clouds 29 1009 35 10000 10.3 270 19:55 08.12.2019
6491 Clouds 29 1009 35 10000 10.3 270 19:37 08.12.2019
6492 Clouds 29 1009 35 10000 10.3 270 19:19 08.12.2019
6493 Clear 29 1010 28 10000 9.3 260 18:55 08.12.2019
6494 Clear 30 1010 28 10000 9.3 260 18:36 08.12.2019
6495 Clear 30 1010 28 10000 9.3 260 18:36 08.12.2019
6496 Clear 30 1010 28 10000 9.3 260 18:18 08.12.2019
6497 Clear 30 1010 27 10000 8.2 270 17:55 08.12.2019
6498 Clear 30 1010 27 10000 8.2 270 17:37 08.12.2019
6499 Clear 29 1010 27 10000 8.2 270 17:19 08.12.2019
6500 Clear 29 1010 28 10000 6.2 280 16:55 08.12.2019
6501 Clear 29 1010 28 10000 6.2 280 16:37 08.12.2019
6502 Clear 29 1010 28 10000 6.2 280 16:18 08.12.2019
6503 Clear 29 1011 32 10000 7.7 300 15:38 08.12.2019
6504 Clear 29 1011 32 10000 7.7 300 15:19 08.12.2019
6505 Clear 29 1011 32 10000 7.7 300 15:19 08.12.2019
6506 Clear 27 1011 36 10000 5.1 340 14:58 08.12.2019
6507 Clear 27 1011 36 10000 5.1 340 14:39 08.12.2019
6508 Clear 27 1011 36 10000 5.1 340 14:39 08.12.2019
6509 Clear 26 1011 36 10000 5.1 340 14:21 08.12.2019
6510 Clear 23 1012 46 10000 5.1 350 13:56 08.12.2019
6511 Clear 23 1012 46 10000 5.1 350 13:56 08.12.2019
6512 Clear 23 1012 46 10000 5.1 350 13:38 08.12.2019
6513 Clear 20 1012 46 10000 5.1 350 13:19 08.12.2019
6514 Clear 19 1012 63 10000 3.1 10 12:54 08.12.2019
6515 Clear 19 1012 63 10000 3.1 10 12:36 08.12.2019
6516 Clear 19 1012 63 10000 3.1 10 12:18 08.12.2019
6517 Clear 15 1012 77 10000 2.6 10 11:38 08.12.2019
6518 Clear 16 1012 77 10000 2.6 10 11:19 08.12.2019
6519 Clear 15 1012 81 10000 4.1 10 10:58 08.12.2019
6520 Clear 14 1012 81 10000 4.1 10 10:38 08.12.2019
6521 Clear 13 1012 81 10000 4.1 10 10:19 08.12.2019
6522 Clear 12 1011 81 10000 4.1 30 09:56 08.12.2019
6523 Clear 12 1011 81 10000 4.1 30 09:37 08.12.2019
6524 Clear 12 1011 81 10000 4.1 30 09:19 08.12.2019
6525 Clear 12 1011 81 10000 4.1 30 09:19 08.12.2019
6526 Clear 13 1012 76 10000 3.6 10 08:57 08.12.2019
6527 Clear 13 1012 76 10000 3.6 10 08:57 08.12.2019
6528 Clear 13 1012 76 10000 3.6 10 08:57 08.12.2019
6529 Clear 13 1012 76 10000 3.6 10 08:36 08.12.2019
6530 Clouds 13 1012 76 10000 3.6 10 08:18 08.12.2019
6531 Clouds 13 1012 76 10000 3.6 20 07:42 08.12.2019
6532 Clouds 13 1012 76 10000 3.6 20 07:19 08.12.2019
6533 Clouds 12 1013 76 10000 2.6 10 06:47 08.12.2019
6534 Clouds 11 1013 76 10000 2.6 10 06:22 08.12.2019
6535 Clouds 12 1013 71 10000 3.1 30 05:43 08.12.2019
6536 Clouds 12 1013 71 10000 1 0 04:59 08.12.2019
6537 Clouds 14 1013 67 10000 1.5 30 03:49 08.12.2019
6538 Clouds 14 1013 67 10000 1.5 30 03:22 08.12.2019
6539 Clouds 14 1014 58 10000 1 0 02:38 08.12.2019
6540 Clouds 15 1013 51 10000 0.5 0 01:54 08.12.2019
6541 Clear 15 1013 51 10000 0.5 0 01:19 08.12.2019
6542 Clear 18 1014 48 10000 1 0 00:40 08.12.2019
6543 Clear 18 1014 48 10000 1 0 00:20 08.12.2019
6544 Clear 18 1014 45 10000 3.6 150 23:40 07.12.2019
6545 Clear 19 1014 45 10000 3.6 150 23:21 07.12.2019
6546 Clear 19 1014 48 10000 4.1 170 22:57 07.12.2019
6547 Clear 19 1014 48 10000 4.1 170 22:39 07.12.2019
6548 Clear 20 1014 48 10000 4.1 170 22:21 07.12.2019
6549 Clear 20 1014 48 10000 4.6 170 21:56 07.12.2019
6550 Clear 19 1014 48 10000 4.6 170 21:38 07.12.2019
6551 Clear 19 1014 48 10000 4.6 170 21:19 07.12.2019
6552 Clear 20 1014 49 10000 4.6 190 20:59 07.12.2019
6553 Clear 20 1014 49 10000 4.6 190 20:36 07.12.2019
6554 Clear 20 1014 49 10000 4.6 190 20:18 07.12.2019
6555 Clear 20 1015 49 10000 4.1 210 19:56 07.12.2019
6556 Clear 20 1015 49 10000 4.1 210 19:38 07.12.2019
6557 Clear 20 1015 49 10000 4.1 210 19:20 07.12.2019
6558 Clear 20 1015 49 10000 4.6 190 18:44 07.12.2019
6559 Clear 20 1015 49 10000 4.6 190 18:19 07.12.2019
6560 Clear 21 1015 40 10000 3.6 250 17:58 07.12.2019
6561 Clear 21 1015 40 10000 3.6 250 17:40 07.12.2019
6562 Clear 21 1015 40 10000 3.6 250 17:21 07.12.2019
6563 Clear 20 1016 43 10000 3.6 250 16:56 07.12.2019
6564 Clear 21 1016 43 10000 3.6 250 16:38 07.12.2019
6565 Clear 20 1016 43 10000 3.6 250 16:20 07.12.2019
6566 Clear 20 1016 45 10000 3.1 250 15:56 07.12.2019
6567 Clear 20 1016 45 10000 3.1 250 15:38 07.12.2019
6568 Clear 19 1016 45 10000 3.1 250 15:18 07.12.2019
6569 Clouds 19 1016 52 10000 4.1 230 14:42 07.12.2019
6570 Clouds 19 1016 52 10000 4.1 230 14:19 07.12.2019
6571 Clouds 18 1016 52 10000 4.1 240 13:55 07.12.2019
6572 Clouds 18 1016 52 10000 4.1 240 13:37 07.12.2019
6573 Clouds 18 1016 52 10000 4.1 240 13:18 07.12.2019
6574 Clouds 17 1016 63 10000 5.1 230 12:41 07.12.2019
6575 Clouds 17 1016 63 10000 5.1 230 12:22 07.12.2019
6576 Clouds 15 1015 82 10000 2.1 250 11:58 07.12.2019
6577 Clouds 15 1015 82 10000 2.1 250 11:40 07.12.2019
6578 Clouds 15 1015 82 10000 2.1 250 11:21 07.12.2019
6579 Clouds 14 1015 81 10000 5.43 214 10:38 07.12.2019
6580 Clouds 14 1015 81 10000 5.43 214 10:20 07.12.2019
6581 Clouds 13 1014 76 10000 5.43 214 09:58 07.12.2019
6582 Clouds 12 1014 76 10000 5.43 214 09:37 07.12.2019
6583 Clouds 12 1014 76 10000 5.43 214 09:18 07.12.2019
6584 Clouds 14 1014 67 10000 1.5 240 08:41 07.12.2019
6585 Clouds 13 1014 67 10000 1.5 240 08:21 07.12.2019
6586 Clouds 14 1014 67 10000 2.6 210 07:46 07.12.2019
6587 Clouds 14 1014 67 10000 2.6 210 07:26 07.12.2019
6588 Clouds 14 1014 72 10000 3.6 190 06:50 07.12.2019
6589 Clouds 14 1014 72 10000 3.6 190 06:25 07.12.2019
6590 Clouds 14 1014 72 10000 2.1 170 05:34 07.12.2019
6591 Clouds 15 1015 72 10000 3.6 160 04:19 07.12.2019
6592 Clouds 16 1014 72 10000 3.6 160 03:44 07.12.2019
6593 Clouds 16 1014 72 10000 3.6 160 02:21 07.12.2019
6594 Clouds 17 1014 67 10000 4.6 160 01:35 07.12.2019
6595 Clear 18 1013 59 10000 4.1 160 00:55 07.12.2019
6596 Clear 18 1013 59 10000 4.1 160 00:20 07.12.2019
6597 Clear 19 1012 60 10000 6.7 150 23:56 06.12.2019
6598 Clear 19 1012 60 10000 6.7 150 23:38 06.12.2019
6599 Clear 20 1012 60 10000 6.7 150 23:18 06.12.2019
6600 Clear 21 1011 46 10000 5.7 170 22:39 06.12.2019
6601 Clear 22 1011 46 10000 5.7 170 22:20 06.12.2019
6602 Clear 23 1011 33 10000 5.7 170 21:58 06.12.2019
6603 Clear 23 1011 33 10000 5.7 170 21:39 06.12.2019
6604 Clear 23 1011 33 10000 5.7 170 21:20 06.12.2019
6605 Clear 23 1011 25 10000 5.1 200 20:43 06.12.2019
6606 Clear 24 1011 25 10000 5.1 200 20:25 06.12.2019
6607 Clouds 23 1011 38 10000 4.1 200 19:59 06.12.2019
6608 Clouds 23 1011 38 10000 4.1 200 19:40 06.12.2019
6609 Clouds 24 1011 38 10000 4.1 200 19:22 06.12.2019
6610 Clouds 24 1011 31 10000 6.2 190 18:57 06.12.2019
6611 Clouds 25 1011 31 10000 6.2 190 18:39 06.12.2019
6612 Clouds 24 1011 31 10000 6.2 190 18:20 06.12.2019
6613 Clouds 25 1010 33 10000 8.2 180 17:56 06.12.2019
6614 Clouds 25 1010 33 10000 8.2 180 17:56 06.12.2019
6615 Clouds 24 1010 33 10000 8.2 180 17:38 06.12.2019
6616 Clear 25 1010 33 10000 8.2 180 17:19 06.12.2019
6617 Clear 25 1010 33 10000 8.2 180 17:19 06.12.2019
6618 Clear 23 1010 41 10000 7.2 190 16:55 06.12.2019
6619 Clear 24 1010 41 10000 7.2 190 16:37 06.12.2019
6620 Clear 24 1010 41 10000 7.2 190 16:18 06.12.2019
6621 Clear 23 1010 46 10000 7.7 220 15:41 06.12.2019
6622 Clear 23 1010 46 10000 7.7 220 15:19 06.12.2019
6623 Clear 23 1010 46 10000 7.7 220 15:19 06.12.2019
6624 Clear 23 1010 46 10000 8.2 250 14:57 06.12.2019
6625 Clear 23 1010 46 10000 8.2 250 14:39 06.12.2019
6626 Clouds 23 1010 46 10000 8.2 250 14:19 06.12.2019
6627 Clouds 22 1009 60 10000 10.3 260 13:44 06.12.2019
6628 Clouds 22 1009 60 10000 10.3 260 13:26 06.12.2019
6629 Clouds 20 1008 40 10000 9.3 300 12:43 06.12.2019
6630 Clouds 19 1009 48 10000 8.2 310 12:23 06.12.2019
6631 Clouds 19 1009 48 10000 8.2 310 12:23 06.12.2019
6632 Clouds 17 1008 59 10000 6.7 340 11:58 06.12.2019
6633 Clouds 17 1008 59 10000 6.7 340 11:40 06.12.2019
6634 Clouds 16 1008 59 10000 6.7 340 11:22 06.12.2019
6635 Clouds 15 1008 62 10000 4.6 330 10:44 06.12.2019
6636 Clouds 14 1008 62 10000 4.6 330 10:22 06.12.2019
6637 Clouds 13 1007 58 10000 5.1 340 09:59 06.12.2019
6638 Clouds 13 1007 58 10000 5.1 340 09:39 06.12.2019
6639 Clouds 14 1007 58 10000 5.1 340 09:20 06.12.2019
6640 Clouds 13 1007 71 10000 3.6 350 08:57 06.12.2019
6641 Clouds 13 1007 71 10000 3.6 350 08:38 06.12.2019
6642 Clouds 13 1007 71 10000 3.6 350 08:38 06.12.2019
6643 Clear 13 1007 71 10000 3.6 350 08:20 06.12.2019
6644 Clear 12 1007 66 10000 2.1 360 07:37 06.12.2019
6645 Clear 12 1007 66 10000 2.1 360 07:19 06.12.2019
6646 Clear 12 1008 71 10000 1.5 360 06:30 06.12.2019
6647 Clear 13 1008 71 10000 2.6 20 05:54 06.12.2019
6648 Clear 13 1008 71 10000 2.6 20 05:35 06.12.2019
6649 Clear 14 1011 71 10000 1.5 20 02:19 06.12.2019
6650 Clear 15 1010 63 10000 3.14 329 01:43 06.12.2019
6651 Clouds 18 1010 59 10000 2.48 33 00:48 06.12.2019
6652 Clouds 17 1010 59 10000 2.48 33 00:22 06.12.2019
6653 Clouds 18 1010 52 10000 3.1 280 23:50 05.12.2019
6654 Clouds 19 1010 52 10000 3.1 280 23:20 05.12.2019
6655 Clouds 19 1010 52 10000 2.1 270 22:58 05.12.2019
6656 Clouds 19 1010 52 10000 2.1 270 22:38 05.12.2019
6657 Clouds 19 1010 52 10000 2.1 270 22:18 05.12.2019
6658 Clouds 19 1011 49 10000 3.6 250 21:55 05.12.2019
6659 Clouds 19 1011 49 10000 3.6 250 21:37 05.12.2019
6660 Clouds 19 1011 49 10000 3.6 250 21:18 05.12.2019
6661 Clouds 19 1011 52 10000 4.6 211 20:40 05.12.2019
6662 Clouds 19 1011 52 10000 4.6 211 20:21 05.12.2019
6663 Clouds 18 1012 55 10000 4.6 240 19:59 05.12.2019
6664 Clouds 18 1012 55 10000 4.6 240 19:40 05.12.2019
6665 Clouds 18 1012 55 10000 4.6 240 19:21 05.12.2019
6666 Clouds 18 1012 59 10000 5.7 240 18:57 05.12.2019
6667 Clouds 17 1012 59 10000 5.7 240 18:38 05.12.2019
6668 Clouds 18 1012 59 10000 5.7 240 18:20 05.12.2019
6669 Clouds 18 1012 59 10000 5.1 240 17:40 05.12.2019
6670